Index of /FreeBSD-Archive/ports/distfiles/

File Name  ↓ File Size  ↓ Date  ↓ 
Parent directory/--
1_4/-08-Nov-2010 14:28
AFNI-2005.12.30.0934/-08-Nov-2010 14:28
AFNI-2005.12.30.0934.2/-08-Nov-2010 14:28
AFNI-2006.03.21.1314/-08-Nov-2010 14:28
AFNI-2006.06.30.1332/-08-Nov-2010 14:28
AFNI-2007.04.18.1830/-08-Nov-2010 14:28
AFNI-2007.06.15.1339/-08-Nov-2010 14:28
AFNI-2008.01.02.1043/-08-Nov-2010 14:28
AbiWord/-08-Nov-2010 14:28
Acrobat5/-08-Nov-2010 14:28
CACHEBOY_1.0/-08-Nov-2010 14:31
CACHEBOY_1.2/-08-Nov-2010 14:31
CACHEBOY_1.3.3/-08-Nov-2010 14:31
CACHEBOY_1.4/-08-Nov-2010 14:31
CACHEBOY_1.4.1/-08-Nov-2010 14:31
CACHEBOY_1.5.1/-08-Nov-2010 14:31
CACHEBOY_1.5.2/-08-Nov-2010 14:31
CACHEBOY_1.5.PRE1/-08-Nov-2010 14:31
CACHEBOY_1.5.PRE4/-08-Nov-2010 14:31
CJK-LyX/-08-Nov-2010 14:31
CJKUnifonts/-08-Nov-2010 14:31
FlightGear-aircrafts/-08-Nov-2010 14:38
KDE/-08-Nov-2010 15:09
NX/-08-Nov-2010 15:14
OpenFonts/-08-Nov-2010 15:17
PEAR/-08-Nov-2010 15:18
PECL/-08-Nov-2010 15:18
RenderPark/-08-Nov-2010 15:22
TenDRA/-08-Nov-2010 15:25
VietUnicode/-08-Nov-2010 15:27
abills/-08-Nov-2010 15:32
acroread/-08-Nov-2010 15:32
adobe/-08-Nov-2010 15:32
afbinit/-08-Nov-2010 15:33
afterstep/-08-Nov-2010 15:33
alephone/-08-Nov-2010 15:33
alpine-1.00/-08-Nov-2010 15:33
alpine-1.10/-08-Nov-2010 15:33
amaya/-08-Nov-2010 15:33
anthy/-08-Nov-2010 15:34
aolserver/-08-Nov-2010 15:34
apache/-08-Nov-2010 15:34
apache2/-08-Nov-2010 15:34
apache20/-08-Nov-2010 15:34
apache21/-08-Nov-2010 15:34
apache22/-08-Nov-2010 15:34
apsfilter/-08-Nov-2010 15:34
argouml/-08-Nov-2010 15:35
arpack/-08-Nov-2010 15:35
arpack++-1.2/-08-Nov-2010 15:35
asc/-08-Nov-2010 15:35
astrolog/-08-Nov-2010 15:37
bash/-08-Nov-2010 15:38
bdb/-08-Nov-2010 15:38
bind-8.3.7/-08-Nov-2010 15:38
bind-8.4.6/-08-Nov-2010 15:38
bind-8.4.7/-08-Nov-2010 15:38
bjfilter/-08-Nov-2010 15:39
blacs/-08-Nov-2010 15:39
blender/-08-Nov-2010 15:39
bouml-2.14.3/-08-Nov-2010 15:40
bouml-2.15.4/-08-Nov-2010 15:40
bouml-2.16_1/-08-Nov-2010 15:40
bouml-2.17.1_0/-08-Nov-2010 15:40
bouml-2.2.2/-08-Nov-2010 15:40
bouml-2.21.5_1/-08-Nov-2010 15:40
bouml-2.24_0/-08-Nov-2010 15:40
bouml-2.25_0/-08-Nov-2010 15:40
bouml-2.30_0/-08-Nov-2010 15:40
bouml-2.5.2/-08-Nov-2010 15:40
bouml-2.7.4/-08-Nov-2010 15:40
bouml-2.8/-08-Nov-2010 15:40
bouml-2.9.3/-08-Nov-2010 15:40
brs/-08-Nov-2010 15:40
bugmenot-0.6.2/-08-Nov-2010 15:40
bugmenot-0.8_1/-08-Nov-2010 15:40
bugmenot-1.3_1/-08-Nov-2010 15:40
bugmenot-1.3_2/-08-Nov-2010 15:40
c-news/-08-Nov-2010 15:41
cabal/-08-Nov-2010 15:41
cal.rb-1.19/-08-Nov-2010 15:41
cal3d/-08-Nov-2010 15:41
calculix/-08-Nov-2010 15:41
cap60/-08-Nov-2010 15:41
cdf3-3.1_4/-08-Nov-2010 15:42
cdf3-3.1_5/-08-Nov-2010 15:42
cdf3-3.1_7/-08-Nov-2010 15:42
cdf3-3.2/-08-Nov-2010 15:42
cenon/-08-Nov-2010 15:42
cffi/-08-Nov-2010 15:42
chipmunk/-08-Nov-2010 15:43
cisco_conf/-08-Nov-2010 15:43
clip/-08-Nov-2010 15:44
clive/-08-Nov-2010 15:44
cnprint-3.30b/-08-Nov-2010 15:45
code2001-0.919/-08-Nov-2010 15:45
cosmo/-08-Nov-2010 15:45
couriergraph-20041207/-08-Nov-2010 15:46
crafty/-08-Nov-2010 15:46
crystalspace/-08-Nov-2010 15:46
csound/-08-Nov-2010 15:47
css-mode/-08-Nov-2010 15:47
cvs2cl/-08-Nov-2010 15:47
cvsstat-2.23/-08-Nov-2010 15:47
cwdaemon/-08-Nov-2010 15:47
dangerdeep/-08-Nov-2010 15:48
dataplot/-08-Nov-2010 15:48
db4o-5.0.20/-08-Nov-2010 15:48
db4o-5.5.20/-08-Nov-2010 15:48
dft++/-08-Nov-2010 15:48
dgd/-08-Nov-2010 15:48
diveintopython/-08-Nov-2010 15:49
dokeos/-08-Nov-2010 15:50
doom-data/-08-Nov-2010 15:50
doom-hr/-08-Nov-2010 15:50
drscheme/-08-Nov-2010 15:50
drupal/-08-Nov-2010 15:50
drweb/-08-Nov-2010 15:50
dumpasn1-20030329/-08-Nov-2010 15:50
dumpasn1-20051115/-08-Nov-2010 15:50
dumpasn1-20060622/-08-Nov-2010 15:50
dumpasn1-20070127/-08-Nov-2010 15:50
dumpasn1-20080417/-08-Nov-2010 15:50
dvipdfmx/-08-Nov-2010 15:50
eb/-08-Nov-2010 15:51
eclipse/-08-Nov-2010 17:36
edict/-08-Nov-2010 15:53
edict-utf-8/-08-Nov-2010 15:53
eg/-08-Nov-2010 15:54
eigen/-08-Nov-2010 15:54
eispack/-08-Nov-2010 15:54
el/-08-Nov-2010 15:55
embassy/-08-Nov-2010 15:56
emboss/-08-Nov-2010 15:56
env4801/-08-Nov-2010 15:57
epic4/-08-Nov-2010 15:57
erlang/-08-Nov-2010 15:58
erlang-doc/-08-Nov-2010 15:58
etktab/-08-Nov-2010 15:59
exim/-08-Nov-2010 15:59
eyeOS-themes-1.2/-08-Nov-2010 15:59
ezm3/-08-Nov-2010 15:59
ezquake/-08-Nov-2010 15:59
f2c-20060506/-08-Nov-2010 15:59
f2c-20060810/-08-Nov-2010 15:59
f90gl/-08-Nov-2010 15:59
fam/-08-Nov-2010 15:59
festival/-08-Nov-2010 16:00
fillets-ng/-08-Nov-2010 16:01
firefox-2006-07-03/-08-Nov-2010 16:02
firefox-2006-07-26/-08-Nov-2010 16:02
firefox-2006-09-21/-08-Nov-2010 16:02
firefox-2007-01-24/-08-Nov-2010 16:02
firefox-2007-02-24/-08-Nov-2010 16:02
firefox-2007-04-18/-08-Nov-2010 16:02
firefox-2007-06-26/-08-Nov-2010 16:02
firefox-ja/-08-Nov-2010 16:06
firefox-ko/-08-Nov-2010 16:06
firefox-zh_CN/-08-Nov-2010 16:06
firefox-zh_TW/-08-Nov-2010 16:06
flightgear-aircrafts/-08-Nov-2010 16:06
foomatic/-08-Nov-2010 16:09
foomatic-db-20040107/-08-Nov-2010 16:08
foomatic-db-20050309/-08-Nov-2010 16:08
fortune-mod-bible/-08-Nov-2010 16:09
foswiki/-08-Nov-2010 16:09
freepascal/-08-Nov-2010 16:12
fretsonfire/-08-Nov-2010 16:12
fte/-08-Nov-2010 16:12
ftjava/-08-Nov-2010 16:12
fuse4bsd/-08-Nov-2010 16:12
g95/-08-Nov-2010 16:13
gallery/-08-Nov-2010 16:13
gallery2/-08-Nov-2010 16:13
gap/-08-Nov-2010 16:15
gekko/-08-Nov-2010 16:39
gekkoware/-08-Nov-2010 16:39
gentoo-linux/-08-Nov-2010 16:39
geoip/-08-Nov-2010 16:39
ggz/-08-Nov-2010 16:39
ghc/-08-Nov-2010 16:40
ghc-6.2.2/-08-Nov-2010 16:40
ghc-6.4/-08-Nov-2010 16:40
ghc-6.4.1/-08-Nov-2010 16:40
ghc-6.4.2/-08-Nov-2010 16:40
ghc-6.6/-08-Nov-2010 16:40
ghc-6.6.1/-08-Nov-2010 16:40
ghc-6.8.2/-08-Nov-2010 16:40
ghc-6.8.3/-08-Nov-2010 16:40
ghostscript/-08-Nov-2010 16:41
giftrans/-08-Nov-2010 16:41
glest/-08-Nov-2010 16:43
globus/-08-Nov-2010 16:43
gngeo/-08-Nov-2010 16:44
gnome/-08-Nov-2010 16:44
gnome2/-08-Nov-2010 16:54
gnubg/-08-Nov-2010 16:55
gnuradio/-08-Nov-2010 16:55
gprolog/-08-Nov-2010 16:56
graphviz/-08-Nov-2010 16:56
handbrake/-08-Nov-2010 16:57
hf6to4/-08-Nov-2010 16:58
himeno/-08-Nov-2010 16:58
hla/-08-Nov-2010 16:58
hlatex/-08-Nov-2010 16:58
horde/-08-Nov-2010 16:58
hp48xgcc/-08-Nov-2010 16:59
hudson-1.285/-08-Nov-2010 16:59
hudson-1.290/-08-Nov-2010 16:59
hudson-1.292/-08-Nov-2010 16:59
hudson-1.294/-08-Nov-2010 16:59
hudson-1.296/-08-Nov-2010 16:59
hudson-1.299/-08-Nov-2010 16:59
hudson-1.302/-08-Nov-2010 16:59
hudson-1.303/-08-Nov-2010 16:59
hudson-1.304/-08-Nov-2010 16:59
hudson-1.305/-08-Nov-2010 16:59
hudson-1.307/-08-Nov-2010 16:59
hudson-1.308/-08-Nov-2010 16:59
hudson-1.310/-08-Nov-2010 16:59
hudson-1.311/-08-Nov-2010 16:59
hudson-1.313/-08-Nov-2010 16:59
hudson-1.314/-08-Nov-2010 16:59
hudson-1.315/-08-Nov-2010 16:59
hudson-1.316/-08-Nov-2010 16:59
hudson-1.317/-08-Nov-2010 16:59
hudson-1.318/-08-Nov-2010 16:59
hudson-1.319/-08-Nov-2010 16:59
hudson-1.320/-08-Nov-2010 16:59
hudson-1.321/-08-Nov-2010 16:59
hudson-1.322/-08-Nov-2010 16:59
hudson-1.323/-08-Nov-2010 16:59
hudson-1.327/-08-Nov-2010 16:59
hudson-1.328/-08-Nov-2010 16:59
hudson-1.330/-08-Nov-2010 16:59
hudson-1.332/-08-Nov-2010 16:59
hudson-1.333/-08-Nov-2010 16:59
hudson-1.334/-08-Nov-2010 16:59
hudson-1.335/-08-Nov-2010 16:59
hudson-1.336/-08-Nov-2010 16:59
hudson-1.337/-08-Nov-2010 16:59
hudson-1.338/-08-Nov-2010 16:59
hudson-1.339/-08-Nov-2010 16:59
hudson-1.340/-08-Nov-2010 17:00
hudson-1.341/-08-Nov-2010 17:00
hudson-1.342/-08-Nov-2010 17:00
hudson-1.343/-08-Nov-2010 17:00
hudson-1.344/-08-Nov-2010 17:00
hudson-1.345/-08-Nov-2010 17:00
hudson-1.346/-08-Nov-2010 17:00
hudson-1.351/-08-Nov-2010 17:00
hudson-1.352/-08-Nov-2010 17:00
hudson-1.353/-08-Nov-2010 17:00
hudson-1.355/-08-Nov-2010 17:00
hudson-1.357/-08-Nov-2010 17:00
hudson-1.358/-08-Nov-2010 17:00
hudson-1.359/-08-Nov-2010 17:00
hudson-1.361/-08-Nov-2010 17:00
hudson-1.362/-08-Nov-2010 17:00
hudson-1.366/-08-Nov-2010 17:00
hudson-1.367/-08-Nov-2010 17:00
hudson-1.368/-08-Nov-2010 17:00
hudson-1.369/-08-Nov-2010 17:00
hudson-1.370/-08-Nov-2010 17:00
hudson-1.371/-08-Nov-2010 17:00
hudson-1.372/-08-Nov-2010 17:00
hudson-1.373/-08-Nov-2010 17:00
hudson-1.374/-08-Nov-2010 17:00
hudson-1.375/-08-Nov-2010 17:00
hudson-1.377/-08-Nov-2010 17:00
hudson-1.378/-08-Nov-2010 17:00
hudson-1.379/-08-Nov-2010 17:00
hudson-1.380/-08-Nov-2010 17:00
hudson-1.381/-08-Nov-2010 17:00
hudson-1.382/-08-Nov-2010 17:00
hudson-1.383/-08-Nov-2010 17:00
husky/-08-Nov-2010 17:00
hylafax/-08-Nov-2010 17:00
i-scream/-08-Nov-2010 17:01
i386/-08-Nov-2010 17:01
i387/-08-Nov-2010 17:01
iip/-08-Nov-2010 17:02
info2man-20040717/-08-Nov-2010 17:03
inform/-08-Nov-2010 17:03
ircservices/-08-Nov-2010 17:04
irssi-themes/-08-Nov-2010 17:04
iso12083/-08-Nov-2010 17:05
iv/-08-Nov-2010 17:05
ja-spamassassin/-08-Nov-2010 17:05
jabber/-08-Nov-2010 17:05
jags/-08-Nov-2010 17:05
jakarta/-08-Nov-2010 17:05
javaview-lite/-08-Nov-2010 17:05
jed/-08-Nov-2010 17:07
joomla/-08-Nov-2010 17:07
kadu/-08-Nov-2010 17:08
kanji18/-08-Nov-2010 17:08
kanji26/-08-Nov-2010 17:08
kicad/-08-Nov-2010 17:09
kmfl/-08-Nov-2010 17:10
kmquake2/-08-Nov-2010 17:10
kterm/-08-Nov-2010 17:11
l2p/-08-Nov-2010 17:11
lang_packs-1.2/-08-Nov-2010 17:11
lang_packs-1.2.14/-08-Nov-2010 17:11
lang_packs-1.2.15/-08-Nov-2010 17:11
lang_packs-1.2.16/-08-Nov-2010 17:11
lang_packs-1.2.21/-08-Nov-2010 17:11
lapack/-08-Nov-2010 17:12
lapack++/-08-Nov-2010 17:11
lapack95/-08-Nov-2010 17:12
lapackpp/-08-Nov-2010 17:12
latex/-08-Nov-2010 17:12
latex-arydshln/-08-Nov-2010 17:12
latex-biblist/-08-Nov-2010 17:12
latex-bytefield/-08-Nov-2010 17:12
latex-caption/-08-Nov-2010 17:12
latex-feynmf/-08-Nov-2010 17:12
latex-keystroke/-08-Nov-2010 17:12
latex-logpap/-08-Nov-2010 17:12
latex-msc/-08-Nov-2010 17:12
latex-resume/-08-Nov-2010 17:12
latex-subfloat/-08-Nov-2010 17:12
latex-supertabular/-08-Nov-2010 17:12
latex-timing/-08-Nov-2010 17:12
latex-ucs-20041017/-08-Nov-2010 17:12
laughingman/-08-Nov-2010 17:12
lemmatizer/-08-Nov-2010 17:12
leo/-08-Nov-2010 17:12
lgrind/-08-Nov-2010 17:12
lineak/-08-Nov-2010 17:16
linpack/-08-Nov-2010 17:16
linrad/-08-Nov-2010 17:16
linux-JM/-08-Nov-2010 17:16
linux-j/-08-Nov-2010 17:16
linux-mozilla/-08-Nov-2010 17:16
linux-ut/-08-Nov-2010 17:16
linux_dri-4.3.0/-08-Nov-2010 17:17
linux_dri-4.4.0/-08-Nov-2010 17:17
listmanager/-08-Nov-2010 17:17
m2000/-08-Nov-2010 17:19
mailman/-08-Nov-2010 17:19
mambo/-08-Nov-2010 17:19
mame-extras/-08-Nov-2010 17:19
marumoji-fonts/-08-Nov-2010 17:19
mcmc-jags/-08-Nov-2010 17:20
mercury/-08-Nov-2010 17:21
mgp-gallery/-08-Nov-2010 17:21
migemo/-08-Nov-2010 17:21
mimetex/-08-Nov-2010 17:21
mingw/-08-Nov-2010 17:21
miracl/-08-Nov-2010 17:21
mod_auth_cas/-08-Nov-2010 17:21
mod_log_firstbyte/-08-Nov-2010 17:22
mod_proxy_html-3.1.2/-08-Nov-2010 17:22
mod_put-1.3/-08-Nov-2010 17:22
mod_webapp/-08-Nov-2010 17:22
mpd/-08-Nov-2010 17:23
mpd4/-08-Nov-2010 17:23
mpd5/-08-Nov-2010 17:23
mpfr/-08-Nov-2010 17:23
mpich/-08-Nov-2010 17:24
mplayer/-08-Nov-2010 17:24
mta/-08-Nov-2010 17:24
mulberry/-08-Nov-2010 17:24
mulberry-4.0.6/-08-Nov-2010 17:24
mulberry-4.0.7/-08-Nov-2010 17:24
mupad/-08-Nov-2010 17:24
muparser/-08-Nov-2010 17:24
mupen64/-08-Nov-2010 17:24
mupen64plus/-08-Nov-2010 17:24
musicip/-08-Nov-2010 17:24
mutt/-08-Nov-2010 17:25
nagios-silfreed-plugins/-08-Nov-2010 17:29
nawk-20041222/-08-Nov-2010 17:29
nawk-20050424/-08-Nov-2010 17:29
ncbi-toolkit-2004.10.20/-08-Nov-2010 17:29
ncbi-toolkit-2005.06.05/-08-Nov-2010 17:29
ncbi-toolkit-2005.12.06/-08-Nov-2010 17:29
ncbi-toolkit-2006.05.07/-08-Nov-2010 17:29
ncurses/-08-Nov-2010 17:30
nec2c/-08-Nov-2010 17:30
nessus/-08-Nov-2010 17:30
netramet/-08-Nov-2010 17:31
netscape-remote/-08-Nov-2010 17:31
nhc98/-08-Nov-2010 17:32
nmap-i18n-man-4.01.20060302/-08-Nov-2010 17:33
nmap-i18n-man-4.60.20080413/-08-Nov-2010 17:33
nmap-i18n-man-4.68.20080803/-08-Nov-2010 17:33
nmap-i18n-man-4.76.20080914/-08-Nov-2010 17:33
nmap-i18n-man-4.76.20081109/-08-Nov-2010 17:33
ntraceroute/-08-Nov-2010 17:33
obfuscatejs/-08-Nov-2010 17:34
octave-forge/-08-Nov-2010 17:34
ojs2/-08-Nov-2010 17:34
omegaT/-08-Nov-2010 17:34
oneko/-08-Nov-2010 17:34
openbgpd/-08-Nov-2010 17:35
openh323/-08-Nov-2010 17:35
openoffice/-08-Nov-2010 18:02
openoffice.org1.0/-08-Nov-2010 17:36
openoffice.org1.1/-08-Nov-2010 17:37
openoffice.org2/-08-Nov-2010 17:43
openoffice.org2.0/-08-Nov-2010 17:41
openoffice.org3/-08-Nov-2010 18:01
openoffice1.0/-08-Nov-2010 18:02
openoffice1.1/-08-Nov-2010 18:03
openospfd/-08-Nov-2010 18:03
openssl-1.0.0/-08-Nov-2010 18:03
openxpki/-08-Nov-2010 18:04
oxford/-08-Nov-2010 18:05
p4v-2007.2.141782/-08-Nov-2010 18:05
pbzip2-1.0.2.0.2/-08-Nov-2010 18:06
pbzip2-1.0.4/-08-Nov-2010 18:06
pcl-cvs/-08-Nov-2010 18:06
perforce/-08-Nov-2010 18:06
perl/-08-Nov-2010 18:06
pil/-08-Nov-2010 18:08
plans/-08-Nov-2010 18:09
plt-scheme/-08-Nov-2010 18:09
pm3/-08-Nov-2010 18:09
polyml/-08-Nov-2010 18:10
popfile/-08-Nov-2010 18:10
postfinger/-08-Nov-2010 18:10
postfix/-08-Nov-2010 18:10
postgresql/-08-Nov-2010 18:11
povray36/-08-Nov-2010 18:12
preferential-0.6.1a/-08-Nov-2010 18:12
preferential-0.7.1/-08-Nov-2010 18:12
prep/-08-Nov-2010 18:12
proggy_fonts-ttf/-08-Nov-2010 18:12
psi3/-08-Nov-2010 18:12
pstoepsi/-08-Nov-2010 18:12
pvpgn/-08-Nov-2010 18:12
pydance/-08-Nov-2010 18:13
pysycache/-08-Nov-2010 18:13
python/-08-Nov-2010 18:14
python262/-08-Nov-2010 18:14
python264/-08-Nov-2010 18:14
python265/-08-Nov-2010 18:14
python266/-08-Nov-2010 18:14
qemu/-08-Nov-2010 18:15
qmail/-08-Nov-2010 18:15
qmpdclient/-08-Nov-2010 18:15
qmpdclient-1.0.9/-08-Nov-2010 18:15
quack-0.27/-08-Nov-2010 18:15
quack-0.28/-08-Nov-2010 18:15
quake-data/-08-Nov-2010 18:15
quake-extras/-08-Nov-2010 18:15
quake2-3zb2/-08-Nov-2010 18:15
quake2-data/-08-Nov-2010 18:15
quake2-extras/-08-Nov-2010 18:15
quake2-zaero/-08-Nov-2010 18:15
quake2forge/-08-Nov-2010 18:15
quake2lnx/-08-Nov-2010 18:15
quake3-data/-08-Nov-2010 18:15
rabbitmq/-08-Nov-2010 18:16
repacked/-08-Nov-2010 18:16
rerolled/-08-Nov-2010 18:16
ros/-08-Nov-2010 18:17
rpm/-08-Nov-2010 18:19
ruby/-08-Nov-2010 18:20
rubygem/-08-Nov-2010 18:21
scalapack/-08-Nov-2010 18:23
scnc-1.00/-08-Nov-2010 18:24
scourge/-08-Nov-2010 18:24
sdpa/-08-Nov-2010 18:25
sdpara/-08-Nov-2010 18:25
seamonkey-2006-07-03/-08-Nov-2010 18:26
seamonkey-2006-07-27/-08-Nov-2010 18:26
seamonkey-2006-09-21/-08-Nov-2010 18:26
seamonkey-2007-01-24/-08-Nov-2010 18:26
seamonkey-2007-02-24/-08-Nov-2010 18:26
seamonkey-2007-04-18/-08-Nov-2010 18:26
seamonkey-2007-06-26/-08-Nov-2010 18:26
seaview-2004.12.16/-08-Nov-2010 18:26
shttpd/-08-Nov-2010 18:26
skk-jisyo/-08-Nov-2010 18:27
slimeforest/-08-Nov-2010 18:27
slimserver/-08-Nov-2010 18:27
smartdoc/-08-Nov-2010 18:27
sml-nj/-08-Nov-2010 18:28
spambnc-20050527/-08-Nov-2010 18:28
spambnc-20050624/-08-Nov-2010 18:28
spambnc-20050715/-08-Nov-2010 18:28
spambnc-20050908/-08-Nov-2010 18:28
spambnc-20051111/-08-Nov-2010 18:28
spambnc-20051222/-08-Nov-2010 18:28
spice/-08-Nov-2010 18:28
spin/-08-Nov-2010 18:28
sqlite-ext/-08-Nov-2010 18:29
squeak/-08-Nov-2010 18:29
squeezeboxserver/-08-Nov-2010 18:29
squeezecenter/-08-Nov-2010 18:29
squid2.5/-08-Nov-2010 18:29
squid2.6/-08-Nov-2010 18:29
squid2.7/-08-Nov-2010 18:29
squid3.0/-08-Nov-2010 18:29
squid3.1/-08-Nov-2010 18:29
squirrelmail/-08-Nov-2010 18:29
stardict/-08-Nov-2010 18:30
stream-1.0/-08-Nov-2010 18:30
subversion/-08-Nov-2010 18:30
sugarcrm/-08-Nov-2010 18:30
suicavalue/-08-Nov-2010 18:30
suitesparse/-08-Nov-2010 18:30
sunbird-0.5/-08-Nov-2010 18:30
superlu/-08-Nov-2010 18:30
sylpheed/-08-Nov-2010 18:30
teTeX/-08-Nov-2010 18:31
tex/-08-Nov-2010 18:31
texfamily/-08-Nov-2010 18:31
thttpd/-08-Nov-2010 18:31
thunderbird/-08-Nov-2010 18:32
timidity/-08-Nov-2010 18:32
tinderbox/-08-Nov-2010 18:32
tlf/-08-Nov-2010 18:33
tnt/-08-Nov-2010 18:33
trac/-08-Nov-2010 18:33
tremor/-08-Nov-2010 18:33
triangle-1.5/-08-Nov-2010 18:33
ttcp/-08-Nov-2010 18:33
tulip/-08-Nov-2010 18:34
twiki/-08-Nov-2010 18:34
uftp-2.10/-08-Nov-2010 18:34
uftp-2.10.1/-08-Nov-2010 18:34
uftp-2.10.2/-08-Nov-2010 18:34
uftp-2.7/-08-Nov-2010 18:34
uftp-2.7.1/-08-Nov-2010 18:34
uftp-2.8/-08-Nov-2010 18:34
uftp-2.8.1/-08-Nov-2010 18:34
uftp-2.9.1/-08-Nov-2010 18:34
uftp-2.9.2/-08-Nov-2010 18:34
uhexen2/-08-Nov-2010 18:34
unidesc-2.12/-08-Nov-2010 18:34
unidesc-2.15.1/-08-Nov-2010 18:34
unidesc-2.16/-08-Nov-2010 18:34
unidesc-2.17/-08-Nov-2010 18:34
unison-2.10.2/-08-Nov-2010 18:34
unison-2.13.16/-08-Nov-2010 18:34
unison-2.27.157/-08-Nov-2010 18:34
unison-2.27.29/-08-Nov-2010 18:34
unison-2.27.57/-08-Nov-2010 18:34
unison-2.32.52/-08-Nov-2010 18:34
urban/-08-Nov-2010 18:35
v7sh/-08-Nov-2010 18:35
varkon/-08-Nov-2010 18:35
vdrift/-08-Nov-2010 18:35
vim/-08-Nov-2010 18:36
vttest/-08-Nov-2010 18:36
vttest-2005.01.07/-08-Nov-2010 18:36
vuxml/-08-Nov-2010 18:36
wamcc/-08-Nov-2010 18:37
warsow/-08-Nov-2010 18:37
wdm/-08-Nov-2010 18:37
webfonts/-08-Nov-2010 18:37
wordpress-mu/-08-Nov-2010 18:40
wsmake/-08-Nov-2010 18:41
wwwstat/-08-Nov-2010 18:41
x12arima/-08-Nov-2010 18:41
x264/-08-Nov-2010 18:41
xblast/-08-Nov-2010 18:41
xc/-08-Nov-2010 18:41
xdvi/-08-Nov-2010 18:42
xdvik/-08-Nov-2010 18:42
xemacs/-08-Nov-2010 18:42
xfaces/-08-Nov-2010 18:42
xfce4/-08-Nov-2010 18:42
xmame/-08-Nov-2010 18:42
xmms-vumeter-skins/-08-Nov-2010 18:43
xorg/-08-Nov-2010 18:43
xpi/-08-Nov-2010 18:46
xrmap/-08-Nov-2010 18:46
xv/-08-Nov-2010 18:46
yadex/-08-Nov-2010 18:47
yfklog/-08-Nov-2010 18:47
youtube_dl/-08-Nov-2010 18:47
z88/-08-Nov-2010 18:47
zangband/-08-Nov-2010 18:47
zh-moettf/-08-Nov-2010 18:47
zh-wangttf/-08-Nov-2010 18:47
zope/-08-Nov-2010 18:47
%BF%AC%BC%BC%BA%BB%B9%AE.TTF 56791214-Mar-2005 18:41
%BF%AC%BC%BC%C1%A6%B8%F1.TTF 58168414-Mar-2005 18:44
0001-Ported-to-libgdamm-4.x.patch 2374722-Nov-2009 13:37
01-diff 409704-Mar-2006 05:45
070122_freera++_src.tar.gz 44009522-Jan-2007 19:56
070328_freera++_src.tar.gz 45692728-Mar-2007 17:12
080203_freera++_src.tar.gz 49220501-Mar-2008 18:43
0W-httpd-0.7l.tar.gz 8610709-Apr-2005 05:53
0W-httpd-0.7m.tar.gz 8393019-Apr-2005 11:26
0W-httpd-0.7n.tar.gz 8485417-Aug-2005 14:12
0W-httpd-0.7p.tar.gz 9950618-Nov-2006 16:40
0W-httpd-0.8d.tar.gz 11197922-Sep-2008 15:49
0verkill-0.16.tgz 27657916-Dec-2001 15:27
1.0.00.txt 11366715-Feb-2010 03:23
1.0.01.txt 11408011-Mar-2010 02:51
1.0.04.txt 11648528-May-2010 00:25
1.0__all_plugins.zip 215843121-Jul-2006 18:13
1.0__all_templates.zip 655198021-Jul-2006 18:13
1.1.02.txt 13617923-Jun-2010 02:05
1.1.03.txt 13659814-Aug-2010 20:34
1.1.05.txt 13852115-Sep-2010 03:13
1.1.06.txt 14744211-Oct-2010 01:15
1.1__all_plugins.zip 223886819-Jan-2007 10:07
1.1__all_templates.zip 896904805-Sep-2006 21:05
1.2-test13-l.zip 56774306-Mar-2006 05:08
1.2__all_plugins.zip 114180319-Mar-2008 13:55
1.2__all_templates.zip 221916519-Mar-2008 13:55
107158-aurorae-0.2.1.tar.gz 4462914-Aug-2009 11:30
112652-kde4-kstyle-nitrogen-1.0.5-Source.tar.gz 8090126-Oct-2009 19:57
11460-kwin-activeheart-1.1.tar.bz2 43833813-Dec-2005 13:59
118297-qtResistors-201001102229.tar.gz 10479109-Jan-2010 22:03
121881-equinox-1.30.tar.bz2 61617127-Sep-2010 16:11
122046-knights-2.0-src.tar.gz 68399002-Apr-2010 07:58
124776-silence-0.2.tar.gz 10155916-May-2010 13:02
12725-kdissert-0.9.0.tar.bz2 48095519-Apr-2005 23:21
12725-kdissert-1.0.3.4.tar.bz2 47862124-Jul-2005 11:55
12725-kdissert-1.0.5.tar.bz2 48928121-Oct-2005 22:45
12725-kdissert-1.0.6-waf-b.tar.bz2 50134610-Jun-2006 14:05
127960-kwebkitpart-0.9.6.tar.bz2 16126325-Jul-2010 18:57
128bit.tgz 16334029-May-2009 01:52
12956-knemo-0.6.80.tar.bz2 62733628-Aug-2010 00:19
13969-crystal-0.9.2.tar.bz2 44732219-Feb-2005 00:23
13969-crystal-0.9.9.tar.bz2 59868413-Mar-2006 23:13
13969-crystal-1.0.1.tar.bz2 64640926-Jun-2006 13:18
13969-crystal-1.0.2.tar.bz2 65630807-Oct-2006 21:49
13969-crystal-1.0.3.tar.bz2 64278324-Apr-2007 23:15
13969-crystal-1.0.4.tar.bz2 63546701-Jun-2007 21:52
13969-crystal-1.0.5.tar.bz2 63562428-Aug-2007 22:08
13969-crystal-1.0.6.tar.bz2 63787020-Jul-2008 20:33
13969-crystal-1.0.7.tar.bz2 65959101-Feb-2009 18:51
1444-qnxstyle-0.2.tar.gz 53152413-Dec-2005 15:01
14484-Grounation-0.3.tar.bz2 11475622-Mar-2007 23:16
1509d1217929605-pligg-beta-9-9-5-pligg-beta-9.9..> 106089105-Aug-2008 09:46
15mar93.tar.Z 221814909-Mar-1993 00:47
16028-comix-1.2.4.tar.bz2 43436711-Mar-2005 16:50
16028-comix-1.3.4.tar.bz2 43508304-Jul-2005 09:57
16028-comix-1.3.6.tar.bz2 43499213-Dec-2005 22:24
16028-comix-1.3.7.tar.bz2 43488508-Feb-2006 07:47
16028-comix-1.3.8.tar.bz2 43496222-Mar-2007 23:01
16x16xpms.tar.gz 28915414-Sep-1999 21:52
17829-kio_p7zip-0.3.1.tar.bz2 45078601-Jan-2008 14:33
18223-lipstik-1.1.tar.bz2 40692924-Dec-2004 09:55
18223-lipstik-1.3.tar.bz2 40856901-Aug-2005 06:35
18223-lipstik-2.1.tar.bz2 44060213-Dec-2005 22:24
18223-lipstik-2.2.2.tar.bz2 42173622-Mar-2007 23:14
18223-lipstik-2.2.3.tar.gz 52704101-Jan-2008 14:33
18223-lipstik-2.2.tar.bz2 43137708-Feb-2006 17:58
2.8.5rel.2.patch.gz 244522-Apr-2004 23:21
2.8.5rel.2.patch.gz.asc 24522-Apr-2004 23:28
2.8.5rel.3.patch.gz 437617-Oct-2005 20:48
2.8.5rel.3.patch.gz.asc 24517-Oct-2005 20:51
2.8.5rel.4.patch.gz 254326-Oct-2005 00:44
2.8.5rel.4.patch.gz.asc 24526-Oct-2005 00:45
20060727-bnbt85-src.tar.bz2 6588527-Jul-2006 14:08
20060727-bnbt85-src.tar.gz 8710501-Mar-2008 18:43
2007-006-patch.txt 155205-Sep-2007 19:59
2008-001-patch.txt 1085418-Mar-2008 18:00
20090112-kldpatch.tgz 1724812-Jan-2009 22:46
20090113-jpg2pdf.tgz 680213-Jan-2009 11:46
20090116-kldpatch.tgz 1725717-Jan-2009 11:27
2010-005-patch.txt 67013-Apr-2010 12:47
20292-kmastermind-2.2.tar.bz2 71874122-Oct-2006 16:02
2032d1245171709-pligg-content-management-system..> 116917216-Jun-2009 17:01
20798-tiblit-1.2.tar.bz2 46765813-Dec-2005 17:11
21237-clearlooks-metacity-0.5.tar.gz 398309-Apr-2005 05:53
2168d1250290502-pligg-content-management-system..> 143874314-Aug-2009 22:55
2400d1259797181-pligg-content-management-system..> 142140502-Dec-2009 23:39
2430DL_sc_linux.tar.gz 104186428-Apr-2006 05:00
27913-PolarCursorTheme.tar.bz2 23761716-Jan-2006 02:05
27913-PolarCursorThemes.tar.bz2 41787622-Mar-2007 23:14
28310-neutral-1.12.tar.gz 28288813-Dec-2005 21:34
28310-neutral-1.13a.tar.gz 6877722-Mar-2007 23:10
29153-yakuake-2.7.5.tar.bz2 44307322-Mar-2007 23:25
2ManDVD-1.3.5.tar.gz 1825900822-May-2010 04:39
2Step-8.0.5pl1-patch.gz 11476422-Aug-1999 16:15
2d-rewriter-1.2.tar.gz 1508524-Mar-2008 13:59
2d-rewriter-1.3.tar.gz 1509217-Jun-2008 11:40
2d-rewriter-1.4.tar.gz 1512007-Jan-2010 13:09
2dhf-05.05.tgz 103396216-May-2005 17:42
2dhf_02.03.tgz 115838315-Aug-2004 02:08
3.1-api.tar.bz2 1100017815-Aug-2004 02:08
30375-akode-2.0.1.tar.bz2 46096422-Jul-2006 22:22
30375-akode-2.0.2.tar.bz2 47260506-Apr-2007 13:33
327191_327191.gz 46418802-Nov-2006 08:50
33194-kpdftool-0.22.zip 635920-Jul-2008 20:46
34132-Gray.tar.gz 5741022-Mar-2007 23:07
3414-qnxtheme-0.1.tar.gz 1347020-Jul-2008 20:46
35093-Envy.tar.gz 4425713-Feb-2006 17:47
37099-HumanAzul.tar.gz 33231922-Mar-2007 23:22
39179-rezlooks-0.6.tar.gz 29001622-Mar-2007 23:44
3952-Geramik-0.26.tar.gz 35273415-Aug-2004 02:08
3952-Geramik-0.27.tar.gz 35267722-Mar-2007 23:13
3DM2-freebsd-9.4.0.1.tgz 377056903-Dec-2006 06:29
3DM2-freebsd_5.4-9.3.0.1.tgz 145828814-Oct-2005 09:54
3DM2-freebsd_5.4-9.3.0.3.tgz 156086417-Jan-2006 10:07
3DM2-freebsd_5.4-9.3.0.4.tgz 154083703-May-2006 03:11
3DM2_CLI-FreeBSD-10.1.zip 559289024-Mar-2010 22:12
3DM2_CLI-Linux-non-java-installer-9.5.3.zip 762622326-Mar-2010 21:07
3Dc-0.8.1.tar.gz 4628211-Apr-1996 13:36
3ddesktop-0.2.8.tar.gz 17523314-Mar-2005 18:44
3ddesktop-0.2.9.tar.gz 18227826-Jun-2005 16:39
3dm-x86-bsd.tgz 78105614-Mar-2005 18:44
3dm2-freebsd-x86-9.2.1.1.tgz 129947929-Jun-2005 10:27
3dm2_2.09.01.004_amd64.tar.bz2 256517630-Jan-2010 18:04
3dm2_2.09.01.004_i386.tar.bz2 246112630-Jan-2010 18:04
3dpong-0.5.tar.gz 3700429-Apr-2004 06:50
3proxy-0.5.3h.tgz 19056613-Apr-2007 10:54
3proxy-0.5.3j.tgz 19074901-Nov-2007 09:27
3proxy-0.5.3k.tgz 19079709-Jan-2008 21:16
3proxy-0.6.1.tgz 48016011-Dec-2009 11:41
3proxy-0.6.tgz 47890619-Mar-2009 13:48
3proxy.tgz 18940410-Mar-2006 20:03
41180-mplayerthumbs-1.2.tar.gz 2049211-Feb-2009 13:18
44998-kbackup-0.5.1.tar.bz2 69546822-Mar-2007 23:06
44998-kbackup-0.5.2.tar.bz2 70787515-Sep-2007 11:54
44998-kbackup-0.5.3.tar.bz2 74352019-Mar-2008 13:55
44998-kbackup-0.5.4.tar.bz2 74419120-Jul-2008 20:53
44bsd-csh-20001106.tar.bz2 16031206-Nov-2000 12:14
44bsd-more-20000521.tar.bz2 9004324-May-2000 20:56
44bsd-rdist-20001111.tar.bz2 3469511-Nov-2000 11:52
45384-MurrinaLightBlue.tar.gz 864422-Mar-2007 23:07
4Suite-1.0b1.tar.bz2 152426615-Apr-2005 00:35
4Suite-XML-1.0.2.tar.bz2 128671326-Dec-2006 20:02
4Suite-XML-1.0.tar.bz2 128370126-Oct-2006 22:07
4Suite-XML-1.0b2.tar.bz2 105146924-Oct-2005 22:20
4Suite-XML-1.0b3.tar.bz2 105343013-Dec-2005 03:58
4g8-1.0.tgz 11145814-Apr-2004 02:35
4stAttack-2.1.4.tar.gz 182824701-Oct-2002 14:46
4va-1.21.tgz 2629225-Jan-1996 16:00
50910-kooldock.tar.gz 55225525-Mar-2007 09:20
52641-amarokFS-0.5.tar.gz 37331001-Jan-2008 14:33
54321.tgz 307537509-Jan-2007 16:54
56062-qtm-0.7.3.2.tar.bz2 15300812-Feb-2009 09:57
56438-aurora-1.5.1.tar.bz2 37179204-Jan-2009 00:40
59031-skulpture-0.2.3.tar.bz2 9597628-May-2009 14:07
60029-Envy.tar.gz 4425720-Jul-2008 21:04
6550-Jimmac.tar.gz 1983522-Mar-2007 23:11
6tunnel-0.11rc1.tar.gz 3812614-Mar-2005 18:44
6tunnel-0.11rc2.tar.gz 1752218-Aug-2005 17:06
7432.Z 2682705-Mar-1993 10:00
75140-crystal-2.0.3.tar.bz2 18688001-Feb-2009 19:04
75140-crystal-2.0.5.tar.bz2 24733413-Aug-2009 15:31
76605-Ecliz_Port.tar.gz 42078920-Jul-2008 21:30
78061-plasma-applet-quicklauncher-0.4.tar.gz 2844920-Aug-2008 21:14
7x14rk.bdf 2197822-Jan-2002 16:23
7z444.tar.bz2 63407120-Jan-2007 10:44
7z445.tar.bz2 61965917-Apr-2007 05:52
7z451.tar.bz2 61390225-Jul-2007 13:01
7z452.tar.bz2 61833903-Aug-2007 11:43
7z454.tar.bz2 61933004-Sep-2007 11:22
7z457.tar.bz2 62011901-Mar-2008 18:43
7z465.tar.bz2 65808803-Feb-2009 08:04
84745-KPackageKit-0.6.0.7z 64726119-Mar-2010 21:26
84745-kpackagekit-0.6.1.7z 68498801-Sep-2010 20:06
85564-TeaCooker.tar.gz 8157730-Jul-2008 17:51
87921-dekorator-0.4.0.2.tar.bz2 17347310-Feb-2009 00:49
8841-knifty-0.4.2.tar.bz2 39023721-Jul-2004 18:07
89304-panelspacer0.1.tar.gz 469314-Sep-2008 23:34
8Kingdoms-1.1.0.tar.gz 2200356526-Oct-2007 13:50
8MBGMSFX.SF2 755759830-Jan-2005 20:08
8x16rk.bdf 2592922-Jan-2002 16:23
9.3.0-patch1 101914-Mar-2005 18:44
9.3.0-patch1.asc 18714-Mar-2005 18:44
915resolution-0.5.2.tar.gz 2118302-Feb-2006 08:40
915resolution-0.5.3.tar.gz 2258315-Apr-2007 05:09
915resolution-0.5.tar.gz 3709703-Dec-2005 21:39
915resolution.tar.gz 1141601-May-2005 04:08
92149-plasma-weatherforecast-1.2-kde-4.2.tar.bz2 34107807-Feb-2009 00:22
92149-simpleweatherforecast-1.3.tar.gz 39798018-Dec-2009 14:20
98925-cwp-0.9.10.tar.bz2 16390525-Jun-2009 12:19
98925-cwp-0.9.12.tar.bz2 17437511-Aug-2009 21:03
98925-cwp-0.9.17.tar.bz2 18064608-Nov-2009 22:23
98925-cwp-1.0.4.tar.bz2 18399230-May-2010 19:44
98925-cwp-1.1.1.tar.bz2 18412022-Jul-2010 19:53
98925-cwp-1.2.1.tar.bz2 18421827-Aug-2010 14:57
98925-cwp-1.2.2.tar.bz2 18537113-Sep-2010 09:10
98925-cwp-1.2.3.tar.bz2 18531606-Oct-2010 19:57
99551-kde4-windeco-nitrogen-3.2.8-Source.tar.gz 7675227-Oct-2009 05:35
99551-kde4-windeco-nitrogen-3.3.0-Source.tar.gz 7456725-Nov-2009 18:19
99551-kde4-windeco-nitrogen-3.3.3-Source.tar.gz 7527812-Mar-2010 17:34
99561-filelight-1.9rc3.tgz 9348110-Oct-2009 11:51
99737-fancytasks-0.9.8.tar.bz2 10500314-Sep-2009 16:23
9base-2.tar.gz 30174004-Aug-2009 12:33
9base-b20060209.tar.bz2 24577003-Mar-2007 23:45
9box-0.2.1.tar.gz 1517003-Apr-2004 14:25
9e.tar.gz 201916-Jun-2009 08:10
9libs-1.0.1.tar.gz 40504606-Apr-2006 14:05
9libs-1.0.tar.gz 20001622-Aug-1999 00:00
9menu-1.7.shar.gz 885415-Jun-2003 07:39
9menu-1.8.shar.gz 899001-Jun-2004 14:33
9term.1.6.3.tar.gz 13516915-Dec-1994 15:05
9wm-1.1.tar.gz 1951401-Jul-1999 00:18
?file=Template_.2.2.3.tar.gz 1673221-Jul-2006 18:13
ACE-5.4-html.tar.gz 4053245916-Jan-2004 14:57
ACE-5.4.2+TAO-1.4.2.tar.bz2 1404256631-Jul-2004 17:31
ACE-5.5-html.tar.bz2 5573659806-Mar-2006 16:10
ACE-5.5.1.tar.bz2 766887719-Apr-2006 04:52
ACE-5.5.2.tar.bz2 749579709-Jul-2006 12:53
ACH-1.0.2-alpha.tar 218009624-Sep-2010 19:32
ADMsmb_0.3.tar.gz 57618203-Feb-2004 02:51
ADMsnmp.0.1.tgz 674022-Mar-1999 22:21
AFsp-v8r0.tar.gz 120672415-Aug-2004 02:08
AFsp-v8r1.tar.gz 120898501-Feb-2005 15:57
AFsp-v8r2.tar.gz 121971128-Jan-2008 16:58
AI-Categorizer-0.07.tar.gz 25581416-Jun-2003 20:20
AI-Categorizer-0.09.tar.gz 25744924-Mar-2007 02:39
AI-DecisionTree-0.08.tar.gz 2566207-Jul-2003 23:04
AI-DecisionTree-0.09.tar.gz 2620127-Jul-2008 04:11
AI-Genetic-0.04.tar.gz 1665219-Jul-2005 00:37
AI-Genetic-0.05.tar.gz 1698101-Mar-2008 18:43
AI-NeuralNet-BackProp-0.89.zip 5205117-Aug-2000 07:21
AI-NeuralNet-Mesh-0.44.zip 9988614-Sep-2000 20:56
AI-Pathfinding-AStar-0.02.tar.gz 469709-Apr-2005 05:53
AI-Pathfinding-AStar-0.04.tar.gz 514917-Oct-2005 23:38
AI-Pathfinding-AStar-0.06.tar.gz 532929-Nov-2005 02:04
AI-Pathfinding-AStar-0.07.tar.gz 601108-Aug-2006 13:44
AI-Pathfinding-AStar-0.10.tar.gz 615017-Jun-2007 20:13
AI-Perceptron-0.01.tar.gz 354515-Aug-2004 02:08
AI-Perceptron-1.0.tar.gz 713910-Oct-2003 15:48
AI-Prolog-0.734.tar.gz 6793905-Apr-2006 22:37
AI-Prolog-0.737.tar.gz 6968821-Mar-2007 15:35
AI-Prolog-0.739.tar.gz 6995405-May-2007 03:12
AI-Prolog-0.740.tar.gz 6943713-Nov-2008 19:50
ALUT-2.2.0.0.tar.gz 9417423-Jul-2009 19:33
AMB-plugins-0.3.0.tar.bz2 2242527-Aug-2007 16:26
AMB-plugins-0.4.0.tar.bz2 2336502-Feb-2009 18:54
AMF-Perl-0.15.tar.gz 46331719-Sep-2004 19:09
AMP_Global_topic.zip 435401-Mar-2008 18:43
ANSIColor-1.08.tar.gz 1129201-Dec-2004 04:39
ANSIColor-1.09.tar.gz 1146504-Dec-2004 01:37
ANSIColor-1.10.tar.gz 1179821-Aug-2005 19:45
ANSIColor-1.11.tar.gz 1395714-Jul-2006 02:26
ANSIColor-1.12.tar.gz 1411101-Mar-2008 18:43
ANSIColor-2.02.tar.gz 1837831-Aug-2009 02:45
ANSIColor-3.00.tar.gz 2000024-Jan-2010 23:56
ANSIStyle-0.2.1.tar.gz 718511-Apr-2001 09:45
AP_Author_Update.zip 253701-Mar-2008 18:43
AP_Backup.zip 360501-Mar-2008 18:43
AP_Broadcast_Email.zip 227301-Mar-2008 18:43
AP_Clear_Cache.zip 146001-Mar-2008 18:43
AP_DB_management.zip 802701-Mar-2008 18:43
AP_Forum_cleanup.zip 295301-Mar-2008 18:43
AP_Languages_and_styles.zip 205301-Mar-2008 18:43
AP_Merge_Forums.zip 192101-Mar-2008 18:43
AP_News_Generator.zip 314501-Mar-2008 18:43
AP_PunBB_Shell.zip 192201-Mar-2008 18:43
AP_User_Merge.zip 377801-Mar-2008 18:43
AP_User_management.zip 415101-Mar-2008 18:43
AP_Version_Changer.zip 154601-Mar-2008 18:43
AROS-20060207-i386-all-sdk.tar.bz2 422183518-Mar-2006 20:49
ASCIIdates98-1.0.zip 2738320-Jun-2000 04:53
ASFRecorder.zip 37757107-Mar-2001 19:29
ASFiles-1.0.tar.gz 20712515-Jan-1999 06:02
ASM.ZIP 38376620-Dec-2002 00:58
ASSP_1.2.3-Install.zip 23571705-Jul-2006 19:46
ASSP_1.2.6-Install.zip 24574506-Dec-2006 16:31
ASSP_1.3.3.1-Install.zip 36297526-Oct-2007 13:50
ASSP_1.3.3.10-Install.zip 31538215-Jul-2008 00:23
ASSP_1.3.3.8-Install.zip 33292601-Mar-2008 18:43
ASSP_1.4.3.1-Install.zip 41457014-Dec-2008 15:39
ASSP_1.5.1.2-Install.zip 48851222-May-2009 08:08
ASSP_1.7.5.7-Install.zip 62753728-Aug-2010 07:36
ATutor-1.6-pl1.tar.gz 269522713-Mar-2008 20:14
ATutor-1.6.1.tar.gz 217140302-Jul-2008 19:48
ATutor-1.6.1_pl1.tar.gz 217138703-Jul-2008 15:42
ATutor-1.6.2.tar.gz 253578911-Dec-2008 18:14
ATutor-1.6.3.tar.gz 388989123-Jul-2009 19:58
ATutor-1.6.tar.gz 269486201-Mar-2008 18:43
ATutor-2.0.1.tar.gz 513274720-Oct-2010 20:12
ATutor-2.0.tar.gz 486362706-Jul-2010 18:55
Abi-compliance-checker-1.10.tar.gz 4932302-Nov-2009 13:55
Abi-compliance-checker-1.13.tar.gz 5111816-Feb-2010 12:24
Abi-compliance-checker-1.15.tar.gz 6291026-Mar-2010 16:23
Abi-compliance-checker-1.16.tar.gz 6444905-May-2010 14:15
Abi-compliance-checker-1.4.tar.gz 4385618-Aug-2009 18:31
Abi-compliance-checker-1.6.tar.gz 4396731-Aug-2009 12:59
Abi-compliance-checker-1.7.tar.gz 4673011-Sep-2009 17:54
Abi-compliance-checker-1.8.tar.gz 4808629-Sep-2009 13:32
Abi-compliance-checker-1.9.tar.gz 4794012-Oct-2009 14:28
AbsoluteE_Xmms.zip 18093615-Aug-1999 23:28
Absolute_Blue-XMMS.zip 17322230-May-2000 19:01
AcePerl-1.83.tar.gz 29415122-Feb-2002 17:03
AcePerl-1.89.tar.gz 29921009-Mar-2005 23:29
AcePerl-1.91.tar.gz 30001101-Nov-2006 15:26
AcePerl-1.92.tar.gz 30016311-Nov-2008 16:47
Acme-ButFirst-1.00.tar.gz 290924-Sep-2005 03:15
Acme-Damn-0.04.tar.gz 613415-May-2009 17:02
Acme-GuessNumber-0.03.tar.gz 1946721-Apr-2008 05:08
Acme-Lou-0.03.tar.gz 24150201-Feb-2007 10:24
Acme-MetaSyntactic-0.72.tar.gz 12717030-Apr-2006 22:50
Acme-MetaSyntactic-0.81.tar.gz 14402421-Jul-2006 18:14
Acme-MetaSyntactic-0.86.tar.gz 15121206-Aug-2006 22:21
Acme-MetaSyntactic-0.87.tar.gz 15239615-Aug-2006 19:45
Acme-MetaSyntactic-0.95.tar.gz 18991509-Oct-2006 08:49
Acme-MetaSyntactic-0.99.tar.gz 19560106-Nov-2006 01:38
Acme-Monta-0.01.tar.gz 276208-Jun-2005 14:58
Acme-Steganography-Image-Png-0.05.tar.gz 21526603-Apr-2006 15:13
Acme-Steganography-Image-Png-0.06.tar.gz 21459201-Oct-2006 23:53
ActionCube_v0.92.tar.bz2 1824139917-Jan-2007 00:27
AdaSDL_20010504.tar.gz 85206505-May-2001 00:00
AdamAmp.zip 11218323-Aug-2000 16:43
AddOns-0.6.zip 3389326-Oct-2007 14:07
AddOns-0.7.zip 3422010-Aug-2009 16:17
AddressBook-0.16.tar.gz 3263402-Feb-2001 22:20
Addresses-0.4.6.tar.gz 44446329-Jul-2004 11:52
Addresses-0.4.7.tar.gz 26381120-Jul-2007 18:06
Adun-0.8.2.tar.gz 99838625-Oct-2007 11:03
Adun-0.81.tar.gz 455439509-Apr-2009 14:54
Adun0.6.tar.gz 78128622-Sep-2006 19:00
Affiche-0.6.0.tar.gz 5076415-Apr-2002 17:32
AfterStep-1.0.tar.gz 60190314-May-1997 20:00
AfterStep-2.00.02.tar.bz2 468766614-Mar-2005 18:44
AfterStep-2.00.03.tar.bz2 470684409-Apr-2005 05:53
AfterStep-2.1.0.tar.bz2 500403317-May-2005 16:57
AfterStep-2.1.1.tar.bz2 502585806-Jun-2005 12:09
AfterStep-2.1.2.tar.bz2 507933319-Jul-2005 13:14
AfterStep-2.2.2.tar.bz2 545862424-May-2006 13:44
AfterStep-2.2.4.tar.bz2 570795120-Nov-2006 17:56
AfterStep-2.2.6.tar.bz2 590058521-May-2007 20:04
AfterStep-2.2.7.tar.bz2 593525901-Nov-2007 09:27
AfterStep-2.2.8.tar.bz2 610182417-Mar-2008 17:41
AfterStep-2.2.9.tar.bz2 609470608-Jul-2009 17:31
Agda-2.2.6.tar.gz 42901523-Dec-2009 15:42
Agda-executable-2.2.6.tar.gz 159623-Dec-2009 15:50
Agent-3.20.tar.gz 2026115-Dec-1998 17:38
Alabastra-0.21b.tgz 45113213-Oct-2007 11:11
Alabastra-0.2b.tgz 50522916-May-2007 14:28
AlephOne-0.12.0.tar.gz 93858902-Sep-2001 14:50
AlephOne-20050118.tar.gz 133581420-Jan-2005 20:26
AlephOne-20051119.tar.gz 651946919-Nov-2005 21:03
AlephOne-20060701.tar.bz2 598541101-Jul-2006 20:11
AlephOne-20061202.tar.bz2 600532403-Dec-2006 02:47
AlephOne-20061228.tar.bz2 600362829-Dec-2006 01:41
AlephOne-20070525.tar.bz2 665707425-May-2007 21:26
AlephOne-20080721.tar.bz2 302520322-Jul-2008 01:45
AlephOne-20080913.tar.bz2 303883614-Sep-2008 00:31
AlephOne-20100424.tar.bz2 318089625-Apr-2010 02:17
AlephOne-minf-demo.tar.gz 874299411-Mar-2001 16:12
Algorithm-Accounting-0.08.tar.gz 1125923-Jan-2005 18:13
Algorithm-Annotate-0.10.tar.gz 161125-Sep-2003 18:19
Algorithm-Bucketizer-0.10.tar.gz 755405-Apr-2003 06:44
Algorithm-Bucketizer-0.11.tar.gz 806901-Mar-2006 05:09
Algorithm-Bucketizer-0.12.tar.gz 959121-Apr-2007 19:34
Algorithm-C3-0.01.tar.gz 609515-Feb-2006 22:16
Algorithm-C3-0.02.tar.gz 627330-Jul-2006 20:36
Algorithm-C3-0.04.tar.gz 691609-Aug-2006 18:19
Algorithm-C3-0.05.tar.gz 765225-Aug-2006 19:55
Algorithm-C3-0.06.tar.gz 922817-Nov-2006 22:21
Algorithm-C3-0.07.tar.gz 956314-May-2007 11:05
Algorithm-C3-0.08.tar.gz 1173827-May-2009 22:51
Algorithm-ChooseSubsets-0.01.tar.gz 278502-May-2002 18:12
Algorithm-ChooseSubsets-0.02.tar.gz 293220-Oct-2005 09:42
Algorithm-Cluster-1.28.tar.gz 6778409-Apr-2005 05:53
Algorithm-Cluster-1.29.tar.gz 6719127-Apr-2005 07:26
Algorithm-Cluster-1.30.tar.gz 6739119-Oct-2005 00:13
Algorithm-Cluster-1.31.tar.gz 6793727-Feb-2006 01:34
Algorithm-Cluster-1.32.tar.gz 6837519-Jun-2006 19:31
Algorithm-Cluster-1.33.tar.gz 4918926-Sep-2006 15:33
Algorithm-Cluster-1.35.tar.gz 4919901-Mar-2007 02:11
Algorithm-Cluster-1.36.tar.gz 4944819-Jun-2007 12:51
Algorithm-Cluster-1.37.tar.gz 4947101-Mar-2008 18:43
Algorithm-Cluster-1.38.tar.gz 5387708-Mar-2008 05:06
Algorithm-Cluster-1.40.tar.gz 41873128-Jul-2008 12:20
Algorithm-Cluster-1.41.tar.gz 41231630-Aug-2008 08:36
Algorithm-Cluster-1.42.tar.gz 41939312-Sep-2008 01:52
Algorithm-Cluster-1.44.tar.gz 33163120-Mar-2009 12:48
Algorithm-Cluster-1.45.tar.gz 33157522-Apr-2009 02:41
Algorithm-Cluster-1.46.tar.gz 33017830-May-2009 07:31
Algorithm-Cluster-1.47.tar.gz 33043111-Sep-2009 03:55
Algorithm-Cluster-1.49.tar.gz 27559305-Apr-2010 12:42
Algorithm-Combinatorics-0.08.tar.gz 830606-Nov-2005 02:52
Algorithm-Combinatorics-0.14.tar.gz 1092819-Dec-2005 18:44
Algorithm-Combinatorics-0.20.tar.gz 1376106-Jun-2006 06:22
Algorithm-Combinatorics-0.25.tar.gz 1593201-Mar-2008 18:43
Algorithm-CurveFit-1.03.tar.gz 1161218-Dec-2006 12:50
Algorithm-CurveFit-1.04.tar.gz 1117103-Mar-2009 16:32
Algorithm-CurveFit-1.05.tar.gz 1459205-Jun-2010 08:37
Algorithm-Dependency-1.101.tar.gz 4287210-Oct-2005 01:36
Algorithm-Dependency-1.102.tar.gz 4618615-Apr-2006 09:21
Algorithm-Dependency-1.106.tar.gz 3639001-Mar-2008 18:43
Algorithm-Dependency-1.108.tar.gz 3837611-Feb-2009 04:00
Algorithm-Dependency-1.110.tar.gz 4053014-Apr-2009 09:17
Algorithm-Dependency-Objects-0.02.tar.gz 497721-Jun-2006 02:07
Algorithm-Dependency-Objects-0.04.tar.gz 477001-Mar-2008 18:43
Algorithm-Diff-1.15.tar.gz 2323415-Aug-2004 02:08
Algorithm-Diff-1.1901.zip 3849725-Sep-2004 06:50
Algorithm-Diff-1.1902.tar.gz 3352931-Jul-2006 06:06
Algorithm-Evolutionary-0.53.tar.gz 4696527-Feb-2003 09:38
Algorithm-Evolutionary-0.54.tar.gz 5131615-Mar-2006 10:05
Algorithm-Evolutionary-0.60.tar.gz 6371901-Jul-2008 08:34
Algorithm-Evolutionary-0.64.tar.gz 7623110-Feb-2009 12:46
Algorithm-Evolutionary-0.65.tar.gz 7873719-Mar-2009 18:15
Algorithm-Evolutionary-0.66.tar.gz 7929320-Mar-2009 08:04
Algorithm-Evolutionary-0.67.tar.gz 7972429-Mar-2009 17:21
Algorithm-Evolutionary-0.70.tar.gz 9403528-Jul-2009 07:46
Algorithm-Evolutionary-0.71.tar.gz 9539613-Sep-2009 12:27
Algorithm-Evolutionary-0.72.tar.gz 10000326-Jan-2010 18:02
Algorithm-Evolutionary-0.73.tar.gz 10058016-Mar-2010 18:43
Algorithm-Evolutionary-0.74.tar.gz 10461824-Sep-2010 08:49
Algorithm-FloodControl-1.990000.tar.gz 2782313-Jan-2009 16:03
Algorithm-FloodControl-2.000000.tar.gz 2808722-Jul-2010 16:10
Algorithm-IncludeExclude-0.01.tar.gz 2159608-Feb-2007 06:26
Algorithm-Interval2Prefix-0.02.tar.gz 326302-Dec-2003 23:53
Algorithm-KMeans-1.1.1.tar.gz 2649430-Jun-2010 01:25
Algorithm-KMeans-1.20.tar.gz 3271206-Jul-2010 17:51
Algorithm-KMeans-1.21.tar.gz 3502515-Oct-2010 17:03
Algorithm-LCS-1.04.tar.gz 1014911-Aug-2003 11:32
Algorithm-LUHN-1.00.tar.gz 374826-Mar-2002 16:00
Algorithm-MDiff-0.94.tar.gz 295912-Aug-2000 14:13
Algorithm-MarkovChain-0.06.tar.gz 496409-May-2004 01:59
Algorithm-Merge-0.08.tar.gz 991522-Mar-2007 16:14
Algorithm-MinMax-0.01.tar.gz 214427-May-2003 17:59
Algorithm-Munkres-0.08.tar.gz 860822-Oct-2008 17:01
Algorithm-NaiveBayes-0.03.tar.gz 738518-May-2004 03:17
Algorithm-NaiveBayes-0.04.tar.gz 799708-Jun-2007 13:01
Algorithm-Networksort-1.05.tar.gz 1558324-Jan-2004 03:05
Algorithm-Networksort-1.07.tar.gz 1835820-Feb-2007 05:40
Algorithm-Networksort-1.09.tar.gz 2446222-May-2010 16:22
Algorithm-Pair-Best-1.010.tar.gz 1079624-Jan-2005 02:31
Algorithm-Pair-Swiss-0.13.tar.gz 543721-Jul-2006 18:14
Algorithm-Pair-Swiss-0.14.tar.gz 568304-Jul-2006 15:23
Algorithm-Permute-0.06.tar.gz 997628-May-2003 08:28
Algorithm-Permute-0.11.tar.gz 1324101-Mar-2008 18:43
Algorithm-Permute-0.12.tar.gz 1318723-Apr-2008 13:29
Algorithm-RabinKarp-0.39.tar.gz 681530-Jun-2006 18:46
Algorithm-RabinKarp-0.41_1.tar.gz 718227-Dec-2006 18:24
Algorithm-SVM-0.09.tar.gz 4835309-Apr-2005 05:53
Algorithm-SVM-0.11.tar.gz 5065012-Apr-2005 22:14
Algorithm-SVM-0.13.tar.gz 7434601-Mar-2008 18:43
Algorithm-SVMLight-0.05.tar.gz 1358717-Jul-2006 20:31
Algorithm-SVMLight-0.07.tar.gz 1470130-Nov-2006 20:00
Algorithm-SVMLight-0.09.tar.gz 1782525-Nov-2008 16:07
Alias-2.32.tar.gz 965901-May-1999 02:28
Alien-wxWidgets-0.42.tar.gz 62113807-Nov-2008 23:57
Alien-wxWidgets-0.43.tar.gz 62145110-May-2009 07:52
Alien-wxWidgets-0.44.tar.gz 64291409-Aug-2009 11:19
Alien-wxWidgets-0.46.tar.gz 64637208-Nov-2009 15:47
Alien-wxWidgets-0.48.tar.gz 64752325-Dec-2009 17:35
Alien-wxWidgets-0.50.tar.gz 64897810-Jan-2010 15:33
Alien-wxWidgets-0.51.tar.gz 67308530-Mar-2010 20:42
All_KhmerOS_5.0.zip 94484926-Jun-2007 06:46
Altoids1.017.tar.gz 4872028-Jan-1999 23:04
Alzabo-0.87.tar.gz 20556814-May-2005 17:16
Alzabo-0.89.tar.gz 21042421-Jul-2006 18:14
Alzabo-0.8901.tar.gz 21097019-Jul-2006 16:01
Alzabo-0.8904.tar.gz 21208617-Nov-2006 17:31
Alzabo-0.90.tar.gz 21240009-Mar-2007 19:20
Alzabo-0.91.tar.gz 21272725-Mar-2007 20:27
Alzabo-0.92.tar.gz 21324122-Nov-2007 18:12
Alzabo-GUI-Mason-0.1.tar.gz 4296918-Feb-2004 18:53
Alzabo-GUI-Mason-0.11.tar.gz 4184925-Aug-2007 17:24
Alzabo-GUI-Mason-0.1201.tar.gz 4258401-Nov-2007 09:27
Amazon-SQS-Simple-0.5.tar.gz 758919-Mar-2008 13:55
Amazon-SQS-Simple-0.7.tar.gz 775901-Mar-2008 18:43
Amazon-SQS-Simple-0.9.tar.gz 808825-Sep-2008 09:02
Amazon-SQS-Simple-1.03.tar.gz 844722-Nov-2008 00:01
Amazon-SQS-Simple-1.04.tar.gz 874323-May-2009 18:45
Amazon-SQS-Simple-1.05.tar.gz 879314-Nov-2009 13:39
Amazon-SQS-Simple-1.06.tar.gz 885001-Apr-2010 18:33
Amazon-SimpleDB-0.03.tar.gz 822023-Jan-2008 16:16
Ana.tar.gz 7546121-Jan-2006 00:47
AntipoliX_2.1.tar.gz 3420603-Aug-1995 04:00
Any-Moose-0.04.tar.gz 1099217-Feb-2009 20:25
Any-Moose-0.05.tar.gz 1106525-Feb-2009 16:18
Any-Moose-0.06.tar.gz 1125118-Mar-2009 12:10
Any-Moose-0.07.tar.gz 1129810-Apr-2009 00:29
Any-Moose-0.09.tar.gz 1147419-May-2009 17:28
Any-Moose-0.10.tar.gz 1162119-Jun-2009 17:37
Any-Moose-0.11.tar.gz 1232413-Dec-2009 13:02
Any-Moose-0.12.tar.gz 1383302-Apr-2010 21:27
Any-Moose-0.13.tar.gz 1390719-May-2010 03:46
AnyData-0.10.tar.gz 4446619-Apr-2004 23:59
AnyEvent-2.51.tar.gz 1264311-Dec-2006 20:37
AnyEvent-2.52.tar.gz 1271407-Mar-2007 17:37
AnyEvent-2.54.tar.gz 1286301-Nov-2007 09:27
AnyEvent-2.9.tar.gz 1596801-Mar-2008 18:43
AnyEvent-3.11.tar.gz 2566419-Apr-2008 04:59
AnyEvent-4.152.tar.gz 11113422-Jun-2008 12:18
AnyEvent-4.31.tar.gz 12320230-Oct-2008 03:43
AnyEvent-4.32.tar.gz 12331103-Nov-2008 21:49
AnyEvent-4.33.tar.gz 12365221-Nov-2008 01:36
AnyEvent-4.35.tar.gz 12549227-Mar-2009 10:49
AnyEvent-4.352.tar.gz 12625220-Apr-2009 14:35
AnyEvent-4.82.tar.gz 16058910-Jul-2009 22:36
AnyEvent-5.1.tar.gz 17938811-Aug-2009 01:18
AnyEvent-5.201.tar.gz 18178829-Sep-2009 10:10
AnyEvent-5.202.tar.gz 18220514-Oct-2009 20:39
AnyEvent-5.21.tar.gz 18292719-Nov-2009 01:51
AnyEvent-5.271.tar.gz 21855708-Jun-2010 10:06
AnyEvent-AIO-1.1.tar.gz 206221-Jul-2009 03:34
AnyEvent-DBI-2.0.tar.gz 2025729-Jun-2009 08:25
AnyEvent-DBI-Abstract-0.01.tar.gz 1803803-Jan-2010 23:41
AnyEvent-DBus-0.3.tar.gz 339621-Jun-2010 10:24
AnyEvent-DBus-0.31.tar.gz 347722-Jun-2010 09:09
AnyEvent-Filesys-Notify-0.05.tar.gz 1225808-Feb-2010 23:49
AnyEvent-HTTP-1.03.tar.gz 816103-Jul-2008 01:50
AnyEvent-HTTP-1.04.tar.gz 827524-Jul-2008 06:02
AnyEvent-HTTP-1.05.tar.gz 837629-Sep-2008 13:51
AnyEvent-HTTP-1.1.tar.gz 956030-Oct-2008 03:48
AnyEvent-HTTP-1.11.tar.gz 979521-Nov-2008 08:20
AnyEvent-HTTP-1.12.tar.gz 1003611-Jun-2009 12:46
AnyEvent-HTTP-1.42.tar.gz 1479405-Aug-2009 23:44
AnyEvent-HTTP-1.44.tar.gz 1550905-Dec-2009 15:37
AnyEvent-HTTP-1.45.tar.gz 1623616-Jun-2010 19:17
AnyEvent-HTTP-1.46.tar.gz 1659406-Sep-2010 06:31
AnyEvent-HTTPD-0.6.tar.gz 2790714-Jul-2009 09:24
AnyEvent-HTTPD-0.84.tar.gz 3359709-Nov-2009 16:23
AnyEvent-IRC-0.95.tar.gz 2851005-Nov-2009 00:23
AnyEvent-ReverseHTTP-0.05.tar.gz 4177505-Aug-2009 23:50
AnyEvent-Run-0.01.tar.gz 583821-Jul-2009 14:18
AnyEvent-SCGI-1.1.tar.gz 2385218-Sep-2009 00:01
AnyEvent-Subprocess-0.02.tar.gz 4343410-Feb-2010 12:19
AnyEvent-Twitter-0.27.tar.gz 914104-Nov-2009 23:36
AnyEvent-Twitter-0.51.tar.gz 2652513-Jun-2010 02:44
AnyEvent-Twitter-Stream-0.13.tar.gz 4984401-Apr-2010 21:02
AnyEvent-Twitter-Stream-0.15.tar.gz 5157618-Aug-2010 07:49
AnyEvent-Twitter-Stream-0.16.tar.gz 5248520-Aug-2010 23:58
AnyEvent-Twitter-Stream-0.19.tar.gz 5339617-Sep-2010 21:44
AnyEvent-Twitter-Stream-0.20.tar.gz 5344401-Oct-2010 08:11
AnyEvent-XMPP-0.51.tar.gz 11503314-Aug-2009 10:45
AoI16.zip 184764828-Mar-2005 06:10
Apache-ASP-2.57.tar.gz 51576629-Jan-2004 08:30
Apache-ASP-2.59.tar.gz 51696224-May-2005 05:52
Apache-ASP-2.61.tar.gz 51509825-May-2008 23:07
Apache-AddHostPath-0.02.tar.gz 364110-Oct-2000 22:51
Apache-Admin-Config-0.92.tar.gz 2811208-Dec-2004 13:52
Apache-Admin-Config-0.94.tar.gz 2822204-Jun-2006 17:24
Apache-AntiSpam-0.05.tar.gz 446903-May-2002 13:45
Apache-Archive-0.1.tar.gz 655908-Aug-1999 17:52
Apache-AuthCookie-3.05.tar.gz 3102522-Sep-2004 17:39
Apache-AuthCookie-3.08.tar.gz 3479119-Apr-2005 02:53
Apache-AuthCookie-3.10.tar.gz 3499305-Jun-2006 01:18
Apache-AuthCookie-3.12.tar.gz 3601416-Apr-2008 15:02
Apache-AuthCookie-3.14.tar.gz 4419712-Apr-2010 17:22
Apache-AuthTicket-0.31.tar.gz 1195813-Apr-2001 16:29
Apache-AuthTicket-0.40.tar.gz 2034606-Jun-2005 20:14
Apache-AuthTicket-0.90.tar.gz 2461610-Oct-2009 04:20
Apache-AuthenCache-1.00.tar.gz 924423-Jun-2003 18:47
Apache-AuthenRadius-0.3.tar.gz 277431-Jul-1999 22:17
Apache-AuthenRadius-0.9.tar.gz 504205-Sep-2006 02:01
Apache-AuthenURL-0.9.tar.gz 260912-Nov-2003 00:35
Apache-AuthenURL-2.05.tar.gz 499826-Apr-2005 03:12
Apache-AutoIndex-0.08.tar.gz 1211029-Jun-1999 17:57
Apache-AxKit-Plugin-AddXSLParams-Request-1.01.t..> 475411-Nov-2003 03:14
Apache-AxKit-Plugin-AddXSLParams-Request-1.02.t..> 503728-Apr-2005 08:12
Apache-Clean-0.05.tar.gz 541902-Jul-2002 18:56
Apache-Clean-2.00_7.tar.gz 671014-Apr-2005 14:21
Apache-Compress-1.003.tar.gz 1102815-Aug-2004 02:08
Apache-Compress-1.005.tar.gz 1237817-Nov-2004 20:03
Apache-CompressClientFixup-0.07.tar.gz 572920-Jul-2003 19:53
Apache-ConfigFile-1.18.tar.gz 1682318-Sep-2001 18:37
Apache-ConfigFile-1.23.tar.gz 2126009-Oct-2003 18:41
Apache-ConfigParser-1.01.tar.gz 20173923-Nov-2005 05:08
Apache-DB-0.09.tar.gz 729215-Aug-2004 02:08
Apache-DB-0.10.tar.gz 826515-May-2005 23:31
Apache-DB-0.13.tar.gz 857517-Apr-2006 15:46
Apache-DB-0.14.tar.gz 868327-Apr-2008 22:01
Apache-DBI-0.94.tar.gz 2754818-Feb-2004 00:22
Apache-DBI-0.98.tar.gz 3064210-Aug-2005 04:39
Apache-DBI-0.9901.tar.gz 3178620-Aug-2005 04:38
Apache-DBI-1.00_01.tar.gz 3292121-Jul-2006 18:14
Apache-DBI-1.02.tar.gz 3300002-Aug-2006 10:45
Apache-DBI-1.05.tar.gz 3342404-Nov-2006 06:48
Apache-DBI-1.06.tar.gz 3383323-Mar-2007 09:06
Apache-DBI-1.08.tar.gz 3418503-Feb-2010 23:04
Apache-DBILogConfig-0.02.tar.gz 533517-Aug-2001 03:35
Apache-DBILogger-0.93.tar.gz 970208-Oct-1998 06:18
Apache-DebugInfo-0.05.tar.gz 988219-Oct-2000 14:05
Apache-DumpHeaders-0.94.tar.gz 337210-Mar-2002 06:44
Apache-Filter-1.022.tar.gz 2625931-Jan-2003 20:10
Apache-Filter-1.024.tar.gz 2656625-Sep-2005 03:04
Apache-Gallery-1.0RC2.tar.gz 8323101-Jun-2005 07:17
Apache-Gallery-1.0RC3.tar.gz 8389116-Sep-2005 08:53
Apache-GopherHandler-0.1.tar.gz 984526-Mar-2004 05:07
Apache-Htgroup-1.22.tar.gz 1323927-Jan-2002 16:22
Apache-Htpasswd-1.8.tar.gz 839717-May-2006 12:58
Apache-Icon-0.02.tar.gz 609723-Jan-1999 19:24
Apache-Language-0.14.tar.gz 1572621-Jul-2000 20:50
Apache-MP3-3.05.tar.gz 33059406-Oct-2003 14:12
Apache-MP3-4.00.tar.gz 32838415-Apr-2006 01:26
Apache-NNTPGateway-0.9.tar.gz 2114603-Sep-2002 15:26
Apache-PageKit-1.18.tar.gz 13184926-Mar-2005 18:49
Apache-ParseFormData-0.09.tar.gz 636823-Oct-2003 13:17
Apache-ParseLog-1.02.tar.gz 3783617-Oct-1998 07:29
Apache-Peek-1.02.tar.gz 2350004-Jan-2005 01:37
Apache-Profiler-0.01.tar.gz 237907-Oct-2003 12:00
Apache-Profiler-0.10.tar.gz 608627-Nov-2009 21:41
Apache-Reload-0.07.tar.gz 326622-Apr-2001 18:20
Apache-Reload-0.10.tar.gz 1744126-Feb-2008 04:54
Apache-Reload-0.11.tar.gz 1799221-Aug-2010 19:55
Apache-SSI-2.17.tar.gz 2581914-Jan-2002 20:05
Apache-SSI-2.19.tar.gz 2688127-Jan-2005 04:04
Apache-Scoreboard-0.10.tar.gz 911508-Feb-2000 18:58
Apache-Scoreboard-2.06.tar.gz 1838318-Mar-2005 20:48
Apache-Scoreboard-2.08.tar.gz 1857228-Jun-2005 19:37
Apache-Session-1.6.tar.gz 2939124-Feb-2004 19:58
Apache-Session-1.81.tar.gz 3146823-May-2006 16:03
Apache-Session-1.83.tar.gz 3428525-May-2007 11:28
Apache-Session-1.86.tar.gz 3522001-Feb-2008 12:14
Apache-Session-1.87.tar.gz 3582308-Aug-2008 09:28
Apache-Session-1.89.tar.gz 4578422-Sep-2010 05:56
Apache-Session-PHP-0.05.tar.gz 356202-Feb-2004 18:02
Apache-Session-SQLite3-0.03.tar.gz 1024703-Feb-2005 03:46
Apache-Session-SharedMem-0.5.tar.gz 376905-Sep-2003 11:41
Apache-Session-SharedMem-0.6.tar.gz 391122-Sep-2004 10:41
Apache-Session-Wrapper-0.21.tar.gz 1800220-Jun-2005 19:14
Apache-Session-Wrapper-0.25.tar.gz 1835814-Aug-2005 17:23
Apache-Session-Wrapper-0.26.tar.gz 1964320-Sep-2005 21:02
Apache-Session-Wrapper-0.29.tar.gz 2276821-Jul-2006 18:14
Apache-Session-Wrapper-0.31.tar.gz 2267911-Jul-2006 14:36
Apache-Session-Wrapper-0.33.tar.gz 2378026-Sep-2006 14:22
Apache-Session-Wrapper-0.34.tar.gz 2434521-May-2010 07:36
Apache-Singleton-0.07.tar.gz 327522-Oct-2004 07:19
Apache-Singleton-0.11.tar.gz 842424-Nov-2009 22:26
Apache-SubProcess-0.03.tar.gz 267530-Oct-2001 03:22
Apache-Template-0.09.tar.gz 1913527-Apr-2004 09:26
Apache-Test-1.20.tar.gz 14145614-Mar-2005 18:44
Apache-Test-1.24.tar.gz 14523520-May-2005 05:04
Apache-Test-1.25.tar.gz 14577217-Jun-2005 21:00
Apache-Test-1.26.tar.gz 14797625-Jul-2005 15:45
Apache-Test-1.27.tar.gz 14701521-Oct-2005 01:56
Apache-Test-1.28.tar.gz 14985622-Feb-2006 15:55
Apache-Test-1.29.tar.gz 15141629-Nov-2006 07:19
Apache-Test-1.30.tar.gz 15071126-Nov-2007 19:18
Apache-Test-1.32.tar.gz 15289415-Apr-2010 22:16
Apache-XBEL-1.3.tar.gz 969101-Mar-2004 21:52
Apache2-SOAP-0.72.tar.gz 542703-Aug-2006 14:16
Apache2-SOAP-0.73.tar.gz 552606-Jun-2008 05:06
ApacheBench-0.63.tar.gz 6505707-Oct-2004 07:44
Api-sanity-autotest-1.8.tar.gz 11997905-May-2010 15:05
App-Asciio-0.95_01.tar.gz 5766508-Apr-2008 13:47
App-Asciio-1.02.71.tar.gz 7385817-Dec-2008 22:50
App-Build-0.72.tar.gz 1534008-Nov-2008 12:21
App-Build-0.73.tar.gz 1812318-Apr-2010 17:13
App-CLI-0.03.tar.gz 2461627-Dec-2005 02:42
App-CLI-0.04.tar.gz 2099211-Apr-2006 16:35
App-CLI-0.05.tar.gz 2548821-Jul-2006 18:14
App-CLI-0.06.tar.gz 2665430-Jun-2006 19:18
App-CLI-0.07.tar.gz 2690124-Nov-2006 21:25
App-CLI-0.08.tar.gz 2416026-Feb-2009 03:29
App-CLI-Extension-1.2.tar.gz 4919104-Jan-2010 14:51
App-CLI-Extension-1.21.tar.gz 5268527-Jun-2010 13:07
App-CLI-Extension-1.3.tar.gz 5142118-Jul-2010 15:11
App-Cache-0.31.tar.gz 446719-Jul-2005 20:47
App-Cache-0.33.tar.gz 450301-Mar-2008 18:43
App-Cache-0.34.tar.gz 467314-Aug-2008 09:53
App-Cache-0.35.tar.gz 476410-Sep-2008 19:27
App-Cache-0.36.tar.gz 544726-Jun-2009 15:37
App-Cache-0.37.tar.gz 569008-Dec-2009 20:30
App-Cmd-0.200.tar.gz 3685015-Sep-2008 01:44
App-Cmd-0.203.tar.gz 3706716-Jan-2009 15:58
App-Cmd-0.304.tar.gz 4062207-Dec-2009 23:54
App-Cmd-0.307.tar.gz 4264409-Mar-2010 15:12
App-Control-1.02.tar.gz 469027-Aug-2003 16:49
App-Info-0.25.tar.gz 5217015-Aug-2004 02:08
App-Info-0.44.tar.gz 6270508-Jan-2005 00:32
App-Info-0.45.tar.gz 6330508-Nov-2005 06:02
App-Info-0.49.tar.gz 6867608-Apr-2006 05:37
App-Info-0.51.tar.gz 6902525-Sep-2006 17:55
App-Info-0.52.tar.gz 6907801-Mar-2008 18:43
App-Info-0.55.tar.gz 6952118-Jul-2008 16:20
App-Nopaste-0.10.tar.gz 2632328-Jan-2009 23:50
App-Nopaste-0.17.tar.gz 3023102-Nov-2009 18:24
App-Nopaste-0.18.tar.gz 2998030-Dec-2009 21:07
App-Nopaste-0.19.tar.gz 3009821-Feb-2010 20:43
App-Nopaste-0.20.tar.gz 3322417-Apr-2010 03:08
App-Nopaste-0.21.tar.gz 3355101-May-2010 01:33
App-Nopaste-0.22.tar.gz 3368410-Jun-2010 17:04
App-Options-1.01.tar.gz 3267201-Aug-2006 13:55
App-Options-1.02.tar.gz 3367327-Oct-2006 18:43
App-Options-1.03.tar.gz 3427101-Mar-2008 18:43
App-Options-1.04.tar.gz 3436527-Feb-2008 03:13
App-Options-1.06.tar.gz 3450917-Dec-2008 20:55
App-Options-1.07.tar.gz 3470602-Apr-2009 18:23
App-Options-1.11.tar.gz 3878331-Aug-2010 03:27
App-Options-1.12.tar.gz 3892112-Oct-2010 15:50
App-Pm2Port-0.26.tar.gz 2604609-Dec-2009 14:59
App-Pm2Port-0.29.tar.gz 2684511-Jan-2010 12:52
App-SVN-Bisect-0.8.tar.gz 1538202-May-2009 13:23
App-SVN-Bisect-1.0.tar.gz 1993104-Dec-2009 16:01
App-Trace-0.50.tar.gz 609620-Aug-2006 04:25
App-cpanminus-0.9932.tar.gz 5386105-Apr-2010 23:28
App-cpanminus-0.9935.tar.gz 5473514-Apr-2010 09:30
App-cpanminus-1.0001.tar.gz 5775424-Apr-2010 08:26
App-cpanminus-1.0004.tar.gz 5812514-May-2010 23:10
App-cpanminus-1.0006.tar.gz 5839702-Jul-2010 23:54
App-cpanminus-1.0010.tar.gz 5863430-Jul-2010 19:55
App-cpanminus-1.0012.tar.gz 5873520-Aug-2010 19:58
App-cpanminus-1.0015.tar.gz 5909925-Sep-2010 06:52
App-perlbrew-0.10.tar.gz 3588524-Aug-2010 10:16
AppConfig-1.56.tar.gz 5441304-Feb-2004 10:33
AppConfig-1.63.tar.gz 6307503-Aug-2006 02:27
AppConfig-1.64.tar.gz 6372502-Jan-2007 07:21
AppConfig-1.66.tar.gz 6352106-Jul-2007 12:21
AppConfig-Std-1.07.tar.gz 614003-Jul-2002 21:35
AppWrapper.0.1.tar.gz 2415421-Jun-2002 21:47
Apple_Platinum_Amp.zip 4011307-Feb-2000 16:22
Aqua.zip 3603630-May-2000 19:01
AquaExtremeSunken.tar.gz 22061418-Aug-2006 09:09
Arabic.zip 1892124-Jul-2008 09:05
Architect-generic-jdbc-0.9.10.tar.gz 1477325021-Jun-2008 02:00
Architect-generic-jdbc-0.9.11.tar.gz 1504893422-Jul-2008 10:17
Architect-generic-jdbc-0.9.12.tar.gz 1805936109-Feb-2009 14:09
Archive-Any-0.093.tar.gz 1839508-Sep-2006 04:43
Archive-Extract-0.08.tar.gz 1155921-Jul-2006 18:14
Archive-Extract-0.12.tar.gz 1335413-Aug-2006 13:08
Archive-Extract-0.14.tar.gz 1362220-Oct-2006 13:10
Archive-Extract-0.16.tar.gz 1569426-Jan-2007 14:21
Archive-Extract-0.22.tar.gz 1653429-May-2007 19:30
Archive-Extract-0.24.tar.gz 1826601-Nov-2007 09:27
Archive-Extract-0.26.tar.gz 1904401-Mar-2008 18:43
Archive-Extract-0.28.tar.gz 2076110-Oct-2008 13:51
Archive-Extract-0.30.tar.gz 2105816-Dec-2008 16:43
Archive-Extract-0.32.tar.gz 2272312-Jun-2009 11:29
Archive-Extract-0.34.tar.gz 2347027-Jun-2009 12:32
Archive-Extract-0.36.tar.gz 2347924-Nov-2009 10:41
Archive-Extract-0.38.tar.gz 2369206-Jan-2010 23:56
Archive-Extract-0.40.tar.gz 2498814-May-2010 13:10
Archive-Extract-0.42.tar.gz 2500728-Jun-2010 18:38
Archive-Extract-0.44.tar.gz 2517329-Sep-2010 14:53
Archive-Extract-0.46.tar.gz 2535026-Oct-2010 22:48
Archive-Rar-2.02.tar.gz 2769906-Mar-2008 14:12
Archive-SimpleExtractor-0.03.tar.gz 430508-Oct-2009 14:38
Archive-SimpleExtractor-0.06.tar.gz 448310-Nov-2009 09:46
Archive-SimpleExtractor-0.11.tar.gz 453701-Mar-2010 10:10
Archive-Tar-1.23.tar.gz 3251624-Jan-2005 09:15
Archive-Tar-1.24.tar.gz 3288803-May-2005 13:11
Archive-Tar-1.26.tar.gz 3507022-Aug-2005 09:29
Archive-Tar-1.28.tar.gz 3615019-Jan-2006 13:31
Archive-Tar-1.29.tar.gz 3831703-Mar-2006 13:56
Archive-Tar-1.30.tar.gz 3974902-Aug-2006 15:00
Archive-Tar-1.32.tar.gz 3952225-May-2007 09:32
Archive-Tar-1.34.tar.gz 4054215-Aug-2007 14:20
Archive-Tar-1.36.tar.gz 4112616-Sep-2007 09:13
Archive-Tar-1.38.tar.gz 4245201-Mar-2008 18:43
Archive-Tar-1.40.tar.gz 4824313-Oct-2008 13:42
Archive-Tar-1.42.tar.gz 4886513-Dec-2008 17:10
Archive-Tar-1.44.tar.gz 4903719-Jan-2009 17:08
Archive-Tar-1.46.tar.gz 4971505-Mar-2009 16:10
Archive-Tar-1.48.tar.gz 5009420-Apr-2009 17:07
Archive-Tar-1.52.tar.gz 5077813-Jun-2009 11:29
Archive-Tar-1.54.tar.gz 5196610-Sep-2009 12:13
Archive-Tar-1.56.tar.gz 5234003-Feb-2010 14:40
Archive-Tar-1.60.tar.gz 5298823-Apr-2010 14:12
Archive-Tar-1.62.tar.gz 5310728-Jun-2010 21:02
Archive-Tar-1.64.tar.gz 5373609-Jul-2010 11:04
Archive-Tar-1.66.tar.gz 5433226-Jul-2010 08:44
Archive-Tar-1.68.tar.gz 5449817-Aug-2010 16:06
Archive-Zip-1.14.tar.gz 11033013-Dec-2004 07:48
Archive-Zip-1.16.tar.gz 11133604-Jul-2005 17:55
Archive-Zip-1.18.tar.gz 22403125-Oct-2006 12:24
Archive-Zip-1.20.tar.gz 17622005-Jun-2007 01:50
Archive-Zip-1.23.tar.gz 19092401-Mar-2008 18:43
Archive-Zip-1.24.tar.gz 19330323-Aug-2008 23:35
Archive-Zip-1.26.tar.gz 19392112-Oct-2008 14:13
Archive-Zip-1.28.tar.gz 19508316-Jun-2009 10:09
Archive-Zip-1.30.tar.gz 19717930-Jun-2009 14:13
ArgoUML-0.16.1.tar.gz 554272601-Dec-2004 04:40
ArgoUML-0.18.1.tar.gz 895060126-Apr-2005 20:38
ArgoUML-0.20.tar.gz 626497516-Oct-2006 13:24
ArgoUML-0.22.tar.gz 679818308-Aug-2006 22:39
ArgoUML-0.24.tar.gz 709691712-Feb-2007 23:24
ArgoUML-0.26.2.tar.gz 749928919-Nov-2008 22:50
ArgoUML-0.26.tar.gz 749462127-Sep-2008 21:10
Ark-0.001000_001.tar.gz 7098101-Jun-2009 01:05
Array-Compare-1.03.tar.gz 742615-Aug-2004 02:08
Array-Compare-1.13.tar.gz 845601-Oct-2005 17:28
Array-Compare-1.14.tar.gz 841301-Apr-2007 15:14
Array-Compare-1.15.tar.gz 862406-Mar-2008 22:10
Array-Compare-1.16.tar.gz 810829-Jun-2008 14:06
Array-Compare-1.17.tar.gz 815818-Dec-2008 11:52
Array-Compare-1.18.tar.gz 926614-Jun-2009 18:01
Array-Compare-2.00.tar.gz 882609-Aug-2009 19:09
Array-Compare-2.01.tar.gz 912229-Aug-2009 15:14
Array-Diff-0.04.tar.gz 1012402-Sep-2006 04:32
Array-Diff-0.05.tar.gz 4229623-Oct-2008 02:12
Array-Diff-0.05002.tar.gz 4581012-May-2009 02:57
Array-Diff-0.07.tar.gz 5212608-Oct-2010 00:05
Array-Group-1.00.tar.gz 392109-Apr-2006 21:10
Array-Group-2.0a.tar.gz 394225-Feb-2008 19:40
Array-IntSpan-1.01.tar.gz 542015-Aug-2004 02:08
Array-IntSpan-2.001.tar.gz 1449829-Jan-2004 16:42
Array-IntSpan-2.002.tar.gz 1472828-Sep-2010 09:37
Array-Iterator-0.05.tar.gz 929915-Jul-2004 16:23
Array-Iterator-0.06.tar.gz 1038828-Dec-2005 15:17
Array-PrintCols-2.1.tar.gz 1492618-Jan-1998 08:59
Array-RefElem-0.02.tar.gz 196115-Aug-2004 02:08
Array-RefElem-1.00.tar.gz 203018-Dec-2003 09:34
Array-Window-0.4.tar.gz 1560712-Mar-2004 16:10
Array-Window-1.00.tar.gz 2368705-Jun-2006 16:42
Array-Window-1.01.tar.gz 2454528-Jun-2007 01:54
Array-Window-1.02.tar.gz 2643405-Jun-2008 13:36
AsciiDB-TagFile-1.06.tar.gz 744602-Feb-2001 09:14
Aspyct-3.0_beta_4.tar.gz 746301-Apr-2009 20:06
AssaultCube_v0.93.tar.bz2 1852143401-Nov-2007 09:27
AssaultCube_v1.0.2.tar.bz2 4267350430-Dec-2008 21:18
Asterisk-0.08.tar.gz 1321711-Oct-2004 09:29
Astro-0.71.tar.gz 3358218-May-2009 04:17
Astro-0.73.tar.gz 3375119-Aug-2010 05:07
Astro-ADS-1.20.7.tar.gz 2794016-Jul-2003 18:59
Astro-Catalog-2.1.3.tar.gz 7212122-Jul-2003 01:00
Astro-Catalog-3.9.9.tar.gz 20743708-Jun-2005 01:32
Astro-Catalog-4.1.0.tar.gz 22239411-Apr-2006 22:51
Astro-Constants-0.09.tar.gz 1203401-Apr-2003 14:20
Astro-DSS-1.6.1.tar.gz 1256916-Jul-2003 19:35
Astro-FITS-Header-2.8.1.tar.gz 7390812-Nov-2003 13:54
Astro-FITS-Header-3.0.tar.gz 8537519-Aug-2006 00:28
Astro-FITS-Header-3.01.tar.gz 8847217-Mar-2009 00:19
Astro-Hipparcos-0.08.tar.gz 5644502-Jan-2010 21:35
Astro-Hipparcos-0.09.tar.gz 5654814-Jan-2010 16:22
Astro-MoonPhase-0.52.tar.gz 755207-Oct-2004 15:39
Astro-MoonPhase-0.60.tar.gz 3217024-Mar-2007 18:31
Astro-SIMBAD-1.9.5.tar.gz 1893615-Aug-2004 02:08
Astro-SIMBAD-2.0.0.tar.gz 2198308-Jun-2005 01:49
Astro-SIMBAD-Client-0.018.tar.gz 3188709-Apr-2009 17:50
Astro-SpaceTrack-0.022.tar.gz 2967420-Jul-2006 14:39
Astro-SpaceTrack-0.024.tar.gz 3518812-Sep-2006 19:38
Astro-SpaceTrack-0.027.tar.gz 3728431-Jan-2007 02:41
Astro-SpaceTrack-0.028.tar.gz 3831515-May-2007 16:44
Astro-SpaceTrack-0.029.tar.gz 3971926-Oct-2007 13:50
Astro-SpaceTrack-0.030.tar.gz 3994901-Nov-2007 09:27
Astro-SpaceTrack-0.031.tar.gz 4040801-Mar-2008 18:43
Astro-SpaceTrack-0.032.tar.gz 4056107-Jul-2008 00:37
Astro-SpaceTrack-0.033.tar.gz 4178230-Sep-2008 23:36
Astro-SpaceTrack-0.034.tar.gz 4365224-Nov-2008 20:20
Astro-SpaceTrack-0.035.tar.gz 5120323-Dec-2008 22:58
Astro-SpaceTrack-0.037.tar.gz 5197901-Jan-2009 15:33
Astro-SpaceTrack-0.038.tar.gz 5251713-Feb-2009 15:47
Astro-SpaceTrack-0.039.tar.gz 5302209-Mar-2009 22:07
Astro-SpaceTrack-0.040.tar.gz 5316223-Apr-2009 01:18
Astro-SpaceTrack-0.041.tar.gz 6424418-Aug-2009 18:02
Astro-SpaceTrack-0.042.tar.gz 6432631-Aug-2009 01:31
Astro-SpaceTrack-0.044.tar.gz 6703704-Sep-2009 00:26
Astro-SpaceTrack-0.045.tar.gz 7821402-Mar-2010 04:39
Astro-SpaceTrack-0.046.tar.gz 8132328-Mar-2010 21:05
Astro-SpaceTrack-0.048.tar.gz 8899018-Sep-2010 17:20
Astro-SpaceTrack-0.049.tar.gz 8909827-Sep-2010 01:34
Astro-SpaceTrack-0.050.tar.gz 8928713-Oct-2010 03:15
Astro-SunTime-0.01.tar.gz 226013-Dec-1999 22:22
Astro-Sunrise-0.91.tar.gz 1233931-Oct-2003 15:59
Astro-satpass-0.023.tar.gz 26878009-Mar-2009 22:42
Astro-satpass-0.024.tar.gz 32289518-Aug-2009 18:15
Astro-satpass-0.025.tar.gz 32494907-Sep-2009 23:29
Astro-satpass-0.026.tar.gz 32685502-Oct-2009 23:25
Astro-satpass-0.027.tar.gz 35245209-Jan-2010 04:45
Astro-satpass-0.028.tar.gz 35256811-Jan-2010 19:59
Astro-satpass-0.029.tar.gz 35597804-Feb-2010 21:41
Astro-satpass-0.030.tar.gz 35627926-Feb-2010 21:32
Astro-satpass-0.031.tar.gz 36715007-May-2010 01:43
Astro-satpass-0.032.tar.gz 37068203-Jul-2010 17:49
Astro-satpass-0.033.tar.gz 37587717-Sep-2010 16:28
Async-MergePoint-0.03.tar.gz 1403606-Jul-2009 23:35
AtExit-2.01.tar.gz 808120-Jan-1999 00:02
Atlas-0.3.0.20080504.tar.gz 13368704-May-2008 11:06
Atlas-0.3.0.tar.gz 19937928-Jul-2005 10:26
Atlas-0.3.1.20090529.tar.gz 13066729-May-2009 12:25
Atlas-C++-0.4.94.tar.gz 38228415-Aug-2004 02:08
Atlas-C++-0.4.95.tar.bz2 25789423-Apr-2005 22:01
Atlas-C++-0.5.0.tar.bz2 25670411-Jun-2005 16:53
Atlas-C++-0.5.2.tar.bz2 27699317-Oct-2005 16:37
Atlas-C++-0.5.94.tar.bz2 29666318-Apr-2005 17:03
Atlas-C++-0.6.0.tar.bz2 31649819-Apr-2006 16:19
Atlas-C++-0.6.0rc1.tar.bz2 32708120-Oct-2005 00:49
Atlas-C++-0.6.0rc2.tar.bz2 32857320-Nov-2005 20:31
Atlas-C++-0.6.1.tar.bz2 35224724-Nov-2007 18:36
Atlas-C++-0.6.2.tar.bz2 34481313-Nov-2009 16:14
AtomicParsley-source-0.9.0.zip 17261526-Sep-2006 21:36
Attribute-Handlers-0.78.tar.gz 1539205-Oct-2002 05:43
Attribute-Handlers-0.80.tar.gz 1600525-Oct-2008 09:29
Attribute-Handlers-0.81.tar.gz 1613309-Nov-2008 21:55
Attribute-Handlers-0.82.tar.gz 2171011-Mar-2009 17:09
Attribute-Handlers-0.83.tar.gz 2179613-Mar-2009 14:18
Attribute-Handlers-0.85.tar.gz 2222311-Jun-2009 07:44
Attribute-Handlers-0.86.tar.gz 2241108-Aug-2009 10:43
Attribute-Handlers-0.87.tar.gz 2317121-Sep-2009 13:57
Attribute-Handlers-0.88.tar.gz 2340805-Apr-2010 14:54
Attribute-Handlers-Prospective-0.01.tar.gz 1373025-Oct-2001 10:51
Attribute-Persistent-1.0.tar.gz 223209-Apr-2005 05:53
Attribute-Persistent-1.1.tar.gz 247625-Jun-2005 22:26
Audio-1.029.tar.gz 8803102-Jun-2004 18:52
Audio-Beep-0.11.tar.gz 3431814-Apr-2004 08:16
Audio-CD-0.04.tar.gz 653917-May-2000 04:58
Audio-FLAC-Header-1.4.tar.gz 5731813-Mar-2005 01:03
Audio-FLAC-Header-1.7.tar.gz 11398005-Jan-2007 23:54
Audio-FLAC-Header-1.8.tar.gz 11537726-Jul-2007 21:05
Audio-FLAC-Header-1.9.tar.gz 11585501-Mar-2008 18:43
Audio-FLAC-Header-2.0.tar.gz 11641223-Feb-2008 21:55
Audio-FLAC-Header-2.3.tar.gz 11764308-Nov-2008 23:39
Audio-M4P-0.51.tar.gz 171407512-Jul-2008 03:32
Audio-MPD-0.19.10.tar.gz 3232521-Oct-2009 12:24
Audio-MPD-0.19.4.tar.gz 4588816-Aug-2008 08:41
Audio-MPD-0.19.5.tar.gz 4622105-Jan-2009 15:30
Audio-MPD-0.19.6.tar.gz 4624814-Feb-2009 12:04
Audio-MPD-0.19.8.tar.gz 5374714-Oct-2009 16:07
Audio-MPD-1.093170.tar.gz 3215513-Nov-2009 18:07
Audio-MPD-1.102260.tar.gz 3343514-Aug-2010 17:22
Audio-MPD-Common-0.1.3.tar.gz 840523-Sep-2008 06:42
Audio-MPD-Common-0.1.4.tar.gz 851106-Jan-2009 15:43
Audio-MPD-Common-1.092860.tar.gz 1604913-Oct-2009 15:34
Audio-MPD-Common-1.092910.tar.gz 1620418-Oct-2009 09:55
Audio-MPD-Common-1.093120.tar.gz 1625508-Nov-2009 14:15
Audio-MPD-Common-1.093190.tar.gz 1649115-Nov-2009 11:14
Audio-MPD-Common-1.100430.tar.gz 1611912-Feb-2010 11:56
Audio-MPD-v0.19.7.tar.gz 5289330-Sep-2009 15:00
Audio-Mixer-0.7.tar.gz 670908-Apr-2003 19:53
Audio-Musepack-0.02.tar.gz 642710-May-2004 00:17
Audio-Musepack-0.7.tar.gz 10178706-Jan-2007 04:15
Audio-Scan-0.25.tar.gz 196501711-Jul-2009 02:01
Audio-Scan-0.27.tar.gz 200970627-Jul-2009 03:06
Audio-Scan-0.29.tar.gz 200971007-Aug-2009 19:46
Audio-Scan-0.30.tar.gz 205511427-Aug-2009 04:18
Audio-Scan-0.31.tar.gz 206180529-Aug-2009 17:32
Audio-Scan-0.37.tar.gz 206498219-Sep-2009 03:49
Audio-Scan-0.38.tar.gz 206493822-Sep-2009 17:09
Audio-Scan-0.40.tar.gz 217127703-Oct-2009 19:44
Audio-Scan-0.42.tar.gz 255666313-Oct-2009 14:47
Audio-Scan-0.43.tar.gz 255635416-Oct-2009 18:53
Audio-Scan-0.44.tar.gz 255803917-Oct-2009 01:42
Audio-Scan-0.45.tar.gz 256172426-Oct-2009 18:43
Audio-Scan-0.48.tar.gz 256503502-Nov-2009 20:41
Audio-Scan-0.49.tar.gz 256510009-Nov-2009 14:01
Audio-Scan-0.50.tar.gz 266192713-Nov-2009 02:58
Audio-Scan-0.51.tar.gz 266190116-Nov-2009 20:10
Audio-Scan-0.52.tar.gz 266311921-Nov-2009 04:20
Audio-Scan-0.54.tar.gz 272679725-Nov-2009 20:14
Audio-Scan-0.55.tar.gz 272850626-Nov-2009 22:04
Audio-Scan-0.56.tar.gz 273578721-Dec-2009 13:11
Audio-Scan-0.57.tar.gz 278026213-Jan-2010 02:38
Audio-Scan-0.58.tar.gz 281129028-Jan-2010 17:28
Audio-Scan-0.59.tar.gz 288263708-Feb-2010 20:24
Audio-Scan-0.62.tar.gz 302355902-Mar-2010 16:57
Audio-Scan-0.75.tar.gz 298778102-Apr-2010 19:56
Audio-Scan-0.79.tar.gz 302844527-Apr-2010 18:30
Audio-Scan-0.81.tar.gz 303409615-May-2010 14:39
Audio-Scan-0.82.tar.gz 309215724-May-2010 17:14
Audio-Scan-0.83.tar.gz 309317410-Jun-2010 18:13
Audio-Scan-0.84.tar.gz 310434627-Aug-2010 23:09
Audio-Scan-0.85.tar.gz 310478009-Sep-2010 03:39
Audio-Scrobbler-0.01.tar.gz 703102-Jan-2006 09:43
Audio-TagLib-1.42.tar.gz 151516717-Apr-2006 12:04
Audio-TagLib-1.43.tar.gz 151506317-Jan-2007 02:58
Audio-WMA-0.7.tar.gz 10084607-Oct-2004 23:49
Audio-WMA-1.1.tar.gz 13041706-Jan-2007 00:02
Audio-WMA-1.3.tar.gz 13154329-Nov-2008 23:11
Audio-Wav-0.02.tar.gz 1582715-Aug-2004 02:08
Audio-Wav-0.04.tar.gz 1782430-Dec-2004 12:13
Audio-Wav-0.05.tar.gz 1714925-Oct-2005 12:07
Audio-Wav-0.06.tar.gz 1820122-Mar-2006 09:47
Audio-Wav-0.07.tar.gz 2019607-Feb-2010 18:10
Audio-Wav-0.08.tar.gz 2023709-Feb-2010 06:42
Audio-Wav-0.09.tar.gz 2135311-Feb-2010 16:28
Audio-Wav-0.10.tar.gz 2180314-Feb-2010 04:19
Audio-Wav-0.11.tar.gz 2327412-Mar-2010 04:18
Audio-Wav-0.12.tar.gz 2290330-May-2010 10:14
Auth-Yubikey_Decrypter-0.07.tar.gz 383613-Dec-2009 04:07
AuthCAS-1.4.tar.gz 778508-Jun-2009 13:03
Auth_OpenID-1.2.2.tgz 8730423-Mar-2007 18:20
Authen-Bitcard-0.86.tar.gz 1145404-Jul-2006 07:32
Authen-Bitcard-0.87.tar.gz 1148115-Sep-2009 02:47
Authen-Bitcard-0.89.tar.gz 1470402-Aug-2010 10:14
Authen-Captcha-1.023.tar.gz 9898618-Dec-2003 04:53
Authen-CyrusSASL-0.01.tar.gz 411324-Sep-2001 13:53
Authen-DecHpwd-2.002.tar.gz 1872117-Sep-2007 20:33
Authen-DecHpwd-2.004.tar.gz 3134815-Mar-2009 23:15
Authen-DecHpwd-2.005.tar.gz 3880130-Jul-2010 18:32
Authen-Htpasswd-0.12.tar.gz 660410-Nov-2005 12:21
Authen-Htpasswd-0.13.tar.gz 702927-Nov-2005 20:38
Authen-Htpasswd-0.14.tar.gz 803703-Mar-2006 07:06
Authen-Htpasswd-0.15.tar.gz 760331-Dec-2006 19:54
Authen-Htpasswd-0.16.tar.gz 774115-Jul-2007 22:35
Authen-Htpasswd-0.161.tar.gz 786412-Oct-2008 19:36
Authen-Libwrap-0.20.tar.gz 1681018-Dec-2003 03:00
Authen-Libwrap-0.21.tar.gz 1883121-Jul-2008 12:20
Authen-PAAS-1.1.1.tar.gz 2186622-Jun-2006 23:44
Authen-PAM-0.14.tar.gz 4345525-Feb-2003 10:00
Authen-PAM-0.16.tar.gz 4592221-Sep-2005 18:46
Authen-Passphrase-0.005.tar.gz 4002321-Jan-2007 00:42
Authen-Passphrase-0.006.tar.gz 4382907-Mar-2009 11:18
Authen-Passphrase-0.007.tar.gz 5590530-Jul-2010 18:42
Authen-PluggableCaptcha-0.05.tar.gz 2626227-Feb-2007 23:56
Authen-SASL-2.08.tar.gz 1601815-Aug-2004 02:08
Authen-SASL-2.09.tar.gz 2607026-Apr-2005 13:37
Authen-SASL-2.10.tar.gz 4278325-Mar-2006 23:40
Authen-SASL-2.11.tar.gz 4763121-Apr-2008 15:43
Authen-SASL-2.12.tar.gz 5039401-Jul-2008 02:59
Authen-SASL-2.13.tar.gz 3619624-Sep-2009 22:36
Authen-SASL-2.14.tar.gz 4189011-Mar-2010 15:12
Authen-SASL-2.1401.tar.gz 4452029-Mar-2010 19:28
Authen-SASL-2.15.tar.gz 4463402-Jun-2010 18:58
Authen-SASL-Cyrus-0.12.tar.gz 1152222-Dec-2004 19:52
Authen-Simple-0.4.tar.gz 830413-Jan-2006 20:20
Authen-Simple-DBI-0.2.tar.gz 412415-Jan-2006 12:35
Authen-Simple-DBM-0.2.tar.gz 431315-Jan-2006 16:58
Authen-Simple-HTTP-0.2.tar.gz 299912-Jan-2006 19:23
Authen-Simple-LDAP-0.2.tar.gz 432805-Jan-2006 18:39
Authen-Simple-Net-0.2.tar.gz 308204-Jan-2006 13:21
Authen-Simple-PAM-0.2.tar.gz 265712-Jan-2006 01:58
Authen-Simple-Passwd-0.6.tar.gz 384915-Jan-2006 12:52
Authen-Simple-RADIUS-0.1.tar.gz 272604-Jan-2006 00:49
Authen-Simple-SMB-0.1.tar.gz 262404-Jan-2006 00:34
Authen-Simple-SSH-0.1.tar.gz 267404-Jan-2006 00:37
Authen-Smb-0.91.tar.gz 3871007-Jun-1999 14:54
Authen-Ticket-0.02.tar.gz 1445618-Nov-1999 21:50
Authen-TypeKey-0.05.tar.gz 1794406-Feb-2006 06:32
AutoIndex-1.5.1.tar.gz 8768124-Jan-2005 09:15
AutoIndex-1.5.2.tar.gz 8787128-Dec-2004 02:34
AutoIndex-1.5.4.tar.gz 9226106-Oct-2005 00:20
AutoIndex-2.1.0.tar.gz 11158212-Feb-2005 18:08
AutoIndex-2.1.2.tar.gz 11939310-Aug-2005 19:43
AutoIndex-2.2.0.tar.gz 11808801-Jan-2006 03:15
AutoIndex-2.2.1.tar.gz 11868413-Jan-2007 22:20
AutoIndex-2.2.4.tar.gz 15615301-Mar-2008 18:43
AutoLoader-5.63.tar.gz 1598217-Jan-2007 13:37
AutoLoader-5.64.tar.gz 2784001-Mar-2008 18:43
AutoLoader-5.66.tar.gz 2756114-May-2008 16:32
AutoLoader-5.67.tar.gz 2592712-Sep-2008 14:54
AutoLoader-5.68.tar.gz 2902905-Jan-2009 15:29
AutoLoader-5.69.tar.gz 2926308-Aug-2009 10:38
AutoLoader-5.70.tar.gz 2932021-Sep-2009 13:49
AutoQ3DCommunity1-39qt4source.zip 21958001-Apr-2009 02:43
AutoQ3DGPL1-36qt4source.zip 22152022-Jul-2007 05:38
AutoXS-Header-0.03.tar.gz 249704-May-2008 14:18
AutoXS-Header-0.05.tar.gz 258509-Dec-2008 20:19
AutoXS-Header-1.00.tar.gz 334617-May-2009 09:23
AutoXS-Header-1.01.tar.gz 341931-May-2009 16:44
AutoXS-Header-1.02.tar.gz 344111-Jun-2009 14:43
AutoZen-1.3.1.tar.gz 4338207-Jun-2005 00:17
Autodia-2.01.tar.gz 5748509-Apr-2005 05:53
Autodia-2.02.tar.gz 5868827-Apr-2005 09:34
Autodia-2.03.tar.gz 6184327-Apr-2006 16:22
AxKit-1.6.2.tar.gz 30569828-Jan-2005 01:30
AxKit-1.7.tar.gz 32540704-Nov-2005 16:07
AxKit-XSP-Cookie-1.41.tar.gz 380330-Nov-2001 14:54
AxKit-XSP-ESQL-1.4.tar.gz 656405-Jun-2001 16:09
AxKit-XSP-Exception-1.6.tar.gz 261211-Jun-2002 07:46
AxKit-XSP-IfParam-1.4.tar.gz 143908-Jun-2001 15:57
AxKit-XSP-Param-1.4.tar.gz 257305-Jun-2001 16:10
AxKit-XSP-PerForm-1.83.tar.gz 1344010-Aug-2003 16:46
AxKit-XSP-Sendmail-1.4.tar.gz 368305-Jun-2001 16:10
AxKit-XSP-Sendmail-1.5.tar.gz 516217-Apr-2005 20:50
AxKit-XSP-Util-1.6.tar.gz 351311-Jun-2002 07:46
AxKit-XSP-WebUtils-1.6.tar.gz 534710-Jul-2003 09:48
Axiom-0.4.0.tar.gz?format=raw 6626621-Dec-2005 01:22
Axiom-0.5.20.tar.gz?format=raw 15388726-Oct-2007 13:50
Axiom-0.5.30.tar.gz?format=raw 18253518-Nov-2008 18:35
Axiom-0.5.31.tar.gz?format=raw 38880513-Mar-2009 17:58
Azureus_2.2.0.2_source.zip 331810228-Mar-2005 06:10
Azureus_2.3.0.4_source.zip 453769527-Jun-2005 12:11
Azureus_2.3.0.6_source.zip 477356622-Nov-2005 21:16
Azureus_2.4.0.2_source.zip 518867916-Mar-2006 21:38
Azureus_2.5.0.0_source.zip 585632821-Aug-2006 17:24
Azureus_3.0.1.6_source.zip 662083615-Sep-2007 11:54
Azureus_3.0.3.0_source.zip 707336426-Oct-2007 13:50
Azureus_3.0.3.4_source.zip 698873707-Dec-2007 20:58
Azureus_3.0.5.2_source.zip 753764315-Apr-2008 05:43
B-Deobfuscate-0.10.tar.gz 1256323-Jul-2003 14:16
B-Deobfuscate-0.13.tar.gz 1403121-Jul-2006 18:14
B-Deobfuscate-0.14.tar.gz 1861006-Jul-2006 14:45
B-Deobfuscate-0.16.tar.gz 1729721-Sep-2006 05:45
B-Deobfuscate-0.17.tar.gz 1735910-Jan-2007 04:15
B-Deobfuscate-0.18.tar.gz 1743321-Mar-2007 16:05
B-Deobfuscate-0.20.tar.gz 1779201-Nov-2007 09:27
B-Generate-1.06.tar.gz 1237928-Jul-2002 21:21
B-Generate-1.10.tar.gz 2116410-Jul-2007 14:29
B-Generate-1.11.tar.gz 2138801-Mar-2008 18:43
B-Generate-1.13.tar.gz 3074302-Aug-2008 20:22
B-Generate-1.19.tar.gz 3280623-Dec-2008 04:44
B-Generate-1.20.tar.gz 3339518-Jan-2009 18:09
B-Generate-1.26.tar.gz 3914914-Jan-2010 17:33
B-Generate-1.27.tar.gz 3961710-Apr-2010 09:05
B-Generate-1.33.tar.gz 3124308-Sep-2010 14:25
B-Graph-0.51.tar.gz 1250501-Jan-2001 04:01
B-Hooks-EndOfScope-0.04.tar.gz 1477520-Oct-2008 10:59
B-Hooks-EndOfScope-0.05.tar.gz 1510004-Jan-2009 19:55
B-Hooks-EndOfScope-0.06.tar.gz 1530719-Jan-2009 00:04
B-Hooks-EndOfScope-0.07.tar.gz 1568620-Feb-2009 13:27
B-Hooks-EndOfScope-0.08.tar.gz 1679019-Apr-2009 17:19
B-Hooks-EndOfScope-0.09.tar.gz 1084107-May-2010 20:14
B-Hooks-OP-Check-0.14.tar.gz 5592009-Nov-2008 21:25
B-Hooks-OP-Check-0.15.tar.gz 5596711-Nov-2008 17:23
B-Hooks-OP-Check-0.17.tar.gz 6026919-Apr-2009 08:28
B-Hooks-OP-Check-0.18.tar.gz 6053706-Jul-2009 12:41
B-Hooks-OP-PPAddr-0.03.tar.gz 6063228-Jul-2009 06:18
B-Hooks-Parser-0.08.tar.gz 6571612-Dec-2008 15:40
B-Hooks-Parser-0.09.tar.gz 6751003-Jun-2009 11:25
B-Keywords-0.06.tar.gz 453407-Aug-2003 16:33
B-Keywords-1.01.tar.gz 553121-Jul-2006 18:14
B-Keywords-1.04.tar.gz 690717-Aug-2006 17:43
B-Keywords-1.05.tar.gz 590425-Nov-2006 04:07
B-Keywords-1.06.tar.gz 594314-Feb-2007 17:21
B-Keywords-1.08.tar.gz 509601-Nov-2007 09:27
B-Keywords-1.09.tar.gz 593109-Mar-2009 03:44
B-Keywords-1.10.tar.gz 598005-Sep-2010 21:32
B-LexInfo-0.02.tar.gz 493929-Jun-1999 05:03
B-OPCheck-0.27.tar.gz 5489904-Aug-2008 19:30
B-OPCheck-0.29.tar.gz 6157815-Sep-2009 06:07
B-Size-0.05.tar.gz 954824-Jan-2005 09:15
B-Size-0.06.tar.gz 1000006-Nov-2005 04:13
B-Size-0.08.tar.gz 1055629-May-2006 11:02
B-Size-0.09.tar.gz 1069502-Dec-2006 12:57
B-Utils-0.05.tar.gz 707826-Nov-2004 05:06
B-Utils-0.06.tar.gz 2679201-Sep-2008 05:02
B-Utils-0.07.tar.gz 2705313-Nov-2008 19:06
B-Utils-0.08.tar.gz 6799601-Sep-2009 15:39
B-Utils-0.09.tar.gz 6788707-Dec-2009 05:41
B-Utils-0.11.tar.gz 6907013-Jan-2010 03:18
BASS-CD.zip 6931044402-Aug-2003 03:00
BBBike-3.13.tar.gz 206011509-Apr-2005 05:53
BBBike-3.14.tar.gz 236182930-Apr-2005 10:15
BBBike-3.15.tar.gz 264322911-Dec-2005 19:42
BBBike-3.16.tar.gz 348994501-Mar-2008 18:43
BBBike-3.17.tar.gz 410899620-Mar-2010 12:45
BBMan-src-v1-7-7-5.zip 17190416-Aug-2004 17:00
BBS-Client-0.03.tar.gz 692130-Nov-2007 17:22
BBS-UserInfo-0.01.tar.gz 147020-Aug-2006 05:26
BBS-UserInfo-Maple3-0.01.tar.gz 244519-Aug-2006 21:11
BBS-UserInfo-Maple3itoc-0.01.tar.gz 246420-Aug-2006 04:44
BBS-UserInfo-Ptt-0.06.tar.gz 256619-Aug-2006 20:20
BBS-UserInfo-SOB-0.01.tar.gz 244420-Aug-2006 03:34
BBS-UserInfo-Wretch-0.03.tar.gz 299120-Aug-2006 12:21
BCWipe-1.2-3.tar.gz 1704915-Aug-2004 02:09
BCWipe-1.5-3.tar.gz 2109323-Jun-2004 11:45
BCWipe-1.6-1.tar.gz 2167417-Feb-2006 06:49
BCWipe-1.6-5.tar.gz 2247829-May-2009 09:06
BDB-0.2.1-api-ref.tgz 2954431-Aug-2006 21:05
BDB-0.2.1-src.tgz 5739431-Aug-2006 21:05
BFD-0.31.tar.gz 277310-Mar-2004 17:50
BIND-Conf_Parser-0.95.tar.gz 1270530-Aug-2000 02:16
BIND-Config-Parser-0.01.tar.gz 428826-Jun-2005 22:01
BLT2.4z.tar.gz 220097316-Oct-2002 06:16
BNFC-2.4b.tgz 107356301-Mar-2008 18:43
BNFC_2.3b.tgz 33817626-Oct-2007 13:50
BRMH-2.2p2.freebsd.bin.gz 31206422-Feb-1996 04:59
BS-Event-0.3.tar.gz 625421-Mar-2008 10:35
BSD-Jail-Object-0.02.tar.gz 469508-Aug-2006 05:16
BSD-Resource-1.24.tar.gz 1849529-Feb-2004 15:10
BSD-Resource-1.25.tar.gz 1867409-Apr-2006 11:25
BSD-Resource-1.28.tar.gz 1971326-May-2006 20:16
BSD-Resource-1.2901.tar.gz 5890101-Mar-2008 18:43
BSD-Resource-1.2902.tar.gz 5915630-Dec-2008 22:21
BSD-Resource-1.2903.tar.gz 5925231-Mar-2009 16:19
BSD-Resource-1.2904.tar.gz 5941915-Mar-2010 01:05
BSD-Sysctl-0.04.tar.gz 1915508-Oct-2006 16:37
BSD-Sysctl-0.08.tar.gz 2257116-Jan-2007 21:34
BSD-Sysctl-0.09.tar.gz 2338915-Sep-2009 09:26
BSD-Sysctl-0.10.tar.gz 2382925-Sep-2009 20:13
BSD-devstat-0.01.tar.gz 8653324-Mar-2010 14:09
BSD-devstat-0.02.tar.gz 8699101-Apr-2010 15:12
BSD-stat-1.21.tar.gz 880528-Jan-2002 15:58
BSDPAN-5.6.2.tar.gz 845101-Feb-2005 08:24
BSDPAN-5.8.6.tar.bz2 821714-Mar-2005 18:44
BSDPAN-5.8.7.tar.bz2 823324-Jun-2005 08:41
BSDPAN-5.8.8.tar.bz2 819215-Feb-2006 09:44
BTMappack-1.05.unf 2807588801-Mar-2008 18:43
BTQueue-0.0.18.tar.gz 120482210-Jan-2005 09:17
BTQueue-0.1.0.tar.gz 160865211-Mar-2006 14:54
BTQueue-0.1.3.tar.gz 165471723-Jun-2006 17:05
BWidget-1.7.0.tar.gz 20409518-Dec-2003 19:16
BWidget-1.8.0.tar.gz 21853011-Oct-2006 15:53
BZ-Client-1.02.tar.gz 2290515-Aug-2009 13:52
BZ-Client-1.03.tar.gz 2280103-Feb-2010 12:32
Babel-0.8.1.tar.gz 111633202-Jul-2007 09:47
Babel-0.9.1.tar.gz 155088707-Dec-2007 20:58
Babel-0.9.2.tar.gz 154556101-Mar-2008 18:43
Babel-0.9.4.tar.gz 178315824-Aug-2009 13:06
Babel-0.9.5.tar.gz 178925009-Apr-2010 09:13
BackupPC-3.2.0.tar.gz 51139431-Jul-2010 18:17
BadWM-0.06.tar.gz 8022023-Oct-2003 17:10
BadWM-0.1.1.tar.gz 10742415-Sep-2004 22:34
Badger-0.05.tar.gz 20256023-Dec-2008 13:45
Badger-0.06.tar.gz 23202515-Jun-2009 09:10
Balazar-0.2.tar.bz2 873710403-Sep-2005 10:58
Balazar-0.3.1.tar.bz2 1149007911-May-2006 17:27
Balazar-0.3.4.tar.bz2 1111331730-Jun-2007 14:09
BalazarBrothers-0.3.1.tar.bz2 735635814-Jun-2006 18:08
Bangla_UTF8.zip 3322724-Jul-2008 09:05
Baseball-Sabermetrics-0.02.tar.gz 3001829-Jul-2006 07:53
Baseball-Sabermetrics-0.03.tar.gz 3046106-Sep-2006 06:53
BashBurn-2.1.1.tar.gz 10393718-Jul-2007 19:51
BashBurn-2.1.2.tar.gz 7751719-Mar-2008 13:55
BasiliskII_src_01052006.tar.bz2 131090801-May-2006 14:03
BasiliskII_src_15012002.tar.gz 49477312-May-2004 19:52
BasiliskII_src_22112005.tar.bz2 128625622-Nov-2005 22:27
Beaker-0.7.4.tar.gz 2640510-Jul-2007 03:17
Beaker-0.7.5.tar.gz 2723718-Aug-2007 20:07
Beaker-0.8.tar.gz 3068907-Dec-2007 20:58
Beaker-0.9.tar.gz 3932201-Mar-2008 18:43
Beaker-1.0.3.tar.gz 3439714-Oct-2008 22:19
Beaker-1.1.2.tar.gz 3687524-Nov-2008 22:01
Beaker-1.1.3.tar.gz 3754329-Dec-2008 20:36
Beaker-1.2.2.tar.gz 3867014-Feb-2009 17:21
Beaker-1.2.3.tar.gz 3897803-Mar-2009 01:20
Beaker-1.2.tar.gz 3832423-Jan-2009 00:11
Beaker-1.3.1.tar.gz 4154305-May-2009 20:34
Beaker-1.3.tar.gz 4149306-Apr-2009 18:43
Beaker-1.4.2.tar.gz 4525625-Sep-2009 17:57
Beaker-1.4.tar.gz 4323724-Jul-2009 18:00
Beaker-1.5.1.tar.gz 4563217-Dec-2009 21:19
Beaker-1.5.2.tar.gz 4597101-Mar-2010 22:53
Beaker-1.5.3.tar.gz 4611402-Mar-2010 21:26
Beaker-1.5.4.tar.gz 4623816-Jun-2010 21:23
Beaker-1.5.tar.gz 4558223-Nov-2009 23:35
Beanstalk-Client-1.05.tar.gz 2836706-Apr-2009 20:36
Beanstalk-Client-1.06.tar.gz 2878411-Dec-2009 17:07
Beastie-05.07.11.tar.gz 170111-Jul-2005 07:00
Beastie-05.10.26.tar.gz 183826-Oct-2005 04:23
Beastie-06.05.03.tar.gz 186803-May-2006 22:52
BeautifulSoup-2.1.1.tar.gz 1598019-Sep-2005 05:19
BeautifulSoup-3.0.3.tar.gz 2701807-Jun-2006 02:26
BeautifulSoup-3.0.4.tar.gz 2610910-Apr-2007 19:53
BeautifulSoup-3.0.5.tar.gz 2924901-Mar-2008 18:43
BeautifulSoup-3.0.7a.tar.gz 3025504-Jul-2008 01:46
BeautifulSoup-3.0.8.tar.gz 3086701-Dec-2009 04:01
BeautifulSoup-3.1.0.1.tar.gz 7146006-Jan-2009 21:14
BeautifulSoup.tar.gz 1565705-May-2005 02:05
Belarusian.zip 2528324-Jul-2008 09:05
Benchmark-Forking-0.99.tar.gz 618205-Sep-2004 21:06
Benchmark-Forking-1.01.tar.gz 625101-Feb-2010 23:57
Benchmark-Stopwatch-0.03.tar.gz 473122-Aug-2006 15:26
Benchmark-Stopwatch-0.05.tar.gz 505013-Sep-2007 17:23
BerkeleyDB-0.26.tar.gz 12972313-Dec-2004 07:48
BerkeleyDB-0.27.tar.gz 15555101-Nov-2005 09:05
BerkeleyDB-0.29.tar.gz 15993721-Jul-2006 18:14
BerkeleyDB-0.30.tar.gz 16037412-Sep-2006 20:55
BerkeleyDB-0.31.tar.gz 16082216-Oct-2006 19:02
BerkeleyDB-0.32.tar.gz 16414310-Jul-2007 12:36
BerkeleyDB-0.34.tar.gz 16700727-Mar-2008 11:08
BerkeleyDB-0.35.tar.gz 16671316-Sep-2008 22:30
BerkeleyDB-0.36.tar.gz 16710530-Sep-2008 21:49
BerkeleyDB-0.37.tar.gz 17877118-Feb-2009 20:45
BerkeleyDB-0.38.tar.gz 17877221-Feb-2009 14:06
BerkeleyDB-0.39.tar.gz 18340206-Jun-2009 18:09
BerkeleyDB-0.41.tar.gz 18435708-Jan-2010 23:12
BerkeleyDB-0.42.tar.gz 18467814-Mar-2010 13:17
BerkeleyDB-0.43.tar.gz 18702301-Aug-2010 17:39
Best-0.11.tar.gz 2876013-Dec-2006 22:46
Best-0.12.tar.gz 2939317-Jan-2009 22:34
BibTool-2.48.tar.gz 63426707-Feb-2004 22:00
Bigtop-0.16.tar.gz 37851825-Sep-2006 15:00
Bigtop-0.21.tar.gz 44342722-Jan-2007 16:12
Bigtop-0.25.tar.gz 52535415-Feb-2007 17:17
Bigtop-0.26.tar.gz 107587029-Mar-2007 17:52
Bigtop-0.29.tar.gz 111966322-Jun-2007 14:27
Bigtop-0.30.tar.gz 110024614-Aug-2007 22:20
Bigtop-0.33.tar.gz 114678911-Jul-2009 15:22
Bigtop-0.38.tar.gz 115497110-Jul-2010 22:08
BillardGL-1.75.tar.gz 73629514-Jul-2003 13:41
Binder-1.3.tar.gz 20410108-May-2003 07:44
Bio-ASN1-EntrezGene-1.091.tgz 3636009-May-2005 14:03
Bio-Das-1.02.tar.gz 12715024-Aug-2005 16:54
Bio-Das-1.03.tar.gz 10169815-Sep-2006 11:21
Bio-Das-1.06.tar.gz 10244706-Sep-2007 10:43
Bio-Das-1.09.tar.gz 10310229-May-2008 14:19
Bio-Das-1.10.tar.gz 10317009-Dec-2008 18:33
Bio-Das-1.11.tar.gz 10364004-Jun-2009 21:58
Bio-Das-1.12.tar.gz 10414626-Aug-2009 22:02
Bio-Das-1.14.tar.gz 10479302-Sep-2009 20:42
Bio-Das-1.15.tar.gz 10501111-Jun-2010 16:45
Bio-Das-1.16.tar.gz 10517321-Jun-2010 17:39
Bio-Das-1.17.tar.gz 10527029-Jun-2010 19:43
Bio-Das-Lite-2.02.tar.gz 3789224-Feb-2010 14:22
Bio-Das-Lite-2.03.tar.gz 4601724-Mar-2010 19:32
Bio-Das-Lite-2.04.tar.gz 4648719-Jun-2010 20:18
Bio-Das-Lite-2.10.tar.gz 4828302-Nov-2010 19:08
Bio-Glite-0.10.tar.gz 2580130-Mar-2009 14:38
Bio-Graphics-1.84.tar.gz 55311427-Jan-2009 13:52
Bio-Graphics-1.90.tar.gz 55955215-Mar-2009 05:14
Bio-Graphics-1.91.tar.gz 56028817-Mar-2009 13:59
Bio-Graphics-1.93.tar.gz 62521102-Apr-2009 22:29
Bio-Graphics-1.94.tar.gz 62381629-Apr-2009 10:02
Bio-Graphics-1.95.tar.gz 62434730-May-2009 22:14
Bio-Graphics-1.97.tar.gz 63659502-Jul-2009 19:25
Bio-Graphics-1.982.tar.gz 63761426-Aug-2009 22:00
Bio-Graphics-1.992.tar.gz 63556118-Nov-2009 18:11
Bio-Graphics-1.993.tar.gz 63563503-Dec-2009 11:56
Bio-Graphics-1.994.tar.gz 63882710-Dec-2009 15:11
Bio-Graphics-1.995.tar.gz 64075606-Jan-2010 15:12
Bio-Graphics-2.00.tar.gz 64160609-Feb-2010 18:15
Bio-Graphics-2.01.tar.gz 64169525-Feb-2010 21:52
Bio-Graphics-2.02.tar.gz 69884725-Mar-2010 16:10
Bio-Graphics-2.04.tar.gz 70019318-Apr-2010 21:28
Bio-Graphics-2.07.tar.gz 70175509-May-2010 15:58
Bio-Graphics-2.08.tar.gz 78162113-May-2010 21:11
Bio-Graphics-2.09.tar.gz 70207317-May-2010 14:41
Bio-Graphics-2.11.tar.gz 70271229-Jun-2010 19:41
Bio-Graphics-2.13.tar.gz 78016513-Sep-2010 22:17
Bio-Graphics-2.14.tar.gz 78055118-Oct-2010 21:16
Bio-MAGETAB-0.98.tar.gz 24050208-Jun-2009 09:24
Bio-MAGETAB-0.99.tar.gz 24075302-Feb-2010 18:18
Bio-MAGETAB-1.00.tar.gz 24499522-Apr-2010 08:45
Bio-MAGETAB-1.10.tar.gz 24361510-Jun-2010 12:26
Bio-MAGETAB-1.12.tar.gz 24547223-Jul-2010 14:16
Bio-MAGETAB-1.13.tar.gz 24644903-Sep-2010 12:40
Bio-NEXUS-0.72.tar.gz 94652019-Aug-2009 14:35
Bio-NEXUS-0.75.tar.gz 103258020-Aug-2010 14:13
Bio-NEXUS-0.76.tar.gz 103339722-Sep-2010 20:14
Bio-Phylo-0.12.tar.gz 10597519-May-2006 03:38
Bio-Phylo-0.15.tar.gz 10457616-Sep-2006 07:21
Bio-Phylo-0.16.tar.gz 12983031-Mar-2007 00:47
Bio-Phylo-0.18.tar.gz 22301102-Mar-2010 09:20
Bio-Phylo-0.21.tar.gz 21958508-Mar-2010 16:29
Bio-Phylo-0.22.tar.gz 24167821-Oct-2010 16:30
Bio-Phylo-0.26.tar.gz 24122322-Oct-2010 14:49
Bio-SCF-1.01.tar.gz 9637717-May-2006 15:20
Bio-SCF-1.03.tar.gz 9654908-Jan-2010 15:40
BioPerl-1.6.0.tar.gz 681339625-Jan-2009 05:21
BioPerl-1.6.1.tar.gz 1046252629-Sep-2009 16:34
BioPerl-run-1.6.1.tar.gz 408246325-Feb-2009 16:07
BisonGen-0.8.0b1.tar.bz2 4382715-Apr-2005 19:31
Bit-ShiftReg-2.0.tar.gz 836123-Mar-1997 18:09
Bit-Vector-6.4.tar.gz 13194203-Oct-2004 09:30
Bit-Vector-6.6.tar.gz 13169327-Jul-2009 19:05
Bit-Vector-6.7.tar.gz 13069208-Aug-2009 07:55
Bit-Vector-6.8.tar.gz 13110310-Aug-2009 19:45
Bit-Vector-6.9.tar.gz 13111112-Aug-2009 18:56
Bit-Vector-7.0.tar.gz 13058824-Aug-2009 16:57
Bit-Vector-7.1.tar.gz 12987130-Sep-2009 03:28
Bit-Vector-Minimal-1.1.tar.gz 266909-Apr-2005 05:53
Bit-Vector-Minimal-1.3.tar.gz 300204-Oct-2005 10:42
BitTornado-0.3.10.tar.gz 18856514-Mar-2005 18:45
BitTornado-0.3.12.tar.gz 18920818-Apr-2005 23:13
BitTornado-0.3.14.tar.gz 18805828-Oct-2005 18:39
BitTornado-0.3.15.tar.gz 18999204-Mar-2006 21:47
BitTornado-0.3.18.tar.gz 18922723-Dec-2006 20:52
BitTorrent-3.4.2.tar.gz 19802615-Aug-2004 02:09
BitTorrent-4.0.0.tar.gz 14864928-Mar-2005 06:10
BitTorrent-4.0.2.tar.gz 15506224-May-2005 16:14
BitTorrent-4.0.3.tar.gz 15702713-Jul-2005 16:34
BitTorrent-4.0.4.tar.gz 15391119-Aug-2005 17:56
BitTorrent-4.1.1.tar.gz 23774324-May-2005 16:21
BitTorrent-4.1.2.tar.gz 34062407-Jun-2005 03:24
BitTorrent-4.1.3.tar.gz 85033213-Jul-2005 16:34
BitTorrent-4.1.4.tar.gz 201685619-Aug-2005 17:46
BitTorrent-4.1.7.tar.gz 210903001-Nov-2005 22:56
BitTorrent-4.2.2.tar.gz 223822416-Dec-2005 23:07
BitTorrent-4.20.0.tar.gz 237237121-Jul-2006 18:15
BitTorrent-4.20.2.tar.gz 238922329-Jun-2006 22:49
BitTorrent-4.20.4.tar.gz 239551212-Jul-2006 18:01
BitTorrent-4.26.0.tar.gz 247561611-Oct-2006 22:09
BitTorrent-4.3.5.tar.gz 119611207-Jan-2006 01:14
BitTorrent-4.4.0.tar.gz 125528131-Jan-2006 20:24
BitTorrent-5.0.8.tar.gz 249666326-Oct-2007 13:50
BitTorrent-5.2.0.tar.gz 249786608-Nov-2007 00:47
BitTyrant-src.zip 10103141801-Jan-2008 14:33
BitVector-1.3.tar.gz 5667105-Jan-2007 10:24
BitVector-1.4.tar.gz 6742018-Apr-2008 01:59
BitchX-1.0c16.tar.gz 190162611-Mar-2001 04:55
BlackXMMS.zip 4044323-Aug-2000 15:06
BlenderManualIIen.23.html.tar.gz 282694426-Oct-2007 13:50
BlenderManualIen.23.html.tar.gz 4200985626-Oct-2007 13:50
Blocks.txt 585721-Mar-2008 00:49
Bloom-Filter-0.03.tar.gz 441521-Jul-2004 02:41
Bloom-Filter-1.0.tar.gz 447510-Feb-2007 22:28
BlueIce.zip 11983329-Sep-1999 05:21
BlueSteel.zip 13261508-Oct-1999 23:07
BlueSteel_xmms.zip 12800629-Sep-1999 05:22
Blursk-1.3.tar.gz 34563101-Jul-2002 22:26
Bobot++-1.99.2.tar.gz 14911915-Aug-2004 02:09
BomberInstinct-0.8.9.tar.gz 156966407-May-2002 12:12
Boolean-0.0.1.tar.gz 317414-Dec-2009 18:35
Bosnian.zip 2044724-Jul-2008 09:05
Bot-BasicBot-0.65.tar.gz 2403911-Aug-2005 10:42
Bot-BasicBot-0.7.tar.gz 2356011-Jun-2006 13:44
Bot-BasicBot-0.81.tar.gz 1831126-Jan-2009 09:17
Botan-1.4.11.tbz 166082901-Jan-2006 01:02
Botan-1.4.12.tbz 166051316-Jan-2006 04:14
Botan-1.4.6.tbz 133581609-Apr-2005 05:53
Botan-1.6.5.tbz 170595927-Aug-2008 19:57
Botan-1.8.10.tbz 282843131-Aug-2010 16:41
Botan-1.8.11.tbz 280811402-Nov-2010 17:46
Botan-1.8.7.tbz 305437110-Sep-2009 01:46
Botan-1.8.8.tbz 255731303-Nov-2009 19:14
Botan-1.8.9.tbz 282671316-Jun-2010 14:44
Boulder-1.30.tar.gz 9120214-Dec-2002 02:06
Brackup-1.03.tar.gz 4204123-May-2007 21:31
Brackup-1.05.tar.gz 4438902-Aug-2007 21:07
Brackup-1.06.tar.gz 4768501-Nov-2007 09:27
Brackup-1.07.tar.gz 5861604-Apr-2009 17:04
Brackup-1.08.tar.gz 5973627-Apr-2009 00:18
Brackup-1.09.tar.gz 6128718-May-2009 13:39
Brackup-1.10.tar.gz 7821501-Nov-2010 01:19
Brazilian_Portuguese.zip 2158524-Jul-2008 09:05
Breve-1.0.35.tar.gz 2571403-Feb-2007 03:27
Breve-1.2.6.tar.gz 5737822-Apr-2008 19:15
Breve-1.2.9.tar.gz 5972708-Jan-2009 02:29
Breve-1.3.0.tar.gz 2907503-Jul-2009 02:19
BrushedMetal_Xmms.zip 13991908-Oct-1999 23:17
Bugzilla-ja-3.4.6-template-rel01.tar.bz2 20490708-Mar-2010 11:22
Bugzilla-ja-3.6-template-rel01.tar.bz2 21361813-Apr-2010 15:31
Bugzilla-ja-3.6-template-rel02.tar.bz2 21358223-Apr-2010 09:18
Bugzilla-ja-3.6.1-template-rel01.tar.bz2 21405025-Jun-2010 15:45
Bugzilla-ja-3.6.2-template-rel01.tar.bz2 21399409-Aug-2010 15:50
Bulgarian.zip 1891624-Jul-2008 09:05
Bulgarian_UTF8.zip 2090024-Jul-2008 09:05
Bundle-Catalyst-0.03.tar.gz 145515-Apr-2005 16:53
Bundle-Catalyst-0.07.tar.gz 170921-Nov-2005 21:39
Bundle-Perl6-0.07.tar.gz 262531-Mar-2004 18:03
Bundle-Perl6-0.11.tar.gz 2856601-Mar-2008 18:43
Bundle-Perl6-0.12.tar.gz 2783117-Dec-2008 12:06
Bundle-Slash-2.32.tar.gz 162809-Apr-2005 05:53
Bundle-Slash-2.51.tar.gz 202429-Mar-2005 19:04
Bundle-Slash-2.52.tar.gz 208418-Aug-2006 17:46
Bundle-Sledge-0.03.tar.gz 181120-Feb-2003 04:48
Bundle-Sledge-0.04.tar.gz 210825-Feb-2004 11:10
Business-CreditCard-0.28.tar.gz 398501-Jul-2004 08:30
Business-CreditCard-0.30.tar.gz 592919-Dec-2006 07:35
Business-CreditCard-0.31.tar.gz 712120-Oct-2009 01:56
Business-Hours-0.08.tar.gz 1389218-Aug-2008 20:08
Business-Hours-0.09.tar.gz 1519428-Nov-2008 00:52
Business-ISBN-1.70.tar.gz 34781815-Aug-2004 02:09
Business-ISBN-1.82.tar.gz 35146514-Aug-2005 16:45
Business-ISBN-1.84.tar.gz 35192410-Jan-2007 05:11
Business-ISBN-2.02.tar.gz 35334615-Aug-2007 08:40
Business-ISBN-2.03.tar.gz 35528326-Oct-2007 13:50
Business-ISBN-2.04.tar.gz 35542526-Oct-2008 23:32
Business-ISBN-2.05.tar.gz 35541325-Jan-2009 06:01
Business-ISBN-Data-1.10.tar.gz 957208-Mar-2005 22:18
Business-ISBN-Data-1.11.tar.gz 963418-May-2006 22:40
Business-ISBN-Data-1.13.tar.gz 986610-Jan-2007 05:14
Business-ISBN-Data-1.14.tar.gz 1003118-May-2007 16:29
Business-ISBN-Data-1.15.tar.gz 1037526-Oct-2007 13:50
Business-ISBN-Data-1.17.tar.gz 1047801-Mar-2008 18:43
Business-ISBN-Data-20081020.tar.gz 1131820-Oct-2008 22:46
Business-ISBN-Data-20081208.tar.gz 812605-Dec-2008 20:01
Business-ISIN-0.20.tgz 451713-Feb-2002 00:13
Business-ISSN-0.90.tar.gz 369410-Apr-1999 22:39
Business-ISSN-0.91.tar.gz 434806-Aug-2008 11:31
Business-MaxMind-1.48.tar.gz 1408108-Oct-2008 23:39
Business-MaxMind-1.49.tar.gz 1432119-Feb-2009 05:00
Business-MaxMind-1.50.tar.gz 1435519-Feb-2009 07:44
Business-MaxMind-1.51.tar.gz 1437202-Sep-2009 13:54
Business-OCV-0.1.tar.gz 3920712-Jul-2000 06:52
Business-OnlinePayment-2.01.tar.gz 551403-Jul-2004 22:22
Business-OnlinePayment-2CheckOut-0.02.tar.gz 375011-Jun-2002 09:27
Business-OnlinePayment-3.00_08.tar.gz 1684001-Mar-2008 18:43
Business-OnlinePayment-AuthorizeNet-3.14.tar.gz 716213-Dec-2004 07:48
Business-OnlinePayment-AuthorizeNet-3.15.tar.gz 728716-Mar-2005 09:16
Business-OnlinePayment-AuthorizeNet-3.16.tar.gz 820714-Nov-2006 10:40
Business-OnlinePayment-AuthorizeNet-3.17.tar.gz 852011-Jul-2007 04:16
Business-OnlinePayment-AuthorizeNet-3.20.tar.gz 1437318-Jun-2008 23:53
Business-OnlinePayment-AuthorizeNet-3.21.tar.gz 1526424-Nov-2009 18:52
Business-OnlinePayment-BankOfAmerica-1.02.tar.gz 499420-Nov-2002 00:06
Business-OnlinePayment-Beanstream-0.01.tar.gz 354923-May-2002 07:54
Business-OnlinePayment-Cardstream-1.0.tar.gz 822317-Feb-2000 11:55
Business-OnlinePayment-Jettis-0.01.tar.gz 449116-Nov-2002 08:21
Business-OnlinePayment-Jettis-0.02.tar.gz 445325-Jan-2009 10:53
Business-OnlinePayment-LinkPoint-0.05.tar.gz 578107-Jan-2005 03:05
Business-OnlinePayment-LinkPoint-0.08.tar.gz 687902-May-2007 01:38
Business-OnlinePayment-LinkPoint-0.09.tar.gz 711312-Jul-2007 01:21
Business-OnlinePayment-LinkPoint-0.10.tar.gz 713718-Jun-2008 21:49
Business-OnlinePayment-MerchantCommerce-0.01.ta..> 528624-Feb-2003 01:19
Business-OnlinePayment-Network1Financial-0.02.t..> 403425-Dec-2002 08:40
Business-OnlinePayment-OCV-0.01.tar.gz 299616-Nov-2002 02:11
Business-OnlinePayment-PayConnect-0.02.tar.gz 344822-Nov-2002 12:16
Business-OnlinePayment-PaymenTech-1.0.2.tar.gz 265829-Feb-2008 15:02
Business-OnlinePayment-PaymenTech-1.1.0.tar.gz 2094923-Feb-2009 15:36
Business-OnlinePayment-PaymenTech-1.3.tar.gz 2154426-Mar-2009 16:11
Business-OnlinePayment-PaymenTech-1.4.tar.gz 2324821-May-2009 18:47
Business-OnlinePayment-PaymenTech-1.5.tar.gz 2356710-Jun-2009 12:48
Business-OnlinePayment-PaymenTech-1.6.tar.gz 2361013-Aug-2009 16:53
Business-OnlinePayment-PaymenTech-2.03.tar.gz 578924-Jan-2010 21:32
Business-OnlinePayment-PaymenTech-2.04.tar.gz 591012-Oct-2010 00:36
Business-OnlinePayment-PaymentsGateway-0.01.tar.gz 439317-Dec-2002 19:58
Business-OnlinePayment-PaymentsGateway-0.02.tar.gz 453911-Apr-2007 18:43
Business-OnlinePayment-SurePay-0.01.tar.gz 759118-Jun-2002 13:18
Business-OnlinePayment-TCLink-1.03.tar.gz 496310-Jan-2003 20:38
Business-OnlinePayment-VirtualNet-0.02.tar.gz 1001411-Sep-2002 10:27
Business-OnlinePayment-eSec-0.02.tar.gz 335914-Aug-2002 01:19
Business-OnlinePayment-iAuthorizer-0.2.1.tar.gz 437911-Sep-2003 05:57
Business-PayPal-0.02.tar.gz 790526-Aug-2002 06:46
Business-PayPal-0.03.tar.gz 816625-Dec-2008 09:05
Business-PayPal-0.04.tar.gz 895305-Aug-2010 06:39
Business-PayPal-EWP-0.02.tar.gz 1861507-Dec-2004 16:52
Business-PayPal-EWP-1.00.tar.gz 2003205-Sep-2007 14:10
Business-PayPal-EWP-1.01.tar.gz 2077102-Jul-2009 08:58
Business-PayPal-EWP-1.02.tar.gz 2084712-Jan-2010 15:25
Business-PayPal-IPN-1.94.tar.gz 850019-Aug-2003 07:49
Business-TW-Invoice-U420-0.01.tar.gz 2010201-Mar-2008 18:43
Business-TW-TSIB-CStorePayment-0.04.tar.gz 2047401-Mar-2008 18:43
Business-TW-TSIB-VirtualAccount-0.04b.tar.gz 518401-Mar-2008 18:43
Business-UPS-1.13.tar.gz 831215-Aug-2004 02:09
Business-UPS-2.0.tar.gz 912704-Jul-2003 04:28
Business-WorldPay-Junior-1.07.tar.gz 1860630-Oct-2003 17:47
ButtonBox-0.03.tar.gz 1770021-Jan-2001 12:52
Buuf_1.6-r2_tar_bz2 905180123-Sep-2006 23:17
BytecodeAssembler-0.5.1.zip 4932712-Aug-2008 18:10
BytecodeAssembler-0.6.zip 5273402-Aug-2010 19:37
C-Scan-0.74.tar.gz 1420226-Feb-2001 23:00
CAD-Calc-0.26.tar.gz 1320705-Jun-2006 05:42
CAD-Calc-0.27.tar.gz 1314006-May-2008 01:33
CAD-Drawing-0.26.tar.gz 4013417-Mar-2006 18:33
CAD-Drawing-Template-0.01.tar.gz 756017-Mar-2006 18:36
CAIR_MT_v2.16.zip 21708616-Oct-2008 01:03
CAIR_MT_v2.17.zip 21791330-Oct-2008 02:20
CAIR_v2.19.zip 21261403-Jun-2009 02:00
CAM-PDF-1.07.tgz 74353712-Jul-2006 14:53
CAM-PDF-1.08.tgz 74097217-Oct-2006 07:44
CAM-PDF-1.09.tar.gz 72790125-Feb-2007 17:48
CAM-PDF-1.10.tar.gz 72797224-Mar-2007 05:32
CAM-PDF-1.12.tar.gz 72908101-Mar-2008 18:43
CAM-PDF-1.13.tar.gz 72917623-Apr-2008 17:06
CAM-PDF-1.20.tar.gz 73029527-Jun-2008 07:00
CAM-PDF-1.21.tar.gz 73088714-Aug-2008 04:17
CAM-PDF-1.51.tar.gz 74114929-Sep-2008 00:38
CAM-PDF-1.52.tar.gz 74122903-Oct-2008 04:45
CDB_File-0.93.tar.gz 1452115-Aug-2004 02:09
CDB_File-0.94.tar.gz 2041416-Nov-2003 20:40
CDB_File-0.95.tar.gz 2054428-Jul-2006 02:46
CDB_File-0.96.tar.gz 4360721-Mar-2008 15:46
CDB_File-Generator-0.030.tar.gz 1151830-Dec-2001 16:42
CDDB-1.15.tar.gz 2200913-Dec-2004 07:48
CDDB-1.16.tar.gz 2265717-Sep-2005 19:33
CDDB-1.17.tar.gz 2304726-Mar-2006 01:10
CDDB-1.21.tar.gz 2314027-Jul-2009 16:04
CDDB-1.220.tar.gz 2376008-Mar-2010 06:26
CDDB-1.4.tar.gz 3956231-Aug-2003 23:38
CDDB-File-1.03.tar.gz 538015-Aug-2004 02:09
CDDB-File-1.04.tar.gz 586003-Sep-2005 14:52
CDDB-File-1.05.tar.gz 648104-Oct-2005 11:23
CDDB_get-2.23.tar.gz 1943815-Sep-2003 00:12
CDDB_get-2.27.tar.gz 2182001-Jan-2006 20:06
CDPlayer.app-1.7.tar.gz 6096825-Oct-2005 11:18
CEGUI-0.5.0b.tar.gz 224019228-Nov-2006 11:14
CEGUI-0.6.0.tar.gz 250129525-Mar-2008 10:09
CEGUI-0.6.1.tar.gz 270905829-Jun-2008 14:15
CEGUI-0.6.2.tar.gz 262795002-Dec-2008 13:52
CEGUI-0.6.2b.tar.gz 262808110-Dec-2008 21:41
CGAL-3.1-doc_html.tar.gz 318532822-Dec-2004 13:25
CGAL-3.1.tar.gz 917745321-Dec-2004 14:45
CGAL-3.4-doc_html.tar.gz 1066771622-Feb-2009 20:12
CGAL-3.4.tar.gz 1066771622-Feb-2009 20:11
CGAL-3.6.1-doc_html.tar.gz 2309846812-Oct-2010 10:50
CGAL-3.6.1.tar.gz 1402435512-Oct-2010 10:50
CGI-Ajax-0.38.tar.gz 1714314-Sep-2005 20:04
CGI-Ajax-0.652.tar.gz 2615803-Nov-2005 21:47
CGI-Ajax-0.682.tar.gz 2997609-Jan-2006 17:47
CGI-Ajax-0.69.tar.gz 3307416-Feb-2006 20:41
CGI-Ajax-0.694.tar.gz 3349730-Mar-2006 04:29
CGI-Ajax-0.695.tar.gz 3529921-Jul-2006 18:15
CGI-Ajax-0.697.tar.gz 3576316-Jul-2006 22:08
CGI-Ajax-0.701.tar.gz 3730331-Jan-2007 23:43
CGI-Ajax-0.703.tar.gz 3715020-Aug-2008 15:21
CGI-Ajax-0.705.tar.gz 3714527-Aug-2008 18:31
CGI-Ajax-0.706.tar.gz 3715004-Sep-2008 15:50
CGI-Ajax-0.707.tar.gz 3766108-Oct-2008 18:16
CGI-Application-3.1.tar.gz 4059902-Jun-2003 13:01
CGI-Application-4.04.tar.gz 5500312-Oct-2005 02:12
CGI-Application-4.06.tar.gz 5524913-Apr-2006 02:34
CGI-Application-4.10.tar.gz 5844218-Jun-2008 03:30
CGI-Application-4.11.tar.gz 5858710-Aug-2008 15:36
CGI-Application-4.21.tar.gz 6004203-Jan-2009 16:13
CGI-Application-4.31.tar.gz 6089230-Jul-2009 01:42
CGI-Application-Dispatch-2.12.tar.gz 2105403-Jan-2008 14:39
CGI-Application-Dispatch-2.16.tar.gz 2095524-Mar-2009 02:03
CGI-Application-Dispatch-2.17.tar.gz 2124430-Dec-2009 19:06
CGI-Application-Dispatch-Server-0.52.tar.gz 433907-Jul-2007 12:50
CGI-Application-Dispatch-Server-0.53.tar.gz 493402-Jan-2010 00:03
CGI-Application-PSGI-1.00.tar.gz 4475407-Nov-2009 03:54
CGI-Application-Plugin-AnyTemplate-0.17.tar.gz 5429207-Nov-2005 06:08
CGI-Application-Plugin-AnyTemplate-0.18.tar.gz 7517318-Oct-2009 18:54
CGI-Application-Plugin-Authentication-0.12.tar.gz 4777826-Oct-2006 01:10
CGI-Application-Plugin-Authentication-0.13.tar.gz 4912630-Mar-2009 13:17
CGI-Application-Plugin-Authentication-0.14.tar.gz 5295917-Oct-2009 16:06
CGI-Application-Plugin-Authorization-0.07.tar.gz 2081002-Mar-2008 05:29
CGI-Application-Plugin-AutoRunmode-0.15.tar.gz 1095517-Dec-2006 07:46
CGI-Application-Plugin-AutoRunmode-0.16.tar.gz 1128214-Feb-2009 09:16
CGI-Application-Plugin-AutoRunmode-0.17.tar.gz 1156721-May-2010 04:24
CGI-Application-Plugin-Config-YAML-0.01.tar.gz 275928-Oct-2005 07:52
CGI-Application-Plugin-ConfigAuto-1.30.tar.gz 580119-Feb-2006 04:45
CGI-Application-Plugin-ConfigAuto-1.31.tar.gz 589420-Jul-2009 19:30
CGI-Application-Plugin-ConfigAuto-1.32.tar.gz 597126-Feb-2010 04:30
CGI-Application-Plugin-DBH-4.00.tar.gz 670203-Nov-2005 22:04
CGI-Application-Plugin-DebugScreen-0.06.tar.gz 472320-Jan-2006 08:11
CGI-Application-Plugin-DevPopup-0.951.tar.gz 873320-Nov-2006 22:47
CGI-Application-Plugin-DevPopup-1.00.tar.gz 942401-Mar-2008 18:43
CGI-Application-Plugin-DevPopup-1.01.tar.gz 969524-Oct-2008 17:40
CGI-Application-Plugin-DevPopup-1.03.tar.gz 1561919-Oct-2009 23:01
CGI-Application-Plugin-DevPopup-1.05.tar.gz 1597507-Jan-2010 13:25
CGI-Application-Plugin-DevPopup-1.06.tar.gz 1600310-Jan-2010 12:03
CGI-Application-Plugin-Forward-1.06.tar.gz 952518-Oct-2005 06:16
CGI-Application-Plugin-HTDot-0.03.tar.gz 525118-Aug-2005 18:19
CGI-Application-Plugin-HTDot-0.06.tar.gz 739919-Mar-2007 18:34
CGI-Application-Plugin-HTMLPrototype-0.20.tar.gz 536629-Oct-2005 15:28
CGI-Application-Plugin-HtmlTidy-1.00.tar.gz 714220-Nov-2006 22:47
CGI-Application-Plugin-HtmlTidy-1.02.tar.gz 778701-Mar-2008 18:43
CGI-Application-Plugin-HtmlTidy-1.04.tar.gz 1409507-Jan-2010 13:28
CGI-Application-Plugin-JSON-1.02.tar.gz 502208-Apr-2009 19:56
CGI-Application-Plugin-LinkIntegrity-0.06.tar.gz 1827818-May-2006 06:58
CGI-Application-Plugin-LogDispatch-1.00.tar.gz 873929-Oct-2005 16:47
CGI-Application-Plugin-LogDispatch-1.02.tar.gz 965603-Mar-2008 13:45
CGI-Application-Plugin-MessageStack-0.34.tar.gz 1527920-Sep-2006 15:46
CGI-Application-Plugin-Redirect-0.1.tar.gz 347113-Sep-2005 22:00
CGI-Application-Plugin-Redirect-1.00.tar.gz 364502-Mar-2008 13:09
CGI-Application-Plugin-Session-1.02.tar.gz 1228423-May-2006 16:03
CGI-Application-Plugin-Session-1.03.tar.gz 1359902-Mar-2008 12:53
CGI-Application-Plugin-Stream-2.06.tar.gz 566319-Dec-2006 14:13
CGI-Application-Plugin-Stream-2.10.tar.gz 595830-Mar-2009 16:13
CGI-Application-Plugin-TT-1.03.tar.gz 1356918-May-2006 16:59
CGI-Application-Plugin-TT-1.04.tar.gz 1518902-Mar-2008 08:52
CGI-Application-Plugin-ValidateRM-2.1.tar.gz 1015201-Aug-2005 02:33
CGI-Application-Plugin-ValidateRM-2.3.tar.gz 945323-Oct-2008 03:07
CGI-Application-Plugin-ViewCode-1.02.tar.gz 695122-Dec-2005 18:07
CGI-Application-Server-0.02.tar.gz 553111-Apr-2006 22:20
CGI-Application-Server-0.03.tar.gz 618221-Feb-2007 02:09
CGI-Application-Server-0.050.tar.gz 728101-Mar-2008 18:43
CGI-Application-Server-0.060.tar.gz 752303-Nov-2008 03:08
CGI-Application-Server-0.061.tar.gz 786209-Feb-2009 02:28
CGI-Application-Validate-RM-1.06.tar.gz 660901-Aug-2003 19:41
CGI-ArgChecker-0.02.tar.gz 309325-Nov-1999 06:16
CGI-Builder-1.26+.tar.gz 3752702-Dec-2004 10:39
CGI-Builder-1.36.tar.gz 4024726-Mar-2006 14:33
CGI-Builder-TT2-0.03.tar.gz 958724-Jun-2004 10:01
CGI-Cache-1.40.tar.gz 1537005-Nov-2002 17:37
CGI-Cache-1.4200.tar.gz 4460514-Mar-2005 18:24
CGI-Cache-1.4201.tar.gz 3523216-Jul-2008 02:38
CGI-Compile-0.11.tar.gz 4486110-Mar-2010 15:00
CGI-Compile-0.12.tar.gz 2301109-Aug-2010 06:38
CGI-Compress-Gzip-0.22.tgz 2348108-Nov-2006 03:41
CGI-Compress-Gzip-1.03.tar.gz 1397618-Oct-2008 04:32
CGI-Cookie-Splitter-0.02.tar.gz 516329-Jan-2007 18:42
CGI-Cookie-XS-0.16.tar.gz 4922512-Sep-2008 07:10
CGI-Cookie-XS-0.18.tar.gz 4789002-Sep-2009 13:37
CGI-Deurl-XS-0.07.tar.gz 3572119-Jun-2008 05:46
CGI-Emulate-PSGI-0.06.tar.gz 2458406-Mar-2010 02:40
CGI-Emulate-PSGI-0.08.tar.gz 2635101-May-2010 11:31
CGI-Emulate-PSGI-0.10.tar.gz 2730616-May-2010 07:40
CGI-EncryptForm-1.02.tar.gz 975424-Oct-1999 16:48
CGI-Ex-2.06.tar.gz 21885621-Jul-2006 14:32
CGI-Ex-2.07.tar.gz 21968030-Jan-2007 15:43
CGI-Ex-2.08.tar.gz 22535502-Mar-2007 19:12
CGI-Ex-2.09.tar.gz 22939005-Apr-2007 22:45
CGI-Ex-2.10.tar.gz 23423027-Apr-2007 18:59
CGI-Ex-2.18.tar.gz 16318824-Jul-2007 21:04
CGI-Ex-2.20.tar.gz 16501026-Oct-2007 13:50
CGI-Ex-2.21.tar.gz 16516601-Nov-2007 09:27
CGI-Ex-2.23.tar.gz 17639001-Mar-2008 18:43
CGI-Ex-2.24.tar.gz 18017626-Feb-2008 18:48
CGI-Ex-2.27.tar.gz 18607807-Dec-2008 04:28
CGI-Ex-2.32.tar.gz 18645426-Feb-2010 16:48
CGI-Expand-2.02.tar.gz 863410-Apr-2006 13:21
CGI-FCKeditor-0.02.tar.gz 309801-Apr-2007 02:49
CGI-FastTemplate-1.09.tar.gz 1363528-Jun-1999 04:59
CGI-FormBuilder-3.0401.tgz 14548908-Sep-2006 04:30
CGI-FormBuilder-3.0501.tgz 16758502-Mar-2007 18:08
CGI-Framework-0.20.tar.gz 3278609-Apr-2005 05:53
CGI-Framework-0.22.tar.gz 3295531-Aug-2005 16:13
CGI-Framework-0.23.tar.gz 3329611-Oct-2005 16:23
CGI-Kwiki-0.18.tar.gz 7685511-Sep-2003 06:08
CGI-Lite-2.02.tar.gz 1572719-Aug-2003 19:01
CGI-Minimal-1.16.tar.gz 1460301-Dec-2004 04:40
CGI-Minimal-1.22.tar.gz 2639614-Sep-2005 05:14
CGI-Minimal-1.24.tar.gz 2805524-Sep-2005 04:59
CGI-Minimal-1.25.tar.gz 2960517-May-2006 12:55
CGI-Minimal-1.26.tar.gz 3542108-Apr-2007 14:15
CGI-Minimal-1.27.tar.gz 3609425-May-2007 16:48
CGI-Minimal-1.29.tar.gz 3903721-Aug-2007 13:56
CGI-PSGI-0.01.tar.gz 4501613-Oct-2009 07:11
CGI-PSGI-0.02.tar.gz 4506020-Oct-2009 03:18
CGI-PSGI-0.03.tar.gz 4494227-Nov-2009 08:34
CGI-PSGI-0.04.tar.gz 4518410-Dec-2009 00:39
CGI-PSGI-0.07.tar.gz 4600912-Jan-2010 18:23
CGI-PSGI-0.09.tar.gz 4733911-Feb-2010 22:53
CGI-PSGI-0.10.tar.gz 4917331-Mar-2010 08:16
CGI-PSGI-0.11.tar.gz 2489101-May-2010 11:38
CGI-PSGI-0.12.tar.gz 2583825-Oct-2010 18:09
CGI-Pager-1.00.tar.gz 516011-Oct-2007 20:38
CGI-Prototype-0.9053.tar.gz 1361812-May-2005 00:54
CGI-Response-0.03.tar.gz 1146402-Dec-1995 07:05
CGI-SSI-0.53.tar.gz 879115-Aug-2004 02:09
CGI-SSI-0.86.tar.gz 1037417-Jun-2005 15:02
CGI-SSI-0.88.tar.gz 1124314-Sep-2005 22:48
CGI-SSI-0.90.tar.gz 1135524-Apr-2007 15:25
CGI-SSI-0.91.tar.gz 1167129-May-2007 02:22
CGI-SSI-0.92.tar.gz 1181408-Aug-2007 22:58
CGI-Session-3.95.tar.gz 5739826-Jul-2003 13:51
CGI-Session-4.13.tar.gz 5654812-Apr-2006 17:05
CGI-Session-4.14.tar.gz 5923111-Jun-2006 11:36
CGI-Session-4.20.tar.gz 7099505-Dec-2006 02:08
CGI-Session-4.35.tar.gz 6977716-Jul-2008 00:36
CGI-Session-4.36.tar.gz 6992213-Sep-2008 15:45
CGI-Session-4.37.tar.gz 6996623-Oct-2008 02:57
CGI-Session-4.40.tar.gz 7025703-Jan-2009 01:18
CGI-Session-4.41.tar.gz 6964521-Mar-2009 02:01
CGI-Session-4.42.tar.gz 7489526-Aug-2009 13:38
CGI-Session-ExpireSessions-1.09.tgz 1235615-May-2008 01:31
CGI-Simple-1.105.tar.gz 8133216-May-2008 14:37
CGI-Simple-1.106.tar.gz 8110914-Sep-2008 13:29
CGI-Simple-1.107.tar.gz 8226207-Mar-2009 21:24
CGI-Simple-1.108.tar.gz 8162313-Mar-2009 14:06
CGI-Simple-1.109.tar.gz 8208216-Apr-2009 17:54
CGI-Simple-1.110.tar.gz 10006324-May-2009 21:25
CGI-Simple-1.112.tar.gz 10017331-May-2009 10:43
CGI-SpeedyCGI-2.22.tar.gz 15194612-Oct-2003 06:12
CGI-Untaint-1.25.tar.gz 767927-Dec-2004 14:37
CGI-Untaint-1.26.tar.gz 887520-Sep-2005 21:52
CGI-Untaint-date-1.00.tar.gz 294026-Sep-2005 13:38
CGI-Untaint-email-0.03.tar.gz 176929-Oct-2001 11:50
CGI-Upload-1.10.tar.gz 961715-Jun-2004 23:26
CGI-Upload-1.11.tar.gz 1027107-Mar-2008 15:38
CGI-Utils-0.12.tar.gz 2169913-Nov-2008 03:58
CGI-XMLApplication-1.1.3.tar.gz 2195812-Mar-2004 17:26
CGI-modules-2.76.tar.gz 7677914-Sep-1998 20:29
CGI.pm-3.06.tar.gz 22545914-Mar-2005 18:45
CGI.pm-3.07.tar.gz 22545109-Apr-2005 05:53
CGI.pm-3.10.tar.gz 22571813-May-2005 21:48
CGI.pm-3.11.tar.gz 22627703-Aug-2005 21:17
CGI.pm-3.15.tar.gz 22816207-Dec-2005 20:16
CGI.pm-3.16.tar.gz 22866708-Feb-2006 18:50
CGI.pm-3.20.tar.gz 22956823-Apr-2006 14:27
CGI.pm-3.25.tar.gz 23516628-Sep-2006 17:09
CGI.pm-3.27.tar.gz 23682227-Feb-2007 15:42
CGI.pm-3.28.tar.gz 23694029-Mar-2007 15:38
CGI.pm-3.29.tar.gz 23789916-Apr-2007 17:00
CGI.pm-3.33.tar.gz 23838301-Mar-2008 18:43
CGI.pm-3.37.tar.gz 23889223-Apr-2008 13:09
CGI.pm-3.38.tar.gz 23923425-Jun-2008 14:58
CGI.pm-3.41.tar.gz 23996126-Aug-2008 13:56
CGI.pm-3.42.tar.gz 24041908-Sep-2008 14:15
CGI.pm-3.43.tar.gz 24035906-Apr-2009 18:35
CGI.pm-3.44.tar.gz 24073130-Jul-2009 16:34
CGI.pm-3.45.tar.gz 24482114-Aug-2009 13:37
CGI.pm-3.47.tar.gz 23774309-Sep-2009 20:03
CGI.pm-3.48.tar.gz 23966125-Sep-2009 15:07
CGI.pm-3.49.tar.gz 24176205-Feb-2010 16:24
CGP-CLI-2.7.5.tar.gz 1411124-Jul-2008 05:24
CGdic1.5h-1.0.zip 4750722-Jun-2000 23:42
CHI-0.10.tar.gz 6758701-Mar-2009 00:16
CHI-0.102.tar.gz 6775906-Mar-2009 12:57
CHI-0.25.tar.gz 7796902-Jun-2009 22:57
CHI-0.26.tar.gz 7866414-Jul-2009 23:20
CHI-0.28.tar.gz 9906031-Aug-2009 19:05
CHI-0.29.tar.gz 9912114-Oct-2009 22:34
CHI-0.30.tar.gz 10075105-Nov-2009 16:43
CHI-0.32.tar.gz 10130724-Nov-2009 11:12
CHI-0.33.tar.gz 10142330-Nov-2009 05:15
CHI-0.34.tar.gz 10543310-Feb-2010 01:33
CHI-0.36.tar.gz 10934310-Jun-2010 00:11
CHMView_2.0b3.zip 5089107-Mar-2005 19:41
CIA_WDB2.jpd.gz 743114415-Aug-2004 02:09
CImg-1_07.zip 414704901-Dec-2004 04:40
CImg-1_08.zip 681991209-Apr-2005 05:53
CJK-LyX-qt-1.3.4-1.src.tar.gz 750171915-Aug-2004 02:09
CLASS-1.00.tar.gz 357910-Oct-2006 01:18
CLI-MSN-2.3.tar.gz 22040219-Apr-2006 20:30
CORBA-ORBit-0.4.7.tar.gz 8254424-Jul-2002 01:24
COW.3.00pl0.FreeBSD.gz 15923717-Apr-1998 03:59
CPAN-Checksums-2.03.tar.gz 1079620-Sep-2009 01:50
CPAN-Checksums-2.04.tar.gz 1624828-Sep-2009 04:10
CPAN-Checksums-2.05.tar.gz 1631523-Jan-2010 05:39
CPAN-DistnameInfo-0.06.tar.gz 2730320-Sep-2004 21:45
CPAN-DistnameInfo-0.07.tar.gz 3644001-Jul-2008 02:07
CPAN-DistnameInfo-0.08.tar.gz 1319206-May-2009 14:27
CPAN-DistnameInfo-0.09.tar.gz 1406504-Dec-2009 00:51
CPAN-DistnameInfo-0.10.tar.gz 1424927-Mar-2010 20:09
CPAN-Inject-0.11.tar.gz 5456411-Dec-2007 03:49
CPAN-Meta-2.101091.tar.gz 5133619-Apr-2010 10:32
CPAN-Meta-2.101110.tar.gz 5178021-Apr-2010 15:08
CPAN-Meta-2.101380.tar.gz 5386818-May-2010 03:39
CPAN-Meta-2.101410.tar.gz 5445821-May-2010 14:40
CPAN-Meta-2.101461.tar.gz 5589026-May-2010 20:58
CPAN-Meta-2.101580.tar.gz 6229107-Jun-2010 20:45
CPAN-Meta-2.101670.tar.gz 6371816-Jun-2010 01:03
CPAN-Meta-2.102160.tar.gz 6428904-Aug-2010 16:27
CPAN-Mini-0.36.tar.gz 700009-Apr-2005 05:53
CPAN-Mini-0.40.tar.gz 777905-Nov-2005 02:03
CPAN-Mini-0.500.tar.gz 791712-Jul-2006 01:00
CPAN-Mini-0.550.tar.gz 837209-Aug-2006 00:20
CPAN-Mini-0.552.tar.gz 1586001-Dec-2006 16:12
CPAN-Mini-0.562.tar.gz 1612504-Jul-2007 13:00
CPAN-Mini-0.563.tar.gz 1625801-Nov-2007 09:27
CPAN-Mini-0.566.tar.gz 2716201-Mar-2008 18:43
CPAN-Mini-0.570.tar.gz 2905801-May-2008 17:14
CPAN-Mini-0.571.tar.gz 2913423-May-2008 12:07
CPAN-Mini-0.574.tar.gz 3046526-Nov-2008 17:55
CPAN-Mini-0.576.tar.gz 3083816-Jan-2009 16:01
CPAN-Mini-1.100593.tar.gz 1967828-Feb-2010 22:42
CPAN-Mini-1.100630.tar.gz 1982304-Mar-2010 12:58
CPAN-SQLite-0.1.tar.gz 6190118-Feb-2007 20:14
CPAN-SQLite-0.19.tar.gz 6472219-Mar-2008 13:56
CPAN-SQLite-0.197.tar.gz 6537517-Feb-2009 06:29
CPAN-SQLite-0.198.tar.gz 6705420-Sep-2009 14:36
CPAN-SQLite-0.199.tar.gz 6713429-Dec-2009 18:16
CPAN-YACSmoke-0.03.tar.gz 1800101-Mar-2005 23:58
CPANPLUS-0.053.tar.gz 47263114-Mar-2005 18:45
CPANPLUS-0.0562.tar.gz 44438520-Aug-2005 18:04
CPANPLUS-0.072.tar.gz 41092923-Jun-2006 16:24
CPANPLUS-0.076.tar.gz 37440513-Oct-2006 13:14
CPANPLUS-0.84.tar.gz 40477824-Dec-2007 11:02
CPANPLUS-Dist-Build-0.04.tar.gz 1364017-Aug-2006 03:08
CPANPLUS-Dist-Build-0.05.tar.gz 1434811-Mar-2007 21:59
CPANPLUS-Dist-Build-0.14.tar.gz 3672310-Mar-2009 23:11
CPANPLUS-Dist-Build-0.20.tar.gz 3799107-Apr-2009 16:08
CPANPLUS-Dist-Build-0.24.tar.gz 3830227-Apr-2009 16:01
CPANPLUS-Dist-Build-0.28.tar.gz 4208608-May-2009 10:36
CPANPLUS-Dist-Build-0.30.tar.gz 4219118-May-2009 15:35
CPANPLUS-Dist-Build-0.34.tar.gz 4240313-Jun-2009 09:08
CPANPLUS-Dist-Build-0.36.tar.gz 4269504-Jul-2009 14:00
CPANPLUS-Dist-Build-0.38.tar.gz 4275624-Aug-2009 13:57
CPANPLUS-Dist-Build-0.40.tar.gz 4279707-Sep-2009 13:22
CPANPLUS-Dist-Build-0.42.tar.gz 4289115-Nov-2009 22:49
CPANPLUS-Dist-Build-0.44.tar.gz 4298018-Nov-2009 12:43
CPANPLUS-Dist-Build-0.46.tar.gz 4348223-Jan-2010 08:04
CPANPLUS-Dist-Build-0.48.tar.gz 4675405-Sep-2010 14:20
CPANPLUS-Dist-Build-0.50.tar.gz 4685328-Oct-2010 22:30
CQL-Parser-0.98.tar.gz 1927614-Feb-2006 05:12
CQL-Parser-1.0.tar.gz 1946727-Nov-2006 19:40
CQL-Parser-1.10.tar.gz 2101402-Dec-2009 15:03
CRF++-0.42.tar.gz 49429331-Mar-2006 14:51
CRF++-0.43.tar.gz 71449807-Aug-2006 03:42
CRF++-0.44.tar.gz 76335318-Aug-2006 10:29
CRF++-0.45.tar.gz 77663726-Nov-2006 14:09
CRF++-0.47.tar.gz 110467529-Mar-2007 02:46
CRF++-0.49.tar.gz 58992718-Aug-2007 14:27
CRF++-0.50.tar.gz 66950601-Mar-2008 18:43
CRF++-0.51.tar.gz 61553511-Jul-2008 16:12
CRF++-0.52.tar.gz 78495919-Apr-2009 08:53
CRF++-0.53.tar.gz 80515006-May-2009 12:50
CRF++-0.54.tar.gz 80900815-May-2010 16:22
CRP.tgz 18546212-Oct-2003 16:46
CS.tar.gz 5678505-Feb-1997 05:00
CSP-0.26.tar.gz 1696324-Sep-2002 18:37
CSP-0.31.tar.gz 1821620-Sep-2005 11:09
CSP-0.32.tar.gz 1824122-Sep-2005 16:13
CSP-0.33.tar.gz 1823921-Apr-2006 07:19
CSP-0.34.tar.gz 1811010-Mar-2007 22:42
CSS-1.07.tar.gz 3378223-Mar-2004 20:23
CSS-1.08.tar.gz 3433223-Apr-2008 03:15
CSS-Croco-0.09.tar.gz 10784426-Dec-2009 15:48
CSS-DOM-0.05.tar.gz 4814502-Sep-2008 19:28
CSS-DOM-0.06.tar.gz 5734208-Apr-2009 23:10
CSS-DOM-0.07.tar.gz 8357717-Aug-2009 00:53
CSS-DOM-0.08.tar.gz 9139822-Nov-2009 21:26
CSS-DOM-0.09.tar.gz 9229621-Feb-2010 20:28
CSS-DOM-0.10.tar.gz 9523429-Mar-2010 05:07
CSS-DOM-0.13.tar.gz 9740223-Aug-2010 00:19
CSS-Inliner-2307.tar.gz 320508-Oct-2009 20:54
CSS-Inliner-2434.tar.gz 301926-Jan-2010 16:23
CSS-Inliner-2544.tar.gz 398629-Apr-2010 16:49
CSS-Inliner-2669.tar.gz 498220-Aug-2010 00:19
CSS-Inliner-2897.tar.gz 1382102-Nov-2010 21:28
CSS-Minifier-XS-0.03.tar.gz 984017-Jul-2008 06:31
CSS-Minifier-XS-0.04.tar.gz 1016007-Aug-2009 05:07
CSS-Minifier-XS-0.05.tar.gz 1018125-Apr-2010 23:07
CSS-Minifier-XS-0.07.tar.gz 1211722-Jul-2010 04:13
CSS-SAC-0.06.tar.gz 3815119-Sep-2004 19:54
CSS-SAC-0.08.tar.gz 3878405-Jul-2008 19:47
CSS-Simple-2874.tar.gz 637628-Oct-2010 01:09
CSS-Squish-0.04.tar.gz 579921-Jul-2006 18:15
CSS-Squish-0.05.tar.gz 618804-Jul-2006 19:05
CSS-Squish-0.07.tar.gz 831301-Mar-2008 18:43
CSS-Squish-0.08.tar.gz 819820-Apr-2009 19:23
CSS-Squish-0.09.tar.gz 833114-Jan-2010 16:19
CSS-Tiny-1.05.tar.gz 1433213-Dec-2004 07:48
CSS-Tiny-1.08.tar.gz 2161018-Feb-2005 12:46
CSS-Tiny-1.11.tar.gz 2680721-Oct-2005 18:33
CSS-Tiny-1.14.tar.gz 2541304-Sep-2006 01:45
CSS-Tiny-1.15.tar.gz 1623802-Nov-2007 02:12
CSS-Tiny-1.17.tar.gz 1694604-Jul-2010 03:54
CSS-Tiny-1.19.tar.gz 1782603-Sep-2010 00:42
CSSC-0.15alpha.pl0.tar.gz 62576608-Dec-2002 14:41
CUnit-2.1-0-src.tar.gz 62876723-Mar-2006 02:24
CX2.zip 12781823-Aug-2000 15:06
Cache-2.02.tar.gz 3285409-Apr-2005 05:53
Cache-2.03.tar.gz 3360920-Oct-2005 13:12
Cache-2.04.tar.gz 3450102-Feb-2006 04:04
Cache-AgainstFile-1.016.tar.gz 2095609-May-2006 09:14
Cache-BDB-0.04.tar.gz 1646722-Jul-2006 03:15
Cache-Cache-1.03.tar.gz 3394714-Mar-2005 18:45
Cache-Cache-1.04.tar.gz 3344817-Mar-2005 20:19
Cache-Cache-1.05.tar.gz 3471026-May-2006 15:39
Cache-Cache-1.06.tar.gz 3450601-Mar-2009 00:55
Cache-FastMmap-1.09.tar.gz 3627508-Feb-2005 00:14
Cache-FastMmap-1.14.tar.gz 3708520-Oct-2006 01:53
Cache-FastMmap-1.16.tar.gz 3902010-May-2007 06:08
Cache-FastMmap-1.19.tar.gz 3904026-Oct-2007 13:50
Cache-FastMmap-1.25.tar.gz 4109601-Mar-2008 18:43
Cache-FastMmap-1.28.tar.gz 4324527-Jun-2008 01:15
Cache-FastMmap-1.30.tar.gz 4641408-May-2009 01:17
Cache-FastMmap-1.34.tar.gz 4717219-Jun-2009 02:02
Cache-FastMmap-1.35.tar.gz 4710019-Feb-2010 06:01
Cache-FastMmap-1.36.tar.gz 4763629-Sep-2010 03:14
Cache-Memcached-1.14.tar.gz 1331915-Aug-2004 02:09
Cache-Memcached-1.15.tar.gz 1347221-Sep-2005 05:31
Cache-Memcached-1.17.tar.gz 1441930-Apr-2006 09:01
Cache-Memcached-1.18.tar.gz 1449228-Jun-2006 06:03
Cache-Memcached-1.20.tar.gz 1605817-Apr-2007 06:48
Cache-Memcached-1.21.tar.gz 1619702-May-2007 22:08
Cache-Memcached-1.24.tar.gz 1714417-Jul-2007 17:47
Cache-Memcached-1.25.tar.gz 1820003-May-2009 03:24
Cache-Memcached-1.26.tar.gz 1828205-May-2009 01:32
Cache-Memcached-1.27.tar.gz 1892422-Sep-2009 05:29
Cache-Memcached-1.28.tar.gz 1920121-Oct-2009 21:52
Cache-Memcached-1.29.tar.gz 1954218-Jun-2010 01:28
Cache-Memcached-Fast-0.08.tar.gz 8134901-Mar-2008 18:43
Cache-Memcached-Fast-0.10.tar.gz 8233201-May-2008 09:33
Cache-Memcached-Fast-0.12.tar.gz 8332921-Jul-2008 19:40
Cache-Memcached-Fast-0.13.tar.gz 8639013-Oct-2008 15:45
Cache-Memcached-Fast-0.14.tar.gz 8922507-Feb-2009 11:44
Cache-Memcached-Fast-0.16.tar.gz 9124915-Jun-2009 20:33
Cache-Memcached-Fast-0.17.tar.gz 9191702-Nov-2009 14:00
Cache-Memcached-Fast-0.19.tar.gz 9388324-Apr-2010 10:28
Cache-Memcached-Managed-0.14.tar.gz 3810119-Oct-2005 07:53
Cache-Memcached-Managed-0.15.tar.gz 3825311-Jun-2006 19:57
Cache-Memcached-Managed-0.16.tar.gz 3880802-Feb-2007 23:56
Cache-Memcached-Managed-0.19.tar.gz 3976826-Oct-2007 13:50
Cache-Memcached-Managed-0.20.tar.gz 4003819-May-2008 13:50
Cache-Memcached-Tie-0.08.tar.gz 2340923-Nov-2009 07:05
Cache-Memcached-XS-0.01.tar.gz 3475602-Jul-2006 23:14
Cache-Mmap-0.081.tar.gz 2187915-Mar-2004 19:23
Cache-Mmap-0.09.tar.gz 2146315-Nov-2005 18:47
Cache-Mmap-0.11.tar.gz 2154715-Apr-2008 09:50
Cache-Simple-TimedExpiry-0.22.tar.gz 825524-Jan-2005 09:15
Cache-Simple-TimedExpiry-0.23.tar.gz 849218-Jan-2005 13:33
Cache-Simple-TimedExpiry-0.26.tar.gz 1301424-Aug-2006 22:17
Cache-Simple-TimedExpiry-0.27.tar.gz 1311020-Nov-2006 22:08
Cairo-0.02.tar.gz 2832031-Aug-2005 22:41
Cairo-0.03.tar.gz 3140229-Jan-2006 19:33
Cairo-1.00.tar.gz 4258704-Sep-2006 15:41
Cairo-1.021.tar.gz 4330711-Nov-2006 20:13
Cairo-1.023.tar.gz 4373725-Feb-2007 12:42
Cairo-1.031.tar.gz 4581921-Jan-2007 15:19
Cairo-1.041.tar.gz 4674027-May-2007 12:41
Cairo-1.042.tar.gz 4691426-Oct-2007 13:50
Cairo-1.043.tar.gz 8629501-Nov-2007 09:27
Cairo-1.044.tar.gz 8738319-Mar-2008 13:56
Cairo-1.045.tar.gz 8782301-Mar-2008 18:43
Cairo-1.060.tar.gz 9011119-Apr-2008 16:41
Cairo-1.061.tar.gz 9060428-Mar-2009 13:26
Calendar-Simple-1.11.tar.gz 478214-Mar-2005 18:45
Calendar-Simple-1.13.tar.gz 560531-May-2005 21:16
Calendar-Simple-1.14.tar.gz 544610-Sep-2006 10:48
Calendar-Simple-1.17.tar.gz 650716-Oct-2006 19:48
Calendar-Simple-1.20.tar.gz 713619-Apr-2008 09:21
Calendar-Simple-1.21.tar.gz 700702-Apr-2010 16:37
Camera-0.8.tar.bz2 2732111-Oct-2004 18:14
CameraKit-20041011.tar.bz2 242411-Oct-2004 18:14
Canna37p3.tar.bz2 126306519-May-2004 16:00
Captcha-reCAPTCHA-0.92.tar.gz 846101-Mar-2008 18:43
Captcha-reCAPTCHA-0.94.tar.gz 850903-Jul-2010 13:49
Captcha-reCAPTCHA-Mailhide-0.93.tar.gz 705418-Dec-2007 22:52
Capture-Tiny-0.06.tar.gz 2436507-May-2009 10:57
Capture-Tiny-0.07.tar.gz 2456724-Jan-2010 05:21
Capture-Tiny-0.08.tar.gz 2514520-Jun-2010 23:17
Carp-Always-0.09.tar.gz 454730-Jul-2007 14:48
Carp-Assert-0.18.tar.gz 954003-Mar-2004 00:03
Carp-Assert-0.20.tar.gz 1089805-Jan-2007 03:10
Carp-Assert-More-1.12.tar.gz 837114-Oct-2005 17:18
Carp-Clan-5.10.tar.gz 1861819-Mar-2008 13:56
Carp-Clan-5.3.tar.gz 1678902-May-2004 07:05
Carp-Clan-5.8.tar.gz 1868709-Oct-2006 17:37
Carp-Clan-5.9.tar.gz 1889411-Apr-2007 17:19
Carp-Clan-6.00.tar.gz 1867318-Feb-2008 01:38
Carp-Clan-6.03.tar.gz 1808018-Oct-2009 06:10
Carp-Clan-6.04.tar.gz 1934524-Oct-2009 22:12
Carp-Clan-Share-0.013.tar.gz 1725813-May-2009 05:57
Carp-Datum-0.1.3.tar.gz 3957616-Jan-2002 22:19
Cartotheque-0.1.tar.gz 2349013-Mar-2005 18:17
CastPodder-5.0.tar.bz2 89402121-Jul-2006 18:15
CastPodder-5.1.tar.bz2 147218601-Aug-2006 16:40
Catalan.zip 1931724-Jul-2008 09:05
Catalyst-5.23.tar.gz 6188603-Jun-2005 01:01
Catalyst-5.30.tar.gz 6634604-Jul-2005 11:08
Catalyst-5.33.tar.gz 7357210-Aug-2005 13:29
Catalyst-5.62.tar.gz 17446217-Jan-2006 21:33
Catalyst-5.64.tar.gz 19451407-Feb-2006 19:33
Catalyst-5.6902.tar.gz 20408821-Jul-2006 18:15
Catalyst-Action-REST-0.50.tar.gz 3495407-Jul-2007 19:33
Catalyst-Action-REST-0.60.tar.gz 3563801-Mar-2008 18:43
Catalyst-Action-REST-0.62.tar.gz 3714102-Jul-2008 15:25
Catalyst-Action-REST-0.64.tar.gz 3829014-Aug-2008 16:09
Catalyst-Action-REST-0.66.tar.gz 3863522-Aug-2008 18:24
Catalyst-Action-REST-0.71.tar.gz 4033828-Mar-2009 16:19
Catalyst-Action-REST-0.73.tar.gz 4254528-Jun-2009 00:22
Catalyst-Action-REST-0.76.tar.gz 4448821-Aug-2009 20:42
Catalyst-Action-REST-0.77.tar.gz 4522627-Aug-2009 01:26
Catalyst-Action-REST-0.78.tar.gz 4714728-Sep-2009 14:05
Catalyst-Action-REST-0.80.tar.gz 5139819-Dec-2009 14:59
Catalyst-Action-REST-0.81.tar.gz 5197114-Jan-2010 20:56
Catalyst-Action-REST-0.85.tar.gz 6108713-May-2010 08:15
Catalyst-Action-REST-0.87.tar.gz 6245803-Nov-2010 19:48
Catalyst-Action-RenderView-0.04.tar.gz 372304-Jul-2006 12:42
Catalyst-Action-RenderView-0.05.tar.gz 1952419-Jun-2007 12:13
Catalyst-Action-RenderView-0.07.tar.gz 2017501-Sep-2007 09:11
Catalyst-Action-RenderView-0.08.tar.gz 2085602-May-2008 17:41
Catalyst-Action-RenderView-0.09.tar.gz 2224018-Feb-2009 20:36
Catalyst-Action-RenderView-0.10.tar.gz 2384329-Apr-2009 16:29
Catalyst-Action-RenderView-0.11.tar.gz 2459528-Jun-2009 17:31
Catalyst-Action-RenderView-0.12.tar.gz 2530618-Oct-2009 18:14
Catalyst-Action-RenderView-0.13.tar.gz 2479424-Oct-2009 11:53
Catalyst-Action-RenderView-0.14.tar.gz 2495303-Dec-2009 03:14
Catalyst-Authentication-Credential-HTTP-1.010.t..> 3199914-May-2009 08:34
Catalyst-Authentication-Credential-HTTP-1.011.t..> 3206027-Jun-2009 04:00
Catalyst-Authentication-Credential-HTTP-1.012.t..> 3319207-Mar-2010 21:07
Catalyst-Authentication-Credential-OpenID-0.16...> 3638213-Oct-2009 14:45
Catalyst-Authentication-Store-DBIx-Class-0.106...> 3505517-Sep-2008 21:04
Catalyst-Authentication-Store-DBIx-Class-0.1082..> 3802028-Oct-2008 00:05
Catalyst-Authentication-Store-DBIx-Class-0.1200..> 3428610-Apr-2010 08:39
Catalyst-Authentication-Store-DBIx-Class-0.1400..> 4284001-Sep-2010 21:48
Catalyst-Authentication-Store-LDAP-0.1000.tar.gz 2727901-Mar-2008 18:43
Catalyst-Authentication-Store-LDAP-0.1001.tar.gz 2738610-Apr-2008 02:06
Catalyst-Authentication-Store-LDAP-0.1002.tar.gz 2741109-Jul-2008 20:45
Catalyst-Authentication-Store-LDAP-0.1003.tar.gz 2771510-Sep-2008 13:21
Catalyst-Authentication-Store-LDAP-0.1004.tar.gz 3076522-Oct-2008 01:57
Catalyst-Authentication-Store-LDAP-0.1005.tar.gz 3103901-May-2009 02:34
Catalyst-Authentication-Store-LDAP-1.006.tar.gz 3388811-Dec-2009 18:54
Catalyst-Authentication-Store-LDAP-1.011.tar.gz 3267807-Jul-2010 20:41
Catalyst-Component-ACCEPT_CONTEXT-0.02.tar.gz 1954319-Feb-2007 08:46
Catalyst-Component-ACCEPT_CONTEXT-0.03.tar.gz 1996113-Jun-2007 13:20
Catalyst-Component-ACCEPT_CONTEXT-0.04.tar.gz 2088415-Sep-2007 06:21
Catalyst-Component-ACCEPT_CONTEXT-0.05.tar.gz 2203318-Jan-2008 08:08
Catalyst-Component-ACCEPT_CONTEXT-0.06.tar.gz 2491924-Apr-2009 20:09
Catalyst-Component-ACCEPT_CONTEXT-0.07.tar.gz 2605511-Jun-2009 09:44
Catalyst-Component-InstancePerContext-0.001001...> 1891607-Jun-2007 17:15
Catalyst-Controller-ActionRole-0.12.tar.gz 1162217-Jul-2009 23:51
Catalyst-Controller-ActionRole-0.14.tar.gz 1230201-May-2010 23:00
Catalyst-Controller-BindLex-0.03.tar.gz 575329-May-2006 11:38
Catalyst-Controller-FormBuilder-0.03.tar.gz 2778225-Feb-2007 20:30
Catalyst-Controller-FormBuilder-0.04.tar.gz 2786418-Jun-2007 11:58
Catalyst-Controller-FormBuilder-0.05.tar.gz 3200008-May-2009 14:31
Catalyst-Controller-HTML-FormFu-0.02000.tar.gz 2318901-Mar-2008 18:43
Catalyst-Controller-HTML-FormFu-0.03000.tar.gz 3168819-Jun-2008 13:35
Catalyst-Controller-HTML-FormFu-0.03004.tar.gz 3333803-Sep-2008 14:48
Catalyst-Controller-HTML-FormFu-0.03007.tar.gz 2754208-Dec-2008 10:42
Catalyst-Controller-HTML-FormFu-0.04003.tar.gz 3250120-Apr-2009 12:00
Catalyst-Controller-HTML-FormFu-0.05000.tar.gz 3265706-Jul-2009 13:26
Catalyst-Controller-HTML-FormFu-0.06000.tar.gz 3480825-Nov-2009 14:25
Catalyst-Controller-HTML-FormFu-0.06001.tar.gz 3816010-Dec-2009 14:41
Catalyst-Controller-HTML-FormFu-0.08002.tar.gz 3944822-Sep-2010 19:48
Catalyst-Controller-RateLimit-0.28.tar.gz 1683405-Jan-2010 19:36
Catalyst-Controller-RequestToken-0.06.tar.gz 2701527-May-2009 07:13
Catalyst-Devel-1.00.tar.gz 6238007-Jul-2006 22:45
Catalyst-Devel-1.01.tar.gz 6238019-Sep-2006 07:38
Catalyst-Devel-1.02.tar.gz 6253406-Dec-2006 12:25
Catalyst-Devel-1.03.tar.gz 6331926-Oct-2007 13:50
Catalyst-Devel-1.06.tar.gz 7200709-Apr-2008 06:20
Catalyst-Devel-1.07.tar.gz 7240403-Jun-2008 07:17
Catalyst-Devel-1.08.tar.gz 7185213-Jul-2008 16:13
Catalyst-Devel-1.10.tar.gz 7394505-Feb-2009 20:11
Catalyst-Devel-1.15.tar.gz 8135113-May-2009 18:04
Catalyst-Devel-1.17.tar.gz 8262424-May-2009 16:20
Catalyst-Devel-1.19.tar.gz 8307628-Jun-2009 22:43
Catalyst-Devel-1.20.tar.gz 8310911-Aug-2009 20:35
Catalyst-Devel-1.21.tar.gz 8407519-Oct-2009 23:00
Catalyst-Devel-1.24.tar.gz 8366307-Dec-2009 22:32
Catalyst-Devel-1.25.tar.gz 8364302-Jan-2010 15:18
Catalyst-Devel-1.26.tar.gz 8368612-Jan-2010 02:59
Catalyst-Devel-1.27.tar.gz 8505823-Feb-2010 09:46
Catalyst-Devel-1.28.tar.gz 8954816-Jun-2010 01:49
Catalyst-Engine-Apache-1.06.tar.gz 1936517-Jan-2006 21:29
Catalyst-Engine-Apache-1.07.tar.gz 1945717-Feb-2006 21:31
Catalyst-Engine-Apache-1.09.tar.gz 3916429-Mar-2007 02:57
Catalyst-Engine-Apache-1.11.tar.gz 5474818-May-2007 12:23
Catalyst-Engine-Apache-1.12.tar.gz 5583501-Mar-2008 18:43
Catalyst-Engine-HTTP-POE-0.06.tar.gz 4363427-Feb-2007 21:05
Catalyst-Engine-HTTP-POE-0.08.tar.gz 6097605-Apr-2008 20:11
Catalyst-Engine-HTTP-Prefork-0.01.tar.gz 5996305-Apr-2008 01:30
Catalyst-Engine-HTTP-Prefork-0.50.tar.gz 6438708-Dec-2008 21:30
Catalyst-Engine-HTTP-Prefork-0.51.tar.gz 6650312-Jun-2009 17:16
Catalyst-Engine-PSGI-0.02.tar.gz 13912113-Oct-2009 20:30
Catalyst-Engine-PSGI-0.04.tar.gz 13966620-Oct-2009 02:42
Catalyst-Engine-PSGI-0.05.tar.gz 13960726-Oct-2009 07:46
Catalyst-Engine-PSGI-0.06.tar.gz 13953008-Nov-2009 04:22
Catalyst-Engine-PSGI-0.07.tar.gz 14025411-Dec-2009 06:16
Catalyst-Engine-PSGI-0.08.tar.gz 14294119-Mar-2010 08:00
Catalyst-Engine-PSGI-0.09.tar.gz 14299608-Apr-2010 03:21
Catalyst-Engine-PSGI-0.10.tar.gz 14402020-May-2010 21:49
Catalyst-Engine-PSGI-0.11.tar.gz 14437730-Jul-2010 19:53
Catalyst-Enzyme-0.11.tar.gz 7120014-Jan-2006 12:32
Catalyst-Example-InstantCRUD-0.0.20.tar.gz 3384126-Oct-2007 13:50
Catalyst-Example-InstantCRUD-0.0.30.tar.gz 2474128-Feb-2009 10:08
Catalyst-Example-InstantCRUD-0.033.tar.gz 2428029-Jun-2009 07:32
Catalyst-Example-InstantCRUD-0.034.tar.gz 2439305-Aug-2009 17:14
Catalyst-Example-InstantCRUD-0.035.tar.gz 2453716-Oct-2009 06:36
Catalyst-Example-InstantCRUD-0.036.tar.gz 2546008-May-2010 18:03
Catalyst-Example-InstantCRUD-0.037.tar.gz 2551021-Jun-2010 11:41
Catalyst-Example-InstantCRUD-v0.0.10.tar.gz 1305521-Jul-2006 18:15
Catalyst-Example-InstantCRUD-v0.0.17.tar.gz 3950606-Oct-2006 11:20
Catalyst-Example-InstantCRUD-v0.0.18.tar.gz 3333323-Oct-2006 12:32
Catalyst-Example-InstantCRUD-v0.0.7.tar.gz 1275112-Feb-2006 18:00
Catalyst-Helper-Controller-Scaffold-0.02.tar.gz 298006-Jul-2005 11:10
Catalyst-Helper-Controller-Scaffold-0.03.tar.gz 310029-Aug-2005 15:18
Catalyst-Helper-Controller-Scaffold-0.04.tar.gz 329721-Dec-2005 18:43
Catalyst-Log-Log4perl-0.1.tar.gz 287021-Dec-2005 01:49
Catalyst-Log-Log4perl-0.4.tar.gz 399203-Jul-2006 21:46
Catalyst-Log-Log4perl-0.51.tar.gz 2264810-Mar-2007 19:32
Catalyst-Log-Log4perl-1.00.tar.gz 2300930-May-2007 18:41
Catalyst-Log-Log4perl-1.02.tar.gz 2291210-Mar-2009 13:00
Catalyst-Log-Log4perl-1.03.tar.gz 2497321-Mar-2009 21:15
Catalyst-Log-Log4perl-1.04.tar.gz 2767818-Oct-2009 18:12
Catalyst-Manual-5.700501.tar.gz 10742710-Nov-2006 16:20
Catalyst-Manual-5.700701.tar.gz 11302819-Apr-2007 19:33
Catalyst-Manual-5.700704.tar.gz 12956608-Aug-2007 21:48
Catalyst-Manual-5.701003.tar.gz 13052901-Mar-2008 18:43
Catalyst-Manual-5.701004.tar.gz 13112909-Apr-2008 18:37
Catalyst-Manual-5.7012.tar.gz 13700803-Jun-2008 07:21
Catalyst-Manual-5.7013.tar.gz 13672909-Jul-2008 11:56
Catalyst-Manual-5.7014.tar.gz 13952004-Nov-2008 21:35
Catalyst-Manual-5.7015.tar.gz 14413818-Dec-2008 16:37
Catalyst-Manual-5.7016.tar.gz 14650929-Dec-2008 01:32
Catalyst-Manual-5.7020.tar.gz 16009612-Mar-2009 19:28
Catalyst-Manual-5.7021.tar.gz 16412208-May-2009 23:23
Catalyst-Manual-5.8000.tar.gz 16920727-May-2009 23:49
Catalyst-Manual-5.8001.tar.gz 17219707-Oct-2009 09:14
Catalyst-Manual-5.8002.tar.gz 17364215-Nov-2009 19:43
Catalyst-Manual-5.8003.tar.gz 17422928-Dec-2009 16:12
Catalyst-Manual-5.8004.tar.gz 17751717-Feb-2010 19:23
Catalyst-Model-Adaptor-0.03.tar.gz 1812207-Aug-2008 02:40
Catalyst-Model-Adaptor-0.05.tar.gz 2151707-Aug-2009 20:41
Catalyst-Model-Adaptor-0.06.tar.gz 2236803-Jan-2010 16:59
Catalyst-Model-Adaptor-0.08.tar.gz 2142709-Feb-2010 02:08
Catalyst-Model-Adaptor-0.09.tar.gz 2493604-Aug-2010 11:39
Catalyst-Model-CDBI-0.08.tar.gz 323930-Apr-2005 21:23
Catalyst-Model-CDBI-0.10.tar.gz 330027-Oct-2005 15:53
Catalyst-Model-CDBI-0.11.tar.gz 338223-Nov-2005 06:08
Catalyst-Model-CDBI-0.12.tar.gz 403509-Feb-2010 02:35
Catalyst-Model-CDBI-Plain-0.03.tar.gz 284803-Nov-2005 15:37
Catalyst-Model-CDBI-Sweet-0.03.tar.gz 692103-May-2005 15:28
Catalyst-Model-CDBI-Sweet-0.04.tar.gz 451829-May-2005 03:12
Catalyst-Model-CDBI-Sweet-0.06.tar.gz 282003-Nov-2005 15:37
Catalyst-Model-DBIC-0.13.tar.gz 319624-Dec-2005 03:30
Catalyst-Model-DBIC-0.14.tar.gz 334918-Apr-2006 19:25
Catalyst-Model-DBIC-0.15.tar.gz 346826-Feb-2007 14:33
Catalyst-Model-DBIC-0.16.tar.gz 1971505-Mar-2008 13:38
Catalyst-Model-DBIC-0.17.tar.gz 1663619-Nov-2009 20:05
Catalyst-Model-DBIC-Plain-0.02.tar.gz 246323-Nov-2005 12:43
Catalyst-Model-DBIC-Plain-0.03.tar.gz 250026-Nov-2005 05:55
Catalyst-Model-DBIC-Schema-0.07.tar.gz 691719-Feb-2006 21:50
Catalyst-Model-DBIC-Schema-0.15.tar.gz 944121-Jul-2006 18:15
Catalyst-Model-DBIC-Schema-0.16.tar.gz 964506-Jul-2006 13:35
Catalyst-Model-DBIC-Schema-0.18.tar.gz 938408-Aug-2006 04:39
Catalyst-Model-DBIC-Schema-0.20.tar.gz 2511423-May-2007 17:08
Catalyst-Model-DBIC-Schema-0.21.tar.gz 2690822-Aug-2008 01:02
Catalyst-Model-DBIC-Schema-0.23.tar.gz 3032408-Mar-2009 21:05
Catalyst-Model-DBIC-Schema-0.25.tar.gz 4078519-Jun-2009 15:59
Catalyst-Model-DBIC-Schema-0.26.tar.gz 4113630-Jul-2009 16:56
Catalyst-Model-DBIC-Schema-0.28.tar.gz 4205527-Aug-2009 12:21
Catalyst-Model-DBIC-Schema-0.29.tar.gz 4221907-Sep-2009 19:36
Catalyst-Model-DBIC-Schema-0.31.tar.gz 4494618-Oct-2009 18:03
Catalyst-Model-DBIC-Schema-0.32.tar.gz 4362123-Dec-2009 06:27
Catalyst-Model-DBIC-Schema-0.34.tar.gz 4422227-Dec-2009 08:21
Catalyst-Model-DBIC-Schema-0.35.tar.gz 4427927-Dec-2009 09:55
Catalyst-Model-DBIC-Schema-0.37.tar.gz 4428014-Jan-2010 15:34
Catalyst-Model-DBIC-Schema-0.40.tar.gz 4442804-Feb-2010 04:15
Catalyst-Model-DBIC-Schema-0.41.tar.gz 4620428-Apr-2010 12:44
Catalyst-Model-DBIC-Schema-0.43.tar.gz 5179925-Jul-2010 08:03
Catalyst-Model-DynamicAdaptor-0.02.tar.gz 1980227-Apr-2008 09:17
Catalyst-Model-LDAP-0.16.tar.gz 1927421-Feb-2008 00:25
Catalyst-Model-LDAP-0.17.tar.gz 2314003-Dec-2009 21:56
Catalyst-Model-Memcached-0.02.tgz 1671323-Mar-2010 07:05
Catalyst-Model-Oryx-0.01.tar.gz 825523-Oct-2005 12:43
Catalyst-Model-XML-Feed-0.02.tar.gz 582903-Sep-2006 10:21
Catalyst-Model-XML-Feed-0.03.tar.gz 607717-Dec-2009 11:59
Catalyst-Model-Xapian-0.02.tar.gz 524622-Feb-2006 12:57
Catalyst-Model-Xapian-0.03.tar.gz 577307-Nov-2007 18:33
Catalyst-Model-Xapian-0.04.tar.gz 604925-Jun-2009 13:29
Catalyst-Model-Xapian-0.06.tar.gz 563424-Mar-2010 12:09
Catalyst-Plugin-AtomServer-0.04.tar.gz 2369127-Jun-2006 17:18
Catalyst-Plugin-Authentication-0.05.tar.gz 1739801-Jan-2006 12:11
Catalyst-Plugin-Authentication-0.07.tar.gz 1762821-Jul-2006 18:15
Catalyst-Plugin-Authentication-0.09.tar.gz 1791401-Aug-2006 08:13
Catalyst-Plugin-Authentication-0.10002.tar.gz 4939222-Jul-2007 02:58
Catalyst-Plugin-Authentication-0.10005.tar.gz 5242519-Mar-2008 13:56
Catalyst-Plugin-Authentication-0.10006.tar.gz 5311701-Mar-2008 18:43
Catalyst-Plugin-Authentication-0.10007.tar.gz 5640521-Aug-2008 01:10
Catalyst-Plugin-Authentication-0.10008.tar.gz 5699626-Oct-2008 03:01
Catalyst-Plugin-Authentication-0.100091.tar.gz 5926829-Nov-2008 18:35
Catalyst-Plugin-Authentication-0.100092.tar.gz 5665220-Jan-2009 16:17
Catalyst-Plugin-Authentication-0.10011.tar.gz 5844008-Mar-2009 23:39
Catalyst-Plugin-Authentication-0.10012.tar.gz 6273806-Jun-2009 10:11
Catalyst-Plugin-Authentication-0.10013.tar.gz 7004819-Jun-2009 15:18
Catalyst-Plugin-Authentication-0.10014.tar.gz 7018725-Aug-2009 14:46
Catalyst-Plugin-Authentication-0.10015.tar.gz 6638501-Sep-2009 00:50
Catalyst-Plugin-Authentication-0.10016.tar.gz 6753422-Jan-2010 21:52
Catalyst-Plugin-Authentication-CDBI-0.09.tar.gz 348811-Jul-2005 14:16
Catalyst-Plugin-Authentication-CDBI-0.10.tar.gz 411108-Dec-2005 12:09
Catalyst-Plugin-Authentication-OpenID-0.02.tar.gz 2116704-Mar-2007 21:10
Catalyst-Plugin-Authentication-Store-DBIC-0.04...> 1012914-Dec-2005 03:25
Catalyst-Plugin-Authentication-Store-DBIC-0.07...> 1341029-Jun-2006 23:23
Catalyst-Plugin-Authentication-Store-DBIC-0.09...> 2947726-Oct-2007 13:50
Catalyst-Plugin-Authentication-Store-DBIC-0.11...> 3231816-Jul-2008 09:36
Catalyst-Plugin-Authentication-Store-DBIx-Class..> 3200508-Jul-2007 03:07
Catalyst-Plugin-Authentication-Store-Htpasswd-0..> 413908-Feb-2006 00:21
Catalyst-Plugin-Authorization-ACL-0.06.tar.gz 1279125-Dec-2005 18:42
Catalyst-Plugin-Authorization-ACL-0.08.tar.gz 1329921-Jul-2006 17:06
Catalyst-Plugin-Authorization-ACL-0.09.tar.gz 2378822-Aug-2008 14:45
Catalyst-Plugin-Authorization-ACL-0.10.tar.gz 2542513-Oct-2008 23:12
Catalyst-Plugin-Authorization-ACL-0.11.tar.gz 2498721-Apr-2009 03:34
Catalyst-Plugin-Authorization-ACL-0.13.tar.gz 3310926-Sep-2009 03:47
Catalyst-Plugin-Authorization-ACL-0.14.tar.gz 3330930-Sep-2009 22:34
Catalyst-Plugin-Authorization-ACL-0.15.tar.gz 3336618-Oct-2009 06:02
Catalyst-Plugin-Authorization-Roles-0.03.tar.gz 495504-Dec-2005 20:14
Catalyst-Plugin-Authorization-Roles-0.04.tar.gz 506326-Mar-2006 08:44
Catalyst-Plugin-Authorization-Roles-0.05.tar.gz 528213-Oct-2006 14:02
Catalyst-Plugin-Authorization-Roles-0.07.tar.gz 2243221-Aug-2008 14:22
Catalyst-Plugin-Authorization-Roles-0.08.tar.gz 1765719-Nov-2009 20:25
Catalyst-Plugin-AutoCRUD-0.67.tar.gz 9667901-Dec-2009 22:03
Catalyst-Plugin-AutoCRUD-0.68.tar.gz 9489913-Jan-2010 00:09
Catalyst-Plugin-AutoRestart-0.92.tar.gz 2026630-Jul-2008 20:34
Catalyst-Plugin-AutoRestart-0.93.tar.gz 2476729-Jan-2010 18:01
Catalyst-Plugin-Browser-0.05.tar.gz 1966720-Dec-2008 00:45
Catalyst-Plugin-Browser-0.06.tar.gz 2252010-Aug-2009 22:52
Catalyst-Plugin-C3-0.02.tar.gz 515230-Nov-2006 15:42
Catalyst-Plugin-C3-0.03.tar.gz 2105604-Jun-2007 05:51
Catalyst-Plugin-Cache-0.02.tar.gz 1220415-Sep-2006 15:17
Catalyst-Plugin-Cache-0.03.tar.gz 1229305-Jul-2007 19:06
Catalyst-Plugin-Cache-0.05.tar.gz 1239201-Mar-2008 18:43
Catalyst-Plugin-Cache-0.06.tar.gz 1059227-May-2008 15:49
Catalyst-Plugin-Cache-0.08.tar.gz 1202110-Feb-2009 09:55
Catalyst-Plugin-Cache-0.09.tar.gz 1139407-Mar-2010 20:45
Catalyst-Plugin-Cache-0.10.tar.gz 2762220-May-2010 17:44
Catalyst-Plugin-Cache-FastMmap-0.5.tar.gz 233426-Apr-2005 23:39
Catalyst-Plugin-Cache-FastMmap-0.6.tar.gz 243026-Apr-2006 15:54
Catalyst-Plugin-Cache-FastMmap-0.8.tar.gz 1985718-Apr-2009 15:42
Catalyst-Plugin-Cache-FileCache-0.5.tar.gz 232226-Apr-2005 23:40
Catalyst-Plugin-Cache-Memcached-0.5.tar.gz 231826-Apr-2005 23:40
Catalyst-Plugin-Cache-Memcached-0.6.tar.gz 232624-May-2006 16:06
Catalyst-Plugin-Cache-Memcached-0.8.tar.gz 2197009-Feb-2010 02:46
Catalyst-Plugin-Cache-Memcached-Fast-0.11.tar.gz 193305-Oct-2008 14:21
Catalyst-Plugin-Cache-Memcached-Fast-0.12.tar.gz 200131-Mar-2009 14:43
Catalyst-Plugin-Cache-Memcached-Fast-0.14.tar.gz 334630-Sep-2009 09:00
Catalyst-Plugin-Cache-Store-FastMmap-0.01.tar.gz 372422-Jul-2006 19:35
Catalyst-Plugin-Cache-Store-FastMmap-0.02.tar.gz 305205-Jul-2007 19:15
Catalyst-Plugin-Captcha-0.03.tar.gz 295815-Sep-2007 11:55
Catalyst-Plugin-Captcha-0.04.tar.gz 313203-Apr-2010 17:02
Catalyst-Plugin-CommandLine-0.05.tar.gz 431405-Aug-2008 19:58
Catalyst-Plugin-ConfigLoader-0.12.tar.gz 786531-Jul-2006 11:02
Catalyst-Plugin-ConfigLoader-0.13.tar.gz 624525-Aug-2006 02:09
Catalyst-Plugin-ConfigLoader-0.14.tar.gz 2240003-Apr-2007 15:52
Catalyst-Plugin-ConfigLoader-0.17.tar.gz 2411024-Aug-2007 17:32
Catalyst-Plugin-ConfigLoader-0.18.tar.gz 2421226-Oct-2007 13:50
Catalyst-Plugin-ConfigLoader-0.19.tar.gz 2436501-Mar-2008 18:43
Catalyst-Plugin-ConfigLoader-0.20.tar.gz 2539102-May-2008 14:10
Catalyst-Plugin-ConfigLoader-0.21.tar.gz 2705611-Aug-2008 12:41
Catalyst-Plugin-ConfigLoader-0.22.tar.gz 2677705-Jan-2009 19:28
Catalyst-Plugin-ConfigLoader-0.23.tar.gz 2660318-Apr-2009 15:56
Catalyst-Plugin-ConfigLoader-0.24.tar.gz 2302729-Jun-2009 11:55
Catalyst-Plugin-ConfigLoader-0.27.tar.gz 2366813-Aug-2009 12:50
Catalyst-Plugin-ConfigLoader-0.30.tar.gz 2754921-Aug-2010 08:01
Catalyst-Plugin-ConfigLoader-Environment-0.01.t..> 2559310-Dec-2006 08:58
Catalyst-Plugin-ConfigLoader-Environment-0.04.t..> 2182801-Mar-2008 18:43
Catalyst-Plugin-ConfigLoader-Environment-0.05.t..> 2245806-Mar-2008 12:00
Catalyst-Plugin-ConfigLoader-Environment-0.06.t..> 2221625-Feb-2010 20:14
Catalyst-Plugin-ConfigLoader-Environment-0.07.t..> 2223005-Jun-2010 19:40
Catalyst-Plugin-CookiedSession-0.34.tar.gz 285410-Sep-2008 19:42
Catalyst-Plugin-CookiedSession-0.35.tar.gz 302219-Aug-2009 10:55
Catalyst-Plugin-DefaultEnd-0.03.tar.gz 240512-Sep-2005 12:57
Catalyst-Plugin-DefaultEnd-0.06.tar.gz 346027-Apr-2006 09:53
Catalyst-Plugin-DefaultEnd-0.08.tar.gz 436918-Oct-2009 18:05
Catalyst-Plugin-Email-0.08.tar.gz 332031-Dec-2006 19:15
Catalyst-Plugin-FillInForm-0.04.tar.gz 182218-Apr-2005 21:17
Catalyst-Plugin-FillInForm-0.06.tar.gz 283711-Jul-2005 14:18
Catalyst-Plugin-FillInForm-0.08.tar.gz 1455112-Apr-2008 11:21
Catalyst-Plugin-FillInForm-0.09.tar.gz 1456229-Apr-2008 09:49
Catalyst-Plugin-FillInForm-0.10.tar.gz 1592701-Jan-2009 12:25
Catalyst-Plugin-FillInForm-0.11.tar.gz 1771730-Jun-2009 20:59
Catalyst-Plugin-FillInForm-0.12.tar.gz 1783211-Jul-2009 11:43
Catalyst-Plugin-FormBuilder-1.06.tgz 756913-Sep-2006 23:24
Catalyst-Plugin-FormBuilder-1.07.tgz 783001-Mar-2008 18:43
Catalyst-Plugin-FormCanary-0.01.tar.gz 2708419-Jun-2007 08:52
Catalyst-Plugin-FormValidator-0.02.tar.gz 187215-Apr-2005 16:57
Catalyst-Plugin-FormValidator-0.03.tar.gz 222702-Apr-2009 18:55
Catalyst-Plugin-FormValidator-0.092.tar.gz 1738922-Feb-2010 07:01
Catalyst-Plugin-FormValidator-0.094.tar.gz 1818301-Mar-2010 23:12
Catalyst-Plugin-FormValidator-Simple-0.07.tar.gz 501721-Dec-2005 15:16
Catalyst-Plugin-FormValidator-Simple-0.10.tar.gz 516815-May-2006 02:42
Catalyst-Plugin-FormValidator-Simple-0.12.tar.gz 537002-Nov-2006 14:54
Catalyst-Plugin-FormValidator-Simple-0.13.tar.gz 548003-Sep-2009 05:27
Catalyst-Plugin-FormValidator-Simple-0.14.tar.gz 552105-Jun-2010 19:42
Catalyst-Plugin-FormValidator-Simple-0.15.tar.gz 558413-Jul-2010 21:07
Catalyst-Plugin-HTML-Widget-1.1.tar.gz 1807817-Jan-2006 21:04
Catalyst-Plugin-I18N-0.05.tar.gz 346109-Jan-2006 00:35
Catalyst-Plugin-I18N-0.06.tar.gz 2002019-Jul-2007 22:33
Catalyst-Plugin-I18N-0.07.tar.gz 2452201-Mar-2008 18:43
Catalyst-Plugin-I18N-0.08.tar.gz 2603306-Aug-2008 15:28
Catalyst-Plugin-I18N-0.09.tar.gz 2571918-Apr-2009 09:55
Catalyst-Plugin-I18N-0.10.tar.gz 3224316-Jun-2010 09:10
Catalyst-Plugin-Log-Dispatch-0.09.tar.gz 416315-Feb-2008 05:57
Catalyst-Plugin-Log-Dispatch-0.11.tar.gz 458020-May-2009 08:29
Catalyst-Plugin-Log-Dispatch-0.12.tar.gz 529220-Oct-2010 12:17
Catalyst-Plugin-LogWarnings-0.02.tar.gz 415216-Sep-2006 16:25
Catalyst-Plugin-LogWarnings-0.03.tar.gz 417509-Feb-2010 03:01
Catalyst-Plugin-PageCache-0.11.tar.gz 811713-Sep-2005 18:50
Catalyst-Plugin-PageCache-0.12.tar.gz 1018221-Jul-2006 18:15
Catalyst-Plugin-PageCache-0.13.tar.gz 1023113-Aug-2006 18:45
Catalyst-Plugin-PageCache-0.15.tar.gz 1042431-Dec-2006 19:15
Catalyst-Plugin-PageCache-0.17.tar.gz 2739430-Jul-2007 02:03
Catalyst-Plugin-PageCache-0.18.tar.gz 2856525-Apr-2008 15:21
Catalyst-Plugin-PageCache-0.19.tar.gz 2893322-Aug-2008 16:59
Catalyst-Plugin-PageCache-0.21.tar.gz 3080402-Oct-2008 14:39
Catalyst-Plugin-PageCache-0.22.tar.gz 3688125-Jun-2009 10:19
Catalyst-Plugin-Params-Nested-0.02.tar.gz 404310-Jan-2006 13:36
Catalyst-Plugin-Params-Nested-0.03.tar.gz 1638314-Apr-2010 21:46
Catalyst-Plugin-Pluggable-0.02.tar.gz 186215-Apr-2005 16:51
Catalyst-Plugin-Pluggable-0.04.tar.gz 302728-Nov-2005 20:48
Catalyst-Plugin-Prototype-0.01.tar.gz 204614-Apr-2005 20:33
Catalyst-Plugin-Prototype-1.32.tar.gz 225514-Jul-2005 13:05
Catalyst-Plugin-Prototype-1.33.tar.gz 1878901-May-2007 22:03
Catalyst-Plugin-RunAfterRequest-0.03.tar.gz 1698906-Aug-2009 21:59
Catalyst-Plugin-RunAfterRequest-0.04.tar.gz 1244126-Aug-2010 12:09
Catalyst-Plugin-Scheduler-0.08.tar.gz 1263512-Jan-2008 15:53
Catalyst-Plugin-Scheduler-0.09.tar.gz 1271607-May-2009 13:13
Catalyst-Plugin-Scheduler-0.10.tar.gz 2771703-May-2010 14:34
Catalyst-Plugin-Server-0.24.tar.gz 2116002-Jan-2007 15:51
Catalyst-Plugin-Server-0.26.tar.gz 2206825-Sep-2009 11:58
Catalyst-Plugin-Server-0.28.tar.gz 2146113-Jul-2010 20:15
Catalyst-Plugin-Session-0.05.tar.gz 1549701-Jan-2006 10:45
Catalyst-Plugin-Session-0.10.tar.gz 2086701-Aug-2006 08:08
Catalyst-Plugin-Session-0.11.tar.gz 2094410-Aug-2006 15:03
Catalyst-Plugin-Session-0.12.tar.gz 2112326-Aug-2006 17:55
Catalyst-Plugin-Session-0.14.tar.gz 2019531-Jan-2007 11:24
Catalyst-Plugin-Session-0.17.tar.gz 2200716-Jul-2007 10:20
Catalyst-Plugin-Session-0.18.tar.gz 2206415-Aug-2007 18:06
Catalyst-Plugin-Session-0.19.tar.gz 2229926-Oct-2007 13:50
Catalyst-Plugin-Session-0.20.tar.gz 3638105-Feb-2009 14:50
Catalyst-Plugin-Session-0.22.tar.gz 3588613-May-2009 21:00
Catalyst-Plugin-Session-0.24.tar.gz 3557423-Jun-2009 08:20
Catalyst-Plugin-Session-0.25.tar.gz 3679808-Jul-2009 21:54
Catalyst-Plugin-Session-0.26.tar.gz 3695019-Aug-2009 21:23
Catalyst-Plugin-Session-0.27.tar.gz 4037908-Oct-2009 21:38
Catalyst-Plugin-Session-0.29.tar.gz 3841304-Nov-2009 23:43
Catalyst-Plugin-Session-0.30.tar.gz 4164624-Jun-2010 12:54
Catalyst-Plugin-Session-0.31.tar.gz 4185608-Oct-2010 14:39
Catalyst-Plugin-Session-FastMmap-0.12.tar.gz 314425-May-2005 22:46
Catalyst-Plugin-Session-State-Cookie-0.02.tar.gz 537501-Jan-2006 10:49
Catalyst-Plugin-Session-State-Cookie-0.04.tar.gz 535431-Jul-2006 12:13
Catalyst-Plugin-Session-State-Cookie-0.05.tar.gz 607207-Aug-2006 17:40
Catalyst-Plugin-Session-State-Cookie-0.06.tar.gz 558920-Sep-2006 16:59
Catalyst-Plugin-Session-State-Cookie-0.07.tar.gz 1205704-Apr-2007 20:20
Catalyst-Plugin-Session-State-Cookie-0.08.tar.gz 2109314-Sep-2007 16:14
Catalyst-Plugin-Session-State-Cookie-0.09.tar.gz 2117226-Oct-2007 13:50
Catalyst-Plugin-Session-State-Cookie-0.10.tar.gz 2307808-Feb-2009 06:39
Catalyst-Plugin-Session-State-Cookie-0.11.tar.gz 2511513-May-2009 20:36
Catalyst-Plugin-Session-State-Cookie-0.12.tar.gz 2610018-Jul-2009 01:18
Catalyst-Plugin-Session-State-Cookie-0.14.tar.gz 2662622-Aug-2009 17:10
Catalyst-Plugin-Session-State-Cookie-0.15.tar.gz 2708806-Oct-2009 20:57
Catalyst-Plugin-Session-State-Cookie-0.17.tar.gz 2817718-Oct-2009 18:22
Catalyst-Plugin-Session-State-URI-0.01.tar.gz 590714-Nov-2005 20:49
Catalyst-Plugin-Session-State-URI-0.02.tar.gz 650925-Jan-2006 06:21
Catalyst-Plugin-Session-State-URI-0.05.tar.gz 977001-Aug-2006 16:17
Catalyst-Plugin-Session-State-URI-0.06.tar.gz 1100904-Sep-2006 22:29
Catalyst-Plugin-Session-State-URI-0.07.tar.gz 1245213-Oct-2006 14:03
Catalyst-Plugin-Session-State-URI-0.08.tar.gz 2803408-Feb-2009 06:44
Catalyst-Plugin-Session-State-URI-0.09.tar.gz 2869126-Mar-2009 10:10
Catalyst-Plugin-Session-State-URI-0.11.tar.gz 3134326-Jul-2009 00:27
Catalyst-Plugin-Session-State-URI-0.12.tar.gz 3141206-Oct-2009 21:13
Catalyst-Plugin-Session-State-URI-0.13.tar.gz 3172516-Oct-2009 15:33
Catalyst-Plugin-Session-State-URI-0.15.tar.gz 3555023-Sep-2010 18:34
Catalyst-Plugin-Session-Store-Cache-0.01.tar.gz 218121-Jul-2007 13:17
Catalyst-Plugin-Session-Store-DBI-0.05.tar.gz 652801-Jan-2006 10:58
Catalyst-Plugin-Session-Store-DBI-0.06.tar.gz 680731-Jan-2006 03:12
Catalyst-Plugin-Session-Store-DBI-0.07.tar.gz 693407-Apr-2006 15:56
Catalyst-Plugin-Session-Store-DBI-0.10.tar.gz 763915-Mar-2007 15:56
Catalyst-Plugin-Session-Store-DBI-0.11.tar.gz 781722-Mar-2007 23:56
Catalyst-Plugin-Session-Store-DBI-0.12.tar.gz 2354026-Oct-2007 13:50
Catalyst-Plugin-Session-Store-DBI-0.13.tar.gz 2360329-Apr-2008 12:19
Catalyst-Plugin-Session-Store-DBI-0.15.tar.gz 2808417-Oct-2009 17:32
Catalyst-Plugin-Session-Store-DBI-0.16.tar.gz 3083023-Mar-2010 21:56
Catalyst-Plugin-Session-Store-DBIC-0.06.tar.gz 751716-Sep-2006 19:51
Catalyst-Plugin-Session-Store-DBIC-0.09.tar.gz 841131-Mar-2009 14:46
Catalyst-Plugin-Session-Store-DBIC-0.11.tar.gz 784616-Oct-2009 13:07
Catalyst-Plugin-Session-Store-Delegate-0.02.tar.gz 508704-Sep-2006 22:38
Catalyst-Plugin-Session-Store-Delegate-0.04.tar.gz 1715912-May-2009 18:34
Catalyst-Plugin-Session-Store-Delegate-0.05.tar.gz 1763408-Oct-2009 21:55
Catalyst-Plugin-Session-Store-Delegate-0.06.tar.gz 1753722-Apr-2010 13:20
Catalyst-Plugin-Session-Store-FastMmap-0.02.tar.gz 477001-Jan-2006 11:09
Catalyst-Plugin-Session-Store-FastMmap-0.03.tar.gz 412201-Jul-2007 23:06
Catalyst-Plugin-Session-Store-FastMmap-0.05.tar.gz 398501-Mar-2008 18:43
Catalyst-Plugin-Session-Store-FastMmap-0.06.tar.gz 431528-Jan-2009 20:19
Catalyst-Plugin-Session-Store-FastMmap-0.07.tar.gz 439130-Mar-2009 21:46
Catalyst-Plugin-Session-Store-FastMmap-0.10.tar.gz 464613-May-2009 21:14
Catalyst-Plugin-Session-Store-FastMmap-0.11.tar.gz 493816-Jun-2009 08:13
Catalyst-Plugin-Session-Store-FastMmap-0.13.tar.gz 507418-Oct-2009 18:25
Catalyst-Plugin-Session-Store-File-0.07.tar.gz 406002-Jan-2006 12:07
Catalyst-Plugin-Session-Store-File-0.09.tar.gz 418721-Jul-2006 17:39
Catalyst-Plugin-Session-Store-File-0.10.tar.gz 436606-Nov-2006 23:10
Catalyst-Plugin-Session-Store-File-0.13.tar.gz 2025201-Mar-2008 18:43
Catalyst-Plugin-Session-Store-File-0.17.tar.gz 2400110-May-2009 16:09
Catalyst-Plugin-Session-Store-File-0.18.tar.gz 2434408-Oct-2009 22:33
Catalyst-Plugin-Session-Store-Memcached-0.02.ta..> 419901-Jan-2006 11:32
Catalyst-Plugin-Session-Store-Memcached-0.03.ta..> 2082708-Feb-2009 17:11
Catalyst-Plugin-Session-Store-Memcached-0.04.ta..> 2303216-Oct-2009 14:36
Catalyst-Plugin-Session-Store-Memcached-Fast-0...> 292926-Sep-2008 16:00
Catalyst-Plugin-Setenv-0.02.tar.gz 398125-Jan-2007 11:28
Catalyst-Plugin-Setenv-0.03.tar.gz 400618-Apr-2009 11:48
Catalyst-Plugin-Singleton-0.02.tar.gz 212724-May-2005 21:45
Catalyst-Plugin-Singleton-0.1.tar.gz 255326-Apr-2010 19:25
Catalyst-Plugin-SmartURI-0.028.tar.gz 2443926-Aug-2008 07:21
Catalyst-Plugin-SmartURI-0.034.tar.gz 2640414-May-2009 01:11
Catalyst-Plugin-SmartURI-0.036.tar.gz 2728624-Nov-2009 09:11
Catalyst-Plugin-StackTrace-0.02.tar.gz 518701-Jan-2006 19:01
Catalyst-Plugin-StackTrace-0.04.tar.gz 538221-Jul-2006 18:15
Catalyst-Plugin-StackTrace-0.06.tar.gz 652525-Jul-2006 18:00
Catalyst-Plugin-StackTrace-0.07.tar.gz 1617901-Mar-2008 18:43
Catalyst-Plugin-StackTrace-0.08.tar.gz 1603304-Apr-2008 20:36
Catalyst-Plugin-StackTrace-0.09.tar.gz 1742603-Sep-2008 11:04
Catalyst-Plugin-StackTrace-0.10.tar.gz 1757420-Apr-2009 11:54
Catalyst-Plugin-StackTrace-0.11.tar.gz 1928921-Oct-2009 00:31
Catalyst-Plugin-Static-0.07.tar.gz 278617-Apr-2005 14:50
Catalyst-Plugin-Static-0.08.tar.gz 298406-Sep-2005 13:42
Catalyst-Plugin-Static-0.10.tar.gz 322514-Nov-2005 10:26
Catalyst-Plugin-Static-Simple-0.14.tar.gz 1446724-Mar-2006 16:18
Catalyst-Plugin-Static-Simple-0.15.tar.gz 1464709-Dec-2006 03:25
Catalyst-Plugin-Static-Simple-0.16.tar.gz 3030030-Apr-2007 18:48
Catalyst-Plugin-Static-Simple-0.19.tar.gz 3111202-Jul-2007 20:54
Catalyst-Plugin-Static-Simple-0.20.tar.gz 3166326-Oct-2007 13:50
Catalyst-Plugin-Static-Simple-0.21.tar.gz 3572229-Mar-2009 18:47
Catalyst-Plugin-Static-Simple-0.23.tar.gz 3549006-Oct-2009 16:51
Catalyst-Plugin-Static-Simple-0.25.tar.gz 3579522-Oct-2009 20:49
Catalyst-Plugin-Static-Simple-0.26.tar.gz 3600106-Dec-2009 12:32
Catalyst-Plugin-Static-Simple-0.27.tar.gz 3651203-Jan-2010 14:56
Catalyst-Plugin-Static-Simple-0.28.tar.gz 3679204-Jan-2010 13:18
Catalyst-Plugin-Static-Simple-0.29.tar.gz 3647101-Feb-2010 18:48
Catalyst-Plugin-SubRequest-0.04.tar.gz 219219-Apr-2005 00:05
Catalyst-Plugin-SubRequest-0.10.tar.gz 271808-Dec-2005 12:22
Catalyst-Plugin-SubRequest-0.11.tar.gz 322303-Apr-2007 15:07
Catalyst-Plugin-SubRequest-0.12.tar.gz 1959912-Sep-2007 11:12
Catalyst-Plugin-SubRequest-0.13.tar.gz 1962301-Mar-2008 18:43
Catalyst-Plugin-SubRequest-0.14.tar.gz 2368918-Oct-2009 17:49
Catalyst-Plugin-SubRequest-0.15.tar.gz 1686223-Nov-2009 22:51
Catalyst-Plugin-SubRequest-0.16.tar.gz 1734328-Jan-2010 21:10
Catalyst-Plugin-Textile-0.01.tar.gz 157317-Apr-2005 15:47
Catalyst-Plugin-Unicode-0.2.tar.gz 214630-Apr-2005 21:20
Catalyst-Plugin-Unicode-0.5.tar.gz 1812020-Jul-2007 20:11
Catalyst-Plugin-Unicode-0.8.tar.gz 2028725-Sep-2007 17:58
Catalyst-Plugin-Unicode-0.91.tar.gz 2197018-Apr-2009 23:07
Catalyst-Plugin-Unicode-0.92.tar.gz 2443204-Oct-2009 17:37
Catalyst-Plugin-Unicode-0.93.tar.gz 2466917-Mar-2010 22:37
Catalyst-Plugin-Unicode-Encoding-0.9.tar.gz 2581807-Mar-2010 22:50
Catalyst-Plugin-Unicode-Encoding-1.0.tar.gz 2844104-May-2010 21:47
Catalyst-Plugin-Unicode-Encoding-1.1.tar.gz 2299105-Jul-2010 16:53
Catalyst-Plugin-XMLRPC-0.06.tar.gz 391628-Nov-2005 18:06
Catalyst-Plugin-XMLRPC-1.0.tar.gz 1988108-Apr-2006 14:09
Catalyst-Plugin-XMLRPC-2.01.tar.gz 2440421-Oct-2009 13:07
Catalyst-Runtime-5.7001.tar.gz 22720120-Jul-2006 06:00
Catalyst-Runtime-5.7003.tar.gz 23162023-Sep-2006 17:43
Catalyst-Runtime-5.7006.tar.gz 13738215-Nov-2006 08:27
Catalyst-Runtime-5.7007.tar.gz 14161514-Mar-2007 11:13
Catalyst-Runtime-5.7010.tar.gz 14639522-Aug-2007 05:51
Catalyst-Runtime-5.7011.tar.gz 14930901-Nov-2007 09:27
Catalyst-Runtime-5.7012.tar.gz 15389101-Mar-2008 18:43
Catalyst-Runtime-5.7014.tar.gz 15751025-May-2008 21:16
Catalyst-Runtime-5.7015.tar.gz 15804115-Oct-2008 21:44
Catalyst-Runtime-5.71000.tar.gz 16852119-Jan-2009 17:36
Catalyst-Runtime-5.71001.tar.gz 17854427-Mar-2009 09:21
Catalyst-Runtime-5.80004.tar.gz 20793818-May-2009 15:16
Catalyst-Runtime-5.80005.tar.gz 20704606-Jun-2009 12:49
Catalyst-Runtime-5.80007.tar.gz 22041430-Jun-2009 22:11
Catalyst-Runtime-5.80011.tar.gz 22307523-Aug-2009 11:57
Catalyst-Runtime-5.80013.tar.gz 22513217-Sep-2009 09:35
Catalyst-Runtime-5.80015.tar.gz 23873102-Dec-2009 15:42
Catalyst-Runtime-5.80016.tar.gz 23471611-Dec-2009 23:37
Catalyst-Runtime-5.80017.tar.gz 24383210-Jan-2010 02:01
Catalyst-Runtime-5.80019.tar.gz 24628129-Jan-2010 00:18
Catalyst-Runtime-5.80020.tar.gz 24719904-Feb-2010 06:19
Catalyst-Runtime-5.80021.tar.gz 23964803-Mar-2010 23:16
Catalyst-Runtime-5.80022.tar.gz 24114228-Mar-2010 19:25
Catalyst-Runtime-5.80023.tar.gz 25013707-May-2010 22:07
Catalyst-Runtime-5.80024.tar.gz 24754915-May-2010 09:57
Catalyst-Runtime-5.80025.tar.gz 24915729-Jul-2010 00:59
Catalyst-Runtime-5.80027.tar.gz 25141602-Sep-2010 11:33
Catalyst-Runtime-5.80029.tar.gz 25219903-Oct-2010 23:24
Catalyst-TraitFor-Controller-DBIC-DoesPaging-1...> 1765410-Mar-2010 22:34
Catalyst-TraitFor-Request-BrowserDetect-0.02.ta..> 898922-Aug-2009 09:55
Catalyst-View-ClearSilver-0.01.tar.gz 311413-Aug-2006 20:03
Catalyst-View-ClearSilver-0.02.tar.gz 481501-Mar-2008 18:43
Catalyst-View-Email-0.01.tar.gz 2231826-Oct-2007 13:50
Catalyst-View-Email-0.10.tar.gz 2572022-Nov-2007 22:13
Catalyst-View-Email-0.11.tar.gz 2647804-Jul-2008 16:16
Catalyst-View-Email-0.13.tar.gz 2818312-Feb-2009 20:47
Catalyst-View-Email-0.18.tar.gz 1782017-Jan-2010 19:42
Catalyst-View-Email-0.22.tar.gz 2240828-Jan-2010 20:38
Catalyst-View-Email-0.23.tar.gz 1801231-Jan-2010 01:12
Catalyst-View-Email-0.27.tar.gz 3374923-Mar-2010 23:10
Catalyst-View-Email-0.28.tar.gz 3450217-May-2010 19:54
Catalyst-View-Email-0.29.tar.gz 3452522-May-2010 03:02
Catalyst-View-Email-0.30.tar.gz 3454023-May-2010 02:20
Catalyst-View-GraphViz-0.05.tar.gz 641617-Nov-2005 22:45
Catalyst-View-HTML-Template-0.01.tar.gz 322727-Apr-2005 18:22
Catalyst-View-HTML-Template-0.02.tar.gz 348811-Mar-2007 11:55
Catalyst-View-HTML-Template-0.03.tar.gz 355007-May-2009 13:51
Catalyst-View-HTML-Template-Compiled-0.08.tar.gz 384221-Jul-2006 18:15
Catalyst-View-HTML-Template-Compiled-0.11.tar.gz 413821-Jul-2006 17:36
Catalyst-View-HTML-Template-Compiled-0.12.tar.gz 437813-Sep-2006 19:17
Catalyst-View-HTML-Template-Compiled-0.16.tar.gz 575813-Dec-2006 17:39
Catalyst-View-JSON-0.09.tar.gz 553126-Apr-2006 09:52
Catalyst-View-JSON-0.14.tar.gz 706621-Dec-2006 01:28
Catalyst-View-JSON-0.20.tar.gz 2728826-Oct-2007 13:50
Catalyst-View-JSON-0.22.tar.gz 2191901-Mar-2008 18:43
Catalyst-View-JSON-0.24.tar.gz 2265703-Mar-2008 09:44
Catalyst-View-JSON-0.25.tar.gz 2542818-Apr-2009 11:11
Catalyst-View-JSON-0.26.tar.gz 2684524-Aug-2009 23:13
Catalyst-View-JSON-0.28.tar.gz 2344910-Mar-2010 02:22
Catalyst-View-JSON-0.29.tar.gz 2547512-Apr-2010 22:02
Catalyst-View-JSON-0.30.tar.gz 2557712-Apr-2010 23:14
Catalyst-View-JSON-0.31.tar.gz 2657315-Sep-2010 22:14
Catalyst-View-Jemplate-0.04.tar.gz 401523-Feb-2007 18:01
Catalyst-View-Jemplate-0.05.tar.gz 408302-May-2007 21:04
Catalyst-View-Jemplate-0.06.tar.gz 412104-May-2007 22:21
Catalyst-View-Mason-0.08.tar.gz 405319-Aug-2005 14:25
Catalyst-View-Mason-0.11.tar.gz 2396922-Jul-2007 20:55
Catalyst-View-Mason-0.13.tar.gz 2514126-Oct-2007 13:50
Catalyst-View-Mason-0.15.tar.gz 2013526-Oct-2007 13:50
Catalyst-View-Mason-0.16.tar.gz 2279028-May-2008 13:45
Catalyst-View-Mason-0.17.tar.gz 2504529-Mar-2009 19:38
Catalyst-View-Mason-0.18.tar.gz 2564222-Aug-2009 19:37
Catalyst-View-REST-XML-0.01.tar.gz 139322-Jan-2010 03:20
Catalyst-View-RRDGraph-0.03.tar.gz 1376926-Oct-2008 20:40
Catalyst-View-RRDGraph-0.04.tar.gz 2925526-Mar-2010 09:16
Catalyst-View-TT-0.11.tar.gz 395216-Apr-2005 20:00
Catalyst-View-TT-0.12.tar.gz 425206-Jul-2005 13:30
Catalyst-View-TT-0.21.tar.gz 1166222-Dec-2005 09:04
Catalyst-View-TT-0.22.tar.gz 1284223-Jan-2006 13:51
Catalyst-View-TT-0.23.tar.gz 1361027-May-2006 19:01
Catalyst-View-TT-0.25.tar.gz 2951015-Jan-2007 15:31
Catalyst-View-TT-0.26.tar.gz 3010001-Mar-2008 18:43
Catalyst-View-TT-0.27.tar.gz 3171630-Apr-2008 10:34
Catalyst-View-TT-0.29.tar.gz 3338220-Feb-2009 13:50
Catalyst-View-TT-0.30.tar.gz 3928212-Sep-2009 21:53
Catalyst-View-TT-0.31.tar.gz 3672429-Oct-2009 19:33
Catalyst-View-TT-0.32.tar.gz 3832316-Feb-2010 04:49
Catalyst-View-TT-0.33.tar.gz 3787710-Mar-2010 20:08
Catalyst-View-TT-0.34.tar.gz 3824507-Apr-2010 03:11
Catalyst-View-TT-0.35.tar.gz 4503725-Aug-2010 17:51
Catalyst-View-TT-0.36.tar.gz 4490320-Oct-2010 07:48
Catalyst-View-TT-ControllerLocal-0.02.tar.gz 351104-Dec-2005 14:01
Catalyst-View-Templated-0.02.tar.gz 1637101-Mar-2008 18:43
Catalyst-View-XML-Simple-0.01.tar.gz 255405-Feb-2010 08:26
Catalyst-View-XSLT-0.04.tar.gz 834723-Jul-2007 20:13
Catalyst-View-XSLT-0.06.tar.gz 923106-Dec-2008 15:42
Catalyst-View-XSLT-0.07.tar.gz 1039902-Mar-2009 17:26
Catalyst-View-XSLT-0.08.tar.gz 1071527-Jun-2009 12:46
CatalystX-Component-Traits-0.06.tar.gz 2527620-Jul-2009 21:47
CatalystX-Component-Traits-0.14.tar.gz 2614808-Nov-2009 05:48
CatalystX-Component-Traits-0.16.tar.gz 2950526-Aug-2010 18:08
CatalystX-RoleApplicator-0.005.tar.gz 862230-Apr-2009 19:14
CdCat-1.01b.tar.bz2 34153906-Nov-2005 21:44
Cflow-1.051.tar.gz 4112331-Jan-2002 06:09
Cflow-1.053.tar.gz 4200728-Sep-2005 21:30
Cgi-Simple-0.077.tar.gz 14993323-Nov-2004 01:08
Cgraph2.04.tar.gz 19857225-Dec-2001 22:28
Chaco-2.2.tar.gz 85498816-Mar-2006 19:18
Chameleon-Anthracite-0.5.tar.bz2 183658811-Jun-2006 15:10
Chameleon-DarkSkyBlue-0.5.tar.bz2 196571711-Jun-2006 15:12
Chameleon-Pearl-0.5.tar.bz2 187578911-Jun-2006 15:07
Chameleon-SkyBlue-0.5.tar.bz2 195998511-Jun-2006 15:14
Chameleon-White-0.5.tar.bz2 169083911-Jun-2006 15:16
ChargeGTK-0.7.3.tar.gz 10742914-Dec-2006 15:44
Chart-2.3.tar.gz 51604114-Jan-2004 15:10
Chart-2.4.1.tar.gz 68304724-Jan-2006 12:36
Chart-2.4.2.tar.gz 82298123-Sep-2010 15:30
Chart-Clicker-1.0.2.tar.gz 3408111-Aug-2006 00:43
Chart-Clicker-1.1.4.tar.gz 3936104-Jan-2007 03:54
Chart-Clicker-1.1.6.tar.gz 3912810-Mar-2007 00:27
Chart-Clicker-1.1.8.tar.gz 5586401-Sep-2007 15:42
Chart-Clicker-1.2.1.tar.gz 5799526-Oct-2007 13:50
Chart-Clicker-1.4.0.tar.gz 4178501-Nov-2007 09:27
Chart-Clicker-1.4.2.tar.gz 5950201-Mar-2008 18:43
Chart-Clicker-2.06.tar.gz 5399631-Aug-2008 02:44
Chart-Clicker-2.07.tar.gz 5402903-Sep-2008 03:50
Chart-Clicker-2.11.tar.gz 4777424-Sep-2008 16:40
Chart-Clicker-2.17.tar.gz 5034221-Dec-2008 07:30
Chart-Clicker-2.18.tar.gz 5114714-Feb-2009 15:44
Chart-Clicker-2.19.tar.gz 5128924-Mar-2009 23:47
Chart-Clicker-2.33.tar.gz 6009627-May-2009 22:30
Chart-Clicker-2.36.tar.gz 6067101-Jul-2009 23:32
Chart-Clicker-2.42.tar.gz 6393023-Aug-2009 15:39
Chart-Clicker-2.44.tar.gz 6438227-Sep-2009 13:38
Chart-Clicker-2.49.tar.gz 6674427-Nov-2009 03:32
Chart-Clicker-2.52.tar.gz 6684109-Dec-2009 13:37
Chart-Clicker-2.53.tar.gz 6720417-Dec-2009 01:54
Chart-Clicker-2.56.tar.gz 6809713-Jan-2010 13:04
Chart-Clicker-2.58.tar.gz 6911925-Jan-2010 16:10
Chart-Clicker-2.59.tar.gz 7091508-Mar-2010 23:10
Chart-Clicker-2.60.tar.gz 7107620-Mar-2010 13:03
Chart-Clicker-2.64.tar.gz 7468909-May-2010 16:54
Chart-Clicker-2.65.tar.gz 7472721-Jul-2010 19:58
Chart-Graph-2.0.tar.gz 25900630-Oct-2001 19:10
Chart-Graph-3.2.tar.gz 25228307-Jun-2006 21:12
Chart-Math-Axis-0.3.tar.gz 1572620-May-2004 09:38
Chart-Math-Axis-1.00.tar.gz 1571301-Nov-2006 10:07
Chart-Math-Axis-1.01.tar.gz 1661301-Nov-2007 09:27
Chart-Math-Axis-1.04.tar.gz 1669801-Mar-2008 18:43
Chart-Math-Axis-1.05.tar.gz 2768503-Jun-2008 06:01
Chart-PNGgraph-1.21.tar.gz 3428409-Apr-2000 01:12
Chatbot-Eliza-1.04.tar.gz 3836124-Jan-2003 03:46
Check-ISA-0.04.tar.gz 555225-Jul-2008 14:41
Cheetah-0.9.15.tar.gz 62162815-Aug-2004 02:09
Cheetah-0.9.17rc1.tar.gz 14578515-May-2005 22:03
Cheetah-1.0.tar.gz 14983704-Dec-2005 21:45
Cheetah-2.0.1.tar.gz 21529501-Mar-2008 18:43
Cheetah-2.0.tar.gz 21501101-Nov-2007 09:27
Cheetah-2.2.1.tar.gz 24356502-Jun-2009 22:40
Cheetah-2.4.1.tar.gz 19463619-Dec-2009 23:31
Cheetah-2.4.2.1.tar.gz 18994301-Mar-2010 05:12
Cheetah-2.4.3.tar.gz 19086716-Sep-2010 18:21
Chemistry-3DBuilder-0.10.tar.gz 464806-May-2005 22:37
Chemistry-Bond-Find-0.23.tar.gz 972310-May-2009 20:05
Chemistry-Canonicalize-0.11.tar.gz 490810-May-2009 20:17
Chemistry-Elements-0.91.tar.gz 699015-Aug-2004 02:09
Chemistry-Elements-1.01.tar.gz 787325-May-2005 00:29
Chemistry-Elements-1.03.tar.gz 865410-Jan-2007 05:19
Chemistry-Elements-1.04.tar.gz 823431-Jul-2007 00:48
Chemistry-Elements-1.05.tar.gz 835201-Mar-2008 18:43
Chemistry-Elements-1.07.tar.gz 1285531-Aug-2008 18:35
Chemistry-File-MDLMol-0.21.tar.gz 1483010-May-2009 19:52
Chemistry-File-Mopac-0.15.tar.gz 675802-Jul-2004 18:22
Chemistry-File-PDB-0.23.tar.gz 759110-May-2009 21:58
Chemistry-File-SLN-0.11.tar.gz 1077729-Mar-2005 16:42
Chemistry-File-SMARTS-0.22.tar.gz 860516-May-2005 22:22
Chemistry-File-SMILES-0.46.tar.gz 1191810-May-2009 20:33
Chemistry-File-SMILES-0.47.tar.gz 1204308-Jul-2010 03:16
Chemistry-File-VRML-0.10.tar.gz 1004816-May-2005 21:17
Chemistry-File-XYZ-0.11.tar.gz 308503-Aug-2004 00:23
Chemistry-FormulaPattern-0.10.tar.gz 583011-Aug-2004 23:09
Chemistry-InternalCoords-0.18.tar.gz 945424-Sep-2004 20:51
Chemistry-Isotope-0.11.tar.gz 3330118-May-2005 23:16
Chemistry-MacroMol-0.06.tar.gz 295303-Jul-2004 19:22
Chemistry-MidasPattern-0.11.tar.gz 2023516-May-2005 23:06
Chemistry-Mok-0.20.tar.gz 941011-Jun-2004 00:29
Chemistry-Mok-0.25.tar.gz 1181716-May-2005 21:55
Chemistry-Mol-0.37.tar.gz 4422210-May-2009 19:40
Chemistry-Pattern-0.27.tar.gz 806010-May-2009 21:00
Chemistry-Reaction-0.02.tar.gz 535826-Sep-2004 19:20
Chemistry-Ring-0.20.tar.gz 927410-May-2009 21:14
CherryPy-2.1.1.tar.gz 17783910-Jan-2006 15:42
CherryPy-2.2.0beta.tar.gz 19025127-Jan-2006 16:35
CherryPy-2.2.1.tar.gz 21993225-Apr-2006 01:41
CherryPy-2.3.0.tar.gz 24199914-Jan-2008 02:27
CherryPy-3.0.1.tar.gz 26227621-Feb-2007 03:33
CherryPy-3.0.2.tar.gz 26242801-Mar-2008 18:43
CherryPy-3.0.3.tar.gz 26527413-Jan-2008 22:16
CherryPy-3.1.1.tar.gz 31987109-Nov-2008 00:56
CherryPy-3.1.2.tar.gz 31919613-Apr-2009 05:39
Chess-PGN-Parse-0.18.tar.gz 2635625-May-2004 07:14
Chess-PGN-Parse-0.19.tar.gz 2653810-Jan-2006 16:34
Child-0.007.tar.gz 891224-Jul-2010 22:08
Chooser-1.1.6.tar.gz 611422-May-2008 12:12
Chooser-1.1.7.tar.gz 603014-Dec-2008 13:54
Chooser-1.1.8.tar.gz 601808-Jul-2009 07:17
Chooser-2.0.0.tar.gz 857226-Nov-2009 15:58
Cisco-Hash-0.02.tar.gz 271701-Mar-2008 18:43
Cisco-IPPhone-0.05.tar.gz 17546503-Dec-2002 08:25
Cisco-Reconfig-0.8.tar.gz 1799625-Oct-2004 20:47
Cisco-Reconfig-0.9.tar.gz 2112417-Feb-2007 05:37
Clamd-1.04.tar.gz 574621-Nov-2002 15:12
ClanLib-0.6.5-1.tar.gz 218309702-Aug-2004 07:54
ClanLib-0.7.8-1.tar.bz2 656726126-Jul-2004 08:52
ClanLib-0.8.0.tgz 752758105-Aug-2006 18:51
ClanLib-0.8.1.tgz 762901912-Mar-2008 03:42
Class-Accessor-0.19.tar.gz 1023815-Aug-2004 02:09
Class-Accessor-0.22.tar.gz 986405-Sep-2005 09:12
Class-Accessor-0.25.tar.gz 987431-Mar-2006 09:43
Class-Accessor-0.27.tar.gz 1060219-Jul-2006 00:48
Class-Accessor-0.30.tar.gz 1063826-Nov-2006 04:11
Class-Accessor-0.31.tar.gz 1096411-Jul-2007 16:41
Class-Accessor-0.33.tar.gz 1167804-May-2009 15:55
Class-Accessor-0.34.tar.gz 1231515-Sep-2009 16:44
Class-Accessor-Chained-0.01.tar.gz 232224-Nov-2003 14:49
Class-Accessor-Children-0.02.tar.gz 395816-Aug-2007 03:53
Class-Accessor-Fast-Contained-1.01.tar.gz 1595808-Nov-2008 16:39
Class-Accessor-Fast-XS-0.02.tar.gz 545812-Nov-2008 00:24
Class-Accessor-Fast-XS-0.03.tar.gz 558230-Apr-2009 19:42
Class-Accessor-Grouped-0.07000.tar.gz 2264303-Jul-2007 01:36
Class-Accessor-Grouped-0.08001.tar.gz 2212801-Mar-2008 18:43
Class-Accessor-Grouped-0.08002.tar.gz 2360018-Nov-2008 02:15
Class-Accessor-Grouped-0.08003.tar.gz 2394121-Mar-2009 13:43
Class-Accessor-Grouped-0.09000.tar.gz 2684723-Aug-2009 20:11
Class-Accessor-Grouped-0.09001.tar.gz 2924001-Oct-2009 22:11
Class-Accessor-Grouped-0.09002.tar.gz 2935920-Oct-2009 23:20
Class-Accessor-Grouped-0.09003.tar.gz 3032923-Apr-2010 23:13
Class-Accessor-Grouped-0.09004.tar.gz 3315811-Aug-2010 04:24
Class-Accessor-Grouped-0.09005.tar.gz 3376201-Sep-2010 21:04
Class-Accessor-Grouped-0.09006.tar.gz 3490010-Sep-2010 23:51
Class-Accessor-Grouped-0.09008.tar.gz 3659611-Oct-2010 07:40
Class-Accessor-Lite-0.02.tar.gz 1934126-Nov-2008 09:09
Class-Accessor-Lvalue-0.11.tar.gz 330916-Dec-2003 10:30
Class-Accessor-Named-0.003.tar.gz 2074420-Jul-2006 22:16
Class-Accessor-Named-0.004.tar.gz 2081015-Aug-2006 02:18
Class-Accessor-Named-0.006.tar.gz 2095105-Sep-2006 22:24
Class-Accessor-Named-0.008.tar.gz 2090802-Mar-2007 04:36
Class-Accessor-Named-0.009.tar.gz 2637618-Jan-2010 19:45
Class-Adapter-1.02.tar.gz 2433525-May-2006 01:16
Class-Adapter-1.03.tar.gz 2669428-Jun-2007 01:59
Class-Adapter-1.04.tar.gz 2674301-Mar-2008 18:43
Class-Adapter-1.05.tar.gz 2896011-Sep-2008 07:47
Class-Adapter-1.06.tar.gz 3151223-Nov-2009 11:51
Class-Adapter-1.07.tar.gz 3472711-Apr-2010 16:22
Class-AlzaboWrapper-0.06.tar.gz 1499323-Sep-2004 16:40
Class-AlzaboWrapper-0.07.tar.gz 1520707-Sep-2005 07:05
Class-AlzaboWrapper-0.12.tar.gz 1580322-Oct-2005 16:36
Class-AlzaboWrapper-0.13.tar.gz 1615321-Jul-2006 14:00
Class-AlzaboWrapper-0.14.tar.gz 1701801-Aug-2008 13:31
Class-ArrayObjects-1.02.tar.gz 664102-Dec-2003 15:59
Class-ArrayObjects-1.03.tar.gz 709714-Apr-2008 06:54
Class-AutoClass-0.09.tar.gz 1673801-Sep-2004 21:27
Class-Autouse-1.16.tar.gz 2714414-Mar-2005 18:45
Class-Autouse-1.17.tar.gz 3262507-Mar-2005 13:39
Class-Autouse-1.20.tar.gz 3537418-Aug-2005 01:32
Class-Autouse-1.21.tar.gz 3639228-Sep-2005 10:10
Class-Autouse-1.26.tar.gz 4116212-Apr-2006 04:59
Class-Autouse-1.27.tar.gz 3342904-Sep-2006 01:41
Class-Autouse-1.28.tar.gz 3398217-Jul-2007 03:17
Class-Autouse-1.29.tar.gz 3389101-Mar-2008 18:43
Class-Base-0.03.tar.gz 1493213-May-2002 12:08
Class-BlackHole-0.04.tar.gz 477130-Dec-2004 07:42
Class-C3-0.09.tar.gz 1396730-Dec-2005 18:55
Class-C3-0.10.tar.gz 1417208-Feb-2006 15:37
Class-C3-0.11.tar.gz 1438224-Feb-2006 01:08
Class-C3-0.12.tar.gz 1503418-Jul-2006 22:43
Class-C3-0.14.tar.gz 1588120-Sep-2006 14:54
Class-C3-0.19.tar.gz 3389904-Jun-2007 05:51
Class-C3-0.20.tar.gz 3755208-Dec-2008 04:15
Class-C3-0.21.tar.gz 3124025-Mar-2009 00:24
Class-C3-0.22.tar.gz 3315928-Jan-2010 23:06
Class-C3-0.23.tar.gz 3619419-Jun-2010 08:57
Class-C3-Adopt-NEXT-0.12.tar.gz 2118708-Jun-2009 12:20
Class-C3-Adopt-NEXT-0.13.tar.gz 1435407-May-2010 20:52
Class-C3-Componentised-1.0001.tar.gz 1323511-Aug-2007 21:48
Class-C3-Componentised-1.0003.tar.gz 1339806-Mar-2008 01:02
Class-C3-Componentised-1.0004.tar.gz 1564718-Mar-2009 18:50
Class-C3-Componentised-1.0005.tar.gz 1747622-Apr-2009 17:52
Class-C3-Componentised-1.0006.tar.gz 1799708-Sep-2009 13:16
Class-C3-XS-0.08.tar.gz 2824113-Jun-2007 13:15
Class-C3-XS-0.09.tar.gz 2380925-Mar-2009 00:54
Class-C3-XS-0.11.tar.gz 2492130-Mar-2009 09:01
Class-C3-XS-0.13.tar.gz 2610524-Sep-2009 13:04
Class-CSV-1.02.tar.gz 625707-Mar-2005 02:49
Class-CSV-1.03.tar.gz 636508-Feb-2007 23:03
Class-Closure-0.21.tar.gz 677124-Jun-2004 01:14
Class-Closure-0.30.tar.gz 1416006-Jun-2010 07:41
Class-CodeStyler-0.07.tar.gz 1427615-May-2006 14:48
Class-CodeStyler-0.26.tar.gz 1702704-Apr-2007 12:34
Class-CodeStyler-0.27.tar.gz 1722901-Mar-2008 18:43
Class-Component-0.17.tar.gz 3837812-May-2008 08:58
Class-Constant-0.05.tar.gz 573627-Aug-2006 01:48
Class-Constant-0.06.tar.gz 755724-Aug-2010 09:48
Class-Container-0.11.tar.gz 1920809-Apr-2005 05:53
Class-Container-0.12.tar.gz 1940124-Jan-2005 03:07
Class-Contract-1.14.tar.gz 3969226-Jun-2001 12:37
Class-DBI-0.96.tar.gz 7027915-Aug-2004 02:09
Class-DBI-AbstractSearch-0.05.tar.gz 279407-Apr-2004 09:36
Class-DBI-AbstractSearch-0.07.tar.gz 318506-Oct-2005 02:42
Class-DBI-AsForm-2.41.tar.gz 410424-Jan-2005 09:15
Class-DBI-AsForm-2.42.tar.gz 430206-Sep-2005 21:58
Class-DBI-AutoLoader-0.12.tar.gz 412018-Oct-2003 06:51
Class-DBI-BaseDSN-1.22.tar.gz 341208-Oct-2003 17:03
Class-DBI-DATA-Schema-0.04.tar.gz 317117-Mar-2004 09:56
Class-DBI-DATA-Schema-1.00.tar.gz 425803-Sep-2005 19:53
Class-DBI-DDL-1.01.tar.gz 689012-Dec-2003 04:11
Class-DBI-DDL-1.02.tar.gz 789616-Sep-2005 03:21
Class-DBI-FromCGI-0.94.tar.gz 550109-Apr-2005 05:53
Class-DBI-FromCGI-1.00.tar.gz 690404-Oct-2005 09:36
Class-DBI-FromForm-0.03.tar.gz 184409-May-2005 20:20
Class-DBI-FromForm-0.04.tar.gz 210003-Mar-2006 08:28
Class-DBI-LazyInflate-0.06.tar.gz 346418-Oct-2005 10:16
Class-DBI-Lite-1.002.tar.gz 19021315-Mar-2010 04:08
Class-DBI-Lite-1.005.tar.gz 19733022-Mar-2010 19:49
Class-DBI-Lite-1.008.tar.gz 19636803-Apr-2010 00:15
Class-DBI-Lite-1.009.tar.gz 19669626-Apr-2010 22:00
Class-DBI-Lite-1.010.tar.gz 5446313-May-2010 22:33
Class-DBI-Lite-1.011.tar.gz 5455119-May-2010 06:39
Class-DBI-Lite-1.012.tar.gz 5461320-May-2010 21:20
Class-DBI-Lite-1.013.tar.gz 5466709-Aug-2010 21:13
Class-DBI-Lite-1.014.tar.gz 5473109-Sep-2010 07:57
Class-DBI-Lite-1.015.tar.gz 5486417-Sep-2010 19:29
Class-DBI-Loader-0.16.tar.gz 640214-Mar-2005 18:45
Class-DBI-Loader-0.17.tar.gz 647109-Apr-2005 05:53
Class-DBI-Loader-0.20.tar.gz 770930-Apr-2005 01:01
Class-DBI-Loader-0.22.tar.gz 789611-Jun-2005 20:58
Class-DBI-Loader-0.29.tar.gz 923231-Jan-2006 02:17
Class-DBI-Loader-0.33.tar.gz 1006225-May-2006 20:02
Class-DBI-Loader-0.34.tar.gz 1017422-Mar-2007 11:37
Class-DBI-Loader-Relationship-1.2.tar.gz 310915-Aug-2004 02:09
Class-DBI-Loader-Relationship-1.3.tar.gz 326509-Nov-2005 01:34
Class-DBI-Oracle-0.51.tar.gz 304116-Jul-2003 01:04
Class-DBI-Pager-0.06.tar.gz 389702-Sep-2004 12:36
Class-DBI-Pager-0.07.tar.gz 394406-Oct-2005 02:46
Class-DBI-Pager-0.08.tar.gz 400401-Mar-2006 08:50
Class-DBI-Pg-0.06.tar.gz 322702-Dec-2004 17:18
Class-DBI-Pg-0.08.tar.gz 358221-Jul-2006 18:15
Class-DBI-Pg-0.09.tar.gz 495909-Jul-2006 18:44
Class-DBI-Plugin-0.03.tar.gz 339023-Jul-2004 14:54
Class-DBI-Plugin-AbstractCount-0.03.tar.gz 287206-Jul-2004 08:20
Class-DBI-Plugin-AbstractCount-0.04.tar.gz 343319-Jun-2005 22:48
Class-DBI-Plugin-AbstractCount-0.06.tar.gz 409522-Aug-2005 17:30
Class-DBI-Plugin-AbstractCount-0.07.tar.gz 438714-Jun-2006 09:11
Class-DBI-Plugin-AbstractCount-0.08.tar.gz 458101-Jul-2009 08:41
Class-DBI-Plugin-Iterator-0.13.tar.gz 610603-Feb-2006 15:48
Class-DBI-Plugin-Pager-0.561.tar.gz 1011231-Jul-2005 16:24
Class-DBI-Plugin-RetrieveAll-1.01.tar.gz 806915-Aug-2004 02:09
Class-DBI-Plugin-RetrieveAll-1.02.tar.gz 301804-Oct-2005 10:50
Class-DBI-Plugin-RetrieveAll-1.04.tar.gz 325916-Jan-2006 11:44
Class-DBI-Plugin-Senna-0.01.tar.gz 563120-Jun-2005 03:15
Class-DBI-Plugin-Type-0.02.tar.gz 281101-Apr-2004 16:53
Class-DBI-Replication-0.01.tar.gz 351902-Jul-2001 04:56
Class-DBI-SAK-1.4.tar.gz 372423-Sep-2003 00:08
Class-DBI-SQLite-0.07.tar.gz 345414-Mar-2005 18:45
Class-DBI-SQLite-0.08.tar.gz 338209-Apr-2005 05:53
Class-DBI-SQLite-0.09.tar.gz 365315-Apr-2005 20:39
Class-DBI-SQLite-0.10.tar.gz 374923-Aug-2005 22:01
Class-DBI-SQLite-0.11.tar.gz 380606-Oct-2005 02:49
Class-DBI-Sweet-0.05.tar.gz 6902321-Jul-2005 21:37
Class-DBI-Sweet-0.08.tar.gz 7597814-Dec-2005 11:17
Class-DBI-Sweet-0.09.tar.gz 7725624-Dec-2007 08:07
Class-DBI-Sweet-0.10.tar.gz 9815304-Aug-2009 03:28
Class-DBI-ToSax-0.10.tar.gz 692614-Oct-2003 15:16
Class-DBI-Untaint-0.01.tar.gz 188409-Apr-2005 05:53
Class-DBI-Untaint-1.00.tar.gz 275106-Sep-2005 19:01
Class-DBI-mysql-0.23.tar.gz 539228-Feb-2004 05:00
Class-DBI-mysql-1.00.tar.gz 641103-Sep-2005 21:20
Class-DBI-v3.0.12.tar.gz 10412204-Nov-2005 13:06
Class-DBI-v3.0.14.tar.gz 10510416-Jan-2006 10:31
Class-DBI-v3.0.15.tar.gz 10533120-Aug-2006 08:12
Class-DBI-v3.0.16.tar.gz 10537405-Nov-2006 11:02
Class-DBI-v3.0.17.tar.gz 10541601-Mar-2008 18:43
Class-Data-Accessor-0.02.tar.gz 468309-Dec-2005 02:14
Class-Data-Accessor-0.03.tar.gz 519524-May-2006 00:14
Class-Data-Accessor-0.04001.tar.gz 2277717-May-2007 22:32
Class-Data-Accessor-0.04002.tar.gz 2293908-Mar-2008 01:19
Class-Data-Accessor-0.04003.tar.gz 2388307-Aug-2008 23:54
Class-Data-Accessor-0.04004.tar.gz 2413113-Aug-2008 00:51
Class-Data-ConfigHash-0.00001.tar.gz 1781413-Apr-2008 08:47
Class-Data-ConfigHash-0.00002.tar.gz 1902827-Aug-2008 02:17
Class-Data-Inheritable-0.02.tar.gz 330715-Aug-2004 02:09
Class-Data-Inheritable-0.04.tar.gz 552124-Sep-2005 12:25
Class-Data-Inheritable-0.06.tar.gz 562320-Sep-2006 13:37
Class-Data-Inheritable-0.08.tar.gz 566025-Jan-2008 11:54
Class-Date-1.1.10.tar.gz 3520718-Jul-2010 13:33
Class-Date-1.1.7.tar.gz 2782825-Aug-2003 11:54
Class-Date-1.1.8.tar.gz 3467206-Nov-2005 15:40
Class-Date-1.1.9.tar.gz 3488614-May-2006 20:43
Class-Declare-0.12.tar.gz 7885607-Jul-2008 15:24
Class-Declare-0.13.tar.gz 8005708-Aug-2009 19:59
Class-Default-1.3.tar.gz 2097615-Feb-2005 02:26
Class-Default-1.4.tar.gz 2890824-Feb-2006 10:51
Class-Default-1.50.tar.gz 2380204-Sep-2006 01:41
Class-Default-1.51.tar.gz 2467716-Nov-2007 00:14
Class-Delegation-1.06.tar.gz 1420123-Apr-2002 04:22
Class-Delegation-v1.7.1.tar.gz 1458317-Feb-2006 08:14
Class-ErrorHandler-0.01.tar.gz 1525416-Aug-2004 03:57
Class-Factory-1.03.tar.gz 1014115-Oct-2004 10:49
Class-Factory-1.04.tar.gz 1037922-Aug-2006 05:14
Class-Factory-1.05.tar.gz 1070002-Feb-2007 07:05
Class-Factory-1.06.tar.gz 1165307-Nov-2007 00:12
Class-Factory-Util-1.6.tar.gz 993925-Aug-2003 11:48
Class-Factory-Util-1.7.tar.gz 1194230-Mar-2007 15:45
Class-Field-0.12.tar.gz 3214317-Feb-2006 20:00
Class-Field-0.15.tar.gz 3943718-Apr-2009 16:24
Class-Fields-0.201.tar.gz 1516928-Aug-2003 20:44
Class-Fields-0.203.tar.gz 1533826-Oct-2007 13:50
Class-Generate-1.06.tar.gz 5051127-Nov-2000 20:25
Class-Generate-1.07.tar.gz 5268229-Dec-2006 21:02
Class-Generate-1.08.tar.gz 5277824-Apr-2007 18:12
Class-Generate-1.09.tar.gz 5309708-Jun-2007 21:06
Class-Generate-1.10.tar.gz 5379501-Aug-2007 15:53
Class-Gomor-1.00.tar.gz 815901-May-2006 13:34
Class-Gomor-1.01.tar.gz 886220-Nov-2006 17:43
Class-Gomor-1.02.tar.gz 919023-May-2009 14:01
Class-Gomor-Hash-0.20.tar.gz 538009-Apr-2005 05:53
Class-Gomor-Hash-0.22.tar.gz 593722-May-2005 20:06
Class-Handle-1.03.tar.gz 1589414-Mar-2005 18:45
Class-Handle-1.04.tar.gz 2709328-Sep-2005 09:32
Class-Handle-1.05.tar.gz 2855129-Dec-2005 19:30
Class-Handle-1.06.tar.gz 2593503-Jun-2006 18:07
Class-Handle-1.07.tar.gz 2665711-Dec-2007 04:48
Class-Hook-0.01.tar.gz 434214-Dec-2001 12:05
Class-Hook-0.02.tar.gz 755011-Dec-2005 04:17
Class-Hook-0.03.tar.gz 463519-Jan-2009 05:49
Class-ISA-0.33.tar.gz 640130-Dec-2004 07:43
Class-ISA-0.36.tar.gz 605629-Sep-2009 20:45
Class-Inflate-0.04.tar.gz 1030801-Aug-2006 14:50
Class-Inflate-0.05.tar.gz 1044210-Nov-2006 20:45
Class-Inflate-0.07.tar.gz 1167819-Mar-2008 13:56
Class-Inner-0.1.tar.gz 325212-Aug-2001 13:11
Class-Inner-0.200001.tar.gz 364821-Nov-2009 22:45
Class-InsideOut-1.01.tar.gz 4833127-Jul-2006 16:36
Class-InsideOut-1.02.tar.gz 4841415-Aug-2006 13:29
Class-InsideOut-1.04.tar.gz 4374019-Jan-2007 02:50
Class-InsideOut-1.06.tar.gz 4389513-Feb-2007 00:46
Class-InsideOut-1.08.tar.gz 4064523-Aug-2007 12:44
Class-InsideOut-1.09.tar.gz 4201904-Jan-2008 23:46
Class-InsideOut-1.10.tar.gz 5524925-Aug-2009 00:43
Class-Inspector-1.08.tar.gz 1653614-Mar-2005 18:45
Class-Inspector-1.12.tar.gz 3080009-Sep-2005 11:51
Class-Inspector-1.13.tar.gz 3082528-Sep-2005 09:32
Class-Inspector-1.16.tar.gz 2866610-May-2006 07:23
Class-Inspector-1.17.tar.gz 2957026-Oct-2007 13:50
Class-Inspector-1.22.tar.gz 3048801-Mar-2008 10:31
Class-Inspector-1.23.tar.gz 3092802-Jun-2008 02:38
Class-Inspector-1.24.tar.gz 3500420-Apr-2009 17:06
Class-Interfaces-0.04.tar.gz 626701-Mar-2008 18:43
Class-Load-0.05.tar.gz 1711902-Sep-2009 10:30
Class-Loader-2.02.tar.gz 597215-Aug-2004 02:09
Class-Loader-2.03.tar.gz 618728-Apr-2005 03:06
Class-MOP-0.26.tar.gz 4942825-Apr-2006 01:09
Class-MOP-0.31.tar.gz 6235415-Jul-2006 21:22
Class-MOP-0.32.tar.gz 6635912-Aug-2006 06:20
Class-MOP-0.35.tar.gz 7345930-Sep-2006 22:04
Class-MOP-0.36.tar.gz 7558705-Nov-2006 18:44
Class-MOP-0.37.tar.gz 7884011-Mar-2007 04:43
Class-MOP-0.42.tar.gz 8327617-Jul-2007 02:51
Class-MOP-0.52.tar.gz 12845919-Mar-2008 13:56
Class-MOP-0.53.tar.gz 13032201-Mar-2008 18:43
Class-MOP-0.54.tar.gz 13260014-Mar-2008 17:33
Class-MOP-0.62.tar.gz 13888718-Jun-2008 13:30
Class-MOP-0.63.tar.gz 13905907-Jul-2008 23:28
Class-MOP-0.64.tar.gz 13866604-Aug-2008 00:13
Class-MOP-0.65.tar.gz 14439101-Sep-2008 16:14
Class-MOP-0.66.tar.gz 14619520-Sep-2008 14:28
Class-MOP-0.67.tar.gz 14678914-Oct-2008 13:38
Class-MOP-0.68.tar.gz 14741124-Oct-2008 15:41
Class-MOP-0.69.tar.gz 14770907-Nov-2008 20:35
Class-MOP-0.71.tar.gz 14822126-Nov-2008 19:40
Class-MOP-0.72.tar.gz 15163708-Dec-2008 17:15
Class-MOP-0.73.tar.gz 15235216-Dec-2008 15:11
Class-MOP-0.75.tar.gz 15304231-Dec-2008 16:40
Class-MOP-0.76.tar.gz 15440922-Jan-2009 22:26
Class-MOP-0.77.tar.gz 15502814-Feb-2009 17:26
Class-MOP-0.78.tar.gz 16491524-Feb-2009 04:45
Class-MOP-0.79.tar.gz 17003927-Mar-2009 15:51
Class-MOP-0.80.tar.gz 17031801-Apr-2009 16:50
Class-MOP-0.81.tar.gz 17099407-Apr-2009 16:02
Class-MOP-0.83.tar.gz 17199927-Apr-2009 15:26
Class-MOP-0.84.tar.gz 17509812-May-2009 20:12
Class-MOP-0.86.tar.gz 17718116-Jun-2009 13:47
Class-MOP-0.90.tar.gz 18156621-Jul-2009 21:10
Class-MOP-0.91.tar.gz 18163729-Jul-2009 21:52
Class-MOP-0.92.tar.gz 18276913-Aug-2009 22:09
Class-MOP-0.93.tar.gz 18571315-Sep-2009 14:54
Class-MOP-0.94.tar.gz 18595022-Sep-2009 21:40
Class-MOP-0.95.tar.gz 18648819-Nov-2009 00:58
Class-MOP-0.97.tar.gz 18536819-Dec-2009 01:18
Class-MOP-0.98.tar.gz 18685718-Jan-2010 18:07
Class-MOP-1.00.tar.gz 18803525-Mar-2010 18:20
Class-MOP-1.01.tar.gz 19007806-May-2010 00:10
Class-MOP-1.02.tar.gz 19308120-May-2010 20:13
Class-MOP-1.03.tar.gz 19222705-Jun-2010 21:01
Class-MOP-1.04.tar.gz 19315125-Jul-2010 15:27
Class-MOP-1.06.tar.gz 19466823-Aug-2010 13:36
Class-MOP-1.07.tar.gz 19479824-Aug-2010 14:39
Class-MOP-1.08.tar.gz 19491013-Sep-2010 15:54
Class-MOP-1.09.tar.gz 19960806-Oct-2010 02:07
Class-MOP-1.10.tar.gz 20072118-Oct-2010 15:31
Class-MOP-1.11.tar.gz 20069301-Nov-2010 00:31
Class-MakeMethods-1.006.tar.gz 16466615-Aug-2004 02:09
Class-MakeMethods-1.01.tar.gz 16217407-Sep-2004 21:45
Class-Measure-0.02.tar.gz 636202-Aug-2005 14:10
Class-Measure-0.03.tar.gz 644206-Aug-2007 22:45
Class-Measure-0.04.tar.gz 2548728-Jun-2009 04:04
Class-Method-Modifiers-1.01.tar.gz 2316327-Jun-2008 02:28
Class-Method-Modifiers-1.04.tar.gz 2448715-Jun-2009 15:34
Class-Method-Modifiers-1.05.tar.gz 2457921-Oct-2009 18:05
Class-Method-Modifiers-Fast-0.03.tar.gz 4333618-Jan-2009 10:11
Class-Method-Modifiers-Fast-0.041.tar.gz 4550324-Dec-2009 11:15
Class-MethodMaker-1.11.tar.gz 4233313-Aug-2003 15:24
Class-MethodMaker-2.07.tar.gz 8875210-Apr-2005 10:29
Class-MethodMaker-2.08.tar.gz 8883126-Nov-2005 12:13
Class-MethodMaker-2.09.tar.gz 8743109-Feb-2007 15:59
Class-MethodMaker-2.10.tar.gz 8928627-Apr-2007 07:40
Class-MethodMaker-2.11.tar.gz 8878524-Mar-2008 21:37
Class-MethodMaker-2.12.tar.gz 8886520-Jul-2008 21:14
Class-MethodMaker-2.13.tar.gz 8900603-Dec-2008 01:32
Class-MethodMaker-2.15.tar.gz 9042815-Feb-2009 02:14
Class-MethodMaker-2.16.tar.gz 8953310-May-2010 22:46
Class-MethodMapper-1.0.tar.gz 529119-Mar-2001 12:44
Class-Mix-0.003.tar.gz 506519-May-2009 22:15
Class-Mix-0.004.tar.gz 818801-Sep-2010 23:49
Class-MixinFactory-0.92.tar.gz 1115028-Nov-2004 22:45
Class-Multimethods-1.70.tar.gz 2831609-Apr-2000 02:46
Class-Multimethods-Pure-0.11.tar.gz 1305627-Sep-2005 07:22
Class-Multimethods-Pure-0.13.tar.gz 1538704-Feb-2007 07:14
Class-NamedParms-1.04.tar.gz 405615-Aug-2004 02:09
Class-NamedParms-1.06.tar.gz 712221-Sep-2005 00:53
Class-OOorNO-0.011.tar.gz 784010-Jan-2003 02:53
Class-ObjectTemplate-0.7.tar.gz 627825-Feb-2002 23:15
Class-ObjectTemplate-DB-0.27.tar.gz 692625-Feb-2002 23:15
Class-Observable-1.02.tar.gz 900822-Sep-2004 17:39
Class-Observable-1.04.tar.gz 970916-Oct-2004 16:55
Class-ParmList-1.03.tar.gz 757115-Aug-2004 02:09
Class-ParmList-1.04.tar.gz 1665618-Sep-2005 18:26
Class-ParmList-1.05.tar.gz 1651704-Mar-2006 15:10
Class-Prototyped-1.10.tar.gz 5945016-Mar-2005 05:33
Class-Prototyped-1.11.tar.gz 5945119-Dec-2007 01:48
Class-ReturnValue-0.52.tar.gz 1943015-Aug-2004 02:09
Class-ReturnValue-0.53.tar.gz 1947330-May-2005 21:01
Class-ReturnValue-0.55.tar.gz 1433901-Nov-2007 09:27
Class-Roles-0.30.tar.gz 614614-Dec-2003 01:07
Class-STL-Containers-0.26.tar.gz 6419015-May-2006 14:47
Class-STL-Containers-0.35.tar.gz 6624403-Apr-2007 09:43
Class-Singleton-1.03.tar.gz 713620-Jan-1999 10:23
Class-Singleton-1.4.tar.gz 779328-Sep-2007 08:23
Class-Spiffy-0.12.tar.gz 2458019-Jan-2006 18:49
Class-Spiffy-0.15.tar.gz 2468330-Jan-2006 16:43
Class-StateMachine-0.11.tar.gz 329727-Jun-2005 13:21
Class-StateMachine-0.12.tar.gz 328217-Apr-2006 22:35
Class-Std-0.0.9.tar.gz 3165125-Mar-2008 01:25
Class-Std-0.011.tar.gz 3108024-Dec-2009 03:07
Class-Std-Fast-v0.0.8.tar.gz 2091526-May-2008 11:31
Class-Std-Utils-v0.0.3.tar.gz 514125-Nov-2007 01:51
Class-Std-v0.0.8.tar.gz 3110019-Feb-2006 20:06
Class-StrongSingleton-0.02.tar.gz 634701-Mar-2008 18:43
Class-Tangram-1.54.tar.gz 4542715-Aug-2004 02:09
Class-Tangram-1.55.tar.gz 4392125-Mar-2005 18:56
Class-Tangram-1.56.tar.gz 5016329-Nov-2005 05:19
Class-Tangram-1.57.tar.gz 5020530-Jan-2006 21:29
Class-Throwable-0.10.tar.gz 1097112-Dec-2004 16:48
Class-Throwable-0.11.tar.gz 1109626-Jul-2009 19:24
Class-Tom-3.02.tar.gz 368530-Aug-1999 09:34
Class-Trigger-0.09.tar.gz 576814-Mar-2005 18:45
Class-Trigger-0.10.tar.gz 582823-Aug-2005 22:12
Class-Trigger-0.11.tar.gz 614502-Mar-2007 01:37
Class-Trigger-0.12.tar.gz 780926-Oct-2007 13:50
Class-Trigger-0.13.tar.gz 807006-Mar-2008 20:57
Class-Trigger-0.14.tar.gz 4995011-Oct-2009 22:57
Class-Unload-0.05.tar.gz 1513601-Dec-2008 15:22
Class-Unload-0.06.tar.gz 1014226-Apr-2010 19:39
Class-Virtual-0.05.tar.gz 652531-Dec-2004 06:42
Class-Virtual-0.06.tar.gz 577003-Sep-2006 22:07
Class-WhiteHole-0.04.tar.gz 327924-Jul-2003 03:01
Class-Workflow-0.08.tar.gz 2727401-Mar-2008 18:43
Class-Workflow-0.09.tar.gz 3109909-Mar-2008 20:08
Class-Workflow-0.11.tar.gz 3183128-Aug-2009 15:03
Class-XPath-1.4.tar.gz 1080229-Feb-2004 23:01
Class-XSAccessor-0.08.tar.gz 4566921-Nov-2008 11:18
Class-XSAccessor-0.14.tar.gz 4746009-Dec-2008 20:13
Class-XSAccessor-1.02.tar.gz 5300517-May-2009 09:21
Class-XSAccessor-1.03.tar.gz 5305431-May-2009 16:47
Class-XSAccessor-1.05.tar.gz 6800615-Nov-2009 11:57
Class-XSAccessor-1.07.tar.gz 6879215-Aug-2010 12:45
Class-XSAccessor-Array-0.14.tar.gz 4634209-Dec-2008 20:16
Class-XSAccessor-Array-1.02.tar.gz 5322417-May-2009 09:24
Class-XSAccessor-Array-1.04.tar.gz 5329411-Jun-2009 14:49
ClassicGames.pgn.bz2 162181015-Aug-2004 02:09
CleanQ3_v0.5.2-srcbin.zip 897091617-Mar-2006 00:53
Clearlooks-Big_Pack-0.6.tar.gz 116361518-Jun-2005 22:15
Clearlooks-Big_Pack-0.6.x.tar.gz 17208611-Sep-2005 20:15
ClientCookie-0.4.18.tar.gz 10600515-Aug-2004 02:09
ClientCookie-1.0.3.tar.gz 11863120-Feb-2005 14:12
ClientForm-0.1.16.tar.gz 6236715-Aug-2004 02:09
ClientForm-0.1.17.tar.gz 6406230-Jan-2005 22:02
ClientForm-0.2.10.tar.gz 10409404-Dec-2008 00:09
ClientForm-0.2.6.tar.gz 10322207-Jan-2007 18:32
ClientForm-0.2.7.tar.gz 10391125-May-2007 18:48
ClientForm-0.2.9.tar.gz 10293619-Jul-2008 13:29
Clipboard-0.08.tar.gz 1386622-Jun-2005 17:05
Clipboard-0.09.tar.gz 1511119-Nov-2005 06:12
Clipboard-2.4.tar.gz 4305106-Dec-1996 05:00
Clone-0.15.tar.gz 926915-Aug-2004 02:09
Clone-0.18.tar.gz 983823-May-2005 15:39
Clone-0.20.tar.gz 1018008-Mar-2006 17:19
Clone-0.22.tar.gz 1056408-Oct-2006 05:37
Clone-0.23.tar.gz 1063220-Apr-2007 05:45
Clone-0.27.tar.gz 1112025-Jul-2007 03:44
Clone-0.28.tar.gz 1127401-Nov-2007 09:27
Clone-0.29.tar.gz 1133112-Jul-2008 17:57
Clone-0.30.tar.gz 1152612-Dec-2008 04:05
Clone-0.31.tar.gz 1175320-Jan-2009 04:59
Clone-Fast-0.90.1.tar.gz 2458214-Jul-2006 15:30
Clone-Fast-0.92.tar.gz 5029718-Mar-2007 07:36
Clone-Fast-0.93.tar.gz 5140115-Sep-2007 11:55
Clone-More-0.90.2.tar.gz 2763414-Jul-2006 19:30
Clone-PP-1.02.tar.gz 774628-Aug-2003 18:08
Clp-1.10.0.tgz 332133231-Mar-2009 17:31
Clp-1.11.0.tgz 728997312-Jan-2010 08:04
Clp-1.4.0.tgz 688486922-Aug-2007 09:41
Clp-1.6.0.tgz 310353601-Mar-2008 18:43
Clp-1.7.4.tgz 318661816-May-2008 23:47
Clp-1.8.0.tgz 322253717-Jul-2008 07:01
Clp-1.8.2.tgz 323070020-Sep-2008 07:11
Cobalt-Obscura.tar.gz 4903506-May-2001 20:36
Coccinella-0.95.1Src.tar.gz 396732211-Oct-2004 06:47
Code-Perl-0.03.tar.gz 1758023-Jun-2003 18:33
CodeEditor-0.4.4.tar.gz 8325208-Apr-2004 18:28
CodeIgniter_1.5.4.zip 77409801-Mar-2008 18:43
CodeIgniter_1.6.2.zip 86120213-May-2008 22:05
CodeIgniter_1.6.3.zip 87266527-Jun-2008 16:40
CodeIgniter_1.7.0.zip 91242724-Oct-2008 14:13
CodeIgniter_1.7.1.zip 91457711-Feb-2009 01:08
CodeIgniter_1.7.2.zip 222789111-Sep-2009 14:51
CodeLite-rev1789-v1.0.src.zip 728914901-Jul-2008 15:14
CodeWorker_SRC3_10_3.zip 181771716-May-2005 19:24
CodeWorker_SRC3_11_0_1.zip 182564307-Jun-2005 20:01
CodeWorker_SRC3_12.zip 211094625-Jun-2005 14:20
CodeWorker_SRC3_8_2.zip 165905813-Dec-2004 07:48
CodeWorker_SRC3_8_4.zip 169018409-Apr-2005 05:53
CodeWorker_SRC4_0_1.zip 230742219-Aug-2005 18:56
CodeWorker_SRC4_0_2.zip 295836529-Oct-2005 12:45
CodeWorker_SRC4_1.zip 303212707-Dec-2005 22:43
CodeWorker_SRC4_2.zip 317843828-Oct-2006 09:24
Codeville-0.1.10.tar.gz 7018824-Jan-2005 09:15
Codeville-0.1.12.tar.gz 8820907-May-2005 19:17
Codeville-0.1.13.tar.gz 8977818-Jul-2005 18:23
Codeville-0.1.16.tar.gz 9317727-Feb-2006 23:07
CodingFontTobi.pcf.zip 489927-Jun-2008 22:37
Coin-2.3.0.tar.gz 323843614-Mar-2005 18:45
Coin-2.4.4.tar.gz 378436819-Sep-2005 23:48
Coin-2.4.5.tar.gz 472189830-Apr-2006 16:05
Coin-2.4.6.tar.gz 401649010-Apr-2007 09:38
Coin-2.5.0.tar.gz 436014801-Mar-2008 18:43
Coin-3.0.0.tar.gz 534642012-Sep-2008 11:48
Coin-3.1.1.tar.gz 554268715-Oct-2009 16:17
Coin-3.1.2.tar.gz 555707228-Oct-2009 09:40
Coin-3.1.3.tar.gz 598153402-Mar-2010 13:28
ColderXMMS.tar.gz 14301126-Jan-2000 11:00
Color-Library-0.02.tar.gz 35219501-Oct-2007 10:00
Color-Palette-0.091400.tar.gz 1181320-May-2009 12:43
Color-Rgb-1.4.tar.gz 1034823-Oct-2002 20:34
Color-Scheme-1.02.tar.gz 1158929-Jan-2006 01:27
ColorCode-0.6.1.tar.gz 15448518-Oct-2010 18:28
Colorer-take5.beta2.tar.bz2 164978913-Sep-2003 09:58
Columns-1.2b.tar.gz 61072517-Mar-2000 00:00
Commands-Guarded-0.01.tar.gz 1232318-Nov-2004 08:45
Commands-Guarded-1.01.tar.gz 1256403-Aug-2009 17:39
CommitBit-0.02.tar.gz 4138602-Oct-2006 18:01
Component-0.1.tar.gz 1039216-Mar-2005 21:16
Component-0.2.tar.gz 1223025-Sep-2006 22:08
Compress-Bzip2-1.02.tar.gz 1150115-Aug-2004 02:09
Compress-Bzip2-2.08.tar.gz 42915912-May-2005 01:59
Compress-Bzip2-2.09.tar.gz 42958409-Aug-2005 18:22
Compress-LZF-1.7.tar.gz 2251927-Sep-2006 18:06
Compress-LZF-1.71.tar.gz 2272916-Feb-2007 22:12
Compress-LZF-1.8.tar.gz 2263018-Apr-2007 12:41
Compress-LZF-3.11.tar.gz 2306501-Mar-2008 18:43
Compress-LZF-3.41.tar.gz 2350822-Sep-2008 23:59
Compress-LZF-3.43.tar.gz 2370229-Dec-2008 08:46
Compress-LZO-1.08.tar.gz 1248029-Aug-2002 08:44
Compress-LZW-0.01.tar.gz 310620-Jun-2003 12:35
Compress-LeadingBlankSpaces-0.04.tar.gz 372007-May-2004 03:17
Compress-LeadingBlankSpaces-0.06.tar.gz 425901-Aug-2004 16:02
Compress-Raw-Bzip2-2.003.tar.gz 14392902-Jan-2007 13:03
Compress-Raw-Bzip2-2.004.tar.gz 13891503-Mar-2007 15:50
Compress-Raw-Bzip2-2.005.tar.gz 13904201-Jul-2007 00:06
Compress-Raw-Bzip2-2.006.tar.gz 14002901-Sep-2007 19:44
Compress-Raw-Bzip2-2.008.tar.gz 14006401-Mar-2008 18:43
Compress-Raw-Bzip2-2.011.tar.gz 14032617-May-2008 11:16
Compress-Raw-Bzip2-2.012.tar.gz 14042415-Jul-2008 22:23
Compress-Raw-Bzip2-2.015.tar.gz 14087703-Sep-2008 20:47
Compress-Raw-Bzip2-2.017.tar.gz 14123204-Apr-2009 09:47
Compress-Raw-Bzip2-2.019.tar.gz 14466504-May-2009 09:42
Compress-Raw-Bzip2-2.020.tar.gz 14470203-Jun-2009 17:48
Compress-Raw-Bzip2-2.021.tar.gz 14345230-Aug-2009 20:25
Compress-Raw-Bzip2-2.023.tar.gz 12453409-Nov-2009 23:25
Compress-Raw-Bzip2-2.024.tar.gz 12454609-Jan-2010 17:56
Compress-Raw-Bzip2-2.027.tar.gz 12441724-Apr-2010 19:15
Compress-Raw-Bzip2-2.030.tar.gz 12441724-Jul-2010 14:29
Compress-Raw-Bzip2-2.031.tar.gz 12467721-Sep-2010 19:44
Compress-Raw-Lzma-2.030.tar.gz 9920324-Jul-2010 14:30
Compress-Raw-Lzma-2.031.tar.gz 9857927-Oct-2010 05:04
Compress-Raw-Zlib-2.003.tar.gz 20729902-Jan-2007 13:03
Compress-Raw-Zlib-2.004.tar.gz 20721403-Mar-2007 15:50
Compress-Raw-Zlib-2.005.tar.gz 20733401-Jul-2007 00:07
Compress-Raw-Zlib-2.006.tar.gz 20745401-Sep-2007 19:44
Compress-Raw-Zlib-2.008.tar.gz 20748801-Mar-2008 18:43
Compress-Raw-Zlib-2.011.tar.gz 20784217-May-2008 11:16
Compress-Raw-Zlib-2.012.tar.gz 20848115-Jul-2008 22:24
Compress-Raw-Zlib-2.015.tar.gz 20900603-Sep-2008 20:47
Compress-Raw-Zlib-2.017.tar.gz 21198304-Apr-2009 09:49
Compress-Raw-Zlib-2.019.tar.gz 21198504-May-2009 09:42
Compress-Raw-Zlib-2.020.tar.gz 21198803-Jun-2009 17:48
Compress-Raw-Zlib-2.021.tar.gz 21322830-Aug-2009 20:25
Compress-Raw-Zlib-2.023.tar.gz 21338509-Nov-2009 23:26
Compress-Raw-Zlib-2.024.tar.gz 21340709-Jan-2010 17:56
Compress-Raw-Zlib-2.027.tar.gz 22108124-Apr-2010 19:15
Compress-Raw-Zlib-2.030.tar.gz 22069724-Jul-2010 14:31
Compress-Zlib-1.33.tar.gz 11397815-Aug-2004 02:09
Compress-Zlib-1.34.tar.gz 14498030-Jan-2005 21:47
Compress-Zlib-1.35.tar.gz 15047321-Jul-2005 08:45
Compress-Zlib-1.39.tar.gz 15171416-Sep-2005 20:34
Compress-Zlib-1.41.tar.gz 15197204-Oct-2005 18:28
Compress-Zlib-1.42.tar.gz 15208505-Jul-2006 18:52
Compress-Zlib-2.003.tar.gz 6255002-Jan-2007 13:04
Compress-Zlib-2.004.tar.gz 6248403-Mar-2007 15:52
Compress-Zlib-2.005.tar.gz 6293101-Jul-2007 00:07
Compress-Zlib-2.006.tar.gz 6361901-Sep-2007 19:46
Compress-Zlib-2.007.tar.gz 6379301-Nov-2007 09:27
Compress-Zlib-2.008.tar.gz 6381201-Mar-2008 18:43
Compress-Zlib-2.011.tar.gz 6413717-May-2008 11:18
Compress-Zlib-2.012.tar.gz 6421415-Jul-2008 22:26
Compress-Zlib-2.015.tar.gz 6498003-Sep-2008 20:49
ConceptX-Gold.zip 10977926-Jan-2000 11:00
Concept_X.zip 14303826-Jan-2000 11:01
Config-Any-0.04.tar.gz 926022-Aug-2006 21:50
Config-Any-0.07.tar.gz 1080526-Feb-2007 01:15
Config-Any-0.08.tar.gz 2750223-Aug-2007 14:32
Config-Any-0.11.tar.gz 2824901-Mar-2008 18:43
Config-Any-0.12.tar.gz 2885007-Apr-2008 19:09
Config-Any-0.14.tar.gz 3305606-Aug-2008 14:37
Config-Any-0.16.tar.gz 3293117-Nov-2008 14:26
Config-Any-0.17.tar.gz 3403005-Feb-2009 14:38
Config-Any-0.18.tar.gz 2962716-Nov-2009 13:07
Config-Any-0.19.tar.gz 3038615-Feb-2010 14:03
Config-Any-0.20.tar.gz 3302106-Aug-2010 11:51
Config-ApacheFormat-1.2.tar.gz 5681704-Nov-2003 23:24
Config-Auto-0.11.tar.gz 676001-Dec-2004 04:40
Config-Auto-0.12.tar.gz 726409-Apr-2005 05:53
Config-Auto-0.14.tar.gz 856011-Aug-2005 14:32
Config-Auto-0.16.tar.gz 908019-Jan-2006 15:26
Config-Auto-0.17.tar.gz 1159418-Feb-2006 10:15
Config-Auto-0.18.tar.gz 976528-Jun-2006 10:36
Config-Auto-0.20.tar.gz 986207-Apr-2007 13:17
Config-AutoConf-0.14.tar.gz 714514-Feb-2010 18:06
Config-AutoConf-0.15.tar.gz 720308-Mar-2010 18:29
Config-AutoConf-0.16.tar.gz 570623-Sep-2010 20:35
Config-Fast-1.04.tar.gz 698104-Nov-2003 22:31
Config-Fast-1.05.tar.gz 829211-Oct-2005 23:59
Config-Fast-1.07.tar.gz 1002006-Mar-2006 22:21
Config-General-2.21.tar.gz 3470715-Aug-2004 02:09
Config-General-2.28.tar.gz 3802017-May-2005 11:46
Config-General-2.29.tar.gz 3889631-May-2005 19:46
Config-General-2.30.tar.gz 4003215-Sep-2005 20:09
Config-General-2.31.tar.gz 4523611-Jan-2006 20:23
Config-General-2.32.tar.gz 4301624-Feb-2007 11:51
Config-General-2.33.tar.gz 4388817-Apr-2007 19:24
Config-General-2.34.tar.gz 4488626-Oct-2007 13:50
Config-General-2.36.tar.gz 4510501-Nov-2007 09:27
Config-General-2.37.tar.gz 4555001-Mar-2008 18:43
Config-General-2.38.tar.gz 4593402-Mar-2008 12:17
Config-General-2.39.tar.gz 4739916-Jun-2008 20:17
Config-General-2.40.tar.gz 4986418-Jun-2008 23:08
Config-General-2.41.tar.gz 4970217-Dec-2008 21:45
Config-General-2.42.tar.gz 5511518-Dec-2008 12:24
Config-General-2.43.tar.gz 5626819-Jul-2009 20:07
Config-General-2.44.tar.gz 5622307-Sep-2009 18:53
Config-General-2.48.tar.gz 5820909-Apr-2010 13:43
Config-General-2.49.tar.gz 5812608-Jun-2010 07:15
Config-INI-0.014.tar.gz 3032316-Jan-2009 16:01
Config-INI-0.015.tar.gz 3519022-Aug-2010 19:07
Config-INI-0.016.tar.gz 3524504-Sep-2010 18:55
Config-INI-MVP-0.024.tar.gz 2448026-Oct-2009 17:24
Config-INI-Simple-0.01.zip 493021-Jan-2006 19:21
Config-INI-Simple-0.02.tar.gz 369607-Feb-2008 14:07
Config-Ini-1.07.tar.gz 1103815-Aug-2004 02:09
Config-IniFiles-2.38.tar.gz 3684615-Aug-2004 02:09
Config-IniFiles-2.39.tar.gz 3880129-Apr-2005 20:33
Config-IniFiles-2.47.tar.gz 3880621-Jan-2009 09:41
Config-IniFiles-2.48.tar.gz 3931407-Apr-2009 12:26
Config-IniFiles-2.49.tar.gz 3977402-May-2009 14:27
Config-IniFiles-2.51.tar.gz 4842508-Jun-2009 09:41
Config-IniFiles-2.52.tar.gz 4916028-Jun-2009 13:21
Config-IniFiles-2.53.tar.gz 5065513-Nov-2009 09:58
Config-IniFiles-2.54.tar.gz 5070218-Nov-2009 11:15
Config-IniFiles-2.56.tar.gz 5180231-Dec-2009 04:57
Config-IniFiles-2.57.tar.gz 5227001-Mar-2010 13:51
Config-IniFiles-2.58.tar.gz 5235617-May-2010 07:45
Config-IniHash-2.8.2.tar.gz 555825-Jan-2007 18:00
Config-IniHash-2.8.tar.gz 526820-Feb-2005 20:21
Config-IniHash-2.9.0.tar.gz 600719-Mar-2007 19:32
Config-IniHash-3.00.00.tar.gz 602201-Mar-2008 18:43
Config-IniHash-3.00.05.tar.gz 983126-Jan-2009 11:25
Config-IniHash-3.01.00.tar.gz 1273928-May-2009 20:19
Config-IniHash-3.01.01.tar.gz 1280608-Jun-2009 15:14
Config-IniRegEx-0.01.tar.gz 481629-Jan-2009 14:15
Config-JFDI-0.05.tar.gz 2850818-Mar-2009 19:41
Config-JFDI-0.062.tar.gz 3148529-May-2009 16:56
Config-JFDI-0.063.tar.gz 3202423-Jun-2009 19:47
Config-JFDI-0.064.tar.gz 3278819-Oct-2009 04:38
Config-JSON-1.1.4.tar.gz 711725-Jan-2008 22:36
Config-JSON-1.3.1.tar.gz 1082208-Dec-2008 17:41
Config-JSON-1.4.0.tar.gz 1216030-Oct-2009 16:06
Config-JSON-1.5000.tar.gz 1762620-Dec-2009 02:12
Config-MVP-0.093350.tar.gz 1933601-Dec-2009 11:59
Config-MVP-2.101460.tar.gz 2337127-May-2010 02:31
Config-MVP-2.101540.tar.gz 2360403-Jun-2010 04:30
Config-MVP-2.101650.tar.gz 2365715-Jun-2010 00:23
Config-Model-0.607.tar.gz 11985012-Jan-2007 13:06
Config-Model-0.608.tar.gz 12042823-Feb-2007 13:00
Config-Model-0.612.tar.gz 13366027-Jul-2007 11:38
Config-Model-0.613.tar.gz 13695026-Oct-2007 13:50
Config-Model-0.614.tar.gz 13805501-Nov-2007 09:27
Config-Model-0.618.tar.gz 14545101-Mar-2008 18:43
Config-Model-0.623.tar.gz 15510919-May-2008 11:47
Config-Model-0.625.tar.gz 16591130-Jul-2008 12:02
Config-Model-0.628.tar.gz 16973229-Sep-2008 12:35
Config-Model-0.629.tar.gz 17134113-Oct-2008 15:09
Config-Model-0.630.tar.gz 17155621-Oct-2008 11:59
Config-Model-0.631.tar.gz 16608710-Nov-2008 14:37
Config-Model-0.632.tar.gz 16644116-Dec-2008 13:32
Config-Model-0.633.tar.gz 16685223-Dec-2008 15:36
Config-Model-0.634.tar.gz 16697205-Mar-2009 13:06
Config-Model-0.635.tar.gz 17010420-Apr-2009 12:21
Config-Model-0.636.tar.gz 21670830-May-2009 16:19
Config-Model-0.637.tar.gz 21711523-Jun-2009 12:07
Config-Model-0.638.tar.gz 21715230-Jun-2009 11:31
Config-Model-0.639.tar.gz 21796508-Sep-2009 11:35
Config-Model-0.640.tar.gz 21814909-Sep-2009 16:10
Config-Model-0.642.tar.gz 21968321-Jan-2010 17:17
Config-Model-0.643.tar.gz 22500325-Feb-2010 13:04
Config-Model-0.644.tar.gz 22760612-Mar-2010 15:24
Config-Model-1.001.tar.gz 23148928-Mar-2010 14:53
Config-Model-1.202.tar.gz 23839622-Apr-2010 12:22
Config-Model-1.204.tar.gz 18843603-Jun-2010 11:20
Config-Model-1.205.tar.gz 24066407-Jun-2010 16:04
Config-Model-1.206.tar.gz 19667913-Aug-2010 10:53
Config-Model-1.209.tar.gz 20883720-Sep-2010 12:29
Config-Model-1.210.tar.gz 21838330-Sep-2010 16:34
Config-Model-1.211.tar.gz 22021608-Oct-2010 17:46
Config-Model-1.212.tar.gz 22219215-Oct-2010 18:08
Config-Model-1.215.tar.gz 22346319-Oct-2010 22:28
Config-Model-1.216.tar.gz 22368126-Oct-2010 12:16
Config-Model-1.217.tar.gz 22363830-Oct-2010 12:44
Config-Model-1.218.tar.gz 22888205-Nov-2010 11:53
Config-Objective-0.9.1.tar.gz 1763323-Jul-2003 14:53
Config-Options-0.08.tar.gz 598920-Feb-2008 08:08
Config-Properties-0.65.tar.gz 1101008-Sep-2006 11:37
Config-Properties-1.68.tar.gz 1141628-Oct-2007 12:23
Config-Properties-1.70.tar.gz 1150922-Apr-2009 16:29
Config-Record-1.1.1.tar.gz 2546204-Jun-2006 15:34
Config-Record-1.1.2.tar.gz 2645201-Mar-2008 18:43
Config-Setting-0.01.tar.gz 712130-Sep-2004 07:13
Config-Setting-0.04.tar.gz 1006331-Aug-2005 20:10
Config-Simple-4.57.tar.gz 2377813-Dec-2004 07:48
Config-Simple-4.58.tar.gz 2393410-Feb-2005 18:58
Config-Simple-4.59.tar.gz 2101012-Sep-2006 17:50
Config-Std-v0.0.4.tar.gz 1214019-Feb-2006 21:05
Config-Tiny-2.00.tar.gz 1410815-Aug-2004 02:09
Config-Tiny-2.01.tar.gz 1333624-Mar-2005 16:08
Config-Tiny-2.02.tar.gz 1387219-Jun-2005 08:30
Config-Tiny-2.06.tar.gz 2964422-Apr-2006 17:18
Config-Tiny-2.07.tar.gz 2347221-Jul-2006 18:15
Config-Tiny-2.08.tar.gz 2374615-Jul-2006 04:42
Config-Tiny-2.10.tar.gz 2396901-Oct-2006 02:31
Config-Tiny-2.12.tar.gz 1607201-Mar-2008 18:43
Config-Tiny-2.13.tar.gz 1677803-Sep-2010 01:27
Config-Wrest-1.036.tar.gz 3951629-Aug-2006 14:31
Config-YAML-1.42.tar.gz 596325-Sep-2005 17:00
ConfigKit.20080902.tgz 2048002-Sep-2008 13:06
ConfigReader-0.5.tar.gz 1759219-Feb-1996 16:44
ConfigReader-Simple-1.18.tar.gz 833909-Apr-2005 05:53
ConfigReader-Simple-1.21.tar.gz 1121325-Aug-2005 00:17
ConfigReader-Simple-1.23.tar.gz 1149810-Apr-2006 14:48
ConfigReader-Simple-1.24.tar.gz 1162110-Jan-2007 04:04
ConfigReader-Simple-1.25.tar.gz 1176717-Mar-2007 01:11
ConfigReader-Simple-1.26.tar.gz 1188609-Nov-2007 11:34
ConfigReader-Simple-1.27.tar.gz 1188820-Aug-2008 12:37
ConfigReader-Simple-1.28.tar.gz 1432510-Jun-2009 04:59
ConsoleKit-0.2.10.tar.gz 52147326-Feb-2008 00:42
ConsoleKit-0.2.2.20070827.tar.bz2 30887227-Aug-2007 13:24
ConsoleKit-0.2.2.20070906.tar.bz2 30917106-Sep-2007 09:37
ConsoleKit-0.3.0.tar.bz2 39369431-Jul-2008 00:43
ConsoleKit-0.3.1.tar.bz2 40367322-Jul-2009 21:00
ConsoleKit-0.4.1.tar.bz2 39808024-Sep-2009 06:30
ConsoleKit-0.4.2.tar.bz2 41265106-Sep-2010 17:04
Contenido_4.8.10.zip 505656009-Jan-2009 12:33
Contenido_4.8.12.zip 359208524-Apr-2009 12:40
Context-Preserve-0.01.tar.gz 1315815-Jan-2008 22:12
ContextFreeSource2.1.tgz 136313629-Apr-2007 05:53
ContextFreeSource2.2.1.tgz 160624715-Aug-2009 05:24
Contextual-Return-v0.1.0.tar.gz 2296917-Feb-2006 01:17
Contextual-Return-v0.2.0.tar.gz 2746106-Mar-2007 05:36
Contextual-Return-v0.2.1.tar.gz 2749329-Mar-2007 08:02
Continuity-0.994.tar.gz 7329017-Jun-2008 16:17
Continuity-0.995.tar.gz 7404604-Aug-2008 03:38
Continuity-0.996.tar.gz 7433215-Oct-2008 04:13
Continuity-0.997.tar.gz 7444011-Dec-2008 13:34
Continuity-0.998.tar.gz 7595128-Feb-2009 23:30
Continuity-1.0.tar.gz 7663509-May-2009 07:06
Continuity-1.01.tar.gz 7787306-Jun-2009 21:36
Continuity-1.1.1.tar.gz 8076606-Feb-2010 01:34
Convert-ASCII-Armour-1.4.tar.gz 600220-Mar-2001 07:24
Convert-ASN1-0.18.tar.gz 5993608-Oct-2003 14:31
Convert-ASN1-0.19.tar.gz 6184019-Apr-2005 00:51
Convert-ASN1-0.20.tar.gz 6184622-Feb-2006 01:29
Convert-ASN1-0.21.tar.gz 6807103-Feb-2007 02:50
Convert-ASN1-0.22.tar.gz 7462515-Sep-2008 19:39
Convert-BER-1.3101.tar.gz 2536219-Aug-2002 14:55
Convert-BER-1.32.tar.gz 2698322-Oct-2009 01:36
Convert-Bencode-1.03.tar.gz 1064006-Oct-2003 21:45
Convert-Bencode_XS-0.05.tar.gz 882608-Jun-2006 06:06
Convert-Bencode_XS-0.06.tar.gz 892612-Nov-2006 08:07
Convert-BinHex-1.119.tar.gz 8457328-Jun-1997 05:28
Convert-Binary-C-0.58.tar.gz 92635914-Mar-2005 18:45
Convert-Binary-C-0.59.tar.gz 133391513-Jun-2005 20:05
Convert-Binary-C-0.61.tar.gz 139343327-Oct-2005 17:21
Convert-Binary-C-0.64.tar.gz 140404716-Jan-2006 18:16
Convert-Binary-C-0.65.tar.gz 144352227-Aug-2006 13:53
Convert-Binary-C-0.67.tar.gz 155006829-Dec-2006 20:46
Convert-Binary-C-0.70.tar.gz 155566401-Mar-2008 18:43
Convert-Binary-C-0.71.tar.gz 155703315-Apr-2008 15:16
Convert-Binary-C-0.73.tar.gz 156120616-Mar-2009 08:55
Convert-Binary-C-0.74.tar.gz 156145118-Apr-2009 11:48
Convert-IBM390-0.20.tar.gz 2879809-Mar-2005 14:25
Convert-IBM390-0.21.tar.gz 2903603-Nov-2005 14:49
Convert-IBM390-0.22.tar.gz 2434226-Jan-2006 16:36
Convert-IBM390-0.23.tar.gz 2469929-Aug-2007 16:29
Convert-IBM390-0.24.tar.gz 2510115-Apr-2008 16:53
Convert-IBM390-0.25.tar.gz 2546707-Jul-2008 20:59
Convert-IBM390-0.27.tar.gz 3018317-Dec-2008 00:07
Convert-Morse-0.04.tar.gz 560124-Oct-2004 15:49
Convert-Morse-0.05.tar.gz 2231702-Feb-2007 18:42
Convert-Morse-0.06.tar.gz 2255326-Feb-2008 22:38
Convert-PEM-0.06.tar.gz 933216-Sep-2001 05:01
Convert-PEM-0.07.tar.gz 2083625-May-2005 22:42
Convert-Recode-1.03.tar.gz 218315-Aug-2004 02:09
Convert-Recode-1.04.tar.gz 254818-Dec-2003 10:23
Convert-TNEF-0.17.tar.gz 1217324-Feb-2002 17:53
Convert-UU-0.52.tar.gz 629208-Feb-2003 16:24
Convert-UU-0.5201.tar.gz 704802-Mar-2008 22:17
Convert-UUlib-1.051.tar.gz 22867103-Mar-2005 17:52
Convert-UUlib-1.06.tar.gz 23490005-Dec-2005 23:58
Convert-UUlib-1.08.tar.gz 23026816-Dec-2006 22:31
Convert-UUlib-1.09.tar.gz 23047725-May-2007 17:40
Convert-UUlib-1.11.tar.gz 23064413-Jun-2008 13:34
Convert-UUlib-1.12.tar.gz 23102313-Oct-2008 12:13
Convert-UUlib-1.3.tar.gz 23623128-Aug-2009 23:26
Convert-UUlib-1.32.tar.gz 23638716-Sep-2009 18:10
Convert-UUlib-1.33.tar.gz 23663528-Oct-2009 08:05
Cookie-XS-0.09.tar.gz 2455324-Mar-2008 02:22
Coolblue.tar.gz 33380506-May-2001 20:36
CornerXMMS-0.0.5.tar.bz2 4884624-Sep-2003 14:26
CornerXMMS-0.1.0.tar.gz 9182821-Oct-2005 14:51
Coro-1.11.tar.gz 5406203-Mar-2005 17:52
Coro-1.7.tar.gz 5579427-Dec-2005 00:44
Coro-1.9.tar.gz 5588202-Feb-2006 00:01
Coro-3.41.tar.gz 6739822-Jan-2007 18:46
Coro-3.51.tar.gz 6825004-Mar-2007 13:19
Coro-3.61.tar.gz 7085219-Apr-2007 10:37
Coro-3.62.tar.gz 7115727-Apr-2007 19:37
Coro-3.63.tar.gz 7197016-May-2007 12:11
Coro-4.743.tar.gz 10058015-Jun-2008 22:31
Coro-4.748.tar.gz 10219927-Sep-2008 12:03
Coro-5.13.tar.gz 13598915-Dec-2008 20:53
Coro-5.131.tar.gz 13716816-Mar-2009 22:23
Coro-5.132.tar.gz 13256629-May-2009 07:01
Coro-5.15.tar.gz 14014530-Jun-2009 08:29
Coro-5.151.tar.gz 14049006-Jul-2009 03:43
Coro-5.162.tar.gz 14250928-Jul-2009 02:04
Coro-5.17.tar.gz 14273522-Aug-2009 22:37
Coro-5.2.tar.gz 15207404-Oct-2009 12:56
Coro-5.21.tar.gz 15381516-Dec-2009 06:21
Coro-5.22.tar.gz 15451014-Apr-2010 01:56
Coro-5.23.tar.gz 15447517-May-2010 16:52
Coro-5.24.tar.gz 14790723-Oct-2010 16:28
Corona-0.1004.tar.gz 2111428-Mar-2010 21:52
Countdown-0.8.tar.bz2 3124615-Dec-2003 00:26
Covenant.zip 8052011-Nov-1999 12:13
CriticalMass-0.9.10.tar.bz2 239491114-Mar-2005 18:45
CriticalMass-0.9.11.tar.bz2 239971624-Apr-2005 23:48
CriticalMass-0.9.12.tar.bz2 508383412-Sep-2005 04:49
CriticalMass-1.0.0.tar.bz2 509254931-Dec-2005 22:30
Crypt-Anubis-1.0.4.tar.gz 6838819-Jun-2003 11:27
Crypt-AppleTwoFish-0.02.tar.gz 2368908-May-2005 23:11
Crypt-AppleTwoFish-0.03.tar.gz 2394721-Apr-2008 07:53
Crypt-AppleTwoFish-0.051.tar.gz 3885607-Jul-2008 05:31
Crypt-Blowfish-2.09.tar.gz 1749713-Nov-2001 06:34
Crypt-Blowfish-2.10.tar.gz 1762302-Dec-2005 13:19
Crypt-Blowfish-2.11a.tar.gz 1783615-Feb-2010 18:25
Crypt-Blowfish-2.12.tar.gz 1789504-Mar-2010 20:19
Crypt-Blowfish_PP-1.12.tar.gz 1048202-Jan-2001 11:28
Crypt-CAST5-0.05.tar.gz 2602101-Jul-2006 17:47
Crypt-CAST5_PP-1.02.tar.gz 1951515-Aug-2004 02:09
Crypt-CAST5_PP-1.03.tar.gz 2000323-May-2005 00:02
Crypt-CAST5_PP-1.04.tar.gz 2023201-Jul-2006 17:47
Crypt-CBC-2.12.tar.gz 1103615-Aug-2004 02:09
Crypt-CBC-2.15.tar.gz 1434401-Aug-2005 14:02
Crypt-CBC-2.17.tar.gz 1854316-Feb-2006 14:08
Crypt-CBC-2.18.tar.gz 2087921-Jul-2006 18:15
Crypt-CBC-2.19.tar.gz 2042712-Aug-2006 19:52
Crypt-CBC-2.22.tar.gz 2134929-Oct-2006 21:55
Crypt-CBC-2.24.tar.gz 2224926-Oct-2007 13:50
Crypt-CBC-2.29.tar.gz 2261322-Apr-2008 14:27
Crypt-CBC-2.30.tar.gz 2263930-Sep-2008 15:17
Crypt-CBCeasy-0.24.tar.gz 1102207-Apr-2001 22:44
Crypt-CFB-0.01.tar.gz 857204-Jul-2002 21:59
Crypt-Caesar-0.01.tar.gz 197419-May-2002 15:00
Crypt-Camellia_PP-0.02.tar.gz 11247706-Jan-2007 15:07
Crypt-Chimera-1.01.tar.gz 398412-Dec-2005 15:33
Crypt-CipherSaber-0.61.tar.gz 891525-May-2002 18:53
Crypt-CipherSaber-1.00.tar.gz 1131513-Jul-2005 01:44
Crypt-Cracklib-0.01.tar.gz 302228-Nov-1998 01:07
Crypt-Cracklib-1.1.tar.gz 1866605-Jan-2007 23:25
Crypt-Cracklib-1.4.tar.gz 1963918-May-2008 15:24
Crypt-Cracklib-1.5.tar.gz 1969020-Jul-2010 21:00
Crypt-Ctr-0.01.tar.gz 725304-Jul-2002 21:59
Crypt-DES-2.03.tar.gz 1527405-Dec-2000 05:18
Crypt-DES-2.05.tar.gz 1536908-Dec-2005 16:27
Crypt-DES_EDE3-0.01.tar.gz 232815-Sep-2001 03:42
Crypt-DES_PP-1.00.tar.gz 3479627-Oct-2000 23:36
Crypt-DH-0.03.tar.gz 347916-Aug-2004 22:39
Crypt-DH-0.06.tar.gz 1808811-Jun-2005 06:19
Crypt-DH-GMP-0.00006.tar.gz 1498704-Feb-2010 01:13
Crypt-DH-GMP-0.00009.tar.gz 7373702-Jul-2010 03:12
Crypt-DSA-0.12.tar.gz 1133616-Aug-2004 22:39
Crypt-DSA-0.13.tar.gz 2817826-May-2005 16:19
Crypt-DSA-0.14.tar.gz 3159508-May-2006 18:43
Crypt-DSA-1.16.tar.gz 3953411-Sep-2009 12:47
Crypt-Dining-1.01.tar.gz 483310-Jul-2005 21:33
Crypt-ECB-1.40.tar.gz 1425212-Jan-2005 10:18
Crypt-ECB-1.45.tar.gz 1457016-Jul-2008 12:17
Crypt-Eksblowfish-0.005.tar.gz 2830306-Apr-2008 00:25
Crypt-Eksblowfish-0.007.tar.gz 2985022-Apr-2009 21:06
Crypt-Eksblowfish-0.008.tar.gz 3527711-Mar-2010 19:40
Crypt-Enigma-1.3.tar.gz 660124-Apr-2002 22:14
Crypt-Enigma-1.4.tar.gz 680412-Nov-2009 17:25
Crypt-GCrypt-1.15.tar.gz 1566706-Jan-2006 17:03
Crypt-GCrypt-1.16.tar.gz 1637020-Dec-2006 17:36
Crypt-GCrypt-1.17.tar.gz 1636607-Dec-2007 20:58
Crypt-GCrypt-1.20.tar.gz 1766501-Mar-2008 18:43
Crypt-GCrypt-1.21.tar.gz 2129604-Feb-2009 08:38
Crypt-GCrypt-1.22.tar.gz 2167401-Nov-2009 20:07
Crypt-GCrypt-1.23.tar.gz 3388921-Dec-2009 18:02
Crypt-GCrypt-1.24.tar.gz 3869502-Feb-2010 15:00
Crypt-GOST-1.00.tar.gz 893513-May-2001 14:23
Crypt-GOST_PP-1.10.tar.gz 306826-Feb-2002 17:03
Crypt-GPG-1.52.tar.gz 1846723-Feb-2005 10:39
Crypt-GPG-1.61.tar.gz 1894221-Dec-2006 12:42
Crypt-GPG-1.63.tar.gz 1898302-Apr-2007 13:45
Crypt-GeneratePassword-0.02.tar.gz 19293115-Aug-2004 02:09
Crypt-GeneratePassword-0.03.tar.gz 19310509-Sep-2003 15:18
Crypt-HCE_MD5-0.70.tar.gz 587426-Mar-2004 15:27
Crypt-HCE_SHA-0.70.tar.gz 554526-Mar-2004 15:29
Crypt-IDEA-1.02.tar.gz 536619-Jan-2003 03:03
Crypt-IDEA-1.06.tar.gz 671908-Dec-2005 19:21
Crypt-IDEA-1.08.tar.gz 704521-Apr-2006 10:32
Crypt-Imail-0.01.tar.gz 282118-Oct-2003 03:11
Crypt-Juniper-0.02.tar.gz 3230431-Jul-2008 03:03
Crypt-Khazad-1.0.3.tar.gz 4210619-Jun-2003 11:23
Crypt-License-2.03.tar.gz 3858802-Sep-2004 00:17
Crypt-License-2.04.tar.gz 3889912-Sep-2006 02:09
Crypt-Lite-0.82.06.tar.gz 1318129-Sep-2005 14:44
Crypt-Lite-0.82.11.tar.gz 561718-Sep-2006 20:17
Crypt-Loki97-1.0.1.tar.gz 4075628-Jun-2003 19:21
Crypt-MySQL-0.02.tar.gz 237124-Feb-2004 06:07
Crypt-MySQL-0.04.tar.gz 345314-Aug-2006 10:32
Crypt-NULL-1.02.tar.gz 204304-May-2001 08:19
Crypt-OFB-0.01.tar.gz 880801-Nov-2003 21:23
Crypt-OICQ-1.1.tgz 564926-Jan-2006 20:18
Crypt-OTP-2.00.tar.gz 324204-Sep-2002 18:53
Crypt-OpenPGP-1.03.tar.gz 9687210-Dec-2002 04:13
Crypt-OpenPGP-1.04.tar.gz 10847711-Dec-2009 05:52
Crypt-OpenSSL-AES-0.02.tar.gz 1248716-Nov-2007 23:15
Crypt-OpenSSL-Bignum-0.03.tar.gz 589827-Apr-2003 22:50
Crypt-OpenSSL-Bignum-0.04.tar.gz 1352020-May-2007 19:13
Crypt-OpenSSL-DSA-0.11.tar.gz 541515-Aug-2004 02:09
Crypt-OpenSSL-DSA-0.12.tar.gz 669623-May-2005 01:44
Crypt-OpenSSL-DSA-0.13.tar.gz 679615-Oct-2005 21:37
Crypt-OpenSSL-RSA-0.21.tar.gz 1194715-Aug-2004 02:09
Crypt-OpenSSL-RSA-0.22.tar.gz 1227306-Jun-2005 10:51
Crypt-OpenSSL-RSA-0.23.tar.gz 1124713-Apr-2006 04:38
Crypt-OpenSSL-RSA-0.24.tar.gz 1184713-Nov-2006 15:34
Crypt-OpenSSL-RSA-0.25.tar.gz 1913320-May-2007 19:06
Crypt-OpenSSL-RSA-0.26.tar.gz 1936422-Nov-2009 20:40
Crypt-OpenSSL-Random-0.03.tar.gz 324507-Sep-2001 03:14
Crypt-OpenSSL-Random-0.04.tar.gz 1067920-May-2007 20:38
Crypt-OpenSSL-X509-0.5.tar.gz 690402-Jun-2007 18:21
Crypt-OpenSSL-X509-0.7.tar.gz 2447417-May-2008 07:51
Crypt-OpenSSL-X509-1.0.tar.gz 3771118-Jan-2010 20:51
Crypt-OpenSSL-X509-1.3.tar.gz 3829606-Aug-2010 16:19
Crypt-OpenSSL-X509-1.4.tar.gz 3838331-Aug-2010 14:16
Crypt-PBKDF2-0.101170.tar.gz 1367927-Apr-2010 01:59
Crypt-PGPSimple-0.13.tar.gz 442705-Nov-2001 05:57
Crypt-PassGen-0.04.tar.gz 726628-Nov-2003 19:38
Crypt-PassGen-0.05.tar.gz 765626-Mar-2008 01:40
Crypt-PasswdMD5-1.3.tar.gz 482017-Feb-2004 11:52
Crypt-Primes-0.50.tar.gz 13629916-Jan-2003 20:11
Crypt-RC4-2.02.tar.gz 417313-Dec-2001 21:45
Crypt-RC5-2.00.tar.gz 296605-Nov-2002 16:01
Crypt-RC6-1.0.tar.gz 1141117-Mar-2002 21:34
Crypt-RIPEMD160-0.04.tar.gz 5754809-May-2001 13:53
Crypt-RSA-1.50.tar.gz 3276308-Jan-2003 13:36
Crypt-RSA-1.57.tar.gz 3457920-Oct-2005 08:48
Crypt-RSA-1.58.tar.gz 4089822-Dec-2006 06:27
Crypt-RSA-1.98.tar.gz 5233008-Jul-2008 10:21
Crypt-RSA-1.99.tar.gz 5239307-Jun-2009 01:41
Crypt-Rabbit-1.0.0.tar.gz 2975407-Jan-2004 16:21
Crypt-RandPasswd-0.02.tar.gz 1704421-Jul-2000 18:27
Crypt-Random-1.23.tar.gz 855216-Aug-2004 22:39
Crypt-Random-1.25.tar.gz 877007-Mar-2005 23:18
Crypt-Rijndael-0.05.tar.gz 2367617-Sep-2001 09:43
Crypt-Rijndael-1.02.tar.gz 2599925-Jan-2007 19:50
Crypt-Rijndael-1.04.tar.gz 2641323-Feb-2007 17:24
Crypt-Rijndael-1.05.tar.gz 2810009-Nov-2007 11:41
Crypt-Rijndael-1.06.tar.gz 2845823-Apr-2008 18:19
Crypt-Rijndael-1.07.tar.gz 2867015-Aug-2008 14:55
Crypt-Rijndael-1.08.tar.gz 2896510-Dec-2009 00:41
Crypt-Rijndael-1.09.tar.gz 2899417-Jan-2010 18:01
Crypt-Rijndael_PP-0.04.tar.gz 3100016-Aug-2001 12:11
Crypt-Rijndael_PP-0.05.tar.gz 3129922-Sep-2010 13:33
Crypt-SKey-0.07.tar.gz 1253603-Dec-2005 21:59
Crypt-SKey-0.09.tar.gz 1261220-Nov-2008 01:47
Crypt-SKey-0.10.tar.gz 1399808-Jan-2009 04:56
Crypt-SSLeay-0.51.tar.gz 11755511-Jun-2003 02:48
Crypt-SSLeay-0.53.tar.gz 11785826-Dec-2006 17:06
Crypt-SSLeay-0.54.tar.gz 12078712-Apr-2007 22:12
Crypt-SSLeay-0.56.tar.gz 12161410-Jul-2007 19:13
Crypt-SSLeay-0.57.tar.gz 12298026-Oct-2007 13:50
Crypt-SSLeay-0.58.tar.gz 12384525-Aug-2010 14:11
Crypt-Salt-0.01.tar.gz 978412-Nov-2003 06:13
Crypt-SaltedHash-0.03.tar.gz 680014-Nov-2005 22:54
Crypt-SaltedHash-0.04.tar.gz 694626-Jan-2006 04:15
Crypt-SaltedHash-0.05.tar.gz 923309-Aug-2006 23:26
Crypt-SaltedHash-0.06.tar.gz 942328-Feb-2010 05:58
Crypt-Serpent-1.01.tar.gz 1901030-Mar-2002 17:17
Crypt-Shark-1.0.1.tar.gz 8240330-Jun-2003 17:43
Crypt-Simple-0.06.tar.gz 433624-Sep-2002 10:17
Crypt-SmbHash-0.12.tar.gz 884017-Oct-2004 07:20
Crypt-Solitaire-2.0.tar.gz 314329-Nov-2001 18:08
Crypt-TEA-1.25.tar.gz 778621-May-2001 17:43
Crypt-Tea-2.12.tar.gz 2810928-Aug-2006 06:30
Crypt-TripleDES-0.24.tar.gz 617913-Oct-1999 23:35
Crypt-Twofish-2.12.tar.gz 1319421-May-2001 17:43
Crypt-Twofish-2.13.tar.gz 1345511-May-2009 04:45
Crypt-Twofish-2.14.tar.gz 1350508-May-2010 13:10
Crypt-Twofish2-1.01.tar.gz 3153703-Mar-2005 17:52
Crypt-UnixCrypt-1.0.tar.gz 797231-Oct-1999 07:11
Crypt-UnixCrypt_XS-0.09.tar.gz 2917307-Apr-2008 19:13
Crypt-X509-0.21.tar.gz 1370330-Nov-2005 14:03
Crypt-X509-0.32.tar.gz 2104109-Jan-2007 19:18
Crypt-X509-0.40.tar.gz 1935223-Apr-2009 12:06
Crypt-xDBM_File-1.01.tar.gz 329029-Dec-2003 15:08
Crypt-xDBM_File-1.02.tar.gz 340201-Mar-2008 18:43
Cryptix-1.16.tar.gz 8586031-Mar-2003 00:08
Crystalcursors.tar.bz2 74786401-Nov-2007 09:27
Cstools-3.42.tar.gz 3065018-Oct-2002 09:30
Cultivation_7_UnixSource.tar.gz 111785227-Dec-2006 09:02
Cultivation_8_UnixSource.tar.gz 112588609-Aug-2007 17:15
Curses-1.08b.tgz 7771924-Jan-2005 09:15
Curses-1.13.tgz 8059710-Oct-2005 21:06
Curses-1.14.tgz 8103521-Jul-2006 18:15
Curses-1.15.tgz 8218707-Oct-2006 20:57
Curses-1.16.tgz 8562607-Aug-2007 03:05
Curses-1.17.tgz 8650326-Oct-2007 13:50
Curses-1.21.tgz 13376901-Mar-2008 18:43
Curses-1.23.tgz 12645309-Mar-2008 18:08
Curses-1.24.tgz 12672510-Sep-2008 02:07
Curses-1.26.tgz 31218803-Jan-2009 00:27
Curses-1.27.tgz 12703620-Jan-2009 15:27
Curses-1.28.tgz 12741227-Jan-2010 07:09
Curses-UI-0.95.tar.gz 14229811-Dec-2004 04:59
Curses-UI-0.9601.tar.gz 13727501-Mar-2008 18:43
Curses-UI-0.9603.tar.gz 15038211-Mar-2008 17:32
Curses-UI-0.9604.tar.gz 15106703-Jul-2008 02:32
Curses-UI-0.9605.tar.gz 15186704-Jul-2008 15:04
Curses-UI-0.9607.tar.gz 15331721-Dec-2008 21:48
CursesApplication-0.2.tar.gz 1783314-Nov-2002 20:49
CursesForms-1.997.tar.gz 1939014-Nov-2002 20:51
CursesWidgets-1.997.tar.gz 4052614-Nov-2002 20:51
Cvs-0.07.tar.gz 2460908-Dec-2004 15:17
Cwd-2.21.tar.gz 1622301-Sep-2004 03:58
Cygne-SDL-0.1-src.tar.gz 10644822-Dec-2005 08:45
Cyrus-XMMS.zip 12012502-Nov-1999 12:34
Cython-0.10.2.tar.gz 255409126-Nov-2008 00:41
Cython-0.10.3.tar.gz 256040917-Dec-2008 09:53
Cython-0.10.tar.gz 253819609-Nov-2008 02:03
Cython-0.11.1.tar.gz 310872316-Apr-2009 07:58
Cython-0.11.2.tar.gz 326620420-May-2009 17:52
Cython-0.11.3.tar.gz 330419127-Sep-2009 05:52
Cython-0.11.tar.gz 300095314-Mar-2009 07:01
Cython-0.12.1.tar.gz 53523902-Feb-2010 10:23
Cython-0.12.tar.gz 399688524-Nov-2009 06:02
Cython-0.13.tar.gz 64479725-Aug-2010 06:41
Czech.zip 2258424-Jul-2008 09:05
Czech_UTF8.zip 2351824-Jul-2008 09:05
DBD-AnyData-0.09.tar.gz 2112419-Jun-2007 15:51
DBD-AnyData-0.110.tar.gz 2644517-Jul-2010 08:36
DBD-CSV-0.21.tar.gz 3762601-Dec-2004 04:40
DBD-CSV-0.22.tar.gz 3717431-Mar-2005 23:06
DBD-CSV-0.25.tgz 2555715-Oct-2009 07:20
DBD-CSV-0.26.tgz 2581824-Nov-2009 08:31
DBD-CSV-0.27.tgz 2587117-Feb-2010 13:29
DBD-CSV-0.28.tgz 2594316-Mar-2010 08:42
DBD-CSV-0.29.tgz 2726604-May-2010 11:41
DBD-CSV-0.30.tgz 2970509-Jul-2010 12:24
DBD-CSV-0.31.tgz 3027818-Sep-2010 16:18
DBD-Excel-0.06.tar.gz 1902212-Nov-2002 21:22
DBD-File-0.22.tar.gz 682815-Aug-2004 02:09
DBD-Google-0.11.tar.gz 2084004-Mar-2004 23:51
DBD-Google-0.50.tar.gz 2046414-Mar-2009 22:53
DBD-Google-0.51.tar.gz 1903215-Mar-2009 21:54
DBD-InterBase-0.43.tar.gz 7958915-Aug-2004 02:09
DBD-InterBase-0.44.tar.gz 8383512-Sep-2005 05:41
DBD-InterBase-0.46.tar.gz 8644027-Oct-2006 02:57
DBD-InterBase-0.48.tar.gz 8865808-Jan-2008 09:42
DBD-LDAP-0.06.tar.gz 2568315-Aug-2004 02:09
DBD-LDAP-0.07.tar.gz 2900315-Jul-2005 17:03
DBD-LDAP-0.08.tar.gz 2979227-Jul-2006 20:13
DBD-LDAP-0.09.tar.gz 2990325-Oct-2006 02:30
DBD-LDAP-0.10.tar.gz 3009214-Sep-2009 16:11
DBD-LDAP-0.20.tar.gz 3204210-Nov-2009 05:29
DBD-Mock-0.28.tar.gz 3494413-Jul-2005 16:39
DBD-Mock-1.32.tar.gz 3737721-Jul-2006 18:15
DBD-Mock-1.34.tar.gz 3760929-Jul-2006 18:10
DBD-Mock-1.36.tar.gz 3783520-Oct-2007 02:48
DBD-Mock-1.39.tar.gz 3978509-Nov-2008 22:07
DBD-Multi-0.10.tar.gz 1563605-Jul-2007 22:58
DBD-Multi-0.14.tar.gz 1965603-Mar-2008 21:31
DBD-ODBC-1.13.tar.gz 9699008-Nov-2004 15:15
DBD-ODBC-1.14.tar.gz 12808417-Jul-2007 10:53
DBD-ODBC-1.16.tar.gz 14225814-May-2008 16:22
DBD-ODBC-1.18.tar.gz 16639516-Jan-2009 19:05
DBD-ODBC-1.19.tar.gz 17164002-Apr-2009 12:46
DBD-ODBC-1.23.tar.gz 18492511-Sep-2009 08:03
DBD-ODBC-1.24.tar.gz 19287414-May-2010 15:58
DBD-ODBC-1.25.tar.gz 20045922-Sep-2010 07:46
DBD-Oracle-1.14.tar.gz 19966727-Mar-2003 16:47
DBD-Pg-1.32.tar.gz 9623325-Feb-2004 19:23
DBD-Pg-1.40.tar.gz 11298409-Apr-2005 05:53
DBD-Pg-1.42.tar.gz 12002121-May-2005 14:56
DBD-Pg-1.43.tar.gz 13126723-Jun-2005 12:09
DBD-Pg-1.49.tar.gz 14731005-May-2006 16:40
DBD-Pg-2.10.7.tar.gz 21556923-Sep-2008 03:13
DBD-Pg-2.11.8.tar.gz 21812528-Dec-2008 19:24
DBD-Pg-2.12.0.tar.gz 22072528-Mar-2009 14:56
DBD-Pg-2.13.1.tar.gz 22113123-Apr-2009 16:30
DBD-Pg-2.14.1.tar.gz 22045328-Jul-2009 17:05
DBD-Pg-2.15.0.tar.gz 22070504-Aug-2009 18:18
DBD-Pg-2.15.1.tar.gz 22080207-Aug-2009 15:05
DBD-Pg-2.16.0.tar.gz 23029417-Dec-2009 17:14
DBD-Pg-2.16.1.tar.gz 23037520-Jan-2010 21:13
DBD-Pg-2.17.0.tar.gz 23148806-Apr-2010 18:56
DBD-Pg-2.17.1.tar.gz 23152308-Apr-2010 15:32
DBD-Pg-2.8.0.tar.gz 20183002-Jun-2008 01:33
DBD-Pg-2.8.1.tar.gz 20229712-Jun-2008 04:06
DBD-Pg-2.9.0.tar.gz 21364303-Aug-2008 19:48
DBD-PgLite-0.09.tar.gz 4050216-Feb-2006 16:01
DBD-PgLite-0.11.tar.gz 4521721-Nov-2008 14:39
DBD-PgPP-0.05.tar.gz 1680713-May-2004 16:56
DBD-PgPP-0.06.tar.gz 2536924-Feb-2009 12:31
DBD-PgPP-0.07.tar.gz 2512129-Aug-2009 13:34
DBD-PgPP-0.08.tar.gz 2492409-Jan-2010 19:11
DBD-PgSPI-0.02.tar.gz 2190606-Dec-2004 05:30
DBD-RAM-0.072.tar.gz 2986427-Nov-2003 09:01
DBD-SQLite-1.08.tar.gz 46644914-Mar-2005 18:45
DBD-SQLite-1.09.tar.gz 47479720-Jun-2005 15:42
DBD-SQLite-1.11.tar.gz 49382102-Dec-2005 19:13
DBD-SQLite-1.12.tar.gz 54715121-Jul-2006 18:15
DBD-SQLite-1.13.tar.gz 58246508-Sep-2006 05:02
DBD-SQLite-1.14.tar.gz 70338026-Oct-2007 13:50
DBD-SQLite-1.23.tar.gz 104232819-Apr-2009 09:53
DBD-SQLite-1.25.tar.gz 110268823-Apr-2009 10:20
DBD-SQLite-1.27.tar.gz 120781823-Nov-2009 11:15
DBD-SQLite-1.29.tar.gz 121346008-Jan-2010 09:14
DBD-SQLite-1.31.tar.gz 132522515-Sep-2010 07:30
DBD-SQLite2-0.33.tar.gz 36327710-Sep-2004 15:50
DBD-Sybase-1.02.tar.gz 16619124-Dec-2003 19:21
DBD-Sybase-1.07.tar.gz 18955304-Oct-2005 06:11
DBD-Sybase-1.08.tar.gz 19488521-Apr-2007 15:49
DBD-Sybase-1.09.tar.gz 19441431-Aug-2008 12:17
DBD-Sybase-1.10.tar.gz 19570212-Apr-2010 17:36
DBD-XBase-0.234.tar.gz 11058107-Jul-2003 18:48
DBD-XBase-0.241.tar.gz 11182421-Nov-2003 14:25
DBD-cego-1.1.13.tar.gz 2324117-Sep-2010 20:13
DBD-cego-1.1.9.tar.gz 2357724-Jun-2010 18:44
DBD-mysql-2.9004.tar.gz 11404315-Aug-2004 02:09
DBD-mysql-2.9007.tar.gz 11678927-Apr-2005 00:14
DBD-mysql-2.9008.tar.gz 11422906-Jun-2005 01:39
DBD-mysql-3.0002.tar.gz 13007711-Jul-2005 16:49
DBD-mysql-3.0006.tar.gz 11465821-Jul-2006 18:15
DBD-mysql-3.0007.tar.gz 11580408-Sep-2006 23:12
DBD-mysql-4.001.tar.gz 11696508-Jan-2007 01:11
DBD-mysql-4.003.tar.gz 12158202-Mar-2007 14:13
DBD-mysql-4.005.tar.gz 12252408-Jun-2007 15:33
DBD-mysql-4.006.tar.gz 12951001-Mar-2008 18:43
DBD-mysql-4.010.tar.gz 12521124-Oct-2008 14:00
DBD-mysql-4.012.tar.gz 12916019-Jun-2009 02:08
DBD-mysql-4.013.tar.gz 12906516-Sep-2009 18:37
DBD-mysql-4.014.tar.gz 13127015-Apr-2010 03:17
DBD-mysql-4.016.tar.gz 13239610-Jul-2010 16:50
DBD-mysql-4.017.tar.gz 13287812-Aug-2010 05:50
DBI-1.37.tar.gz 29449515-May-2003 18:02
DBI-1.48.tar.gz 37869814-Mar-2005 17:03
DBI-1.50.tar.gz 38651314-Dec-2005 16:55
DBI-1.51.tar.gz 41520521-Jul-2006 18:15
DBI-1.52.tar.gz 41967408-Aug-2006 21:13
DBI-1.53.tar.gz 42312402-Nov-2006 00:38
DBI-1.54.tar.gz 45981523-Feb-2007 17:15
DBI-1.58.tar.gz 49031925-Jun-2007 22:11
DBI-1.59.tar.gz 48990324-Aug-2007 09:19
DBI-1.601.tar.gz 49512401-Nov-2007 09:27
DBI-1.604.tar.gz 49831524-Mar-2008 14:11
DBI-1.607.tar.gz 50438522-Jul-2008 21:50
DBI-1.609.tar.gz 51030908-Jun-2009 10:29
DBI-1.611.tar.gz 53420029-Apr-2010 19:54
DBI-1.613.tar.gz 56654225-Jul-2010 15:50
DBI-1.614.tar.gz 57076617-Sep-2010 09:48
DBI-1.615.tar.gz 57137922-Sep-2010 19:28
DBI-Shell-11.93.tar.gz 4889303-Oct-2003 02:38
DBI-Shell-11.94.tar.gz 4929517-Apr-2007 22:35
DBI-Shell-11.95.tar.gz 5114701-Mar-2008 18:43
DBICx-Deploy-0.02.tar.gz 1417209-Oct-2007 18:14
DBICx-MapMaker-0.01.tar.gz 1371417-May-2008 09:17
DBICx-MapMaker-0.02.tar.gz 1410411-Nov-2008 03:06
DBICx-TestDatabase-0.02.tar.gz 1356107-Jul-2008 05:46
DBICx-TxnInsert-0.01.tar.gz 1520416-Feb-2009 02:15
DBICx-TxnInsert-0.02.tar.gz 1682228-Aug-2009 15:40
DBIx-Abstract-1.006.tar.gz 2035123-Apr-2005 12:41
DBIx-AnyDBD-2.01.tar.gz 1101904-Sep-2002 12:04
DBIx-Browse-2.09.tar.gz 2511610-Dec-2002 09:26
DBIx-Class-0.02.tar.gz 4941712-Aug-2005 22:09
DBIx-Class-0.04001.tar.gz 6974613-Dec-2005 21:18
DBIx-Class-0.05006.tar.gz 10282117-Feb-2006 14:50
DBIx-Class-0.06003.tar.gz 13654021-Jul-2006 18:15
DBIx-Class-0.07000.tar.gz 17061223-Jul-2006 01:23
DBIx-Class-0.07002.tar.gz 18147414-Sep-2006 21:39
DBIx-Class-0.07005.tar.gz 18361211-Jan-2007 22:21
DBIx-Class-0.07006.tar.gz 19030717-Apr-2007 23:32
DBIx-Class-0.08003.tar.gz 29793614-Jul-2007 17:36
DBIx-Class-0.08006.tar.gz 29846312-Aug-2007 14:58
DBIx-Class-0.08007.tar.gz 29937004-Sep-2007 18:42
DBIx-Class-0.08009.tar.gz 31443401-Mar-2008 18:43
DBIx-Class-0.08010.tar.gz 31473101-Mar-2008 12:19
DBIx-Class-0.08012.tar.gz 32877113-Feb-2009 14:36
DBIx-Class-0.08013.tar.gz 32299206-Apr-2009 21:36
DBIx-Class-0.08101.tar.gz 42986527-Apr-2009 09:11
DBIx-Class-0.08102.tar.gz 43061830-Apr-2009 08:36
DBIx-Class-0.08103.tar.gz 45030026-May-2009 19:51
DBIx-Class-0.08107.tar.gz 40886514-Jun-2009 08:23
DBIx-Class-0.08108.tar.gz 42717509-Jul-2009 10:41
DBIx-Class-0.08109.tar.gz 44578418-Aug-2009 08:47
DBIx-Class-0.08111.tar.gz 45488506-Sep-2009 22:02
DBIx-Class-0.08112.tar.gz 45633621-Sep-2009 10:56
DBIx-Class-0.08114.tar.gz 47492314-Nov-2009 18:33
DBIx-Class-0.08115.tar.gz 48824210-Dec-2009 15:06
DBIx-Class-0.08117.tar.gz 49820705-Feb-2010 17:15
DBIx-Class-0.08118.tar.gz 49949108-Feb-2010 11:48
DBIx-Class-0.08119.tar.gz 51070715-Feb-2010 11:57
DBIx-Class-0.08120.tar.gz 51380624-Feb-2010 09:00
DBIx-Class-0.08121.tar.gz 53983911-Apr-2010 18:52
DBIx-Class-0.08122.tar.gz 55239803-Jun-2010 22:03
DBIx-Class-0.08123.tar.gz 55588712-Jun-2010 18:47
DBIx-Class-0.08124.tar.gz 58852828-Oct-2010 14:28
DBIx-Class-AsFdat-0.03.tar.gz 4857911-Nov-2008 16:27
DBIx-Class-DateTime-Epoch-0.03.tar.gz 293825-Apr-2007 17:06
DBIx-Class-DateTime-Epoch-0.05.tar.gz 1738101-Jun-2009 14:53
DBIx-Class-DateTime-Epoch-0.06.tar.gz 1791528-Jan-2010 12:38
DBIx-Class-DigestColumns-0.02000.tar.gz 719406-Jun-2006 21:47
DBIx-Class-DigestColumns-0.03000.tar.gz 788523-Jan-2007 17:32
DBIx-Class-DigestColumns-0.04000.tar.gz 819305-Mar-2007 20:11
DBIx-Class-DigestColumns-0.06000.tar.gz 908327-Mar-2007 17:39
DBIx-Class-DynamicDefault-0.03.tar.gz 1652211-Sep-2008 16:46
DBIx-Class-DynamicSubclass-0.03.tar.gz 2074924-Jun-2008 23:12
DBIx-Class-EncodeColumns-0.02.tar.gz 227203-Nov-2006 23:07
DBIx-Class-EncodedColumn-0.00002.tar.gz 2394228-Jul-2008 22:45
DBIx-Class-EncodedColumn-0.00004.tar.gz 2547703-Sep-2009 18:11
DBIx-Class-EncodedColumn-0.00005.tar.gz 2611511-Oct-2009 15:06
DBIx-Class-EncodedColumn-0.00006.tar.gz 2637116-Jan-2010 00:39
DBIx-Class-EncodedColumn-0.00009.tar.gz 2937718-May-2010 14:56
DBIx-Class-EncodedColumn-0.00010.tar.gz 3527927-Aug-2010 18:36
DBIx-Class-Fixtures-1.001008.tar.gz 3941111-Nov-2009 13:51
DBIx-Class-Fixtures-1.001009.tar.gz 3967105-Jan-2010 16:56
DBIx-Class-Fixtures-1.001010.tar.gz 4225711-Aug-2010 15:04
DBIx-Class-FrozenColumns-0.06.tar.gz 2373320-Jul-2008 22:21
DBIx-Class-FrozenColumns-0.07.tar.gz 2368615-Jan-2009 06:27
DBIx-Class-FrozenColumns-0.08.tar.gz 2453601-Jul-2009 07:14
DBIx-Class-FrozenColumns-0.09.tar.gz 2635312-Jan-2010 10:45
DBIx-Class-HTML-FormFu-0.01005.tar.gz 2428419-Jun-2008 13:53
DBIx-Class-HTMLWidget-0.06.tar.gz 315415-Jun-2006 15:06
DBIx-Class-HTMLWidget-0.09.tar.gz 359128-Jan-2007 22:21
DBIx-Class-HTMLWidget-0.11.tar.gz 372208-Sep-2007 23:33
DBIx-Class-HTMLWidget-0.16.tar.gz 422301-Mar-2008 18:43
DBIx-Class-InflateColumn-IP-0.02001.tar.gz 2226617-Jun-2007 19:38
DBIx-Class-IntrospectableM2M-0.001001.tar.gz 1421011-Nov-2008 17:46
DBIx-Class-Loader-0.14.tar.gz 1144821-Jan-2006 00:07
DBIx-Class-Loader-0.20.tar.gz 1281914-Feb-2006 18:24
DBIx-Class-Loader-0.21.tar.gz 1298027-Feb-2006 23:42
DBIx-Class-QueryLog-1.1.5.tar.gz 2544807-Apr-2009 13:22
DBIx-Class-QueryLog-1.2.1.tar.gz 2706529-Jul-2009 23:56
DBIx-Class-QueryLog-1.2.2.tar.gz 2709112-Sep-2009 03:28
DBIx-Class-QueryLog-1.2.3.tar.gz 2708112-Jan-2010 23:40
DBIx-Class-QueryLog-1.3.0.tar.gz 2784306-Apr-2010 12:02
DBIx-Class-QueryProfiler-0.02.tar.gz 4840706-Jan-2010 21:13
DBIx-Class-QueryProfiler-0.03.tar.gz 2550728-Jan-2010 08:53
DBIx-Class-ResultSet-HashRef-1.002.tar.gz 2367714-Jun-2009 17:10
DBIx-Class-ResultSet-RecursiveUpdate-0.010.tar.gz 1744920-Jun-2009 16:43
DBIx-Class-ResultSet-RecursiveUpdate-0.011.tar.gz 1764916-Aug-2009 11:43
DBIx-Class-ResultSet-RecursiveUpdate-0.012.tar.gz 1781710-Sep-2009 17:58
DBIx-Class-ResultSet-RecursiveUpdate-0.013.tar.gz 4212308-Apr-2010 18:03
DBIx-Class-ResultSet-RecursiveUpdate-0.21.tar.gz 2573828-Oct-2010 14:56
DBIx-Class-ResultSet-RecursiveUpdate-v0.002.tar.gz 1236717-Feb-2009 08:15
DBIx-Class-Schema-Loader-0.02003.tar.gz 1940319-Feb-2006 20:42
DBIx-Class-Schema-Loader-0.03003.tar.gz 3064521-Jul-2006 18:15
DBIx-Class-Schema-Loader-0.03007.tar.gz 3325327-Jul-2006 17:51
DBIx-Class-Schema-Loader-0.03009.tar.gz 3354715-Nov-2006 14:09
DBIx-Class-Schema-Loader-0.03011.tar.gz 3150414-Apr-2007 19:08
DBIx-Class-Schema-Loader-0.04002.tar.gz 5088124-Jul-2007 05:19
DBIx-Class-Schema-Loader-0.04003.tar.gz 5096726-Oct-2007 13:50
DBIx-Class-Schema-Loader-0.04004.tar.gz 5339701-Mar-2008 18:43
DBIx-Class-Schema-Loader-0.04005.tar.gz 5203408-Apr-2008 15:28
DBIx-Class-Schema-Loader-0.04006.tar.gz 5755201-May-2009 20:13
DBIx-Class-Schema-Loader-0.05000.tar.gz 11031901-Feb-2010 09:40
DBIx-Class-Schema-Loader-0.05001.tar.gz 9868105-Feb-2010 14:42
DBIx-Class-Schema-Loader-0.05002.tar.gz 10056215-Feb-2010 10:32
DBIx-Class-Schema-Loader-0.05003.tar.gz 10295920-Feb-2010 06:39
DBIx-Class-Schema-Loader-0.06001.tar.gz 11494310-Apr-2010 01:51
DBIx-Class-Schema-Loader-0.07000.tar.gz 12498423-May-2010 01:07
DBIx-Class-Schema-Loader-0.07001.tar.gz 13654924-Jul-2010 22:04
DBIx-Class-Schema-Loader-0.07002.tar.gz 13819211-Sep-2010 08:45
DBIx-Class-TimeStamp-0.08.tar.gz 2421423-Apr-2009 22:45
DBIx-Class-TimeStamp-0.11.tar.gz 2601423-Jun-2009 18:57
DBIx-Class-TimeStamp-0.12.tar.gz 2543030-Jun-2009 20:28
DBIx-Class-TimeStamp-0.13.tar.gz 2859122-May-2010 01:28
DBIx-Class-TimeStamp-0.14.tar.gz 2920705-Sep-2010 22:01
DBIx-Class-UUIDColumns-0.02001.tar.gz 2281602-Jul-2007 00:32
DBIx-Class-UUIDColumns-0.02002.tar.gz 2293219-Mar-2008 13:56
DBIx-Class-UUIDColumns-0.02004.tar.gz 2289423-Apr-2008 01:01
DBIx-Class-UUIDColumns-0.02005.tar.gz 2332325-Jun-2008 23:46
DBIx-Class-Validation-0.02000.tar.gz 2482925-Jun-2007 00:42
DBIx-Class-Validation-0.02003.tar.gz 2331823-Apr-2008 01:20
DBIx-Class-Validation-0.02004.tar.gz 2694722-Jun-2009 13:08
DBIx-Class-Validation-0.02005.tar.gz 2642311-Jul-2009 15:38
DBIx-Class-WebForm-0.02.tar.gz 355127-Jan-2006 21:38
DBIx-Connector-0.40.tar.gz 3249017-Sep-2010 18:43
DBIx-ContextualFetch-1.02.tar.gz 384314-Mar-2005 18:45
DBIx-ContextualFetch-1.03.tar.gz 448727-Sep-2005 09:02
DBIx-Custom-0.0801.tar.gz 2649902-Dec-2009 13:59
DBIx-Custom-0.1401.tar.gz 2271101-May-2010 23:29
DBIx-Custom-0.1402.tar.gz 2268702-May-2010 06:04
DBIx-Custom-0.1503.tar.gz 1872028-May-2010 13:28
DBIx-Custom-0.1615.tar.gz 2355715-Aug-2010 04:00
DBIx-Custom-0.1616.tar.gz 2340624-Aug-2010 17:18
DBIx-Custom-0.1617.tar.gz 2349407-Sep-2010 12:12
DBIx-Custom-0.1620.tar.gz 2969921-Oct-2010 14:38
DBIx-DBHResolver-0.13.tar.gz 5514201-Sep-2010 17:22
DBIx-DBSchema-0.23.tar.gz 1437215-Aug-2004 02:09
DBIx-DBSchema-0.24.tar.gz 1538109-Apr-2005 05:53
DBIx-DBSchema-0.26.tar.gz 1568107-Apr-2005 08:30
DBIx-DBSchema-0.27.tar.gz 1638516-Aug-2005 06:53
DBIx-DBSchema-0.28.tar.gz 1733230-Nov-2005 18:01
DBIx-DBSchema-0.31.tar.gz 2118230-Mar-2006 13:42
DBIx-DBSchema-0.32.tar.gz 2248218-Apr-2007 22:21
DBIx-DBSchema-0.33.tar.gz 2633529-Jun-2007 01:57
DBIx-DBSchema-0.34.tar.gz 2405119-Aug-2007 17:11
DBIx-DBSchema-0.36.tar.gz 2845314-Dec-2007 01:54
DBIx-DBSchema-0.38.tar.gz 2709314-Jan-2010 23:37
DBIx-DBSchema-0.39.tar.gz 2758727-Mar-2010 06:24
DBIx-DataSource-0.02.tar.gz 343225-Sep-2000 13:03
DBIx-Ease-0.07.tar.gz 185122-Jun-2006 14:30
DBIx-HA-1.00.tar.gz 1251501-May-2007 22:45
DBIx-HA-1.1.tar.gz 1333216-Jun-2008 14:28
DBIx-Log4perl-0.06.tar.gz 1389412-Jul-2006 12:23
DBIx-Log4perl-0.08.tar.gz 1626120-Nov-2006 16:18
DBIx-Log4perl-0.09.tar.gz 1771322-Mar-2007 11:42
DBIx-Log4perl-0.10.tar.gz 1815029-Jan-2008 11:01
DBIx-Log4perl-0.11.tar.gz 1932017-Apr-2008 15:44
DBIx-Log4perl-0.12.tar.gz 1989317-Jul-2008 13:56
DBIx-Log4perl-0.13.tar.gz 2141910-Nov-2008 15:37
DBIx-Log4perl-0.14.tar.gz 2197824-Mar-2009 11:34
DBIx-Log4perl-0.15.tar.gz 2245930-Jun-2009 12:12
DBIx-Log4perl-0.16.tar.gz 2252301-Oct-2009 09:45
DBIx-Log4perl-0.18.tar.gz 2322425-Jan-2010 17:25
DBIx-Log4perl-0.19.tar.gz 2326109-Feb-2010 13:12
DBIx-Log4perl-0.20.tar.gz 2413002-Mar-2010 23:42
DBIx-Log4perl-0.21.tar.gz 2428903-Mar-2010 17:02
DBIx-Log4perl-0.22.tar.gz 2442906-Aug-2010 18:36
DBIx-Log4perl-0.23.tar.gz 2452313-Oct-2010 16:35
DBIx-MySQLSequence-1.00.tar.gz 2848508-Sep-2005 09:09
DBIx-MySQLSequence-1.02.tar.gz 2846818-Mar-2007 17:05
DBIx-MySQLSequence-1.04.tar.gz 2876701-Mar-2008 18:43
DBIx-Password-1.8.tar.gz 537214-Jan-2002 06:52
DBIx-Password-1.9.tar.gz 547817-May-2008 06:28
DBIx-Perlish-0.21.tar.gz 3948808-Mar-2007 15:50
DBIx-Perlish-0.23.tar.gz 3990426-Mar-2007 21:48
DBIx-Perlish-0.26.tar.gz 4150422-Jun-2007 13:30
DBIx-Perlish-0.27.tar.gz 4246911-Jul-2007 15:05
DBIx-Perlish-0.28.tar.gz 4329626-Oct-2007 13:50
DBIx-Perlish-0.31.tar.gz 4676401-Nov-2007 09:27
DBIx-Perlish-0.37.tar.gz 4941501-Mar-2008 18:43
DBIx-Perlish-0.39.tar.gz 4987524-Apr-2008 14:11
DBIx-Perlish-0.42.tar.gz 5147426-Jun-2008 12:23
DBIx-Perlish-0.43.tar.gz 5310728-Aug-2008 11:16
DBIx-Perlish-0.44.tar.gz 5315208-Sep-2008 07:50
DBIx-Perlish-0.45.tar.gz 5378816-Oct-2008 08:21
DBIx-Perlish-0.49.tar.gz 5516721-Nov-2008 15:09
DBIx-Perlish-0.52.tar.gz 5624316-Feb-2009 12:21
DBIx-Perlish-0.54.tar.gz 5880512-Jun-2009 11:12
DBIx-Perlish-0.55.tar.gz 5924010-Sep-2009 19:54
DBIx-Recordset-0.26.tar.gz 9475804-Oct-2004 19:30
DBIx-RetryOverDisconnects-0.03.tar.gz 2289224-Jun-2008 23:28
DBIx-RetryOverDisconnects-0.04.tar.gz 2413421-Jan-2009 11:14
DBIx-RetryOverDisconnects-0.05.tar.gz 2458531-Jul-2009 09:12
DBIx-SQLEngine-0.028.tar.gz 10965419-Apr-2004 14:38
DBIx-SQLEngine-0.93.tar.gz 11981929-Nov-2004 22:40
DBIx-SQLite-Simple-0.33.tar.gz 793011-Jun-2006 09:37
DBIx-SQLite-Simple-0.34.tar.gz 842027-Jan-2007 13:37
DBIx-SearchBuilder-1.27.tar.gz 4676209-May-2005 02:53
DBIx-SearchBuilder-1.33.tar.gz 6315022-Sep-2005 18:32
DBIx-SearchBuilder-1.38.tar.gz 7113229-Dec-2005 13:39
DBIx-SearchBuilder-1.43.tar.gz 7357012-Apr-2006 18:02
DBIx-SearchBuilder-1.45.tar.gz 7667026-Sep-2006 15:11
DBIx-SearchBuilder-1.48.tar.gz 8098811-Mar-2007 05:29
DBIx-SearchBuilder-1.51.tar.gz 8178001-Mar-2008 18:43
DBIx-SearchBuilder-1.54.tar.gz 8385909-Jul-2008 13:43
DBIx-SearchBuilder-1.55.tar.gz 8736607-May-2009 22:11
DBIx-SearchBuilder-1.56.tar.gz 8798016-Jul-2009 22:24
DBIx-Sequence-1.5.tar.gz 1242324-Sep-2003 17:19
DBIx-Simple-1.26.tar.gz 1586930-Nov-2004 13:30
DBIx-Simple-1.32.tar.gz 1647501-Mar-2008 18:43
DBIx-Table-0.04.tar.gz 1627527-Dec-2001 21:37
DBIx-TableHash-1.05.tar.gz 1725705-Feb-2004 20:41
DBIx-Tree-1.9.tar.gz 1181614-Feb-2003 22:02
DBIx-VersionedDDL-0.05.tar.gz 790823-Oct-2009 01:15
DBIx-VersionedDDL-0.06.tar.gz 824617-Mar-2010 08:25
DBIx-VersionedDDL-0.10.tar.gz 920213-May-2010 02:44
DBIx-XHTML_Table-1.32.tar.gz 1829315-Aug-2004 02:09
DBIx-XHTML_Table-1.36.tar.gz 1840702-Jan-2004 19:21
DBIx-XML_RDB-0.05.tar.gz 651213-Dec-2000 09:49
DBM-Deep-0.94.tar.gz 4190313-Dec-2004 07:48
DBM-Deep-0.96.tar.gz 4265314-Oct-2005 18:12
DBM-Deep-0.983.tar.gz 5407611-Apr-2006 03:00
DBM-Deep-1.0004.tar.gz 10865726-Oct-2007 13:50
DBM-Deep-1.0014.tar.gz 11552804-Nov-2008 14:40
DBM-Deep-1.0020.tar.gz 16487910-Apr-2010 14:50
DBM-Deep-1.0024.tar.gz 16841530-May-2010 21:25
DBM-Deep-2.0002.tar.gz 17727905-Sep-2010 19:35
DBUtils-0.8.1.tar.gz 2510412-Sep-2005 22:05
DBUtils-0.9.2.tar.gz 6463622-Sep-2006 19:14
DBUtils-0.9.3.tar.gz 7627521-May-2007 23:25
DBUtils-0.9.4.tar.gz 8665601-Mar-2008 18:43
DBUtils-1.0.tar.gz 9440929-Nov-2008 21:20
DBZ_File_1.1.tar.gz 336530-Nov-1997 21:18
DB_File-Lock-0.05.tar.gz 764606-Aug-2002 18:34
DFileServer-1.1.2.tar.gz 2044811-Sep-2005 17:32
DFileServer-1.1.3.tar.gz 2290930-Oct-2005 12:11
DJabberd-0.81.tar.gz 8181101-Oct-2006 22:55
DJabberd-0.83.tar.gz 8831408-May-2007 21:56
DLZ-0.7.0.tar.gz 24976815-Aug-2004 02:09
DMOZ-ParseRDF-0.14.tar.gz 471512-Jan-2004 19:15
DMitry-1.2a.tar.gz 19715617-Jan-2005 18:32
DMitry-1.3.tar.gz 13070911-Dec-2005 00:05
DMitry-1.3a.tar.gz 13069125-Mar-2006 17:54
DNS-Balance-1.1.tar.gz 1649606-Feb-2003 08:40
DNS-Balance-2.0.tar.gz 1725610-Jun-2005 23:01
DNS-Config-0.66.tar.gz 1496116-Feb-2003 10:22
DNS-EasyDNS-0.04.tar.gz 585005-Feb-2006 03:34
DNS-Zone-0.85.tar.gz 856004-Feb-2003 17:15
DNS-ZoneParse-0.95.tar.gz 916224-Oct-2004 17:00
DNS-ZoneParse-0.96.tar.gz 1014114-Nov-2008 21:44
DNS-ZoneParse-0.99.tar.gz 1685505-Nov-2009 16:36
DNS-ZoneParse-1.00.tar.gz 2157810-Jul-2010 03:50
DNS-ZoneParse-1.10.tar.gz 2274229-Sep-2010 21:28
DNSCheck-1.1.tar.gz 42759929-Jun-2010 09:56
DProf-19990108.tar.gz 2071015-Aug-2004 02:09
DSV-1.3.7.tar.gz 1453115-Aug-2004 02:09
DSV-1.4.0.tar.gz 1492622-Jan-2003 22:58
DSV-1.4.1.tar.gz 1468221-Jan-2010 17:02
DTD2RELAX_1_1_1-bin-XML4J.jar 25195124-Sep-2000 05:49
DTD2RELAX_1_1_1-src.zip 4418224-Sep-2000 05:48
DTraceToolkit-0.99.tar.gz 47469704-Oct-2007 21:45
DVDAuthorWizard-1.4.6.tar.bz2 57602201-Jan-2008 14:33
DVDStyler-1.4.tar.gz 71647417-May-2005 13:07
DVDStyler-1.5.1_2.tar.gz 83447919-Aug-2007 11:31
DVDStyler-1.5.tar.gz 81306916-May-2007 14:54
DVDStyler-1.5b3.tar.gz 65664401-Dec-2005 17:14
DVDStyler-1.5b4.tar.gz 65837723-Jan-2006 22:29
DVDStyler-1.5b5.tar.gz 76925715-Mar-2006 19:33
DVDStyler-1.8.1.tar.bz2 184550325-May-2010 20:44
DWH_File-0.24.tar.gz 2342631-Mar-2003 18:26
DWiconpack1.tar.gz 12767309-May-2003 05:14
DWiconpack2.tar.gz 18416309-May-2003 05:14
Daemon-Generic-0.51.tar.gz 1238415-Aug-2007 15:27
Daemon-Generic-0.61.tar.gz 1281203-Apr-2009 02:00
Daemon-Generic-0.71.tar.gz 1345214-Jul-2010 12:18
Dancer-1.175.tar.gz 9661611-Apr-2010 10:49
Dancer-1.176.tar.gz 9753522-Apr-2010 20:29
Danga-Socket-1.43.tar.gz 1408419-Jul-2005 01:19
Danga-Socket-1.48.tar.gz 1652321-Sep-2006 03:44
Danga-Socket-1.56.tar.gz 1801427-Dec-2006 21:26
Danga-Socket-1.57.tar.gz 2014516-Apr-2007 18:56
Danga-Socket-1.58.tar.gz 2000821-Jan-2008 19:38
Danga-Socket-1.59.tar.gz 2008013-Mar-2008 19:38
Danga-Socket-1.61.tar.gz 2036128-Nov-2008 07:34
Danga-Socket-Callback-0.01200.tar.gz 1879201-Mar-2008 18:43
Danish.zip 1870424-Jul-2008 09:05
DarwinStreamingSrvr5.5.5-Source.tar.gz 2146826820-Jul-2007 21:15
DarwinStreamingSrvr6.0.3-Source.tar 3259392020-May-2008 03:28
Data-ACL-0.02.tar.gz 284418-Jan-2003 13:04
Data-AMF-0.03.tar.gz 12560224-Dec-2009 12:55
Data-AMF-0.04.tar.gz 12837820-May-2010 06:10
Data-AMF-0.07.tar.gz 12854029-Jul-2010 08:36
Data-AMF-0.08.tar.gz 12865904-Aug-2010 00:17
Data-AMF-0.09.tar.gz 12920531-Aug-2010 06:38
Data-Alias-1.06.tar.gz 6126128-Jun-2007 20:44
Data-Alias-1.07.tar.gz 6136026-Oct-2007 13:50
Data-Average-0.03000.tar.gz 1337914-Nov-2007 07:17
Data-Bind-0.28.tar.gz 2172524-Jul-2006 15:38
Data-Bind-0.30.tar.gz 2339518-May-2008 02:03
Data-Buffer-0.04.tar.gz 549728-Jul-2001 07:39
Data-ClearSilver-HDF-0.04.tar.gz 4305320-Apr-2008 14:14
Data-Compare-0.13.tar.gz 1088109-Nov-2004 19:06
Data-Compare-0.14.tar.gz 1147101-Nov-2006 15:49
Data-Compare-0.16.tar.gz 1186727-Feb-2007 20:30
Data-Compare-0.17.tar.gz 1215007-Aug-2007 17:30
Data-Compare-1.18.tar.gz 1261601-Mar-2008 18:43
Data-Compare-1.19.tar.gz 1306312-May-2008 15:42
Data-Compare-1.21.tar.gz 1452801-Sep-2008 16:32
Data-Compare-1.2101.tar.gz 2402705-May-2009 14:43
Data-Compare-1.2102.tar.gz 2422001-Feb-2010 17:13
Data-Compare-1.22.tar.gz 2348314-Feb-2010 14:45
Data-Currency-0.04002.tar.gz 2372301-Mar-2008 18:43
Data-Dump-1.06.tar.gz 981612-Nov-2004 08:55
Data-Dump-1.08.tar.gz 1054629-Nov-2006 10:50
Data-Dump-1.14.tar.gz 1522512-Jan-2009 21:07
Data-Dump-1.15.tar.gz 1526126-Jul-2009 10:12
Data-Dump-1.16.tar.gz 1825109-Jun-2010 11:22
Data-Dump-1.17.tar.gz 1919312-Jun-2010 09:15
Data-Dump-1.18.tar.gz 1964219-Oct-2010 00:20
Data-Dump-1.19.tar.gz 1970519-Oct-2010 18:30
Data-Dump-Streamer-1.10.tar.gz 5567309-Apr-2005 05:53
Data-Dump-Streamer-1.11.tar.gz 6202123-May-2005 20:40
Data-Dump-Streamer-1.12.tar.gz 6363326-May-2005 13:33
Data-Dump-Streamer-1.14.tar.gz 6446627-Jun-2005 22:05
Data-Dump-Streamer-2.02.tar.gz 6936819-Mar-2006 22:01
Data-Dump-Streamer-2.03-30.tar.gz 7133116-Apr-2006 15:56
Data-Dump-Streamer-2.05-36.tar.gz 7152022-Aug-2007 22:29
Data-Dump-Streamer-2.08-40.tar.gz 7201222-Dec-2007 00:40
Data-Dump-Streamer-2.09.tar.gz 7352224-Mar-2009 00:31
Data-Dump-Streamer-2.13.tar.gz 7379205-Apr-2010 19:17
Data-Dump-Streamer-2.14.tar.gz 7420408-Jun-2010 22:51
Data-Dump-Streamer-2.17.tar.gz 9074411-Jun-2010 09:13
Data-Dump-Streamer-2.18.tar.gz 9090212-Jun-2010 18:44
Data-Dump-Streamer-2.21.tar.gz 9108119-Jun-2010 18:53
Data-Dump-Streamer-2.22.tar.gz 9116812-Jul-2010 07:10
Data-DumpXML-1.05.tar.gz 789215-Aug-2004 02:09
Data-DumpXML-1.06.tar.gz 793518-Dec-2003 09:19
Data-Dumper-2.121.tar.gz 3193125-Aug-2003 11:49
Data-Dumper-2.124.tar.gz 7863013-Jun-2009 15:22
Data-Dumper-2.125.tar.gz 7880108-Aug-2009 10:33
Data-Dumper-2.126.tar.gz 7945815-Apr-2010 19:55
Data-Dumper-2.128.tar.gz 8063510-Sep-2010 14:11
Data-Dumper-Concise-1.002.tar.gz 1596522-Nov-2009 14:10
Data-Dumper-Concise-1.100.tar.gz 1688010-Dec-2009 16:42
Data-Dumper-Concise-1.200.tar.gz 1702313-Feb-2010 18:53
Data-Dumper-Concise-2.010.tar.gz 2093930-Jul-2010 03:37
Data-Dumper-Perltidy-0.01.tar.gz 390330-Jan-2009 01:07
Data-Dumper-Simple-0.06.tar.gz 635609-Apr-2005 05:53
Data-Dumper-Simple-0.07.tar.gz 736220-May-2005 01:27
Data-Dumper-Simple-0.10.tar.gz 800608-Oct-2005 16:56
Data-Dumper-Simple-0.11.tar.gz 807816-Nov-2005 01:25
Data-Entropy-0.002.tar.gz 3302405-Aug-2006 09:15
Data-Entropy-0.003.tar.gz 3319521-Jan-2007 00:51
Data-Entropy-0.004.tar.gz 3332803-Sep-2007 21:25
Data-Entropy-0.005.tar.gz 3701103-Mar-2009 20:31
Data-Entropy-0.006.tar.gz 4351321-Nov-2009 14:01
Data-Float-0.003.tar.gz 1000008-Aug-2006 21:05
Data-Float-0.005.tar.gz 1474125-Jan-2007 20:50
Data-Float-0.007.tar.gz 2120526-Oct-2007 13:50
Data-Float-0.009.tar.gz 2139406-Apr-2008 17:40
Data-Float-0.010.tar.gz 2580226-Jul-2010 20:19
Data-Float-0.011.tar.gz 2564222-Oct-2010 05:36
Data-Flow-0.09.tar.gz 478903-Apr-2004 09:05
Data-Flow-1.02.tar.gz 518811-May-2008 22:33
Data-FormValidator-3.13.tar.gz 5598102-Nov-2003 21:19
Data-FormValidator-4.02.tar.gz 7888701-Sep-2005 02:31
Data-FormValidator-4.12.tar.gz 8354806-Jan-2006 02:14
Data-FormValidator-4.14.tar.gz 8503817-Feb-2006 18:48
Data-FormValidator-4.20.tar.gz 8667221-Jul-2006 18:15
Data-FormValidator-4.30.tar.gz 8835311-Jul-2006 01:45
Data-FormValidator-4.40.tar.gz 8864021-Aug-2006 23:43
Data-FormValidator-4.50.tar.gz 9183405-Dec-2006 02:41
Data-FormValidator-4.51.tar.gz 9261414-Jul-2007 03:36
Data-FormValidator-4.55.tar.gz 9315601-Nov-2007 09:27
Data-FormValidator-4.57.tar.gz 9409001-Mar-2008 18:43
Data-FormValidator-4.61.tar.gz 9647416-Jun-2008 18:46
Data-FormValidator-4.63.tar.gz 9689203-Jan-2009 17:49
Data-FormValidator-4.65.tar.gz 11708731-Dec-2009 03:22
Data-FormValidator-4.66.tar.gz 9714524-Feb-2010 14:33
Data-FormValidator-Constraints-DateTime-1.09.ta..> 1255019-Dec-2005 22:26
Data-FormValidator-Constraints-DateTime-1.11.ta..> 1641709-Jun-2010 18:12
Data-GUID-0.043.tar.gz 1322108-Mar-2007 16:06
Data-GUID-0.045.tar.gz 1331716-Jan-2009 16:01
Data-HashArray-1.0.tar.gz 697705-Jul-2008 11:10
Data-HexDump-0.02.tar.gz 352505-Sep-1999 22:55
Data-Hexdumper-1.2.tar.gz 446620-Feb-2004 13:00
Data-Hexdumper-1.3.tar.gz 514120-Aug-2007 22:10
Data-Hexdumper-1.4.tar.gz 523418-May-2008 16:03
Data-Hexdumper-2.01.tar.gz 1511203-Mar-2009 20:29
Data-Hierarchy-0.21.tar.gz 381510-Nov-2004 13:49
Data-Hierarchy-0.22.tar.gz 382421-Jul-2006 18:15
Data-Hierarchy-0.30.tar.gz 838025-Jul-2006 19:57
Data-Hierarchy-0.31.tar.gz 841607-Sep-2006 20:22
Data-Hierarchy-0.34.tar.gz 886105-Nov-2006 05:56
Data-ICal-0.05.tar.gz 8968907-Oct-2005 04:59
Data-ICal-0.07.tar.gz 9156424-Jan-2006 14:48
Data-ICal-0.08.tar.gz 10181616-Sep-2006 13:11
Data-ICal-0.12.tar.gz 10223712-Jan-2007 18:27
Data-ICal-0.13.tar.gz 10374223-Feb-2007 06:57
Data-ICal-0.15.tar.gz 10680202-Mar-2009 17:28
Data-ICal-0.16.tar.gz 11105610-Jul-2009 15:05
Data-Integer-0.003.tar.gz 1909226-Oct-2007 21:14
Data-Integer-0.004.tar.gz 2451526-Jul-2010 20:16
Data-JavaScript-1.08.tgz 373513-Feb-2003 14:10
Data-JavaScript-1.13.tgz 766814-Aug-2008 15:16
Data-JavaScript-1_11.tgz 654715-Nov-2005 19:34
Data-JavaScript-Anon-1.03.tar.gz 3088920-Apr-2009 16:52
Data-Lazy-0.6.tar.gz 687205-Jan-2004 01:34
Data-Localize-0.00004.tar.gz 2227803-Mar-2009 15:13
Data-Localize-0.00005.tar.gz 2323018-Mar-2009 12:24
Data-Localize-0.00007.tar.gz 2612315-Apr-2009 01:27
Data-Localize-0.00009.tar.gz 2618705-Aug-2009 22:56
Data-Localize-0.00010.tar.gz 2658317-Aug-2009 02:40
Data-Localize-0.00011.tar.gz 2697815-Dec-2009 02:17
Data-Localize-0.00013.tar.gz 3799722-Mar-2010 15:53
Data-Localize-0.00014.tar.gz 4206514-Apr-2010 03:40
Data-Localize-0.00016.tar.gz 4290321-May-2010 05:17
Data-Localize-0.00017.tar.gz 4315621-Jul-2010 01:03
Data-MessagePack-0.08.tar.gz 11656504-Aug-2009 11:34
Data-MessagePack-0.09.tar.gz 11795504-Jan-2010 03:13
Data-MessagePack-0.10.tar.gz 10143302-Apr-2010 00:17
Data-MessagePack-0.12.tar.gz 14630905-May-2010 08:28
Data-MessagePack-0.13.tar.gz 14375914-Jul-2010 00:58
Data-MessagePack-0.16.tar.gz 14425403-Sep-2010 05:53
Data-MessagePack-0.31.tar.gz 11380307-Oct-2010 08:06
Data-MessagePack-0.33.tar.gz 11448613-Oct-2010 03:46
Data-MessagePack-0.34.tar.gz 11577618-Oct-2010 10:30
Data-Model-0.00005.tar.gz 10034212-Jan-2010 12:54
Data-Model-0.00006.tar.gz 10218008-Mar-2010 10:31
Data-Model-0.00007.tar.gz 10492308-Sep-2010 10:21
Data-ObjectDriver-0.03.tar.gz 5173305-Aug-2006 23:30
Data-ObjectDriver-0.04.tar.gz 7473202-May-2007 16:43
Data-ObjectDriver-0.05.tar.gz 8215924-Feb-2008 22:17
Data-ObjectDriver-0.06.tar.gz 9351728-Jan-2009 18:39
Data-ObjectDriver-0.07.tar.gz 10663123-Mar-2010 00:14
Data-OptList-0.101.tar.gz 1376913-Jun-2006 12:45
Data-OptList-0.102.tar.gz 2324305-Jul-2007 02:19
Data-OptList-0.103.tar.gz 2319601-Mar-2008 18:43
Data-OptList-0.104.tar.gz 2466416-Jan-2009 16:17
Data-OptList-0.105.tar.gz 2536214-Jan-2010 13:49
Data-OptList-0.106.tar.gz 2590314-Feb-2010 20:17
Data-Page-2.00.tar.gz 644829-Oct-2004 12:47
Data-Page-2.01.tar.gz 659208-Oct-2008 14:05
Data-Page-2.02.tar.gz 818907-Dec-2009 19:49
Data-Pageset-1.03.tar.gz 703509-Mar-2006 23:00
Data-Pageset-1.04.tar.gz 745101-Mar-2008 18:43
Data-Pageset-1.05.tar.gz 795922-Feb-2008 10:58
Data-Pageset-1.06.tar.gz 798803-Jan-2010 17:46
Data-ParseBinary-0.12.tar.gz 28798128-Dec-2008 00:06
Data-ParseBinary-0.13.tar.gz 28991705-Jan-2009 09:03
Data-ParseBinary-0.22.tar.gz 29148126-Jun-2009 08:40
Data-ParseBinary-0.24.tar.gz 29503517-Aug-2009 15:33
Data-ParseBinary-0.25.tar.gz 29521824-Aug-2009 23:04
Data-ParseBinary-0.27.tar.gz 29530708-Sep-2009 18:11
Data-ParseBinary-0.28.tar.gz 29534118-Sep-2010 22:18
Data-Password-1.05.tar.gz 461007-Aug-2004 20:03
Data-Password-1.07.tar.gz 491104-Aug-2006 16:58
Data-Path-1.4.1.tar.gz 1360327-Feb-2008 03:09
Data-Phrasebook-0.29.tar.gz 3068102-Mar-2007 13:21
Data-Phrasebook-0.30.tar.gz 2285120-Aug-2010 07:13
Data-Phrasebook-0.31.tar.gz 2297831-Aug-2010 20:03
Data-Phrasebook-Loader-YAML-0.09.tar.gz 1774001-Mar-2007 13:41
Data-Postponed-0.20.tar.gz 2246721-Jun-2006 20:48
Data-Properties-0.02.tar.gz 443426-Nov-2001 22:14
Data-Random-0.05.tar.gz 14705522-Feb-2003 20:28
Data-Recursive-Encode-0.03.tar.gz 1757520-Jan-2010 11:16
Data-Recursive-Encode-0.04.tar.gz 2103203-Sep-2010 15:36
Data-Remember-0.07.tar.gz 2915514-Oct-2007 05:40
Data-Report-0.05.tar.gz 1676721-Jul-2006 18:15
Data-Report-0.06.tar.gz 1677919-Sep-2006 12:22
Data-Report-0.10.tar.gz 1958118-Aug-2008 09:55
Data-RoundRobin-0.03.tar.gz 1201431-Aug-2006 09:37
Data-Section-0.093410.tar.gz 1232307-Dec-2009 23:47
Data-Section-0.100270.tar.gz 1281728-Jan-2010 03:44
Data-Section-0.100770.tar.gz 1332118-Mar-2010 12:06
Data-Section-0.101620.tar.gz 1467511-Jun-2010 12:16
Data-Serializer-0.28.tar.gz 2175324-Jan-2005 09:15
Data-Serializer-0.29.tar.gz 2210103-Mar-2005 19:05
Data-Serializer-0.34.tar.gz 2319417-Oct-2005 21:57
Data-Serializer-0.36.tar.gz 2392216-Mar-2006 17:35
Data-Serializer-0.41.tar.gz 2615518-May-2007 02:16
Data-Serializer-0.48.tar.gz 2891520-Aug-2008 14:22
Data-Serializer-0.49.tar.gz 2895816-Apr-2009 14:42
Data-ShowTable-3.3.tar.gz 9436926-Aug-1997 08:24
Data-SpreadPagination-0.1.2.tar.gz 711119-Jul-2004 12:32
Data-Stag-0.07.tar.gz 44195101-Dec-2004 04:40
Data-Stag-0.08.tar.gz 44208021-Dec-2004 02:30
Data-Stag-0.10.tar.gz 44397616-Dec-2005 19:14
Data-Stag-0.11.tar.gz 42576603-Jun-2008 17:36
Data-Stream-Bulk-0.03.tar.gz 1174316-Sep-2008 08:18
Data-Stream-Bulk-0.04.tar.gz 1182523-Apr-2009 23:31
Data-Stream-Bulk-0.07.tar.gz 1226511-Jul-2009 07:59
Data-Stream-Bulk-0.08.tar.gz 1951124-Aug-2010 11:41
Data-Structure-Util-0.12.tar.gz 1502221-Jun-2006 14:49
Data-Structure-Util-0.15.tar.gz 2318509-Mar-2008 19:39
Data-Swap-0.05.tar.gz 2617229-Sep-2004 15:11
Data-Swap-0.07.tar.gz 2687401-Mar-2008 18:43
Data-Swap-0.08.tar.gz 2700312-Sep-2008 13:48
Data-Table-1.43.tar.gz 2924810-Nov-2004 02:42
Data-Table-1.47.tar.gz 3654721-May-2006 22:12
Data-Table-1.50.tar.gz 4017028-Sep-2006 14:35
Data-Table-1.52.tar.gz 4340401-Mar-2008 18:43
Data-Table-1.54.tar.gz 4370912-Feb-2008 00:20
Data-Taxonomy-Tags-0.04.tar.gz 453422-Jun-2005 21:33
Data-Taxonomy-Tags-0.05.tar.gz 464526-Jun-2005 20:15
Data-TemporaryBag-0.08.tar.gz 502128-Jan-2004 16:02
Data-TemporaryBag-0.09.tar.gz 502425-Jan-2006 16:06
Data-Throttler-0.01.tar.gz 672301-Mar-2008 18:43
Data-Throttler-0.02.tar.gz 701408-Mar-2008 06:59
Data-Throttler-0.03.tar.gz 831428-Jun-2009 01:56
Data-Throttler-0.04.tar.gz 893201-May-2010 20:10
Data-Throttler-0.05.tar.gz 902810-Jul-2010 05:47
Data-Throttler-Memcached-0.00003.tar.gz 2043801-Mar-2008 18:43
Data-TreeDumper-0.20.tar.gz 2093014-Mar-2005 18:45
Data-TreeDumper-0.23.tar.gz 2273829-Jun-2005 23:16
Data-TreeDumper-0.27.tar.gz 2355806-Oct-2005 11:07
Data-TreeDumper-0.31.tar.gz 2555513-May-2006 19:26
Data-TreeDumper-0.33.tar.gz 2700603-Jan-2007 08:39
Data-TreeDumper-0.35.tar.gz 2809001-Nov-2008 16:24
Data-TreeDumper-0.37.tar.gz 2777521-Jan-2010 22:23
Data-TreeDumper-Renderer-DHTML-0.07.tar.gz 1141522-Oct-2005 18:08
Data-TreeDumper-Renderer-DHTML-0.08.tar.gz 1097707-Dec-2008 12:44
Data-TreeDumper-Renderer-DHTML-0.09.tar.gz 1080219-Dec-2008 21:57
Data-TreeDumper-Renderer-GTK-0.01.tar.gz 437608-Apr-2005 21:06
Data-TreeDumper-Renderer-GTK-0.02.tar.gz 437830-Aug-2008 09:56
Data-Types-0.05.tar.gz 594326-Aug-2003 01:24
Data-Types-0.06.tar.gz 683923-May-2006 00:48
Data-Types-0.07.tar.gz 702401-Mar-2008 18:43
Data-Types-0.08.tar.gz 707105-May-2008 19:01
Data-UUID-0.11.tar.gz 1355527-Aug-2003 20:17
Data-UUID-0.14.tar.gz 1441218-Mar-2006 13:42
Data-UUID-0.145.tar.gz 1483019-Sep-2006 22:29
Data-UUID-0.148.tar.gz 1514616-Nov-2006 15:25
Data-UUID-1.148.tar.gz 1538608-Mar-2007 16:05
Data-UUID-1.149.tar.gz 1590601-Nov-2008 16:36
Data-UUID-1.201.tar.gz 1272218-Apr-2009 18:12
Data-UUID-1.202.tar.gz 1299115-Jun-2009 22:47
Data-UUID-1.203.tar.gz 1373303-Nov-2009 21:49
Data-UUID-1.215.tar.gz 1595925-May-2010 02:47
Data-UUID-1.216.tar.gz 1590704-Sep-2010 18:14
Data-UUID-1.217.tar.gz 1590714-Sep-2010 08:48
Data-Uniqid-0.11.tar.gz 218102-Jun-2003 18:14
Data-Uniqid-0.12.tar.gz 214105-Jan-2010 15:25
Data-Util-0.50.tar.gz 7545220-Jan-2009 04:07
Data-Util-0.51.tar.gz 7772809-Jul-2009 01:33
Data-Util-0.52.tar.gz 7783713-Jul-2009 03:28
Data-Util-0.54.tar.gz 6622721-Oct-2009 05:35
Data-Util-0.55.tar.gz 6562024-Dec-2009 07:34
Data-Util-0.56.tar.gz 6574601-Jan-2010 03:39
Data-Util-0.57.tar.gz 7060101-Aug-2010 08:35
Data-Util-0.58.tar.gz 7263213-Sep-2010 17:41
Data-Validate-0.08.tar.gz 1259111-Mar-2007 00:15
Data-Validate-Domain-0.03.tar.gz 564203-Nov-2005 15:01
Data-Validate-Domain-0.05.tar.gz 715604-Dec-2006 21:03
Data-Validate-Domain-0.08.tar.gz 751418-May-2007 02:37
Data-Validate-Domain-0.09.tar.gz 784818-Feb-2008 20:34
Data-Validate-Email-0.04.tar.gz 981204-Dec-2006 21:39
Data-Validate-IP-0.08.tar.gz 629901-Mar-2008 18:43
Data-Validate-IP-0.10.tar.gz 744604-Jun-2009 17:52
Data-Validate-IP-0.11.tar.gz 798001-Mar-2010 19:40
Data-Validate-URI-0.04.tar.gz 1031301-Mar-2008 18:43
Data-Validate-URI-0.05.tar.gz 1040908-Apr-2008 14:18
Data-Visitor-0.05.tar.gz 699022-Apr-2006 14:19
Data-Visitor-0.08.tar.gz 739601-Jul-2007 19:55
Data-Visitor-0.09.tar.gz 807226-Oct-2007 13:50
Data-Visitor-0.15.tar.gz 1077001-Mar-2008 18:43
Data-Visitor-0.17.tar.gz 1186819-Jul-2008 18:18
Data-Visitor-0.18.tar.gz 1257621-Jul-2008 19:37
Data-Visitor-0.19.tar.gz 1320926-Aug-2008 21:56
Data-Visitor-0.21.tar.gz 1390115-Sep-2008 19:10
Data-Visitor-0.22.tar.gz 1432919-Dec-2008 01:54
Data-Visitor-0.24.tar.gz 1448711-Apr-2009 15:38
Data-Visitor-0.25.tar.gz 1461519-May-2009 17:44
Data-Visitor-0.26.tar.gz 1462903-Sep-2009 10:38
Data-Visitor-0.27.tar.gz 1505103-Feb-2010 07:20
Data-Visitor-Encode-0.10002.tar.gz 2358106-Nov-2008 03:27
Data-Visitor-Encode-0.10003.tar.gz 2430917-Feb-2009 04:19
Data-Visitor-Encode-0.10004.tar.gz 2431920-Feb-2009 01:00
Data-Visitor-Encode-0.10005.tar.gz 2574118-Jan-2010 00:49
Data-Visitor-Encode-0.10006.tar.gz 2591322-Jan-2010 02:40
Date-Calc-5.4.tar.gz 20662203-Oct-2004 09:31
Date-Calc-5.5.1.tar.gz 20862928-Feb-2007 11:15
Date-Calc-5.5.tar.gz 20776725-Jan-2007 10:49
Date-Calc-5.6.tar.gz 20248328-Jul-2009 20:20
Date-Calc-5.7.tar.gz 20563724-Aug-2009 16:59
Date-Calc-6.0.tar.gz 21953308-Oct-2009 06:35
Date-Calc-6.2.tar.gz 16942616-Oct-2009 22:20
Date-Calc-6.3.tar.gz 16896731-Oct-2009 07:29
Date-Calc-Iterator-1.00.tar.gz 355619-Mar-2004 18:52
Date-Calc-XS-6.2.tar.gz 8430616-Oct-2009 22:20
Date-Chinese-1.10.tar.gz 1037929-Aug-2002 23:47
Date-DayOfWeek-1.22.tar.gz 830402-Feb-2003 13:41
Date-Easter-1.14.tar.gz 585729-Aug-2002 23:58
Date-EzDate-1.08.tar.gz 2854610-Jun-2003 16:11
Date-EzDate-1.10.tar.gz 3472028-Jul-2007 14:44
Date-EzDate-1.11.tar.gz 3485808-Oct-2008 14:09
Date-Handler-1.2.tar.gz 3347311-Nov-2004 19:13
Date-Holidays-DK-0.03.tar.gz 286728-Oct-2005 12:54
Date-ICal-1.72.tar.gz 4389519-Jan-2003 20:00
Date-ISO-1.30.tar.gz 792821-Jan-2003 15:38
Date-Japanese-Era-0.03.tar.gz 598610-Dec-2001 07:49
Date-Japanese-Era-0.06.tar.gz 575815-Jun-2006 09:47
Date-Japanese-Holiday-0.05.tar.gz 317125-Sep-2003 13:04
Date-Leapyear-1.71.tar.gz 635530-Aug-2002 00:05
Date-Leapyear-1.72.tar.gz 1115302-Apr-2009 16:24
Date-Manip-5.54.tar.gz 18184109-May-2008 14:01
Date-Manip-5.56.tar.gz 17998924-Feb-2010 16:02
Date-Pcalc-1.2.tar.gz 6123610-Apr-2001 07:18
Date-Pcalc-6.0.tar.gz 18336008-Oct-2009 06:36
Date-Pcalc-6.1.tar.gz 21679016-Oct-2009 05:54
Date-Range-1.40.tar.gz 469316-Jan-2006 11:50
Date-Roman-1.05.tar.gz 3840415-Aug-2004 02:09
Date-Roman-1.06.tar.gz 3860118-May-2005 23:18
Date-Set-1.30.tar.gz 4974315-Mar-2004 19:03
Date-Simple-2.04.tar.gz 1855715-Aug-2004 02:09
Date-Simple-3.02.tar.gz 2270218-Dec-2004 12:47
Date-Simple-3.03.tar.gz 2347626-Dec-2008 19:29
DateConvert-0.16.tar.gz 1093828-Jan-2000 00:49
DateManip-5.42a.tar.gz 13630215-Aug-2004 02:09
DateManip-5.44.tar.gz 14159602-Jun-2005 15:51
DateTime-0.28.tar.gz 8226714-Mar-2005 18:45
DateTime-0.29.tar.gz 8270403-Jun-2005 19:12
DateTime-0.2901.tar.gz 8290704-Jul-2005 17:41
DateTime-0.30.tar.gz 8848422-Dec-2005 23:51
DateTime-0.31.tar.gz 8912921-Jul-2006 18:15
DateTime-0.32.tar.gz 8947724-Jul-2006 12:51
DateTime-0.34.tar.gz 9106011-Aug-2006 16:20
DateTime-0.36.tar.gz 9180218-Jan-2007 16:12
DateTime-0.37.tar.gz 9535830-Mar-2007 16:15
DateTime-0.38.tar.gz 9543701-Jul-2007 04:23
DateTime-0.39.tar.gz 9548017-Jul-2007 14:48
DateTime-0.41.tar.gz 9611701-Nov-2007 09:27
DateTime-0.4302.tar.gz 10070720-May-2008 15:57
DateTime-0.4501.tar.gz 13581725-Nov-2008 15:11
DateTime-0.47.tar.gz 13642901-Mar-2009 16:30
DateTime-0.49.tar.gz 13771004-May-2009 23:18
DateTime-0.50.tar.gz 13775411-May-2009 16:48
DateTime-0.51.tar.gz 18792801-Nov-2009 20:47
DateTime-0.52.tar.gz 19520805-Dec-2009 20:18
DateTime-0.53.tar.gz 19525306-Dec-2009 21:15
DateTime-0.54.tar.gz 19826526-Mar-2010 09:13
DateTime-0.55.tar.gz 19820316-Mar-2010 16:44
DateTime-0.58.tar.gz 14254328-Jun-2010 15:22
DateTime-0.59.tar.gz 17435129-Jun-2010 15:24
DateTime-0.60.tar.gz 17442403-Jul-2010 16:59
DateTime-0.61.tar.gz 17467017-Jul-2010 01:29
DateTime-0.62.tar.gz 14460923-Sep-2010 18:16
DateTime-0.63.tar.gz 14465925-Sep-2010 15:01
DateTime-0.65.tar.gz 17711726-Oct-2010 04:49
DateTime-Calendar-Chinese-0.07.tar.gz 2838301-Mar-2008 18:43
DateTime-Calendar-Christian-0.04.tar.gz 1754928-Jul-2003 02:07
DateTime-Calendar-Discordian-0.9.2.tar.gz 2088906-Oct-2004 22:54
DateTime-Calendar-Discordian-0.9.4.tar.gz 1940009-Sep-2006 08:51
DateTime-Calendar-Discordian-0.9.6.tar.gz 2043206-Mar-2008 12:52
DateTime-Calendar-FrenchRevolutionary-0.07.tar.gz 9695407-Sep-2004 18:40
DateTime-Calendar-FrenchRevolutionary-0.08.tar.gz 11944721-Jul-2010 20:28
DateTime-Calendar-Hebrew-0.04.tar.gz 1966302-Oct-2003 16:17
DateTime-Calendar-Japanese-0.06001.tar.gz 2747801-Mar-2008 18:43
DateTime-Calendar-Japanese-Era-0.07.tar.gz 1048906-Jul-2006 08:56
DateTime-Calendar-Japanese-Era-0.08000.tar.gz 2664404-Nov-2007 10:37
DateTime-Calendar-Japanese-Era-0.08001.tar.gz 3214924-Aug-2008 16:06
DateTime-Calendar-Julian-0.04.tar.gz 1197426-Mar-2003 21:05
DateTime-Calendar-Mayan-0.0601.tar.gz 1661818-Mar-2004 08:02
DateTime-Calendar-Pataphysical-0.04.tar.gz 2364729-Jul-2004 10:42
DateTime-Event-Chinese-0.05.tar.gz 2187301-Mar-2008 18:43
DateTime-Event-Cron-0.07.tar.gz 1028930-Mar-2004 22:56
DateTime-Event-Cron-0.08.tar.gz 1068710-Jun-2010 21:12
DateTime-Event-Easter-1.04.tar.gz 2044904-Apr-2004 07:42
DateTime-Event-ICal-0.08.tar.gz 2396424-May-2004 21:23
DateTime-Event-ICal-0.09.tar.gz 2416930-Sep-2005 16:52
DateTime-Event-ICal-0.10.tar.gz 2434017-Nov-2009 20:18
DateTime-Event-Lunar-0.06.tar.gz 2416101-Mar-2008 18:43
DateTime-Event-NameDay-0.02.tar.gz 2385627-May-2003 12:07
DateTime-Event-Random-0.03.tar.gz 1437417-Mar-2004 18:09
DateTime-Event-Recurrence-0.15_02.tar.gz 2398414-Mar-2005 18:45
DateTime-Event-Recurrence-0.16.tar.gz 2391512-May-2005 18:23
DateTime-Event-SolarTerm-0.05.tar.gz 2473501-Mar-2008 18:43
DateTime-Event-Sunrise-0.0501.tar.gz 1269031-Mar-2004 17:03
DateTime-Fiscal-Year-0.02.tar.gz 1188416-Sep-2003 21:18
DateTime-Format-Baby-1.0100.tar.gz 626228-Jun-2003 09:28
DateTime-Format-Bork-0.02.tar.gz 1071901-Aug-2003 20:39
DateTime-Format-Builder-0.7806.tar.gz 4823209-Sep-2004 14:08
DateTime-Format-Builder-0.7807.tar.gz 4830729-May-2006 18:04
DateTime-Format-Builder-0.79.tar.gz 4910230-Aug-2007 19:49
DateTime-Format-Builder-0.7901.tar.gz 4921801-Nov-2007 09:27
DateTime-Format-Builder-0.80.tar.gz 6557614-Mar-2010 15:55
DateTime-Format-DBI-0.031.tar.gz 1033702-Nov-2003 23:25
DateTime-Format-DBI-0.032.tar.gz 1072612-Sep-2008 19:06
DateTime-Format-DBI-0.033.tar.gz 1227610-Dec-2009 18:13
DateTime-Format-DBI-0.035.tar.gz 1369801-Aug-2010 15:08
DateTime-Format-DBI-0.040.tar.gz 1482519-Oct-2010 13:36
DateTime-Format-DateManip-0.04.tar.gz 1446026-Jan-2004 14:40
DateTime-Format-DateParse-0.04.tar.gz 1450417-Sep-2006 23:13
DateTime-Format-DateParse-0.05.tar.gz 1740010-Apr-2010 19:21
DateTime-Format-Duration-1.02.tar.gz 8561004-Apr-2004 08:42
DateTime-Format-Duration-1.03a.tgz 8635801-Jul-2007 06:30
DateTime-Format-Epoch-0.09.tar.gz 1748918-Oct-2004 18:40
DateTime-Format-Epoch-0.10.tar.gz 1736922-May-2006 22:13
DateTime-Format-Epoch-0.11.tar.gz 1751101-Mar-2008 18:43
DateTime-Format-Epoch-0.12.tar.gz 2253623-Aug-2010 22:21
DateTime-Format-Epoch-0.13.tar.gz 2266825-Aug-2010 06:04
DateTime-Format-Excel-0.2901.tar.gz 1581326-Jan-2004 19:06
DateTime-Format-Excel-0.30.tar.gz 1844314-Jun-2010 09:05
DateTime-Format-Excel-0.31.tar.gz 1868420-Oct-2010 09:55
DateTime-Format-Flexible-0.09.tar.gz 5547425-May-2009 04:09
DateTime-Format-Flexible-0.15.tar.gz 6494010-Mar-2010 21:44
DateTime-Format-HTTP-0.36.tar.gz 1865910-Feb-2004 16:35
DateTime-Format-HTTP-0.37.tar.gz 1781709-Aug-2006 03:33
DateTime-Format-HTTP-0.38.tar.gz 1531105-Apr-2009 14:27
DateTime-Format-HTTP-0.39.tar.gz 1724903-Jul-2010 07:33
DateTime-Format-HTTP-0.40.tar.gz 1757131-Oct-2010 19:26
DateTime-Format-IBeat-0.161.tar.gz 1523426-Jan-2004 13:50
DateTime-Format-ICal-0.08.tar.gz 1664804-Sep-2003 16:29
DateTime-Format-ICal-0.09.tar.gz 1679407-Mar-2008 20:37
DateTime-Format-ISO8601-0.0402.tar.gz 1937901-Dec-2004 04:40
DateTime-Format-ISO8601-0.0403.tar.gz 1977607-Aug-2005 23:25
DateTime-Format-ISO8601-0.06.tar.gz 2047311-Apr-2007 01:28
DateTime-Format-ISO8601-0.07.tar.gz 2437318-Jan-2010 06:47
DateTime-Format-Japanese-0.03.tar.gz 1326301-Mar-2008 18:43
DateTime-Format-Japanese-0.04000.tar.gz 2433824-Aug-2008 16:20
DateTime-Format-Mail-0.2901.tar.gz 18258026-Jan-2004 19:12
DateTime-Format-Mail-0.30.tar.gz 18130024-Jul-2006 12:40
DateTime-Format-Mail-0.3001.tar.gz 17647330-Aug-2007 19:57
DateTime-Format-MySQL-0.0301.tar.gz 1149515-Aug-2004 02:09
DateTime-Format-MySQL-0.04.tar.gz 1153918-Apr-2005 03:04
DateTime-Format-Natural-0.71.tar.gz 2448512-Jun-2008 09:55
DateTime-Format-Natural-0.75.tar.gz 2763319-Feb-2009 16:03
DateTime-Format-Natural-0.77.tar.gz 3304114-Jun-2009 19:03
DateTime-Format-Natural-0.81.tar.gz 4342921-Nov-2009 12:17
DateTime-Format-Natural-0.82.tar.gz 4393321-Dec-2009 09:33
DateTime-Format-Pg-0.07.tar.gz 1773415-Aug-2004 02:09
DateTime-Format-Pg-0.08.tar.gz 1798316-Mar-2005 16:49
DateTime-Format-Pg-0.09.tar.gz 1860402-Sep-2005 21:41
DateTime-Format-Pg-0.10.tar.gz 1875007-Jan-2006 00:49
DateTime-Format-Pg-0.11.tar.gz 1877831-Mar-2006 22:23
DateTime-Format-Pg-0.13.tar.gz 1919110-Jul-2006 07:08
DateTime-Format-Pg-0.15.tar.gz 1946723-Mar-2007 03:03
DateTime-Format-Pg-0.16001.tar.gz 3601822-May-2007 11:23
DateTime-Format-Pg-0.16002.tar.gz 3560512-Aug-2008 23:31
DateTime-Format-Pg-0.16003.tar.gz 3178127-Mar-2009 00:39
DateTime-Format-Pg-0.16004.tar.gz 3312406-Jul-2009 02:51
DateTime-Format-RFC3339-v1.0.1.tar.gz 332907-Jan-2009 14:03
DateTime-Format-RFC3339-v1.0.2.tar.gz 340113-Oct-2009 17:58
DateTime-Format-Roman-0.03.tar.gz 1152518-Oct-2004 16:40
DateTime-Format-SQLite-0.10.tar.gz 1294220-Sep-2008 18:45
DateTime-Format-SQLite-0.11.tar.gz 1308910-Dec-2009 16:58
DateTime-Format-Strptime-1.0601.tar.gz 2563031-Aug-2004 22:04
DateTime-Format-Strptime-1.0700.tar.gz 2632404-Nov-2005 23:42
DateTime-Format-Strptime-1.0702.tgz 2665501-Nov-2007 09:27
DateTime-Format-Strptime-1.0800.tgz 2709407-Aug-2008 00:15
DateTime-Format-Strptime-1.0900.tgz 2835322-Feb-2009 10:21
DateTime-Format-Strptime-1.1000.tgz 2881813-Jul-2009 23:22
DateTime-Format-Strptime-1.2000.tar.gz 3695219-Mar-2010 14:49
DateTime-Format-Strptime-1.4000.tar.gz 2790528-Jun-2010 16:49
DateTime-Format-W3CDTF-0.04.tar.gz 1114224-Nov-2003 02:14
DateTime-Format-W3CDTF-0.05.tar.gz 1561301-Nov-2009 22:05
DateTime-Format-XSD-0.1.tar.gz 191930-Apr-2008 10:48
DateTime-Functions-0.01.tar.gz 702501-Nov-2003 21:17
DateTime-HiRes-0.01.tar.gz 998209-Sep-2003 07:37
DateTime-Incomplete-0.02.tar.gz 2446221-Sep-2004 13:55
DateTime-Incomplete-0.03.tar.gz 2450601-Mar-2008 18:44
DateTime-Incomplete-0.0301.tar.gz 2450521-Jun-2008 08:18
DateTime-Incomplete-0.04.tar.gz 2471008-Jul-2009 22:12
DateTime-Locale-0.21.tar.gz 10230214-Mar-2005 18:45
DateTime-Locale-0.22.tar.gz 10276231-May-2005 17:59
DateTime-Locale-0.33.tar.gz 11244906-Jan-2007 20:20
DateTime-Locale-0.34.tar.gz 11255005-Mar-2007 16:08
DateTime-Locale-0.35.tar.gz 11644201-Nov-2007 09:27
DateTime-Locale-0.4001.tar.gz 63978019-May-2008 12:50
DateTime-Locale-0.42.tar.gz 74139712-Sep-2008 16:27
DateTime-Locale-0.43.tar.gz 77800230-Jun-2009 19:02
DateTime-Locale-0.44.tar.gz 105590112-Sep-2009 17:41
DateTime-Locale-0.45.tar.gz 107973619-Mar-2010 14:47
DateTime-Precise-1.05.tar.gz 3559904-Sep-2001 16:58
DateTime-Set-0.20.tar.gz 3958614-Mar-2005 18:45
DateTime-Set-0.22.tar.gz 3998706-May-2005 14:50
DateTime-Set-0.25.tar.gz 4028705-Oct-2005 13:32
DateTime-Set-0.26.tar.gz 4259825-Dec-2008 14:45
DateTime-Set-0.27.tar.gz 4272802-Apr-2009 18:26
DateTime-Set-0.28.tar.gz 4274319-Jul-2009 11:26
DateTime-TimeZone-0.33.tar.gz 30644014-Mar-2005 18:45
DateTime-TimeZone-0.36.tar.gz 30593321-Apr-2005 20:45
DateTime-TimeZone-0.37.tar.gz 30838322-Aug-2005 18:07
DateTime-TimeZone-0.40.tar.gz 31787127-Dec-2005 17:45
DateTime-TimeZone-0.42.tar.gz 32440520-Feb-2006 15:56
DateTime-TimeZone-0.46.tar.gz 32408121-Jul-2006 18:15
DateTime-TimeZone-0.48.tar.gz 31051929-Aug-2006 13:40
DateTime-TimeZone-0.59.tar.gz 33602518-Jan-2007 15:59
DateTime-TimeZone-0.62.tar.gz 34419326-Feb-2007 16:10
DateTime-TimeZone-0.64.tar.gz 34116802-Apr-2007 15:24
DateTime-TimeZone-0.6501.tar.gz 34331922-Apr-2007 14:08
DateTime-TimeZone-0.6602.tar.gz 34218129-May-2007 19:36
DateTime-TimeZone-0.67.tar.gz 34714220-Aug-2007 16:02
DateTime-TimeZone-0.68.tar.gz 34827201-Nov-2007 09:27
DateTime-TimeZone-0.72.tar.gz 35028801-Mar-2008 18:44
DateTime-TimeZone-0.7701.tar.gz 35864903-Jun-2008 14:40
DateTime-TimeZone-0.84.tar.gz 37622021-Jan-2009 20:48
DateTime-TimeZone-0.87.tar.gz 37708205-Apr-2009 16:11
DateTime-TimeZone-0.88.tar.gz 37714506-Apr-2009 16:13
DateTime-TimeZone-0.90.tar.gz 37736127-Apr-2009 15:59
DateTime-TimeZone-0.91.tar.gz 37730426-May-2009 16:27
DateTime-TimeZone-0.93.tar.gz 50945020-Jul-2009 14:41
DateTime-TimeZone-0.94.tar.gz 50927117-Aug-2009 15:59
DateTime-TimeZone-0.96.tar.gz 51034118-Aug-2009 20:23
DateTime-TimeZone-0.97.tar.gz 51165808-Sep-2009 14:45
DateTime-TimeZone-0.98.tar.gz 51058511-Sep-2009 21:58
DateTime-TimeZone-0.99.tar.gz 51028728-Sep-2009 15:48
DateTime-TimeZone-1.01.tar.gz 51172419-Oct-2009 15:10
DateTime-TimeZone-1.03.tar.gz 51267902-Nov-2009 15:24
DateTime-TimeZone-1.04.tar.gz 51022009-Nov-2009 18:52
DateTime-TimeZone-1.05.tar.gz 51315916-Nov-2009 22:27
DateTime-TimeZone-1.06.tar.gz 51341521-Dec-2009 20:08
DateTime-TimeZone-1.08.tar.gz 51438328-Dec-2009 17:04
DateTime-TimeZone-1.09.tar.gz 52158218-Jan-2010 16:47
DateTime-TimeZone-1.10.tar.gz 52473625-Jan-2010 16:34
DateTime-TimeZone-1.18.tar.gz 53752319-Apr-2010 14:23
DateTime-TimeZone-1.19.tar.gz 54005810-May-2010 14:59
DateTime-TimeZone-1.20.tar.gz 54011626-Jul-2010 17:18
DateTime-TimeZone-1.21.tar.gz 54030220-Aug-2010 13:21
DateTime-TimeZone-1.22.tar.gz 54088327-Sep-2010 16:36
DateTime-TimeZone-1.23.tar.gz 54125825-Oct-2010 15:30
DateTime-TimeZone-Alias-0.0501.tar.gz 1430317-May-2004 01:16
DateTime-TimeZone-Alias-0.06.tar.gz 1672526-Sep-2010 00:55
DateTime-TimeZone-LMT-1.00.tar.gz 1221919-Oct-2003 05:19
DateTime-Util-Astro-0.11001.tar.gz 3078329-May-2007 22:29
DateTime-Util-Astro-0.12000.tar.gz 3142604-Dec-2007 03:36
DateTime-Util-Calc-0.13002.tar.gz 2560129-May-2007 22:17
DateTimeX-Easy-0.087.tar.gz 3317815-May-2009 03:49
DateTimeX-Easy-0.088.tar.gz 3325107-Jan-2010 20:40
Dclock-pl6.patch.gz 213316-Jun-1998 05:55
Dclock.tar.gz 1684509-Mar-2001 03:55
DeFT_2.2.tar.Z 132722502-May-2003 05:54
Deadlock-1.01-Stable.tar.gz 33220101-Mar-2008 18:44
Debug-Client-0.11.tar.gz 2350622-Dec-2009 12:39
Decision-ACL-0.02.tar.gz 774928-Jul-2001 01:20
DecoratorTools-1.7.zip 2748101-Mar-2008 18:44
DecoratorTools-1.8.zip 2956606-May-2010 19:19
DeepArrow-0.3.3.tar.gz 971605-Oct-2009 00:19
DeepForest-1.0a.tar.gz 1664522-Apr-2003 02:23
DeliciousAPI-1.5.15.tar.gz 2019012-Apr-2009 14:24
DeliciousAPI-1.6.1.tar.gz 2003819-Feb-2010 08:20
DeliciousAPI-1.6.2.tar.gz 2006707-Mar-2010 16:12
DeliciousAPI-1.6.3.tar.gz 2007626-Mar-2010 15:24
DeliciousAPI-1.6.5.tar.gz 2005108-Aug-2010 17:26
DelimMatch-1.05.tar.gz 842616-Jul-2007 11:43
DemonQuake-data.tar.bz2 2071897502-Feb-2006 21:15
DemonQuake-v0.16-bin-src.linux.tar.bz2 125123911-Nov-2005 00:17
DendroPy-3.0.2.tar.gz 223311009-Jan-2010 03:31
DendroPy-3.0.5.tar.gz 223871215-Jan-2010 04:13
DendroPy-3.0.7.tar.gz 224135920-Jan-2010 22:59
DendroPy-3.1.2.tar.gz 366278101-Feb-2010 19:40
DendroPy-3.1.3.tar.gz 366365109-Feb-2010 07:14
DendroPy-3.2.0.tar.gz 369613022-Mar-2010 17:24
DendroPy-3.3.0.tar.gz 372967713-May-2010 00:51
DendroPy-3.4.0.tar.gz 374957605-Jul-2010 18:01
DendroPy-3.4.1.tar.gz 373004322-Jul-2010 23:54
DendroPy-3.5.0.tar.gz 374763712-Aug-2010 01:57
DendroPy-3.6.1.tar.gz 375130702-Sep-2010 14:39
DendroPy-3.7.0.tar.gz 373854702-Oct-2010 21:00
DendroPy-3.7.1.tar.gz 374085620-Oct-2010 22:41
DenyHosts-1.1.2.tar.gz 3100006-Oct-2005 03:07
DenyHosts-2.2.tar.gz 4097214-Mar-2006 03:38
DenyHosts-2.5.tar.gz 4261222-Jun-2006 03:00
DenyHosts-2.6.tar.gz 4266707-Dec-2006 20:19
Dev86src-0.16.17.tar.gz 70302801-Mar-2008 18:44
DevIL-1.6.7.tar.gz 301331213-Jul-2004 08:07
DevIL-1.7.0.tar.gz 69857923-Aug-2008 06:53
DevIL-1.7.5.tar.gz 119933030-Dec-2008 05:15
DevIL-1.7.7.tar.gz 148281411-Feb-2009 04:45
DevIL-1.7.8.tar.gz 205199310-Mar-2009 02:33
DevVNC_unix.tgz 248657126-Jun-2001 21:49
Devel-Arena-0.14.tar.gz 3672921-May-2005 23:37
Devel-Arena-0.17.tar.gz 3754708-Jun-2005 11:18
Devel-Arena-0.19.tar.gz 4053011-Jun-2005 23:18
Devel-Arena-0.22.tar.gz 4175608-Jan-2006 11:36
Devel-Arena-0.23.tar.gz 4219127-Feb-2006 18:34
Devel-ArgNames-0.03.tar.gz 295202-Jan-2008 16:02
Devel-Backtrace-0.12.tar.gz 1353827-Jan-2009 00:06
Devel-Caller-0.11.tar.gz 724709-Jul-2006 01:58
Devel-Caller-2.03.tar.gz 549701-Mar-2008 18:44
Devel-Caller-2.04.tar.gz 560316-Feb-2010 21:46
Devel-Caller-2.05.tar.gz 571608-Apr-2010 12:42
Devel-Caller-Perl-1.4.tar.gz 258112-Sep-2003 14:07
Devel-Callsite-0.04.tar.gz 194114-Aug-2008 16:21
Devel-CheckLib-0.6.tar.gz 1024020-May-2009 13:47
Devel-CheckLib-0.7.tar.gz 1139325-Aug-2010 01:31
Devel-CheckLib-0.8.tar.gz 1165915-Sep-2010 20:50
Devel-CheckLib-0.9.tar.gz 1176329-Sep-2010 16:23
Devel-CheckOS-1.50.tar.gz 2532611-Nov-2008 23:55
Devel-CheckOS-1.61.tar.gz 2927425-Apr-2009 11:18
Devel-CheckOS-1.63.tar.gz 2964129-May-2010 17:48
Devel-Constants-0.20.tar.gz 477915-Aug-2004 02:09
Devel-Constants-1.00.tar.gz 608514-Jul-2005 07:31
Devel-CoreStack-1.3.tar.gz 766507-Jul-1996 19:35
Devel-Cover-0.53.tar.gz 10356417-Apr-2005 18:11
Devel-Cover-0.55.tar.gz 11671721-Sep-2005 23:21
Devel-Cover-0.58.tar.gz 12059606-Aug-2006 20:28
Devel-Cover-0.59.tar.gz 12091423-Aug-2006 06:54
Devel-Cover-0.61.tar.gz 12396710-Jan-2007 21:03
Devel-Cover-0.63.tar.gz 13921301-Mar-2008 18:44
Devel-Cover-0.64.tar.gz 13871710-Apr-2008 13:19
Devel-Cover-0.65.tar.gz 13780408-Aug-2009 01:00
Devel-Cover-0.67.tar.gz 14606608-May-2010 19:14
Devel-Cover-0.68.tar.gz 15022205-Aug-2010 11:10
Devel-Cover-0.70.tar.gz 15290229-Aug-2010 21:55
Devel-Cover-0.71.tar.gz 15399310-Sep-2010 14:12
Devel-Cover-0.73.tar.gz 16790401-Oct-2010 22:48
Devel-Cycle-1.03.tar.gz 451409-Apr-2005 05:53
Devel-Cycle-1.04.tar.gz 499827-Apr-2005 14:43
Devel-Cycle-1.07.tar.gz 601924-May-2006 02:32
Devel-Cycle-1.09.tar.gz 653514-Apr-2008 17:04
Devel-Cycle-1.10.tar.gz 679209-Jul-2008 01:31
Devel-Cycle-1.11.tar.gz 684324-Aug-2009 12:57
Devel-DProfPP-1.3.tar.gz 643109-Dec-2004 04:23
Devel-Declare-0.001011.tar.gz 2564604-Jun-2008 14:30
Devel-Declare-0.002000.tar.gz 2812119-Sep-2008 09:26
Devel-Declare-0.003003.tar.gz 3321427-Oct-2008 20:37
Devel-Declare-0.003004.tar.gz 3471611-Dec-2008 14:05
Devel-Declare-0.004000.tar.gz 4088410-Apr-2009 00:20
Devel-Declare-0.005002.tar.gz 4124410-May-2009 00:06
Devel-Declare-0.005006.tar.gz 4296516-Jun-2009 16:25
Devel-Declare-0.005011.tar.gz 4483114-Aug-2009 00:20
Devel-Declare-0.006000.tar.gz 4625509-Mar-2010 01:53
Devel-Diagram-1.00.tar.gz 1817122-Jun-2003 06:16
Devel-Ditto-0.06.tar.gz 464226-May-2009 20:59
Devel-Dumpvar-0.04.tar.gz 2463512-Nov-2007 02:37
Devel-Dumpvar-1.05.tar.gz 2878619-May-2009 12:29
Devel-Dumpvar-1.06.tar.gz 2899318-Jan-2010 14:42
Devel-EvalContext-0.08.tar.gz 506206-Oct-2006 14:51
Devel-EvalContext-0.09.tar.gz 516226-Oct-2007 13:50
Devel-Events-0.05.tar.gz 1762521-Mar-2008 22:29
Devel-Events-0.06.tar.gz 1765322-Jun-2008 03:53
Devel-Events-0.07.tar.gz 1734821-Sep-2009 10:49
Devel-Events-0.08.tar.gz 1741708-Oct-2009 16:04
Devel-Events-Objects-0.05.tar.gz 742221-Jun-2008 18:10
Devel-Gladiator-0.01.tar.gz 3301402-Oct-2008 13:45
Devel-GlobalDestruction-0.02.tar.gz 4154309-Aug-2008 05:01
Devel-Leak-0.03.tar.gz 323318-Mar-2004 17:27
Devel-Leak-Object-0.90.tar.gz 2279529-Aug-2007 07:23
Devel-Leak-Object-0.91.tar.gz 2283626-Oct-2007 13:50
Devel-Leak-Object-0.92.tar.gz 2324911-Dec-2007 05:02
Devel-Leak-Object-1.00.tar.gz 2874822-Oct-2009 00:57
Devel-Leak-Object-1.01.tar.gz 3247016-Jun-2010 03:59
Devel-LeakGuard-Object-0.06.tar.gz 2186824-Jun-2009 15:39
Devel-LeakTrace-0.05.tar.gz 436019-Sep-2003 15:46
Devel-LeakTrace-Fast-0.11.tar.gz 1291022-Nov-2007 20:21
Devel-LexAlias-0.04.tar.gz 288826-Jul-2002 00:10
Devel-Messenger-0.01.tar.gz 707016-Jul-2001 16:39
Devel-Messenger-0.02.tar.gz 737502-May-2008 14:20
Devel-Modlist-0.5.tar.gz 572327-Apr-2002 09:45
Devel-Modlist-0.7.tar.gz 660821-Jul-2006 18:16
Devel-Modlist-0.71.tar.gz 824315-Sep-2006 02:30
Devel-Modlist-0.801.tar.gz 999105-Sep-2008 09:41
Devel-NYTProf-2.05.tar.gz 15219508-Oct-2008 22:42
Devel-NYTProf-2.07.tar.gz 16828001-Nov-2008 08:15
Devel-NYTProf-2.08.tar.gz 18510015-Feb-2009 20:26
Devel-NYTProf-2.09.tar.gz 18927829-Mar-2009 21:55
Devel-NYTProf-2.10.tar.gz 19775423-Jun-2009 21:29
Devel-NYTProf-3.00.tar.gz 38042624-Dec-2009 21:40
Devel-NYTProf-3.01.tar.gz 38319528-Dec-2009 22:58
Devel-NYTProf-3.02.tar.gz 38926705-Mar-2010 00:21
Devel-NYTProf-3.11.tar.gz 39283316-Mar-2010 20:02
Devel-NYTProf-4.02.tar.gz 40397617-Jun-2010 15:08
Devel-NYTProf-4.03.tar.gz 40550019-Jun-2010 19:01
Devel-NYTProf-4.04.tar.gz 40476409-Jul-2010 13:21
Devel-NYTProf-4.05.tar.gz 40755717-Sep-2010 14:37
Devel-ObjectTracker-0.4.tar.gz 1075306-Sep-2002 16:01
Devel-PPPort-3.06.tar.gz 12122602-Feb-2005 21:53
Devel-PPPort-3.08.tar.gz 13439019-Jan-2006 18:40
Devel-PPPort-3.10.tar.gz 14820314-Aug-2006 19:31
Devel-PPPort-3.11.tar.gz 15206214-Feb-2007 13:10
Devel-PPPort-3.13.tar.gz 16563426-Oct-2007 13:50
Devel-PPPort-3.14.tar.gz 16822001-Jun-2008 12:08
Devel-PPPort-3.16.tar.gz 17926723-Jan-2009 17:33
Devel-PPPort-3.17.tar.gz 18168215-Mar-2009 15:45
Devel-PPPort-3.19.tar.gz 18421414-Jun-2009 09:59
Devel-PartialDump-0.07.tar.gz 685629-Sep-2008 18:31
Devel-PartialDump-0.08.tar.gz 699316-May-2009 13:22
Devel-PartialDump-0.09.tar.gz 732630-Jun-2009 04:05
Devel-PartialDump-0.12.tar.gz 744108-Nov-2009 13:29
Devel-PartialDump-0.13.tar.gz 752308-Jan-2010 22:55
Devel-Peek-0.96.tar.gz 1575915-Aug-2004 02:09
Devel-Pointer-1.00.tar.gz 263605-Sep-2001 16:35
Devel-Profile-1.04.tar.gz 671706-May-2004 14:05
Devel-Profile-1.05.tar.gz 710108-Mar-2007 05:04
Devel-Profiler-0.04.tar.gz 1639510-Jun-2002 21:23
Devel-REPL-1.003007.tar.gz 4408202-Jul-2009 17:20
Devel-REPL-1.003009.tar.gz 4922608-Mar-2010 07:45
Devel-REPL-1.003010.tar.gz 5268723-May-2010 05:42
Devel-REPL-1.003011.tar.gz 5444415-Jun-2010 04:01
Devel-REPL-1.003012.tar.gz 5461028-Sep-2010 02:45
Devel-Refactor-0.05.tar.gz 1010917-Mar-2005 22:58
Devel-Required-0.07.tar.gz 563324-Jul-2006 06:04
Devel-Required-0.08.tar.gz 571413-Jul-2007 12:42
Devel-RingBuffer-0.31.tar.gz 3740127-Aug-2006 20:57
Devel-STrace-0.31.tar.gz 1869127-Aug-2006 20:57
Devel-SimpleTrace-0.06.tar.gz 1521013-Aug-2005 20:20
Devel-SimpleTrace-0.07.tar.gz 1563313-Jan-2008 01:33
Devel-Size-0.59.tar.gz 872601-Dec-2004 04:40
Devel-Size-0.63.tar.gz 1121601-Jul-2005 16:43
Devel-Size-0.64.tar.gz 1140419-Dec-2005 23:51
Devel-Size-0.66.tar.gz 2386302-Mar-2007 16:38
Devel-Size-0.67.tar.gz 2403715-Mar-2007 18:06
Devel-Size-0.68.tar.gz 2539612-Jun-2007 20:22
Devel-Size-0.69.tar.gz 2579312-Aug-2007 14:05
Devel-Size-0.71.tar.gz 2875324-Aug-2008 12:49
Devel-Size-Report-0.13.tar.gz 3203406-Apr-2008 17:43
Devel-SmallProf-2.00_03.tar.gz 907028-Oct-2004 11:59
Devel-SmallProf-2.02.tar.gz 936711-May-2007 10:05
Devel-StackTrace-1.11.tar.gz 907915-Aug-2004 02:09
Devel-StackTrace-1.12.tar.gz 942330-Sep-2005 05:47
Devel-StackTrace-1.13.tar.gz 944801-Apr-2006 04:51
Devel-StackTrace-1.14.tar.gz 1696716-Mar-2007 15:29
Devel-StackTrace-1.15.tar.gz 1758728-Apr-2007 20:07
Devel-StackTrace-1.16.tar.gz 1783201-Mar-2008 18:44
Devel-StackTrace-1.18.tar.gz 1876231-Mar-2008 14:16
Devel-StackTrace-1.1901.tar.gz 1935213-Jun-2008 23:46
Devel-StackTrace-1.1902.tar.gz 1965116-Jul-2008 13:20
Devel-StackTrace-1.20.tar.gz 1968526-Oct-2008 01:44
Devel-StackTrace-1.21.tar.gz 2045302-Jul-2009 04:50
Devel-StackTrace-1.22.tar.gz 2046415-Jul-2009 19:51
Devel-StackTrace-1.23.tar.gz 1748828-Aug-2010 01:47
Devel-StackTrace-1.24.tar.gz 1799703-Sep-2010 14:18
Devel-StackTrace-1.25.tar.gz 1813406-Sep-2010 14:54
Devel-StackTrace-1.26.tar.gz 1836115-Oct-2010 15:25
Devel-StackTrace-AsHTML-0.03.tar.gz 4709809-Oct-2009 09:12
Devel-StackTrace-AsHTML-0.05.tar.gz 4748311-Dec-2009 01:54
Devel-StackTrace-AsHTML-0.07.tar.gz 4977727-Mar-2010 13:33
Devel-StackTrace-AsHTML-0.09.tar.gz 5023829-Mar-2010 06:04
Devel-StackTrace-WithLexicals-0.03.tar.gz 1687224-Dec-2008 03:50
Devel-StackTrace-WithLexicals-0.05.tar.gz 1940913-Dec-2009 12:10
Devel-StackTrace-WithLexicals-0.06.tar.gz 2258719-Jul-2010 22:28
Devel-StealthDebug-1.008.tar.gz 1041703-Nov-2002 16:20
Devel-Symdump-2.03.tar.gz 983418-Apr-2002 20:13
Devel-Symdump-2.05.tar.gz 1338502-Jan-2006 21:32
Devel-Symdump-2.06.tar.gz 1405618-Jan-2006 04:59
Devel-Symdump-2.0601.tar.gz 1431621-Jul-2006 18:16
Devel-Symdump-2.0602.tar.gz 1455119-Jul-2006 03:07
Devel-Symdump-2.0603.tar.gz 1480120-Sep-2006 20:36
Devel-Symdump-2.07.tar.gz 1482805-Jan-2007 04:28
Devel-Symdump-2.08.tar.gz 1508911-Oct-2007 05:21
Devel-Timer-0.04.tar.gz 1484712-Aug-2007 04:31
Devel-Trace-0.10.tar.gz 250607-Sep-1999 04:54
Devel-TraceCalls-0.04.tar.gz 2084726-Apr-2005 21:05
Devel-TraceSAX-0.021.tar.gz 533206-Feb-2002 09:35
Devel-TraceUse-1.00.tar.gz 462811-Jul-2006 05:01
Devel-TraceUse-2.01.tar.gz 777311-May-2010 07:42
Devel-ebug-0.48.tar.gz 2605530-Apr-2007 18:50
Devel-ebug-0.49.tar.gz 2592816-Oct-2008 19:13
Devel-ptkdb-1.1086.tar.gz 3827909-Apr-2005 05:53
Devel-ptkdb-1.1091.tar.gz 3951626-Apr-2004 17:06
Device-Gsm-1.41.tar.gz 4870521-Apr-2006 03:43
Device-Gsm-1.46.tar.gz 5650519-Dec-2006 21:16
Device-Gsm-1.48.tar.gz 5705826-Oct-2007 13:50
Device-Gsm-1.49.tar.gz 5720209-Aug-2008 13:35
Device-Gsm-1.52.tar.gz 5881725-Nov-2008 20:28
Device-Gsm-1.54.tar.gz 5045006-Sep-2009 08:50
Device-Gsm-1.55.tar.gz 4607227-Jun-2010 16:16
Device-Modem-1.43.tar.gz 3985509-Apr-2005 05:53
Device-Modem-1.44.tar.gz 4555530-Apr-2005 21:52
Device-Modem-1.46.tar.gz 4665915-Nov-2005 22:43
Device-Modem-1.47.tar.gz 4714620-Apr-2006 20:37
Device-Modem-1.48.tar.gz 4228526-Oct-2007 13:50
Device-Modem-1.50.tar.gz 4209330-Sep-2008 21:04
Device-Modem-1.51.tar.gz 4226805-Jul-2009 08:06
Device-SerialPort-1.002.tar.gz 12454309-Nov-2004 22:06
Device-SerialPort-1.003001.tar.gz 12720026-Oct-2007 13:50
Device-SerialPort-1.04.tar.gz 9870624-Oct-2007 05:59
Device-USB-0.21.tar.gz 2746311-May-2007 21:20
Device-USB-0.29.tar.gz 2966602-Apr-2009 23:10
Dialog-0.03.tar.gz 773614-Nov-2000 20:17
Diff-0.1.2.tar.gz 279922-Mar-2008 19:01
Digest-1.10.tar.gz 712218-Dec-2004 02:03
Digest-1.11.tar.gz 716411-Sep-2005 11:14
Digest-1.13.tar.gz 719818-Oct-2005 11:59
Digest-1.14.tar.gz 737426-Nov-2005 10:10
Digest-1.15.tar.gz 783120-Mar-2006 15:18
Digest-1.16.tar.gz 826209-Jun-2009 18:58
Digest-Adler32-0.03.tar.gz 210530-Nov-2003 11:00
Digest-BubbleBabble-0.01.tar.gz 246803-May-2001 01:34
Digest-CRC-0.09.tar.gz 591405-Jul-2004 21:48
Digest-CRC-0.10.tar.gz 629218-Mar-2006 20:30
Digest-CRC-0.14.tar.gz 651201-Mar-2008 18:44
Digest-CRC-0.16.tar.gz 718729-Sep-2010 11:37
Digest-Crc32-0.01.tar.gz 170424-Dec-2004 18:02
Digest-DJB-1.00.tar.gz 192628-Mar-2005 23:13
Digest-DMAC-1.1.4.tar.gz 1021020-May-2003 08:00
Digest-EMAC-1.2.tar.gz 1034803-Jul-2004 05:16
Digest-Elf-1.4.tar.gz 267827-Jun-2003 04:27
Digest-FNV-1.00.tar.gz 524528-Mar-2005 23:13
Digest-FNV-2.00.tar.gz 5075503-Sep-2010 14:00
Digest-HMAC-1.01.tar.gz 1362314-Mar-2001 06:02
Digest-HMAC-1.02.tar.gz 698910-Jan-2010 22:05
Digest-Hashcash-0.04.tgz 2113108-Aug-2005 19:21
Digest-Haval256-1.0.5.tar.gz 2425718-Aug-2004 15:43
Digest-JHash-0.02.tar.gz 703120-Dec-2003 03:47
Digest-JHash-0.05.tar.gz 954906-Jun-2008 13:50
Digest-JHash-0.06.tar.gz 962926-Jul-2010 14:24
Digest-JHash-0.07.tar.gz 850204-Sep-2010 18:43
Digest-MD2-2.03.tar.gz 1705406-Oct-2003 10:52
Digest-MD4-1.5.tar.gz 2944217-Nov-2004 11:14
Digest-MD5-2.33.tar.gz 4422407-Dec-2003 10:31
Digest-MD5-2.36.tar.gz 4468730-Nov-2005 13:55
Digest-MD5-2.38.tar.gz 4534514-Nov-2008 13:50
Digest-MD5-2.39.tar.gz 4525509-Jun-2009 20:21
Digest-MD5-2.40.tar.gz 4568603-Jul-2010 14:01
Digest-MD5-2.50.tar.gz 4584326-Sep-2010 05:12
Digest-MD5-2.51.tar.gz 4596401-Oct-2010 02:46
Digest-MD5-File-0.04.tar.gz 453905-Jan-2006 05:31
Digest-MD5-File-0.05.tar.gz 466808-Jun-2006 00:07
Digest-MD5-File-0.06.tar.gz 494801-Mar-2008 18:44
Digest-MD5-File-0.07.tar.gz 512225-Jul-2008 02:16
Digest-MD5-M4p-0.01.tar.gz 992530-Apr-2004 05:10
Digest-MD5-Reverse-1.0.tar.gz 296905-Nov-2005 11:26
Digest-MD5-Reverse-1.3.tar.gz 405501-Nov-2007 09:27
Digest-ManberHash-0.7.tar.gz 353411-Mar-2004 06:51
Digest-Nilsimsa-0.06.tar.gz 7906514-Jun-2002 02:55
Digest-Pearson-1.00.tar.gz 295228-Mar-2005 23:12
Digest-Pearson-PurePerl-1.00.tar.gz 261429-Mar-2005 20:24
Digest-Perl-MD4-1.4.tar.gz 664618-Jan-2004 02:59
Digest-Perl-MD5-1.8.tar.gz 7407728-Aug-2004 00:16
Digest-SHA-5.31.tar.gz 4515205-Sep-2005 08:36
Digest-SHA-5.32.tar.gz 4546602-Dec-2005 10:13
Digest-SHA-5.34.tar.gz 7082803-Feb-2006 02:22
Digest-SHA-5.41.tar.gz 7287221-Jul-2006 18:16
Digest-SHA-5.43.tar.gz 7353405-Aug-2006 10:13
Digest-SHA-5.44.tar.gz 4194614-Oct-2006 07:59
Digest-SHA-5.45.tar.gz 3936226-Jun-2007 10:20
Digest-SHA-5.47.tar.gz 3986430-Apr-2008 11:17
Digest-SHA-5.48.tar.gz 4000205-Jan-2010 02:07
Digest-SHA-PurePerl-5.32.tar.gz 3117802-Dec-2005 10:13
Digest-SHA-PurePerl-5.41.tar.gz 3405221-Jul-2006 18:16
Digest-SHA-PurePerl-5.43.tar.gz 3476205-Aug-2006 10:14
Digest-SHA-PurePerl-5.44.tar.gz 3334814-Oct-2006 08:01
Digest-SHA-PurePerl-5.45.tar.gz 3051426-Jun-2007 10:21
Digest-SHA-PurePerl-5.46.tar.gz 3064809-Apr-2008 12:41
Digest-SHA-PurePerl-5.47.tar.gz 3070630-Apr-2008 11:18
Digest-SHA-PurePerl-5.48.tar.gz 3141405-Jan-2010 02:07
Digest-SHA1-2.10.tar.gz 3869805-Apr-2004 07:22
Digest-SHA1-2.11.tar.gz 3872318-Jan-2006 11:33
Digest-SHA1-2.12.tar.gz 3907323-May-2009 11:22
Digest-SHA1-2.13.tar.gz 3907803-Jul-2010 13:25
Digest-SHA2-1.1.0.tar.gz 6000815-Dec-2003 20:49
Digest-SHA2-1.1.1.tar.gz 6004507-Jul-2007 19:53
Digest-SV1-0.01.tar.gz 397624-Aug-2004 13:22
Digest-Tiger-0.02.tar.gz 1987216-Jun-2002 22:40
Digest-TransformPath-1.00.tar.gz 2166904-Sep-2006 01:14
Digest-Whirlpool-1.0.3.tar.gz 4778918-Aug-2004 15:45
Digest-Whirlpool-1.0.5.tar.gz 9206630-Jan-2007 03:20
Digest-Whirlpool-1.0.6.tar.gz 9344907-Jul-2007 18:15
Digest-Whirlpool-1.09.tar.gz 7699519-Oct-2009 13:33
Digital-Cream.tar.bz2 16538418-Aug-2006 09:09
Digital-Harmony.tar.gz 21073418-Aug-2006 09:09
Dir-Project-3.000.tar.gz 984214-Jul-2006 15:52
Dir-Project-3.002.tar.gz 1047405-Apr-2007 12:45
Dir-Project-3.010.tar.gz 1051624-Apr-2007 18:06
Dir-Project-3.011.tar.gz 1062205-Jul-2007 15:28
Dir-Project-3.012.tgz 1115210-Jun-2008 17:09
Dir-Project-3.015.tar.gz 1187225-Jun-2009 01:18
Dir-Project-3.016.tar.gz 1190114-Jul-2009 01:39
Dir-Project-3.017.tar.gz 1329213-Jan-2010 00:00
Dir-Project-3.020.tar.gz 1412322-Apr-2010 17:50
Dir-Project-3.021.tar.gz 1424704-Aug-2010 14:31
Dir-Purge-1.01.tar.gz 595821-Jul-2006 18:16
Dir-Purge-1.02.tar.gz 620619-Sep-2006 12:51
Dir-Watch-0.0.0.tar.gz 346218-Dec-2009 17:32
DirBuster-1.0-RC1.zip 690348227-Feb-2009 10:12
DirComp-1.3.01.tar.bz2 34448808-Jun-2006 01:05
DirComp-1.3.03.tar.bz2 36859422-Mar-2007 19:50
DirComp-1.3.10.tar.gz 65453617-Nov-2009 16:42
DirectFB-0.9.16.tar.gz 91504510-Oct-2004 07:58
DirectFB-1.1.1.tar.gz 261420315-Dec-2007 16:26
DirectFB-1.4.3.tar.gz 289821508-Dec-2009 20:58
Directory-Queue-0.5.tar.gz 1268121-Jun-2010 07:55
Directory-Queue-0.6.tar.gz 1302708-Jul-2010 13:15
Directory-Queue-1.0.tar.gz 1306613-Aug-2010 09:23
Directory-Scratch-0.12.tar.gz 3825925-Jan-2007 10:09
Directory-Scratch-0.13.tar.gz 3952201-Nov-2007 09:27
Directory-Scratch-0.14.tar.gz 2844409-Jun-2008 01:35
Directory-Scratch-Structured-0.03.tar.gz 615904-Jan-2008 21:27
Directory-Scratch-Structured-0.04.tar.gz 412517-Dec-2008 23:01
DocSet-0.19.tar.gz 37658403-Oct-2005 06:28
DrIFT-2.1.0.tar.gz 24071401-Dec-2004 10:02
DrIFT-2.2.0.tar.gz 25204310-Apr-2006 07:49
DrIFT-2.2.1.tar.gz 27079526-Oct-2007 13:50
DrIFT-2.2.3.tar.gz 21932110-Feb-2008 14:47
DroidSans-Bold.ttf 19103224-Aug-2010 09:34
DroidSans.ttf 19004424-Aug-2010 09:34
DroidSansArabic.ttf 3590824-Aug-2010 09:34
DroidSansFallback.ttf 364026424-Aug-2010 09:34
DroidSansFallbackLegacy.ttf 308190824-Aug-2010 09:34
DroidSansHebrew.ttf 2307624-Aug-2010 09:35
DroidSansJapanese.ttf 117314024-Aug-2010 09:35
DroidSansMono.ttf 11707224-Aug-2010 09:35
DroidSansThai.ttf 3602824-Aug-2010 09:35
DroidSerif-Bold.ttf 18483624-Aug-2010 09:35
DroidSerif-BoldItalic.ttf 18991624-Aug-2010 09:35
DroidSerif-Italic.ttf 17717624-Aug-2010 09:35
DroidSerif-Regular.ttf 17253224-Aug-2010 09:35
Duncan-0.1.tar.gz 203595504-Apr-2004 05:40
Durus-3.6.tar.gz 5507109-Feb-2007 12:55
Durus-3.7.tar.gz 6888103-Aug-2007 11:06
Durus-3.8.tar.gz 7149119-Aug-2009 07:48
Durus-3.9.tar.gz 6927123-Aug-2009 00:50
Dutch.zip 1982024-Jul-2008 09:05
E-FancyLauncher-0.7.tgz 21819813-Mar-2000 09:34
E-Run-1.2.tar.gz 501715-Apr-2001 23:47
E-buttons-0.2.tar.gz 528916-Jun-2009 07:40
E-buttons-0.2.tgz 528924-May-2006 20:43
EBook-Tools-0.4.3.tar.gz 60281412-Feb-2009 20:44
EBook-Tools-0.4.6.tar.gz 60287908-Sep-2009 02:46
EBook-Tools-0.4.8.tar.gz 60455909-Mar-2010 14:37
EFXmms-0.0.3.tar.bz2 10615406-Aug-2002 14:11
ELFIO-1.0.0.tar.gz 24202115-Aug-2004 02:09
ELFIO-1.0.2.tar.gz 27480723-Apr-2005 14:10
ELFIO-1.0.3.tar.gz 30856005-Nov-2005 23:48
EMBOSS-2.10.0.tar.gz 1626212419-Feb-2005 22:51
EMBOSS-2.9.0.tar.gz 1447927401-Dec-2004 04:40
ENTITY-MIB.txt 4548606-Dec-2003 13:42
ET-2.60b.zip 414340108-May-2006 12:46
ETL-0.04.09.tar.gz 33025620-Jun-2007 13:43
ETL-0.04.12.tar.gz 32440322-Oct-2008 17:44
ETL-0.04.13.tar.gz 35482312-Oct-2009 10:21
ETL-0.4.11.tar.gz 33805402-Mar-2008 20:00
EV-3.42.tar.gz 11967026-May-2008 05:37
EV-3.43.tar.gz 12180808-Jul-2008 18:57
EV-3.431.tar.gz 12188412-Jul-2008 22:18
EV-3.44.tar.gz 12386929-Sep-2008 03:17
EV-3.45.tar.gz 12546721-Oct-2008 20:28
EV-3.48.tar.gz 12936530-Oct-2008 08:26
EV-3.51.tar.gz 13194024-Dec-2008 22:06
EV-3.52.tar.gz 13289807-Jan-2009 20:54
EV-3.53.tar.gz 13330715-Feb-2009 01:44
EV-3.6.tar.gz 13915828-Apr-2009 00:51
EV-3.8.tar.gz 15126809-Aug-2009 13:31
EV-3.9.tar.gz 15355631-Dec-2009 07:01
EV-4.00.tar.gz 16716625-Oct-2010 18:31
EZFM-0.4-src.tgz 95238407-Oct-1999 20:11
EZWGL-1.50-demo.tgz 92098111-Dec-1999 07:05
EZWGL-1.50-doc.tgz 222429502-Feb-2001 19:53
EZWGL-1.50-src.tgz 92924201-Mar-2005 15:02
EasyDiff-0.4.0.tar.gz 3462609-Mar-2009 14:58
EasySoap++-0.6.tar.gz 27367612-Apr-2002 17:43
EasySoap++-0.8.0.tar.gz 48329610-Nov-2006 18:23
EasyTCP-0.23.tar.gz 2728309-Apr-2005 05:53
EasyTCP-0.26.tar.gz 2871206-Apr-2004 02:50
Eclipse.tar.gz 3090506-May-2001 20:36
EdenMath_GNUstep-1.1.1.tar.gz 3980711-May-2005 11:10
Editor-2.4.tar.gz 8137706-Dec-1996 05:00
Eiffel57_gpl_64493-freebsd-x86-64.tar.gz 6279128201-Jan-2008 14:33
Eiffel57_gpl_64493-freebsd-x86.tar.gz 6102031524-Oct-2006 08:40
ElectricFence-2.2.2.tar.gz 2824717-Aug-1999 00:06
Elixir-0.1.0.tar.gz 8827712-Feb-2007 19:48
Elixir-0.3.0.tar.gz 9971527-Mar-2007 16:42
Elixir-0.5.1.tar.gz 10302019-Mar-2008 13:56
Elixir-0.5.2.tar.gz 10414628-Mar-2008 19:50
Elixir-0.6.0.tar.gz 11014422-Jul-2008 10:15
Elixir-0.6.1.tar.gz 11118818-Aug-2008 16:49
Elixir-0.7.0.tar.gz 12193701-Oct-2009 14:45
Elixir-0.7.1.tar.gz 4711016-Nov-2009 12:33
Email-Abstract-2.01.tar.gz 626705-Nov-2004 01:19
Email-Abstract-2.13.tar.gz 839624-Jul-2006 23:29
Email-Abstract-2.131.tar.gz 859522-Aug-2006 12:27
Email-Abstract-2.132.tar.gz 1565922-Mar-2007 19:06
Email-Abstract-2.134.tar.gz 1762401-Mar-2008 18:44
Email-Abstract-3.001.tar.gz 1803711-Dec-2008 13:20
Email-Abstract-3.002.tar.gz 1738412-Jun-2010 00:45
Email-Address-1.80.tar.gz 2063122-Oct-2004 16:37
Email-Address-1.86.tar.gz 2278622-Jul-2006 00:42
Email-Address-1.870.tar.gz 2133910-Aug-2006 16:48
Email-Address-1.884.tar.gz 3240005-Dec-2006 03:41
Email-Address-1.886.tar.gz 3292201-Mar-2007 20:18
Email-Address-1.887.tar.gz 3298801-Apr-2007 19:15
Email-Address-1.888.tar.gz 3329523-Jun-2007 01:27
Email-Address-1.889.tar.gz 3349101-Mar-2008 18:44
Email-Address-1.892.tar.gz 3330003-Sep-2010 23:45
Email-Date-1.03.tar.gz 305624-Sep-2004 00:04
Email-Date-1.101.tar.gz 426701-Aug-2006 11:09
Email-Date-1.102.tar.gz 1155522-Mar-2007 19:20
Email-Date-1.103.tar.gz 1112401-Mar-2008 18:44
Email-Date-Format-1.002.tar.gz 1015001-Mar-2008 18:44
Email-Delete-1.02.tar.gz 363317-Dec-2004 18:41
Email-Delete-1.021.tar.gz 1108913-Nov-2006 18:31
Email-Delete-1.022.tar.gz 1121515-Feb-2007 13:27
Email-Delete-2.001.tar.gz 1132615-Sep-2008 02:14
Email-Filter-1.02.tar.gz 790206-Nov-2004 18:58
Email-Filter-1.03.tar.gz 807922-Jul-2006 00:47
Email-Filter-1.031.tar.gz 1517823-Mar-2007 12:41
Email-Filter-1.032.tar.gz 1525515-Sep-2008 03:30
Email-Find-0.09.tar.gz 3927413-Jan-2002 12:55
Email-Find-0.10.tar.gz 3951116-Jan-2007 19:45
Email-Folder-0.84.tar.gz 3429817-Dec-2004 12:36
Email-Folder-0.85.tar.gz 3435704-Apr-2006 09:20
Email-Folder-0.851.tar.gz 2645501-Aug-2006 13:28
Email-Folder-0.852.tar.gz 2669622-Aug-2006 12:38
Email-Folder-0.853.tar.gz 3403923-Mar-2007 12:46
Email-Folder-0.854.tar.gz 3426401-Mar-2008 18:44
Email-Folder-IMAP-1.02.tar.gz 234518-Aug-2004 00:34
Email-Folder-IMAP-1.10.tar.gz 261011-Jul-2006 15:12
Email-Folder-IMAP-1.102.tar.gz 995301-Apr-2007 15:39
Email-Folder-IMAPS-1.04.tar.gz 212904-May-2005 02:15
Email-Folder-IMAPS-1.10.tar.gz 244411-Jul-2006 15:20
Email-Folder-IMAPS-1.102.tar.gz 972501-Apr-2007 15:42
Email-Folder-POP3-1.01.tar.gz 215329-Dec-2004 01:35
Email-Folder-POP3-1.011.tar.gz 236101-Aug-2006 13:29
Email-Folder-POP3-1.012.tar.gz 969722-Mar-2007 21:07
Email-Folder-POP3-1.013.tar.gz 975901-Mar-2008 18:44
Email-FolderType-0.8.tar.gz 1155607-Jan-2005 10:54
Email-FolderType-0.810.tar.gz 1141002-Aug-2006 13:32
Email-FolderType-0.812.tar.gz 1215928-Aug-2006 21:00
Email-FolderType-0.813.tar.gz 1941922-Mar-2007 20:05
Email-FolderType-Net-1.04.tar.gz 211804-May-2005 02:14
Email-FolderType-Net-1.041.tar.gz 972522-Mar-2007 19:25
Email-LocalDelivery-0.09.tar.gz 450917-Dec-2004 17:13
Email-LocalDelivery-0.21.tar.gz 487022-Jul-2006 00:50
Email-LocalDelivery-0.214.tar.gz 1230122-Feb-2007 13:14
Email-LocalDelivery-0.215.tar.gz 1231215-Apr-2007 13:07
Email-LocalDelivery-0.217.tar.gz 1267421-Jun-2007 18:58
Email-LocalDelivery-Ezmlm-0.10.tar.gz 227629-Aug-2003 12:44
Email-MIME-1.82.tar.gz 8123418-Nov-2004 01:02
Email-MIME-1.85.tar.gz 8183013-Jul-2006 12:09
Email-MIME-1.852.tar.gz 8253606-Sep-2006 03:22
Email-MIME-1.857.tar.gz 9061528-Nov-2006 02:45
Email-MIME-1.858.tar.gz 9091410-Feb-2007 03:53
Email-MIME-1.859.tar.gz 9100821-Mar-2007 02:13
Email-MIME-1.860.tar.gz 9108414-Jul-2007 02:17
Email-MIME-1.861.tar.gz 9105901-Mar-2008 18:44
Email-MIME-1.863.tar.gz 9150030-Jan-2009 13:35
Email-MIME-1.901.tar.gz 10456205-Nov-2009 19:29
Email-MIME-1.902.tar.gz 10463111-Nov-2009 20:53
Email-MIME-1.903.tar.gz 10449223-Dec-2009 14:14
Email-MIME-1.905.tar.gz 10502106-Sep-2010 13:25
Email-MIME-Attachment-Stripper-1.31.tar.gz 1457923-Dec-2004 21:51
Email-MIME-Attachment-Stripper-1.311.tar.gz 1492401-Aug-2006 13:29
Email-MIME-Attachment-Stripper-1.313.tar.gz 2282625-Nov-2006 14:17
Email-MIME-Attachment-Stripper-1.314.tar.gz 2293626-Oct-2007 13:50
Email-MIME-Attachment-Stripper-1.315.tar.gz 2447109-Jul-2008 01:30
Email-MIME-Attachment-Stripper-1.316.tar.gz 2434224-Jan-2009 03:21
Email-MIME-ContentType-1.01.tar.gz 321122-Feb-2005 00:30
Email-MIME-ContentType-1.012.tar.gz 1079725-Nov-2006 14:34
Email-MIME-ContentType-1.014.tar.gz 1117222-Mar-2007 19:54
Email-MIME-ContentType-1.015.tar.gz 1123824-Jan-2009 03:20
Email-MIME-CreateHTML-1.026.tar.gz 2354426-Oct-2006 12:29
Email-MIME-CreateHTML-1.030.tar.gz 2396612-Feb-2010 17:47
Email-MIME-Creator-1.41.tar.gz 441221-Jul-2006 18:16
Email-MIME-Creator-1.45.tar.gz 456813-Jul-2006 12:12
Email-MIME-Creator-1.453.tar.gz 1230219-Apr-2007 14:08
Email-MIME-Creator-1.454.tar.gz 1241801-Mar-2008 18:44
Email-MIME-Creator-1.455.tar.gz 1253520-Jan-2009 21:12
Email-MIME-Creator-ISO_2022_JP-0.02.tar.gz 463206-Nov-2009 17:26
Email-MIME-Encodings-1.3.tar.gz 252522-Oct-2004 20:16
Email-MIME-Encodings-1.310.tar.gz 258117-Sep-2006 21:28
Email-MIME-Encodings-1.311.tar.gz 1010622-Mar-2007 19:38
Email-MIME-Encodings-1.312.tar.gz 1022924-Jan-2009 03:16
Email-MIME-Encodings-1.313.tar.gz 1077817-Apr-2009 03:49
Email-MIME-Modifier-1.42.tar.gz 614123-Dec-2004 22:55
Email-MIME-Modifier-1.43.tar.gz 625813-Jul-2006 12:10
Email-MIME-Modifier-1.440.tar.gz 626617-Sep-2006 21:23
Email-MIME-Modifier-1.441.tar.gz 656428-Nov-2006 01:53
Email-MIME-Modifier-1.442.tar.gz 698016-Jul-2007 10:59
Email-MIME-Modifier-1.443.tar.gz 711924-Jan-2009 03:13
Email-MIME-Modifier-1.444.tar.gz 723330-Apr-2009 01:59
Email-MessageID-1.31.tar.gz 258123-Dec-2004 01:57
Email-MessageID-1.35.tar.gz 293811-Jul-2006 15:38
Email-MessageID-1.351.tar.gz 1029822-Mar-2007 19:59
Email-MessageID-1.400.tar.gz 1054902-Oct-2008 18:31
Email-MessageID-1.401.tar.gz 1069424-Jan-2009 03:24
Email-MessageID-1.402.tar.gz 1079415-Jul-2010 13:26
Email-Obfuscate-1.13.tar.gz 2244209-Dec-2003 11:07
Email-Reply-1.201.tar.gz 1332015-Feb-2007 13:58
Email-Reply-1.202.tar.gz 1335301-Mar-2008 18:44
Email-Send-2.00.tar.gz 939617-Dec-2005 18:19
Email-Send-2.04.tar.gz 1259328-Jan-2006 23:00
Email-Send-2.05.tar.gz 1265320-Apr-2006 15:30
Email-Send-2.171.tar.gz 1835229-Jul-2006 21:50
Email-Send-2.183.tar.gz 2587915-Dec-2006 00:23
Email-Send-2.185.tar.gz 2600105-Feb-2007 18:14
Email-Send-2.190.tar.gz 2492018-Sep-2007 19:28
Email-Send-2.192.tar.gz 2485001-Mar-2008 18:44
Email-Send-2.194.tar.gz 2548602-Jan-2009 22:20
Email-Send-2.197.tar.gz 2575313-Jun-2009 11:23
Email-Send-2.198.tar.gz 2588312-Jul-2009 17:04
Email-Sender-0.091661.tar.gz 3316515-Jun-2009 22:56
Email-Sender-0.091940.tar.gz 3345713-Jul-2009 00:58
Email-Sender-0.092840.tar.gz 3382311-Oct-2009 13:06
Email-Sender-0.093110.tar.gz 3479007-Nov-2009 18:48
Email-Sender-0.093380.tar.gz 3483804-Dec-2009 17:31
Email-Sender-0.100110.tar.gz 3488611-Jan-2010 15:45
Email-Sender-0.100460.tar.gz 3514015-Feb-2010 17:58
Email-Sender-0.102370.tar.gz 3681425-Aug-2010 12:43
Email-Sender-Transport-SQLite-0.091660.tar.gz 929915-Jun-2009 23:04
Email-Simple-1.92.tar.gz 1264512-Nov-2004 01:13
Email-Simple-1.96.tar.gz 1495528-Jul-2006 13:18
Email-Simple-1.970.tar.gz 1598217-Aug-2006 13:06
Email-Simple-1.992.tar.gz 1747105-Oct-2006 12:43
Email-Simple-1.996.tar.gz 2533527-Nov-2006 16:52
Email-Simple-1.998.tar.gz 2699307-Feb-2007 19:52
Email-Simple-1.999.tar.gz 2746620-Mar-2007 14:59
Email-Simple-2.003.tar.gz 2867720-Jul-2007 03:19
Email-Simple-2.004.tar.gz 2832925-Jun-2008 14:20
Email-Simple-2.005.tar.gz 2847124-Jan-2009 03:04
Email-Simple-2.100.tar.gz 3100704-Nov-2009 04:21
Email-Simple-Creator-1.4.tar.gz 286625-Jul-2004 20:30
Email-Simple-Creator-1.41.tar.gz 305711-Jul-2006 15:41
Email-Simple-Creator-1.420.tar.gz 1089322-Mar-2007 19:31
Email-Simple-Creator-1.422.tar.gz 1143413-Jul-2007 12:20
Email-Simple-Creator-1.424.tar.gz 1156201-Dec-2007 03:08
Email-Stuff-2.100.tar.gz 3567712-Aug-2009 02:55
Email-Stuff-2.101.tar.gz 3603112-Nov-2009 15:57
Email-Stuff-2.102.tar.gz 3663414-Feb-2010 19:32
Email-Valid-0.15.tar.gz 850408-Sep-2003 04:41
Email-Valid-0.175.tar.gz 948821-Jul-2006 18:16
Email-Valid-0.176.tar.gz 971828-Jul-2006 01:55
Email-Valid-0.179.tar.gz 1745327-Nov-2006 14:08
Email-Valid-0.181.tar.gz 1734923-Mar-2009 22:29
Email-Valid-0.182.tar.gz 1743204-Aug-2009 01:44
Email-Valid-0.184.tar.gz 1795811-Jun-2010 02:09
Email-Valid-Loose-0.04.tar.gz 267426-Feb-2004 09:28
Email-Valid-Loose-0.05.tar.gz 245726-Jun-2006 04:52
Encode-2.14.tar.gz 200599115-Jan-2006 15:57
Encode-2.16.tar.gz 199164003-May-2006 18:38
Encode-2.18.tar.gz 199377803-Jun-2006 20:34
Encode-2.19.tar.gz 199492406-Apr-2007 13:05
Encode-2.20.tar.gz 199509422-Apr-2007 15:17
Encode-2.23.tar.gz 199831929-May-2007 18:21
Encode-2.25.tar.gz 199975907-May-2008 21:06
Encode-2.26.tar.gz 199927201-Jul-2008 21:03
Encode-2.27.tar.gz 200078621-Jan-2009 23:01
Encode-2.29.tar.gz 200123501-Feb-2009 13:16
Encode-2.31.tar.gz 200130216-Feb-2009 06:25
Encode-2.33.tar.gz 200156625-Mar-2009 08:01
Encode-2.35.tar.gz 200260913-Jul-2009 02:32
Encode-2.37.tar.gz 200287906-Sep-2009 14:37
Encode-2.39.tar.gz 200036926-Nov-2009 09:31
Encode-2.40.tar.gz 199860519-Sep-2010 01:47
Encode-CNMap-0.32.tar.gz 34431716-Mar-2004 02:31
Encode-Detect-0.01.tar.gz 17527727-Oct-2005 20:54
Encode-Detect-1.00.tar.gz 17957527-Oct-2006 20:52
Encode-Detect-1.01.tar.gz 17969827-May-2008 20:50
Encode-DoubleEncodedUTF8-0.04.tar.gz 4056301-Oct-2009 01:46
Encode-EUCJPMS-0.07.tar.gz 9913525-Aug-2006 23:10
Encode-HanConvert-0.31.tar.gz 35087104-Jun-2004 07:25
Encode-HanConvert-0.33.tar.gz 23364212-Dec-2006 16:01
Encode-HanConvert-0.34.tar.gz 24600317-Jul-2007 01:49
Encode-HanConvert-0.35.tar.gz 24653026-Jan-2009 17:49
Encode-HanExtra-0.10.tar.gz 132873428-Nov-2004 19:01
Encode-HanExtra-0.21.tar.gz 147066826-Oct-2007 13:50
Encode-HanExtra-0.23.tar.gz 156668201-Mar-2008 18:44
Encode-IMAPUTF7-1.04.tar.gz 2526630-Apr-2009 18:23
Encode-IMAPUTF7-1.05.tar.gz 2564618-Jun-2010 11:14
Encode-JIS2K-0.02.tar.gz 40117812-May-2005 07:07
Encode-JP-Emoji-0.05.tar.gz 7103606-Jul-2009 02:21
Encode-JP-Emoji-0.60.tar.gz 8565924-Oct-2010 06:18
Encode-JP-Mobile-0.25.tar.gz 63172519-May-2008 05:22
Encode-JP-Mobile-0.26.tar.gz 63240613-Feb-2009 09:48
Encode-JP-Mobile-0.27.tar.gz 63650217-May-2010 07:06
Encode-compat-0.07.tar.gz 907003-Jun-2004 14:11
Encoding-FixLatin-1.01.tar.gz 2452815-Jul-2009 08:10
Encoding-FixLatin-1.02.tar.gz 2610202-May-2010 09:24
Encore-0.3.0-api-ref.tgz 11962526-Aug-2006 23:52
Encore-0.3.0-src.tgz 7681926-Aug-2006 23:52
Encore-0.3.1-api-ref.tgz 11587701-Mar-2008 18:44
Encore-0.3.1-src.tgz 7797001-Mar-2008 18:44
English-German.cstack.gz 6720226-Oct-2004 10:23
EnthoughtBase-3.0.1.tar.gz 19317409-Dec-2008 14:46
EnthoughtBase-3.0.2.tar.gz 19315420-Mar-2009 23:02
EnthoughtBase-3.0.3.tar.gz 19235816-Jul-2009 16:48
EnthoughtBase-3.0.6.tar.gz 19645916-Oct-2010 03:04
Env-PS1-0.05.tar.gz 785122-Nov-2004 14:59
Env-PS1-0.06.tar.gz 943724-Jun-2009 06:00
Env-Path-0.16.tar.gz 1007522-Jul-2003 15:32
Env-Path-0.18.tar.gz 1041109-Nov-2006 14:43
Epoch1.4.zip 78171115-Jul-2010 21:43
Epsilon-0.4.0.tar.gz?format=raw 2722321-Dec-2005 01:18
Epsilon-0.5.11.tar.gz?format=raw 9662718-Nov-2008 18:43
Epsilon-0.5.12.tar.gz?format=raw 20409013-Mar-2009 17:58
Epsilon-0.5.6.tar.gz?format=raw 6473326-Oct-2007 13:50
Epsilon-0.5.7.tar.gz?format=raw 6940009-Nov-2007 20:46
Epsilon-0.5.8.tar.gz?format=raw 7656307-Jan-2008 21:37
Epsilon-0.5.9.tar.gz?format=raw 7779102-Mar-2008 17:14
Epsilon-0.6.0.tar.gz 9624329-Nov-2009 19:04
Errno-1.09.tar.gz 443606-Jul-1998 00:16
Errno-1.10.tar.gz 824327-Dec-2006 14:51
Error-0.15.tar.gz 818809-Oct-2001 14:42
Error-0.15009.tar.gz 1080221-Jul-2006 18:16
Error-0.17004.tar.gz 1459001-Sep-2006 20:45
Error-0.17008.tar.gz 1682525-Oct-2006 20:16
Error-0.17009.tar.gz 1717315-Sep-2007 11:55
Error-0.17012.tar.gz 1771325-Jan-2008 17:07
Error-0.17014.tar.gz 1779324-May-2008 08:13
Error-0.17015.tar.gz 1805319-Jul-2008 06:09
Error-0.17016.tar.gz 2099018-Dec-2009 22:08
Estonian.zip 1750124-Jul-2008 09:05
Eterm-0.8.9.tar.gz 56488528-Jul-1999 12:01
Eterm-0.9.3.tar.gz 66076714-Dec-2004 21:55
Eterm-0.9.4.tar.gz 81482322-Aug-2006 19:37
Eterm-0.9.5.tar.gz 79687214-May-2008 22:56
Eterm-bg-0.9.3.tar.gz 188362714-Dec-2004 21:55
Eterm-bg-0.9.4.tar.gz 188362722-Aug-2006 19:13
Eterm-bg-0.9.5.tar.gz 188362712-Jun-2008 03:26
Etoile-20061221.tar.bz2 986748121-Dec-2006 12:19
Eval-Context-0.06.tar.gz 2446307-Jan-2008 01:04
Eval-Context-0.07.tar.gz 2463918-Aug-2008 18:38
Eval-Context-0.09.11.tar.gz 3126824-Feb-2010 14:43
Eval113.lha 7041314-Apr-1993 04:17
Event-1.02.tar.gz 24966513-Dec-2004 07:48
Event-1.05.tar.gz 25159124-Apr-2005 15:39
Event-1.06.tar.gz 25164914-May-2005 16:29
Event-1.08.tar.gz 25177001-Nov-2006 05:01
Event-1.09.tar.gz 25154922-May-2007 07:17
Event-1.10.tar.gz 25162115-Jan-2008 15:08
Event-1.11.tar.gz 25149117-May-2008 02:41
Event-1.13.tar.gz 25302330-Sep-2009 23:01
Event-ExecFlow-0.62.tar.gz 1492217-Jun-2006 15:03
Event-ExecFlow-0.63.tar.gz 1532713-Apr-2007 22:11
Event-ExecFlow-0.64.tar.gz 1533605-Jan-2010 20:29
Event-Join-0.04.tar.gz 1731010-Feb-2010 10:23
Event-Lib-1.00.tar.gz 4632517-Mar-2006 11:18
Event-Lib-1.01.tar.gz 4658118-Nov-2006 15:16
Event-Lib-1.03.tar.gz 4681026-Oct-2007 13:50
Event-Notify-0.00004.tar.gz 1988101-Mar-2008 18:44
Event-RPC-0.90.tar.gz 3237423-Apr-2006 08:43
Event-RPC-1.01.tar.gz 3501126-Oct-2008 10:34
Event-tcp-0.14.tar.gz 708323-Feb-2000 18:44
Every-0.06.tar.gz 235814-Aug-2008 16:21
Every-0.08.tar.gz 261501-Apr-2010 19:02
Excel-Template-0.25.tar.gz 3683226-May-2005 15:01
Excel-Template-0.26.tar.gz 3775321-Jul-2006 18:16
Excel-Template-0.28.tar.gz 3842401-Aug-2006 02:20
Excel-Template-0.31.tar.gz 4044417-Dec-2007 20:55
Exception-Class-1.20.tar.gz 1512114-Mar-2005 18:45
Exception-Class-1.22.tar.gz 1615630-Sep-2005 05:51
Exception-Class-1.23.tar.gz 1609114-Jan-2006 18:22
Exception-Class-1.24.tar.gz 2371530-Mar-2008 17:28
Exception-Class-1.26.tar.gz 2436626-Oct-2008 01:47
Exception-Class-1.29.tar.gz 2497507-May-2009 13:58
Exception-Class-1.30.tar.gz 3555220-Mar-2010 16:50
Exception-Class-1.32.tar.gz 2370228-Jun-2010 14:58
Exception-Class-DBI-0.92.tar.gz 1005617-Jun-2004 17:46
Exception-Class-DBI-0.93.tar.gz 1102921-Jul-2006 18:16
Exception-Class-DBI-0.95.tar.gz 1152418-Jul-2006 22:16
Exception-Class-DBI-0.96.tar.gz 1161207-Dec-2007 20:58
Exception-Class-DBI-1.00.tar.gz 1205422-May-2008 03:29
Exception-Class-TryCatch-1.10.tar.gz 1551801-Mar-2008 18:44
Exception-Class-TryCatch-1.12.tar.gz 1781103-Nov-2008 22:13
Exception-Handler-1.004.tar.gz 356522-Dec-2006 20:24
ExecWrap-0.4.tgz 743904-Sep-2006 18:46
ExecWrap-0.5.tgz 798014-Feb-2009 22:40
Execute-2.4.tar.gz 3475706-Dec-1996 05:00
Expect-1.15.tar.gz 5126119-Mar-2002 15:59
Expect-1.17.tar.gz 5166221-Jul-2006 18:16
Expect-1.20.tar.gz 5338821-Jul-2006 12:01
Expect-1.21.tar.gz 5388113-Aug-2007 13:52
Expect-Simple-0.02.tar.gz 1110013-Aug-2002 18:39
Expect-Simple-0.03.tar.gz 1262101-Mar-2008 18:44
Expect-Simple-0.04.tar.gz 1385606-May-2008 23:38
Expense-0.1.tar.gz 4675204-Apr-2004 05:34
Exporter-Easy-0.16.tar.gz 923503-Aug-2004 20:05
Exporter-Lite-0.01.tar.gz 2065017-Dec-2001 02:21
Exporter-Lite-0.02.tar.gz 486412-Nov-2006 00:13
Exporter-Tidy-0.06.tar.gz 2310119-Apr-2003 12:23
Exporter-Tidy-0.07.tar.gz 2335514-Sep-2007 11:04
ExtUtils-AutoInstall-0.59.tar.gz 2585929-Apr-2004 18:21
ExtUtils-AutoInstall-0.63.tar.gz 2695112-Sep-2005 13:24
ExtUtils-CBuilder-0.09.tar.gz 1356214-Mar-2005 18:45
ExtUtils-CBuilder-0.10.tar.gz 1396109-Apr-2005 05:53
ExtUtils-CBuilder-0.11.tar.gz 1411406-Apr-2005 02:01
ExtUtils-CBuilder-0.12.tar.gz 1510730-May-2005 21:45
ExtUtils-CBuilder-0.13.tar.gz 1525725-Aug-2005 01:12
ExtUtils-CBuilder-0.15.tar.gz 1698003-Oct-2005 22:17
ExtUtils-CBuilder-0.18.tar.gz 1753225-Mar-2006 19:38
ExtUtils-CBuilder-0.19.tar.gz 1926013-May-2007 19:31
ExtUtils-CBuilder-0.22.tar.gz 2043101-Mar-2008 18:44
ExtUtils-CBuilder-0.23.tar.gz 2084420-Apr-2008 03:29
ExtUtils-CBuilder-0.24.tar.gz 2363916-Aug-2008 03:02
ExtUtils-CBuilder-0.2602.tar.gz 2772604-Jul-2009 15:01
ExtUtils-CBuilder-0.2603.tar.gz 2780718-Jul-2009 10:57
ExtUtils-CBuilder-0.260301.tar.gz 2932829-Aug-2009 15:03
ExtUtils-CBuilder-0.27.tar.gz 3031130-Oct-2009 01:31
ExtUtils-CBuilder-0.2701.tar.gz 3175516-Feb-2010 14:37
ExtUtils-CBuilder-0.2702.tar.gz 3184322-Feb-2010 20:12
ExtUtils-CBuilder-0.2703.tar.gz 3058416-Mar-2010 21:13
ExtUtils-CChecker-0.02.tar.gz 1385629-Jan-2010 15:09
ExtUtils-CChecker-0.03.tar.gz 1500302-Mar-2010 00:07
ExtUtils-CChecker-0.04.tar.gz 1637423-Jun-2010 15:25
ExtUtils-Command-1.13.tar.gz 1116122-Dec-2006 21:00
ExtUtils-Command-1.14.tar.gz 1139113-Mar-2008 02:56
ExtUtils-Command-1.16.tar.gz 1199906-Jan-2009 01:37
ExtUtils-Constant-0.16.tar.gz 3162501-Feb-2005 22:04
ExtUtils-Depends-0.205.tar.gz 898026-Jan-2005 12:48
ExtUtils-Depends-0.300.tar.gz 1023430-Mar-2008 15:56
ExtUtils-Depends-0.301.tar.gz 1040406-Sep-2008 18:17
ExtUtils-Depends-0.302.tar.gz 1100104-Jul-2009 13:39
ExtUtils-F77-1.14.tar.gz 866315-Jun-2001 20:27
ExtUtils-F77-1.15.tar.gz 952605-Jan-2006 16:55
ExtUtils-F77-1.16.tar.gz 1023416-May-2007 07:32
ExtUtils-Install-1.54.tar.gz 6733727-Jul-2009 22:00
ExtUtils-MakeMaker-6.25.tar.gz 21812028-Mar-2005 06:10
ExtUtils-MakeMaker-6.30.tar.gz 21979620-May-2005 23:14
ExtUtils-MakeMaker-6.31.tar.gz 24382810-Oct-2006 01:04
ExtUtils-MakeMaker-6.32.tar.gz 24438121-Feb-2007 16:02
ExtUtils-MakeMaker-6.36.tar.gz 24017903-Jul-2007 08:10
ExtUtils-MakeMaker-6.42.tar.gz 24330201-Mar-2008 18:44
ExtUtils-MakeMaker-6.44.tar.gz 24406529-Feb-2008 00:08
ExtUtils-MakeMaker-6.46.tar.gz 25093327-Sep-2008 21:37
ExtUtils-MakeMaker-6.48.tar.gz 25439720-Oct-2008 18:20
ExtUtils-MakeMaker-6.50.tar.gz 25561622-Mar-2009 19:30
ExtUtils-MakeMaker-6.52.tar.gz 26005730-May-2009 18:41
ExtUtils-MakeMaker-6.54.tar.gz 27270307-Jul-2009 23:53
ExtUtils-MakeMaker-6.56.tar.gz 26978817-Dec-2009 22:06
ExtUtils-MakeMaker-Coverage-0.05.tar.gz 643915-Apr-2005 11:49
ExtUtils-Manifest-1.51.tar.gz 1729101-Mar-2008 18:44
ExtUtils-Manifest-1.54.tar.gz 1851304-Jun-2008 03:57
ExtUtils-Manifest-1.55.tar.gz 1877012-Oct-2008 22:33
ExtUtils-Manifest-1.56.tar.gz 1926806-Jan-2009 01:39
ExtUtils-Manifest-1.57.tar.gz 1955320-Sep-2009 14:37
ExtUtils-Manifest-1.58.tar.gz 1965002-Dec-2009 03:49
ExtUtils-ParseXS-2.07.tar.gz 2204009-Apr-2005 05:53
ExtUtils-ParseXS-2.15.tar.gz 2450010-Oct-2005 15:09
ExtUtils-ParseXS-2.17.tar.gz 2491720-Nov-2006 23:08
ExtUtils-ParseXS-2.18.tar.gz 2517330-Jan-2007 02:58
ExtUtils-ParseXS-2.19.tar.gz 2521401-Mar-2008 18:44
ExtUtils-ParseXS-2.20.tar.gz 3184701-Jul-2009 17:49
ExtUtils-ParseXS-2.21.tar.gz 3922505-Oct-2009 15:25
ExtUtils-ParseXS-2.2201.tar.gz 4051025-Jan-2010 21:14
ExtUtils-ParseXS-2.2203.tar.gz 4079711-Feb-2010 19:04
ExtUtils-PkgConfig-1.07.tar.gz 633626-Jan-2005 12:49
ExtUtils-PkgConfig-1.10.tar.gz 818901-Mar-2008 18:44
ExtUtils-PkgConfig-1.11.tar.gz 843014-Mar-2008 23:40
ExtUtils-PkgConfig-1.12.tar.gz 842919-Oct-2008 12:08
ExtUtils-XSBuilder-0.27.tar.gz 4029116-Aug-2004 06:34
ExtUtils-XSBuilder-0.28.tar.gz 4275808-Apr-2006 15:04
ExtUtils-XSpp-0.04.tar.gz 7199824-Jun-2009 12:05
ExtUtils-XSpp-0.05.tar.gz 8720920-Sep-2009 12:56
ExtUtils-XSpp-0.08.tar.gz 9183205-Feb-2010 12:06
ExtUtils-XSpp-0.10.tar.gz 10561614-Apr-2010 19:20
ExtUtils-XSpp-0.11.tar.gz 10750603-May-2010 18:49
ExtUtils-XSpp-0.15.tar.gz 17254314-Aug-2010 16:42
Extremes-1.1.1.zip 1036005-Feb-2009 17:13
Extremes-1.1.zip 613401-Mar-2008 18:44
Ezmlm-0.07.2.tar.gz 1549420-Jun-2006 02:00
Ezmlm-0.08.2.tar.gz 2538016-Oct-2008 01:36
F2PY-2.45.241_1926.tar.gz 13948230-Jan-2005 18:56
FAH502-Linux.exe 24923620-Aug-2004 05:10
FAH504-Linux.exe 25096426-Oct-2007 13:50
FAQ-OMatic-2.719.tar.gz 36520604-Apr-2003 01:05
FB_1.2.zip 3841706-Jul-2000 16:27
FB_2.1.zip 2607423-Aug-2000 15:46
FC++.1.5.tar.gz 5921507-Aug-2003 13:28
FCGI-0.67.tar.gz 8623823-Dec-2002 10:21
FCGI-0.68.tar.gz 9081306-Jan-2010 10:07
FCGI-0.71.tar.gz 9399501-Apr-2010 00:55
FCGI-Async-0.10.tar.gz 2424715-Mar-2007 12:42
FCGI-Async-0.13.tar.gz 2477801-Mar-2008 18:44
FCGI-Async-0.14.tar.gz 2650312-Jun-2008 23:14
FCGI-Async-0.15.tar.gz 2691715-Oct-2008 23:16
FCGI-Async-0.16.tar.gz 1427112-Mar-2009 01:18
FCGI-Async-0.17.tar.gz 2711916-Jul-2009 21:38
FCGI-Async-0.18.tar.gz 2740402-Sep-2009 01:26
FCGI-Async-0.19.tar.gz 2701416-Feb-2010 00:35
FCGI-Async-0.20.tar.gz 2644218-Apr-2010 19:10
FCGI-Async-0.21.tar.gz 3401509-Oct-2010 12:11
FCGI-Client-0.04.tar.gz 5038306-Feb-2010 01:08
FCGI-Client-0.05.tar.gz 5409125-Aug-2010 10:30
FCGI-ProcManager-0.17.tar.gz 1819224-Apr-2001 13:47
FCGI-ProcManager-0.18.tar.gz 1879901-Mar-2008 18:44
FCGI-ProcManager-0.19.tar.gz 1848922-Jul-2009 19:31
FCGI-Spawn-0.1.tar.gz 372919-Mar-2008 13:56
FCGI-Spawn-0.12.tar.gz 1294701-Mar-2008 18:44
FCGI-Spawn-0.13.tar.gz 1665031-Aug-2008 11:55
FCGI-Spawn-0.14.tar.gz 1831209-Jul-2009 04:08
FCGI-Spawn-0.15.1.tar.gz 2240916-Dec-2009 14:34
FCGI-Spawn-0.16.1.tar.gz 2719924-Feb-2010 09:53
FCheck_2.07.59.tar.gz 3286401-Mar-2008 18:44
FD-2.06a.tar.gz 66904008-Sep-2004 00:00
FD-2.07b.tar.gz 70302914-Sep-2005 00:00
FD-2.08b.tar.gz 72283130-Mar-2006 13:03
FD-2.08c.tar.gz 72307721-Jul-2006 18:16
FD-2.08d.tar.gz 72406413-Jun-2006 00:00
FD-2.09.tar.gz 79558622-Aug-2006 08:40
FD-2.09c.tar.gz 80100217-Jan-2007 08:40
FD-2.09d.tar.gz 80342826-Apr-2007 14:01
FD-2.09e.tar.gz 80202115-Sep-2007 16:45
FD-2.09g.tar.gz 80453501-Mar-2008 18:44
FD-2.09h.tar.gz 80544214-Mar-2008 15:00
FD-2.09i.tar.gz 80736218-Apr-2008 15:00
FD-3.00c.tar.gz 91786527-Jul-2008 07:49
FD-3.00d.tar.gz 91843230-Nov-2008 12:47
FD-3.00e.tar.gz 92171527-Feb-2010 08:16
FD-3.00f.tar.gz 92192928-May-2010 21:19
FD-3.00g.tar.gz 92248203-Jun-2010 18:04
FD-3.00h.tar.gz 92251213-Jun-2010 19:01
FD-3.00i.tar.gz 92440023-Jul-2010 17:37
FD-3.00j.tar.gz 92556024-Sep-2010 17:50
FEAR-API-0.489.tar.gz 9058826-Jun-2006 07:48
FFFF323-src.zip 12744218-Mar-2006 00:18
FFMpeg-20050530.tar.bz2 160924630-May-2005 04:02
FFMpeg-20050620.tar.bz2 162362620-Jun-2005 04:02
FFMpeg-2005112800.tar.bz2 169439029-Nov-2005 02:54
FFMpeg-2005122600.tar.bz2 169232026-Dec-2005 19:26
FFMpeg-2006032300.tar.bz2 176740023-Mar-2006 18:25
FFmpeg-Command-0.05.tar.gz 427722-Sep-2006 02:02
FFmpeg-Command-0.06.tar.gz 436123-Sep-2006 19:09
FFmpeg-Command-0.07.tar.gz 452601-Mar-2008 18:44
FFmpeg-Command-0.11.tar.gz 501207-Jun-2009 07:03
FFmpeg-Command-0.13.tar.gz 525214-Nov-2009 03:19
FFmpeg-Command-0.15.tar.gz 545108-Jun-2010 10:21
FLU_2.14.tar.gz 63246405-Nov-2004 17:41
FLV-Info-0.12.tgz 127568331-Jul-2006 17:37
FLV-Info-0.15.tgz 127750403-Oct-2006 19:35
FLV-Info-0.17.tgz 128060717-Oct-2006 18:44
FLV-Info-0.18.tar.gz 127009305-Apr-2007 05:51
FLV-Info-0.19.tar.gz 127170931-Jul-2008 08:08
FLV-Info-0.20.tar.gz 127183603-Oct-2008 05:15
FLV-Info-0.21.tar.gz 127188704-Oct-2008 04:35
FLV-Info-0.22.tar.gz 127458917-Oct-2008 06:36
FLV-Info-0.24.tar.gz 127856614-Mar-2009 03:08
FOTAQ_Talkie.zip 3652311616-Mar-2004 03:55
FSA-Rules-0.23.tar.gz 2769007-Feb-2006 05:58
FSA-Rules-0.24.tar.gz 2947721-Jul-2006 18:16
FSA-Rules-0.25.tar.gz 2404314-Jul-2006 18:51
FSA-Rules-0.26.tar.gz 3092529-Aug-2006 17:46
FSA-Rules-0.28.tar.gz 3159222-May-2008 03:06
FSMGenerator10b7.tar.gz 10733415-Dec-2003 09:20
FSViewer.app-0.2.5-WM-0.81.0.patch.gz 267423-Dec-2002 15:36
FSViewer.app-0.2.5.tar.gz 85869615-Dec-2002 17:37
FT-0.2.0-api-ref.tgz 28664826-Aug-2006 23:52
FT-0.2.0-src.tgz 69655626-Aug-2006 23:53
FTP-0.1.tar.gz 3740005-Nov-2005 16:48
FTP-0.2.tar.gz 10551601-Dec-2008 23:52
FUR-0.4.5.tar.gz 8670621-Mar-2009 14:48
FUR-0.4.6.tar.gz 8787816-Jul-2009 13:16
FVCool104.tar.gz 5461118-Sep-2004 18:48
FXPy-1.0.5.tar.gz 94743802-Apr-2002 21:17
Fabric-0.1.0.tar.gz 1700516-Feb-2009 21:31
Fabric-0.1.1.tar.gz 1800206-Apr-2009 21:12
Fabric-0.9.0.tar.gz 17999904-Feb-2010 19:17
Fabric-0.9.1.tar.gz 18425608-Jul-2010 15:28
Fabric-0.9.2.tar.gz 9072128-Oct-2010 08:37
Farsi.zip 1761524-Jul-2008 09:05
Fax-Hylafax-Client-1.01.tar.gz 812414-Dec-2003 02:34
Fax-Hylafax-Client-1.02.tar.gz 861225-Jun-2006 06:29
Feed-Find-0.05.tar.gz 1629909-Jan-2005 06:26
Feed-Find-0.06.tar.gz 1636109-Sep-2005 05:45
Fhourstones.tar.gz 1139606-Jun-2008 20:22
FiSH-XChat.v0.98-source.zip 5033215-Mar-2006 22:58
FiSH-irssi.v0.98-source.zip 4410221-Jan-2005 05:51
FiSH-irssi.v0.99-source.zip 4349128-Jun-2005 15:30
FiSH-irssi.v1.00-RC5-source.zip 4814617-Feb-2008 23:51
FiSH-xchat.v0.97a-source.zip 4308827-Jul-2004 00:14
File-Append-TempFile-0.02.tar.gz 509327-Jan-2006 18:05
File-Append-TempFile-0.03.tar.gz 524121-Jul-2006 18:16
File-Append-TempFile-0.04.tar.gz 669616-Jun-2006 13:19
File-Append-TempFile-0.05.tar.gz 554801-Mar-2008 18:44
File-Attributes-0.04.tar.gz 3037404-Feb-2007 05:02
File-Attributes-Recursive-0.02.tar.gz 2526512-Oct-2006 05:00
File-BOM-0.14.tar.gz 1527304-Oct-2006 10:44
File-BaseDir-0.02.tar.gz 246204-Sep-2003 19:20
File-BaseDir-0.03.tar.gz 606501-Nov-2007 09:27
File-BasicFlock-98.1202.tar.gz 254402-Dec-1998 08:38
File-Binary-1.2.tar.gz 1968002-Mar-2004 16:27
File-Binary-1.3.tar.gz 1977901-Aug-2006 15:44
File-Binary-1.4.tar.gz 1972830-Aug-2006 19:13
File-Binary-1.7.tar.gz 2150201-Apr-2008 17:13
File-Cache-0.16.tar.gz 2764618-Apr-2001 16:03
File-Cat-1.2.tar.gz 202621-Jan-1999 23:26
File-ChangeNotify-0.07.tar.gz 1044029-Jun-2009 14:54
File-ChangeNotify-0.08.tar.gz 1690205-Nov-2009 22:01
File-ChangeNotify-0.11.tar.gz 1760007-Dec-2009 22:40
File-ChangeNotify-0.12.tar.gz 1788629-Jan-2010 03:17
File-ChangeNotify-0.13.tar.gz 1815528-Mar-2010 14:13
File-ChangeNotify-0.16.tar.gz 1965212-Jul-2010 16:18
File-Copy-Recursive-0.16.tar.gz 780029-Aug-2005 13:21
File-Copy-Recursive-0.18.tar.gz 805929-Jan-2006 19:39
File-Copy-Recursive-0.21.tar.gz 858924-Apr-2006 17:47
File-Copy-Recursive-0.25.tar.gz 892421-Jul-2006 18:16
File-Copy-Recursive-0.28.tar.gz 917907-Sep-2006 20:52
File-Copy-Recursive-0.30.tar.gz 970708-Dec-2006 21:00
File-Copy-Recursive-0.31.tar.gz 984927-Feb-2007 15:25
File-Copy-Recursive-0.33.tar.gz 994510-May-2007 17:27
File-Copy-Recursive-0.34.tar.gz 990521-Aug-2007 22:50
File-Copy-Recursive-0.35.tar.gz 992327-Aug-2007 21:22
File-Copy-Recursive-0.36.tar.gz 1010316-Apr-2008 20:56
File-Copy-Recursive-0.37.tar.gz 1023409-Oct-2008 17:24
File-Copy-Recursive-0.38.tar.gz 1084307-Dec-2008 03:52
File-CountLines-0.0.2.tar.gz 526012-Nov-2008 19:05
File-CounterFile-1.04.tar.gz 481123-Jan-2004 08:36
File-CreationTime-2.03.tar.gz 357109-Jul-2006 03:29
File-CreationTime-2.04.tar.gz 1371901-Nov-2007 09:27
File-DesktopEntry-0.02.tar.gz 539708-Oct-2005 16:10
File-DesktopEntry-0.04.tar.gz 1378401-Mar-2008 18:44
File-Dir-Dumper-0.0.5.tar.gz 975513-Nov-2008 10:17
File-Dir-Dumper-0.0.6.tar.gz 1238928-Jun-2009 07:44
File-DirCompare-0.6.tar.gz 861202-Mar-2010 12:16
File-DirSync-1.11.tar.gz 1250415-Aug-2004 02:09
File-DirSync-1.12.tar.gz 1104424-Mar-2004 00:17
File-DirSync-1.14.tar.gz 1204819-Apr-2006 20:29
File-DirSync-1.16.tar.gz 1498904-Aug-2007 07:48
File-DirSync-1.22.tar.gz 1605901-Mar-2008 18:44
File-ExtAttr-1.04.tar.gz 3149306-May-2007 10:06
File-ExtAttr-1.07.tar.gz 3255715-Dec-2007 09:34
File-ExtAttr-1.08.tar.gz 3551219-Jul-2008 10:09
File-ExtAttr-1.09.tar.gz 3642607-Mar-2009 10:37
File-FTS-0.03.tar.gz 213223-Dec-2002 07:10
File-FTS-0.04.tar.gz 281302-Mar-2007 11:41
File-Fetch-0.07.tar.gz 946321-Jul-2006 18:16
File-Fetch-0.08.tar.gz 1047202-Aug-2006 10:10
File-Fetch-0.10.tar.gz 1211326-Jan-2007 13:35
File-Fetch-0.14.tar.gz 1493701-Mar-2008 18:44
File-Fetch-0.16.tar.gz 1605010-Oct-2008 13:16
File-Fetch-0.18.tar.gz 1618517-Dec-2008 13:05
File-Fetch-0.20.tar.gz 1676227-Jun-2009 14:47
File-Fetch-0.22.tar.gz 1763714-Nov-2009 23:20
File-Fetch-0.24.tar.gz 1789606-Jan-2010 23:39
File-Find-Closures-1.09.tar.gz 738104-Oct-2008 17:49
File-Find-Object-0.0.3.tar.gz 659514-Jul-2006 13:23
File-Find-Object-0.0.5.tar.gz 714903-Sep-2006 20:43
File-Find-Object-0.0.7.tar.gz 924902-Feb-2007 17:06
File-Find-Object-0.0.8.tar.gz 932631-Jul-2007 13:32
File-Find-Object-0.1.0.tar.gz 1041305-Mar-2008 18:52
File-Find-Object-0.1.1.tar.gz 1314422-Oct-2008 10:46
File-Find-Object-0.1.2.tar.gz 1340326-Oct-2008 11:05
File-Find-Object-0.1.3.tar.gz 1375612-Nov-2008 16:52
File-Find-Object-0.1.4.tar.gz 1395925-Dec-2008 16:32
File-Find-Object-0.1.5.tar.gz 1434303-Jan-2009 15:23
File-Find-Object-0.1.6.tar.gz 1585809-Jan-2009 15:52
File-Find-Object-0.1.8.tar.gz 1708619-Jan-2009 16:42
File-Find-Object-0.1.9.tar.gz 1746610-Feb-2009 14:57
File-Find-Object-0.2.0.tar.gz 1761222-Feb-2009 09:57
File-Find-Object-0.2.1.tar.gz 2260918-Jun-2009 15:05
File-Find-Object-0.2.2.tar.gz 2304125-Jun-2009 19:40
File-Find-Object-v0.2.3.tar.gz 2311630-Jul-2009 18:28
File-Find-Rule-0.28.tar.gz 1439118-May-2004 20:37
File-Find-Rule-0.30.tar.gz 1468401-Jun-2006 15:39
File-Find-Rule-0.32.tar.gz 1553428-Nov-2009 00:47
File-Find-Rule-Filesys-Virtual-1.22.tar.gz 369906-Jun-2006 14:24
File-Find-Rule-Perl-1.04.tar.gz 2151214-May-2008 10:29
File-Find-Rule-Perl-1.05.tar.gz 2439819-Feb-2009 01:00
File-Find-Rule-Perl-1.06.tar.gz 2642113-Apr-2009 10:31
File-Find-Rule-Perl-1.08.tar.gz 2680916-Jul-2009 23:50
File-Find-Rule-Perl-1.09.tar.gz 2736529-Jul-2009 14:28
File-Find-Rule-Perl-1.10.tar.gz 3122806-Oct-2010 00:48
File-Find-Rule-VCS-1.05.tar.gz 2301229-Sep-2008 10:15
File-Find-Rule-VCS-1.06.tar.gz 2573408-Jul-2009 11:59
File-Finder-0.53.tar.gz 1448508-Apr-2005 19:50
File-Flat-0.95.tar.gz 4352106-Nov-2004 13:13
File-Flat-0.96.tar.gz 4577819-Jul-2006 04:30
File-Flat-1.00.tar.gz 4582013-Jan-2007 16:37
File-Flat-1.02.tar.gz 4637511-Dec-2007 06:56
File-Flat-1.04.tar.gz 4718324-Mar-2008 05:21
File-Flock-104.111901.tar.gz 548319-Nov-2004 23:31
File-Flock-2008.01.tar.gz 562228-Mar-2008 05:53
File-FnMatch-0.02.tar.gz 3260930-Mar-2005 06:01
File-Format-RIFF-1.0.1.tar.gz 899608-Aug-2005 23:12
File-Grep-0.01.tar.gz 464915-Aug-2004 02:09
File-Grep-0.02.tar.gz 487717-Sep-2005 04:36
File-HStore-0.08.tar.gz 475620-Jul-2006 14:28
File-HStore-0.09.tar.gz 516426-Nov-2006 16:00
File-HStore-0.10.tar.gz 552601-Jun-2008 20:19
File-HomeDir-0.06.tar.gz 696330-Dec-2004 07:44
File-HomeDir-0.52.tar.gz 2967504-Jan-2006 12:44
File-HomeDir-0.57.tar.gz 3177930-Apr-2006 06:04
File-HomeDir-0.58.tar.gz 2569410-May-2006 07:23
File-HomeDir-0.63.tar.gz 3525709-Jan-2007 05:10
File-HomeDir-0.64.tar.gz 3537008-Feb-2007 05:51
File-HomeDir-0.65.tar.gz 3608309-May-2007 07:39
File-HomeDir-0.66.tar.gz 3611626-Oct-2007 13:50
File-HomeDir-0.69.tar.gz 3677501-Mar-2008 18:44
File-HomeDir-0.80.tar.gz 3463927-Jun-2008 06:25
File-HomeDir-0.81.tar.gz 3731130-Sep-2008 10:05
File-HomeDir-0.82.tar.gz 3732714-Oct-2008 06:46
File-HomeDir-0.84.tar.gz 3931211-Mar-2009 10:46
File-HomeDir-0.86.tar.gz 4047227-Mar-2009 07:54
File-HomeDir-0.88.tar.gz 4239223-Nov-2009 23:21
File-HomeDir-0.89.tar.gz 4262002-Jan-2010 16:31
File-HomeDir-0.91.tar.gz 4796402-Jun-2010 14:49
File-HomeDir-0.93.tar.gz 4955215-Sep-2010 07:30
File-Iterator-0.14.tar.gz 432814-Mar-2007 15:48
File-Lock-0.9.tar.gz 880631-Jan-1996 03:53
File-Log-1.05.tar.gz 1013901-Mar-2008 03:07
File-MMagic-1.22.tar.gz 2094415-Aug-2004 02:09
File-MMagic-1.25.tar.gz 2126627-Aug-2005 15:04
File-MMagic-1.26.tar.gz 2122830-Jan-2006 05:41
File-MMagic-1.27.tar.gz 2133223-May-2006 05:59
File-MMagic-XS-0.08.tar.gz 5443427-Oct-2005 10:08
File-MMagic-XS-0.09.tar.gz 5509508-May-2007 22:52
File-MMagic-XS-0.09003.tar.gz 6560505-Nov-2007 06:09
File-MMagic-XS-0.09006.tar.gz 15612718-May-2010 22:44
File-Map-0.25.tar.gz 2470715-Apr-2010 01:02
File-Map-0.26.tar.gz 2511520-Apr-2010 11:28
File-Map-0.27.tar.gz 2518324-Apr-2010 22:58
File-MimeInfo-0.10.tar.gz 1649809-Apr-2005 05:53
File-MimeInfo-0.11.tar.gz 1855018-Mar-2005 21:50
File-MimeInfo-0.12.tar.gz 2393408-Oct-2005 16:25
File-MimeInfo-0.13.tar.gz 2432726-Feb-2006 21:55
File-MimeInfo-0.14.tar.gz 2751508-Jun-2007 23:13
File-MimeInfo-0.15.tar.gz 2926901-Mar-2008 18:44
File-Modified-0.07.tar.gz 716405-Dec-2004 11:12
File-Monitor-0.10.tar.gz 1944101-Mar-2008 18:44
File-Mork-0.3.tar.gz 993401-Mar-2008 18:44
File-NCopy-0.34.tar.gz 749524-Apr-2003 19:38
File-NCopy-0.36.tar.gz 847726-Nov-2007 22:14
File-NFSLock-1.20.tar.gz 1852113-May-2003 18:36
File-Next-0.28.tar.gz 835606-Sep-2006 04:54
File-Next-0.38.tar.gz 1146807-Jan-2007 07:28
File-Next-0.40.tar.gz 1211110-Mar-2007 03:37
File-Next-1.00.tar.gz 1241201-Nov-2007 09:27
File-Next-1.02.tar.gz 1277414-Jan-2008 20:07
File-Next-1.06.tar.gz 1351104-Aug-2009 20:14
File-Path-2.04.tar.gz 1716724-Nov-2007 09:53
File-Path-2.07.tar.gz 1841309-Nov-2008 13:11
File-Path-2.08.tar.gz 2061104-Oct-2009 10:31
File-Path-Expand-1.01.tar.gz 187811-May-2003 20:59
File-Path-Expand-1.02.tar.gz 200111-May-2006 15:00
File-Path-Tiny-0.1.tar.gz 592222-Nov-2008 15:43
File-PathConvert-0.9.tar.gz 2380708-Mar-2002 04:05
File-Pid-1.01.tar.gz 305311-Jan-2005 13:06
File-Pid-Quick-1.02.tar.gz 434305-Feb-2010 23:15
File-Policy-1.005.tar.gz 1425415-Jun-2005 13:23
File-Random-0.17.tar.gz 1283420-Aug-2002 13:06
File-ReadBackwards-1.03.tar.gz 740814-Mar-2005 18:45
File-ReadBackwards-1.04.tar.gz 831814-May-2005 06:04
File-Remove-0.30.tar.gz 512814-Jul-2005 02:17
File-Remove-0.31.tar.gz 587329-Dec-2005 02:44
File-Remove-0.34.tar.gz 1406706-Nov-2006 21:15
File-Remove-0.37.tar.gz 1551008-Jul-2007 06:31
File-Remove-0.39.tar.gz 1568901-Mar-2008 18:44
File-Remove-1.40.tar.gz 1702623-Feb-2008 08:33
File-Remove-1.41.tar.gz 2676901-Jun-2008 23:49
File-Remove-1.42.tar.gz 2759210-Jul-2008 07:13
File-Remove0.20.tar.gz 238915-Aug-2004 02:09
File-Rsync-0.34.tar.gz 1762016-Aug-2004 22:19
File-Rsync-0.42.tar.gz 1940725-Jun-2005 02:36
File-Rsync-0.43.tar.gz 2000920-Aug-2009 14:08
File-RsyncP-0.52.tar.gz 5900730-May-2004 05:38
File-RsyncP-0.62.tar.gz 17413112-Jul-2006 04:40
File-RsyncP-0.64.tar.gz 15449731-Jul-2006 04:05
File-RsyncP-0.68.tar.gz 16059619-Nov-2006 06:06
File-RsyncP-0.70.tar.gz 16028125-Jul-2010 22:03
File-SafeDO-0.12.tar.gz 1201517-Nov-2008 03:13
File-Scan-1.41.tar.gz 5656914-Mar-2005 18:45
File-Scan-1.43.tar.gz 5799704-May-2005 16:25
File-Scan-ClamAV-1.8.tar.gz 679917-Sep-2004 22:30
File-Scan-ClamAV-1.91.tar.gz 704806-Feb-2009 11:48
File-ShareDir-0.02.tar.gz 2714212-Dec-2005 07:17
File-ShareDir-0.03.tar.gz 2718627-Jan-2006 10:40
File-ShareDir-0.04.tar.gz 2913221-Jul-2006 18:16
File-ShareDir-0.05.tar.gz 2434004-Sep-2006 00:58
File-ShareDir-1.00.tar.gz 2790517-Jul-2008 08:00
File-ShareDir-1.01.tar.gz 2984823-Nov-2009 13:10
File-ShareDir-1.02.tar.gz 3264118-Mar-2010 01:32
File-ShareDir-Install-0.03.tar.gz 474809-Sep-2009 09:14
File-ShareDir-PAR-0.04.tar.gz 2717402-Mar-2009 15:07
File-ShareDir-PAR-0.05.tar.gz 2722220-Mar-2009 08:29
File-Slurp-9999.07.tar.gz 2343414-Mar-2005 18:45
File-Slurp-9999.09.tar.gz 2455229-Apr-2005 06:09
File-Slurp-9999.11.tar.gz 2569320-Jan-2006 06:45
File-Slurp-9999.12.tar.gz 2653307-Mar-2006 07:13
File-Slurp-9999.13.tar.gz 2640324-Jan-2008 04:57
File-Slurp-Tree-1.24.tar.gz 339514-Jul-2006 15:18
File-Sort-1.01.tar.gz 3280323-Jan-2002 05:12
File-Spec-0.90.tar.gz 3306418-Dec-2004 02:03
File-Stat-Bits-0.18.tar.gz 912806-Aug-2004 16:28
File-Stat-Bits-1.00.tar.gz 925624-May-2006 11:12
File-Stat-Bits-1.01.tar.gz 934801-Mar-2008 18:44
File-Stream-2.20.tar.gz 672016-Jul-2008 11:49
File-Sync-0.09.tar.gz 407428-Nov-1999 05:13
File-Tail-0.98.tar.gz 1414915-Aug-2004 02:09
File-Tail-0.99.3.tar.gz 2280014-Sep-2005 14:06
File-Tail-Dir-0.10.tar.gz 891124-Mar-2010 01:26
File-Temp-0.16.tar.gz 3160322-Feb-2005 21:42
File-Temp-0.17.tar.gz 3317418-Aug-2006 22:40
File-Temp-0.18.tar.gz 3356322-Jan-2007 00:18
File-Temp-0.20.tar.gz 3779601-Mar-2008 18:44
File-Temp-0.21.tar.gz 3861214-Nov-2008 01:30
File-Temp-0.22.tar.gz 3835229-Jun-2009 07:41
File-Tempdir-0.02.tar.gz 176810-Aug-2006 20:12
File-Touch-0.08.tar.gz 315725-Jul-2009 17:11
File-Type-0.22.tar.gz 15746306-May-2004 11:00
File-Util-3.18.tar.gz 4027127-Feb-2007 22:23
File-Util-3.22.tar.gz 4263723-May-2007 21:52
File-Util-3.23.tar.gz 4240901-Mar-2008 18:44
File-Util-3.27.tar.gz 4462306-Dec-2008 19:31
File-Which-0.05.tar.gz 726424-Jun-2002 21:21
File-Which-1.09.tar.gz 1563726-Sep-2009 17:30
File-chdir-0.06.tar.gz 2239315-Aug-2003 00:07
File-chdir-0.07.tar.gz 2321718-Jun-2007 22:42
File-chdir-0.1002.tar.gz 3660112-Feb-2008 00:58
File-chdir-0.1003.tar.gz 4303628-Apr-2010 03:02
File-chdir-0.1004.tar.gz 4309709-Jun-2010 18:17
File-chmod-0.32.tar.gz 720001-Mar-2008 18:44
File-pushd-0.24.tar.gz 1343308-Nov-2005 14:50
File-pushd-0.30.tar.gz 1343103-Dec-2005 15:58
File-pushd-0.32.tar.gz 1382205-Feb-2006 04:45
File-pushd-0.99.tar.gz 1595121-Oct-2006 13:02
File-pushd-1.00.tar.gz 1124601-Mar-2008 18:44
FileHandle-Fmode-0.09.tar.gz 496326-Oct-2007 13:50
FileHandle-Fmode-0.10.tar.gz 516701-Mar-2008 18:44
FileHandle-Fmode-0.11.tar.gz 552126-Sep-2008 14:02
FileHandle-Unget-0.16.1.tar.gz 3324809-Apr-2005 05:53
FileHandle-Unget-0.1621.tar.gz 4322306-Feb-2005 18:55
FileHandle-Unget-0.1622.tar.gz 2937417-Jul-2008 01:09
FileHandle-Unget-0.1623.tar.gz 3216630-Aug-2009 18:27
FileManip-0.3.2.tar.gz 1035303-Feb-2008 17:54
FileManip-0.3.3.tar.gz 1055610-Jul-2010 15:48
FileRunner-2.5.1.tar.gz 12279509-Feb-2000 19:39
FileRunner-2.5.tar.gz 12426312-Jun-1998 20:28
FileUtils-0.4.tar.gz 474802-Oct-2001 13:02
FileUtils-0.6.tar.bz2 498611-Mar-2003 13:42
FileZilla_3.0.0-beta11_src.tar.bz2 146435320-Jul-2007 19:51
FileZilla_3.0.0-beta5_src.tar.bz2 127893611-Jan-2007 21:29
FileZilla_3.0.0-beta7_src.tar.bz2 139861927-Mar-2007 13:02
FileZilla_3.0.10_src.tar.bz2 213026120-May-2008 09:26
FileZilla_3.0.11_src.tar.bz2 217235915-Jun-2008 14:54
FileZilla_3.0.1_src.tar.bz2 171633426-Oct-2007 13:50
FileZilla_3.2.1_src.tar.bz2 285476606-Feb-2009 21:14
FileZilla_3.2.2.1_src.tar.bz2 287823021-Feb-2009 21:38
FileZilla_3.2.3.1_src.tar.bz2 291203025-Mar-2009 15:15
FileZilla_3.2.4.1_src.tar.bz2 291230627-Apr-2009 21:50
FileZilla_3.2.4_src.tar.bz2 291268721-Apr-2009 19:28
FileZilla_3.2.6.1_src.tar.bz2 300304801-Jul-2009 22:46
FileZilla_3.3.0.1_src.tar.bz2 311348615-Nov-2009 15:35
FileZilla_3.3.0_src.tar.bz2 311013109-Nov-2009 14:29
FileZilla_3.3.1_src.tar.bz2 312986403-Jan-2010 21:55
FileZilla_3.3.2.1_src.tar.bz2 316444721-Mar-2010 18:41
FileZilla_3.3.2_src.tar.bz2 318659521-Feb-2010 16:38
FileZilla_3.3.3_src.tar.bz2 321204413-Jun-2010 22:00
FileZilla_3.3.4.1_src.tar.bz2 323150515-Aug-2010 22:18
FileZilla_3.3.4_src.tar.bz2 323163112-Aug-2010 21:32
Files-2.4.tar.gz 17193206-Dec-1996 05:00
Filesys-Df-0.92.tar.gz 711325-Jun-2006 05:58
Filesys-DfPortable-0.85.tar.gz 722101-Mar-2008 18:44
Filesys-DiskFree-0.06.tar.gz 549923-Oct-1998 22:37
Filesys-DiskSpace-0.05.tar.gz 495505-Sep-1999 22:36
Filesys-DiskUsage-0.02.tar.gz 317419-Jan-2005 11:00
Filesys-DiskUsage-0.03.tar.gz 401624-Oct-2005 16:23
Filesys-DiskUsage-0.04.tar.gz 476307-Nov-2005 10:32
Filesys-DiskUsage-0.05.tar.gz 560916-Aug-2010 23:42
Filesys-Notify-Simple-0.04.tar.gz 4417924-Oct-2009 06:17
Filesys-Notify-Simple-0.05.tar.gz 4411629-Nov-2009 05:43
Filesys-Notify-Simple-0.06.tar.gz 4666130-Mar-2010 00:23
Filesys-SmbClient-1.5.tar.gz 3322309-Nov-2003 18:37
Filesys-SmbClient-3.1.tar.gz 5183813-Sep-2006 15:00
Filesys-Statvfs-0.80.tar.gz 373019-May-2006 05:28
Filesys-Statvfs-0.82.tar.gz 396401-Nov-2007 09:27
Filesys-Statvfs_Df-0.68.tar.gz 630626-Jun-2002 08:12
Filesys-Virtual-0.05.tar.gz 295522-Jan-2005 06:12
Filesys-Virtual-0.06.tar.gz 317330-Jul-2006 23:02
Filesys-Virtual-DAAP-0.04.tar.gz 446622-Mar-2005 15:24
Filesys-Virtual-Plain-0.05.tar.gz 626714-Mar-2005 18:45
Filesys-Virtual-Plain-0.07.tar.gz 671525-Apr-2005 09:37
Filesys-Virtual-Plain-0.08.tar.gz 671413-Aug-2005 02:44
Filesys-Virtual-Plain-0.09.tar.gz 674930-Jul-2006 09:20
Filesys-Virtual-Plain-0.10.tar.gz 678630-Jul-2006 23:03
Filter-1.30.tar.gz 3995615-Aug-2004 02:09
Filter-1.31.tar.gz 4023831-Aug-2005 21:46
Filter-1.32.tar.gz 4031203-Jan-2006 11:20
Filter-1.33.tar.gz 4052203-Mar-2007 16:04
Filter-1.34.tar.gz 4075607-Jul-2007 19:07
Filter-1.35.tar.gz 8107525-Feb-2009 22:15
Filter-1.36.tar.gz 8111428-Feb-2009 11:15
Filter-1.37.tar.gz 8105609-Jun-2009 22:26
Filter-CBC-0.09.tar.gz 848515-Feb-2002 00:39
Filter-CBC-0.10.tar.gz 792218-Sep-2007 15:45
Filter-Crypto-1.10.tar.gz 9514709-Apr-2005 05:53
Filter-Crypto-1.13.tar.gz 9787514-Mar-2005 12:39
Filter-Crypto-1.14.tar.gz 9997801-Jun-2005 16:35
Filter-Crypto-1.16.tar.gz 10061806-Sep-2005 09:16
Filter-Crypto-1.17.tar.gz 13518221-Jul-2006 18:16
Filter-Crypto-1.18.tar.gz 13535628-Sep-2006 08:47
Filter-Crypto-1.20.tar.gz 14356025-Jul-2007 16:39
Filter-Crypto-1.22.tar.gz 14980226-Aug-2008 16:43
Filter-Crypto-1.23.tar.gz 15032401-Sep-2008 07:37
Filter-Crypto-1.29.tar.gz 15922326-Oct-2009 13:28
Filter-Crypto-1.30.tar.gz 15958914-Nov-2009 18:40
Filter-Crypto-1.31.tar.gz 16312825-Jul-2010 22:57
Filter-Simple-0.79.tar.gz 1186415-Aug-2004 02:09
Filter-Simple-0.82.tar.gz 1229627-Jun-2005 02:35
Filter-Simple-0.83.tar.gz 1487418-Oct-2008 17:09
Filter-Simple-0.84.tar.gz 1497106-Jan-2009 12:02
Filter-Simple-0.85.tar.gz 1494305-Sep-2010 14:05
Filter-Template-1.02.tar.gz 1146212-Jun-2006 04:29
Filter-Template-1.03.tar.gz 1138827-Jul-2009 16:07
Filter-Template-1.040.tar.gz 1021008-Mar-2010 07:46
Finance-Amortization-0.4.tar.gz 350512-Jan-2005 03:23
Finance-Amortization-0.5.tar.gz 516901-Mar-2008 18:44
Finance-Currency-Convert-1.03.tgz 421715-Aug-2004 02:09
Finance-Currency-Convert-1.04.tgz 417517-Mar-2004 23:35
Finance-Currency-Convert-1.05.tgz 438401-Mar-2008 18:44
Finance-Currency-Convert-1.06.tgz 442607-Mar-2008 13:12
Finance-Currency-Convert-1.07.tgz 468013-Jan-2009 16:01
Finance-Currency-Convert-WebserviceX-0.05.tar.gz 1145722-Mar-2005 00:05
Finance-Currency-Convert-WebserviceX-0.06001.ta..> 2722714-Jul-2007 02:06
Finance-Currency-Convert-WebserviceX-0.06002.ta..> 2959301-Mar-2008 18:44
Finance-Currency-Convert-WebserviceX-0.07000.ta..> 3003904-Jun-2008 00:24
Finance-Currency-Convert-WebserviceX-0.07001.ta..> 3270524-May-2009 14:40
Finance-Currency-Convert-XE-0.09.tar.gz 656609-Apr-2005 05:53
Finance-Currency-Convert-XE-0.10.tar.gz 659927-Apr-2005 15:37
Finance-Currency-Convert-XE-0.11.tar.gz 742411-Oct-2006 12:42
Finance-Currency-Convert-XE-0.13.tar.gz 1138807-Mar-2007 15:26
Finance-Currency-Convert-XE-0.14.tar.gz 1143801-Mar-2008 18:44
Finance-Currency-Convert-XE-0.15.tar.gz 1344317-Mar-2008 16:31
Finance-Currency-Convert-XE-0.16.tar.gz 1383817-Aug-2009 20:34
Finance-Quote-1.08.tar.gz 5912815-Aug-2004 02:09
Finance-Quote-1.10.tar.gz 7417604-Jul-2005 04:32
Finance-Quote-1.11.tar.gz 8649713-Jan-2006 00:24
Finance-Quote-1.12.tar.gz 9195110-Jul-2006 07:10
Finance-Quote-1.13.tar.gz 9657408-Jan-2007 00:21
Finance-Quote-1.14.tar.gz 11548515-Oct-2008 12:21
Finance-Quote-1.15.tar.gz 11557426-Oct-2008 08:20
Finance-Quote-1.16.tar.gz 12576013-Apr-2009 14:24
Finance-Quote-1.17.tar.gz 13068605-Oct-2009 17:51
Finance-QuoteHist-0.31.tar.gz 2940115-Aug-2004 02:09
Finance-QuoteHist-0.32.tar.gz 2823814-Aug-2003 17:52
Finance-QuoteHist-1.00.tar.gz 2165923-Jun-2005 22:13
Finance-QuoteHist-1.02.tar.gz 2380403-Aug-2005 19:17
Finance-QuoteHist-1.03.tar.gz 2501202-Nov-2005 22:22
Finance-QuoteHist-1.04.tar.gz 2547206-Jan-2006 17:27
Finance-QuoteHist-1.07.tar.gz 2839716-Mar-2006 05:51
Finance-QuoteHist-1.09.tar.gz 2858208-Jun-2006 20:24
Finance-QuoteHist-1.10.tar.gz 2969213-Mar-2007 18:12
Finance-QuoteHist-1.11.tar.gz 3322725-Jun-2007 23:59
Finance-QuoteHist-1.12.tar.gz 3579903-Aug-2009 22:48
Finance-QuoteHist-1.14.tar.gz 3990808-Jun-2010 00:35
Finance-QuoteHist-1.15.tar.gz 3920921-Sep-2010 05:52
Finance-QuoteHist-1.16.tar.gz 3931230-Sep-2010 05:05
Finance-QuoteTW-0.08.tar.gz 827014-Jun-2007 16:57
Finance-QuoteTW-v0.09.tar.gz 731701-Sep-2008 15:45
Finance-TW-EmergingQuote-0.26.tar.gz 232322-Jan-2007 16:07
Finance-TW-TSEQuote-0.2.tar.gz 214604-Jul-2003 14:43
Finance-TW-TSEQuote-0.26.tar.gz 286805-Oct-2006 02:06
Finance-TW-TSEQuote-0.27.tar.gz 291908-Jul-2007 01:30
Finance-YahooQuote-0.22.tar.gz 2239023-Feb-2007 03:29
Finance-YahooQuote-0.24.tar.gz 2036427-Mar-2010 00:49
Find-Lib-1.01.tar.gz 865010-Nov-2009 20:32
FindBin-libs-1.37.tar.gz 1303031-Mar-2008 23:22
FindBin-libs-1.38.tar.gz 1314109-Jun-2009 21:14
FindBin-libs-1.41.tar.gz 1351314-Jun-2009 03:27
FindBin-libs-1.4200.tar.gz 1366830-Jun-2010 19:08
FindBin-libs-1.51.tar.gz 1381903-Sep-2010 05:42
Finnish.zip 1951724-Jul-2008 09:05
Firebird-2.0.0.12724-ReleaseCandidate4.tar.bz2 1247184211-Aug-2006 08:36
Firebird-2.0.0.12748.tar.bz2 1248677413-Nov-2006 06:46
Firebird-2.0.1.12855-0.tar.bz2 1258269020-Mar-2007 15:51
Firebird-2.0.2.12964-0.tar.bz2 1262498924-Aug-2007 10:44
Firebird-2.0.3.12981-1.tar.bz2 1262761526-Oct-2007 13:51
FlexGet-1.0r1153-py2.6.egg 36346525-Feb-2010 19:42
FlexGet-1.0r1197-py2.6.egg 37277614-Mar-2010 14:40
FlexGet-1.0r1226-py2.6.egg 37885605-Apr-2010 19:40
FlexGet-1.0r1262-py2.6.egg 38512819-Apr-2010 22:00
FlexGet-1.0r1278-py2.6.egg 39253311-May-2010 11:20
FlexGet-1.0r1283-py2.6.egg 39282526-May-2010 12:13
FlexGet-1.0r1305-py2.6.egg 39907420-Jun-2010 10:31
FlexGet-1.0r1333-py2.6.egg 40431519-Jul-2010 16:46
FlexGet-1.0r1354-py2.6.egg 40739531-Jul-2010 17:53
FlexGet-1.0r1359-py2.6.egg 40778910-Aug-2010 07:50
FlexGet-1.0r1445-py2.6.egg 42689323-Sep-2010 13:10
FlexGet-1.0r1465-py2.6.egg 43465930-Sep-2010 12:11
FlexGet-1.0r1495-py2.6.egg 44468508-Oct-2010 22:26
FlexGet-1.0r1499-py2.6.egg 43984310-Oct-2010 08:20
FlexGet-1.0r1503-py2.6.egg 43992110-Oct-2010 21:48
FlexGet-1.0r1509-py2.6.egg 44076312-Oct-2010 00:14
FlexGet-1.0r1513-py2.6.egg 44333013-Oct-2010 18:31
FlexGet-1.0r1518-py2.6.egg 44374214-Oct-2010 17:45
FlexGet-1.0r1519-py2.6.egg 44374715-Oct-2010 18:48
FlexGet-1.0r1548-py2.6.egg 44742723-Oct-2010 08:38
FlexGet-1.0r1565-py2.6.egg 44592826-Oct-2010 15:46
FlexGet-1.0r1581-py2.6.egg 44763302-Nov-2010 05:47
FlexGet-1.0r1589-py2.6.egg 44912504-Nov-2010 21:22
Flickr-API-0.03.tar.gz 309008-Sep-2004 05:39
Flickr-API-0.07.tar.gz 368913-Jul-2005 18:32
Flickr-API-0.08.tar.gz 431419-Mar-2006 20:21
Flickr-API-0.09.tar.gz 437501-Mar-2008 18:44
Flickr-API-1.01.tar.gz 464001-Oct-2008 03:16
Flickr-API-1.02.tar.gz 467131-Jul-2009 21:30
Flickr-API-1.04.tar.gz 482125-Aug-2009 19:11
Flickr-Upload-1.18.tar.gz 1316729-Mar-2005 22:55
Flickr-Upload-1.22.tar.gz 7456630-Aug-2005 22:47
Flickr-Upload-1.25.tar.gz 7495619-Mar-2007 00:57
Flickr-Upload-1.29.tar.gz 7768621-Jun-2007 00:19
Flickr-Upload-1.30.tar.gz 7781408-Mar-2008 13:49
Flickr-Upload-1.31.tar.gz 8165219-Jun-2008 02:21
Flickr-Upload-1.32.tar.gz 8409318-Sep-2008 00:26
FlickrNet2.2-Src-48055.zip 12557412-Jul-2009 09:57
FlightGear-0.9.10.tar.gz 207213505-Apr-2006 21:00
FlightGear-0.9.8.tar.gz 164419119-Jan-2005 02:31
FlightGear-0.9.9.tar.gz 177179118-Nov-2005 01:23
FlightGear-1.0.0.tar.gz 212321615-Dec-2007 18:53
FlightGear-1.9.0.tar.gz 225552220-Dec-2008 17:01
FlightGear-1.9.1.tar.gz 224641126-Jan-2009 22:34
FlightGear-2.0.0.tar.gz 242509917-Feb-2010 16:35
FlightGear-data-1.9.0.tar.bz2 23997609720-Dec-2008 07:57
FlightGear-data-2.0.0.tar.bz2 30206884625-Feb-2010 19:03
FlowDesigner-0.8.2.tar.gz 271137422-Oct-2004 17:05
FlowDesigner-0.9.0.tar.gz 271506005-Oct-2005 13:04
FlowDesigner-0.9.1.tar.gz 402257301-Nov-2007 09:28
FlowScan-1.006.tar.gz 14951428-Feb-2001 21:51
FlowViewer_3.0.tar 22528004-Oct-2006 20:19
FlowViewer_3.2.tar 29696014-May-2007 18:33
FlowViewer_3.3.1.tar 49152026-Feb-2009 13:58
Flower-1.0.zip 7041322-Jun-2000 23:42
Fnorb-1.3.tar.gz 29570321-Jul-2003 05:51
Font-AFM-1.18.tar.gz 881522-Feb-1999 18:56
Font-AFM-1.19.tar.gz 889408-Jan-2004 12:49
Font-AFM-1.20.tar.gz 1042104-Jun-2008 06:52
Font-TTF-0.34.tar.gz 15579315-Aug-2004 02:09
Font-TTF-0.35.tar.gz 13847719-May-2005 05:15
Font-TTF-0.37.tar.gz 13778925-Nov-2005 01:39
Font-TTF-0.38.1.tar.gz 13198118-Feb-2006 16:13
Font-TTF-0.40.tar.gz 13859031-Jul-2006 04:31
Font-TTF-0.41.tar.gz 14281903-Apr-2007 07:51
Font-TTF-0.43.tar.gz 17289701-Mar-2008 18:44
Font-TTF-0.44.tar.gz 17919109-Jun-2008 09:11
Font-TTF-0.45.tar.gz 17529112-Jun-2008 07:37
Font-TTFMetrics-0.1.tar.gz 1437212-Jun-2003 15:45
Forest-0.03.tar.gz 2383411-Aug-2008 03:04
Forest-0.04.tar.gz 2396607-Sep-2008 14:31
Forest-0.06.tar.gz 2381627-Feb-2009 20:18
Forest-0.07.tar.gz 2362618-Jul-2009 20:48
Forest-0.08.tar.gz 3305813-Jan-2010 18:37
Forest-0.09.tar.gz 3300127-Sep-2010 19:49
FormAlchemy-1.3.3.tar.gz 10554602-Apr-2010 21:57
FormEncode-0.4.tar.gz 10397821-Nov-2005 00:12
FormEncode-0.6.tar.gz 10884129-Sep-2006 16:21
FormEncode-0.7.1.tar.gz 13753931-Mar-2007 21:28
FormEncode-0.7.tar.gz 13720616-Feb-2007 22:17
FormEncode-0.9.tar.gz 16021901-Mar-2008 18:44
FormEncode-1.1.tar.gz 17662027-Oct-2008 21:32
FormEncode-1.2.1.tar.gz 19142620-Dec-2008 22:03
FormEncode-1.2.2.tar.gz 19250605-Mar-2009 17:53
FormValidator-Lite-0.02.tar.gz 5001808-Mar-2009 12:15
FormValidator-Lite-0.03.tar.gz 5025217-Mar-2009 09:52
FormValidator-Lite-0.04.tar.gz 5426721-Sep-2009 02:46
FormValidator-Lite-0.05.tar.gz 5580330-Jan-2010 07:20
FormValidator-Lite-0.06.tar.gz 5598303-Feb-2010 21:46
FormValidator-Lite-0.07.tar.gz 5606616-Feb-2010 19:27
FormValidator-Lite-0.08.tar.gz 5643610-Mar-2010 07:22
FormValidator-Lite-0.10.tar.gz 5916023-Mar-2010 16:38
FormValidator-Lite-0.11.tar.gz 5918606-Apr-2010 04:26
FormValidator-Lite-0.12.tar.gz 5877118-May-2010 07:22
FormValidator-Lite-0.13.tar.gz 6063008-Jun-2010 01:39
FormValidator-Lite-0.15.tar.gz 5941715-Jun-2010 07:37
FormValidator-Lite-0.16.tar.gz 6090019-Jul-2010 06:27
FormValidator-Lite-0.17.tar.gz 6096321-Jul-2010 05:53
FormValidator-Lite-0.18.tar.gz 6107231-Jul-2010 16:41
FormValidator-Lite-0.19.tar.gz 6157128-Aug-2010 11:03
FormValidator-Simple-0.13.tar.gz 1684721-Dec-2005 15:16
FormValidator-Simple-0.15.tar.gz 1710324-Apr-2006 03:28
FormValidator-Simple-0.16.tar.gz 1763721-Jul-2006 18:16
FormValidator-Simple-0.18.tar.gz 2160712-Sep-2006 16:23
FormValidator-Simple-0.21.tar.gz 3863901-Feb-2007 15:13
FormValidator-Simple-0.22.tar.gz 3879606-Mar-2007 11:19
FormValidator-Simple-0.23.tar.gz 3889617-Apr-2008 12:21
FormValidator-Simple-0.28.tar.gz 3627322-Jun-2009 05:44
FormValidator-Simple-Plugin-Number-Phone-JP-0.0..> 262503-Oct-2005 08:44
FormValidator-Simple-Plugin-Number-Phone-JP-0.0..> 272609-Mar-2008 03:50
Format-Human-Bytes-0.04.tar.gz 2332229-Sep-2009 13:57
Format-Human-Bytes-0.05.tar.gz 2439108-Apr-2010 10:36
Format-Human-Bytes-0.06.tar.gz 2718314-Sep-2010 19:08
FranTk1_1.tar.gz 49867003-Oct-2001 11:19
FreeBSD-Pkgs-0.0.0.tar.gz 712401-Jul-2008 07:43
FreeBSD-Pkgs-0.1.1.tar.gz 741525-Mar-2009 18:36
FreeBSD-Pkgs-FindUpdates-0.2.1.tar.gz 754401-Apr-2009 22:31
FreeBSD-Portindex-1.4.tar.bz2 2439021-Feb-2005 08:42
FreeBSD-Portindex-1.5.tar.bz2 2451429-Jan-2006 14:29
FreeBSD-Portindex-1.6.tar.bz2 2788921-Jul-2006 18:16
FreeBSD-Portindex-1.7.tar.bz2 2911023-Jul-2006 16:49
FreeBSD-Portindex-1.8.tar.bz2 2934217-Sep-2006 12:16
FreeBSD-Portindex-1.9.tar.bz2 2929704-Feb-2007 10:43
FreeBSD-Portindex-2.0.tar.bz2 3220605-Aug-2007 16:59
FreeBSD-Portindex-2.1.tar.bz2 3293907-Apr-2008 20:32
FreeBSD-Portindex-2.2.tar.bz2 4618809-Aug-2009 16:15
FreeBSD-Ports-0.04.tar.bz2 1660913-Jan-2004 16:47
FreeBSD-Ports-INDEXhash-1.0.5.tar.gz 412205-Jun-2008 18:42
FreeBSD-Ports-INDEXhash-1.2.0.tar.gz 439725-Mar-2009 18:32
FreeBSD-Ports-INDEXhash-1.2.1.tar.gz 443727-Apr-2009 17:10
FreeBSD-Ports-INDEXhash-1.2.2.tar.gz 450228-Aug-2010 18:10
FreeBSD-i386-Ptrace-0.01.tar.gz 519414-Mar-2009 13:15
FreeBSD-i386-Ptrace-0.03.tar.gz 713920-Mar-2009 22:45
FreeBSD.zip 12666726-Jan-2000 11:02
FreeCAD-0.6.472.tar.gz 193574615-Sep-2007 11:55
FreeDoko_0.6.7b.src.zip 323507409-Apr-2005 05:53
FreeDoko_0.6.8.src.zip 599579513-Apr-2005 12:10
FreeDoko_0.6.9.src.zip 781815501-Jul-2005 07:52
FreeDoko_0.7.0.src.zip 766844924-Aug-2005 10:28
FreeDoko_0.7.2b.src.zip 775605609-Feb-2006 14:09
FreeDoko_0.7.3.src.zip 275931010-Aug-2006 13:47
FreeDoko_0.7.4.src.zip 339338419-Jan-2007 14:36
FreeDoko_0.7.5.src.zip 911489826-Oct-2008 12:07
FreeDoko_0.7.6b.src.zip 923449816-Aug-2009 09:53
FreeDoko_0.7.8.src.zip 925931113-Mar-2010 19:40
FreeGuide-0.8.6.tar.gz 757496729-Mar-2005 11:55
FreeImage3100.zip 337938819-Nov-2007 19:48
FreeImage3110.zip 425038228-Jul-2008 17:52
FreeImage3120.zip 433513514-Apr-2009 19:19
FreeImage370.zip 237741007-May-2005 13:34
FreeImage380.zip 235854505-Sep-2005 17:25
FreeImage393.zip 250705511-Feb-2007 16:41
FreeImagePy_1.0.0.tar.bz2 6144030-Aug-2005 13:15
FreeImagePy_w_dll.tar.bz2 59721603-Apr-2008 11:32
FreeImagePy_w_dll_1.2.4.tar.bz2 55296023-Feb-2006 11:34
FreeImagePy_w_dll_1.3.0.tar.bz2 59392014-Jul-2006 13:46
FreeImagePy_w_dll_1.4.0.tar.bz2 61440005-Feb-2007 11:31
FreeMat-1.10-1.tar.gz 755783116-Mar-2005 15:58
FreeMat-3.0.tar.gz 459267415-Jan-2007 04:04
FreeMat-3.1.tar.gz 526461615-Apr-2007 01:34
FreeMat-3.2.tar.gz 526528416-Apr-2007 01:54
FreeMat-3.4.tar.gz 561325720-Aug-2007 00:36
FreeMat-3.5.tar.gz 561643226-Oct-2007 13:51
FreeMat-3.6.tar.gz 784373617-Mar-2008 06:15
FreeMat-4.0-Source.tar.gz 3803890309-Oct-2009 06:37
FreeTar-0.9.tar.gz 7200320-Mar-2004 10:41
FreeWnn-1.1.1-a020.tar.bz2 301592810-May-2003 14:22
FreeWnn-1.1.1-a021.tar.bz2 310890530-Nov-2005 02:02
FreezeThaw-0.43.tar.gz 1064530-Mar-2002 04:15
FreezeThaw-0.45.tar.gz 1135310-Feb-2009 07:32
FreezeThaw-0.50.tar.gz 1168307-Mar-2010 23:55
FreezeThaw-0.5001.tar.gz 1180003-Apr-2010 22:28
French.zip 1941924-Jul-2008 09:05
Freshmeat_Amp.zip 6431815-Aug-1999 23:08
FrodoV4_1b.Src.tar.gz 37700229-Sep-2005 19:26
FrontBaseJDBC-2.5.6.tar 54272020-Nov-2006 12:50
Frontier-RPC-0.06.tar.gz 1386926-Nov-1999 23:35
Frontier-RPC-0.07b4.tar.gz 2169603-Mar-2004 02:14
Ftptool4.6.tar.gz 13621428-Aug-1994 04:00
FujabaToolSuite_Developer4_3_1.zip 1942103222-Mar-2005 15:26
FujabaToolSuite_Developer4_3_2.zip 1824425324-Aug-2006 12:16
Fumeikai-1.0.zip 85387622-Jun-2000 23:42
Fuse-0.07.tar.gz 2013406-Jun-2006 14:29
Fuse-0.08.tar.gz 2038929-Nov-2006 13:29
Fuse-0.09.tar.gz 2140715-Nov-2007 09:36
Fuse-Simple-1.00.tar.gz 2378905-Aug-2006 14:00
G-System-0.4.1.tar.bz2 11610209-Apr-2005 05:53
G-System-0.5.1.tar.bz2 41437311-Jun-2005 17:46
GCC3.4.0VisibilityPatch2.diff 4395228-May-2004 21:36
GChartWrapper-0.7.tar.gz 2406221-Apr-2009 15:52
GChartWrapper-0.8.tar.gz 2767113-May-2009 03:31
GChartWrapper-0.9.zip 2856630-Sep-2009 19:28
GChartWrapper-extras-0.7.tar.gz 20509921-Apr-2009 15:54
GChartWrapper-extras-0.8.tar.gz 43368013-May-2009 03:31
GChartWrapper-extras-0.9.zip 104467730-Sep-2009 19:33
GD-2.16.tar.gz 15702509-Apr-2005 05:53
GD-2.23.tar.gz 25270610-Mar-2005 05:04
GD-2.25.tar.gz 25306215-Jul-2005 18:47
GD-2.30.tar.gz 25365519-Oct-2005 07:51
GD-2.34.tar.gz 25552201-Jun-2006 20:02
GD-2.35.tar.gz 25667123-Aug-2006 15:31
GD-2.39.tar.gz 25765121-Apr-2008 14:15
GD-2.41.tar.gz 25813307-Aug-2008 19:17
GD-2.43.tar.gz 25834610-Jun-2009 14:44
GD-2.44.tar.gz 25839610-Jul-2009 18:12
GD-2.45.tar.gz 26691830-Apr-2010 18:52
GD-Arrow-0.01.tar.gz 343725-Oct-2004 17:27
GD-Barcode-1.15.tar.gz 89288124-Apr-2004 07:09
GD-Graph-ohlc-0.9602.tar.gz 1796327-Aug-2009 11:10
GD-Graph-ohlc-0.9605.tar.gz 1807709-Oct-2009 11:02
GD-Graph3d-0.63.tar.gz 9785506-Dec-2002 20:23
GD-SVG-0.25.tar.gz 4266807-Jan-2004 20:06
GD-SVG-0.27.tar.gz 4383730-Sep-2005 21:53
GD-SVG-0.28.tar.gz 4395526-May-2006 12:19
GD-SVG-0.30.tar.gz 4503310-Aug-2008 14:47
GD-SVG-0.32.tar.gz 4564001-Oct-2008 18:24
GD-SVG-0.33.tar.gz 4634710-May-2009 14:39
GD-SecurityImage-1.57.tar.gz 5527004-Oct-2005 19:40
GD-SecurityImage-1.583.tar.gz 6688227-Nov-2005 21:09
GD-SecurityImage-1.60.tar.gz 6074519-Feb-2006 21:44
GD-SecurityImage-1.61.tar.gz 6091825-May-2006 19:08
GD-SecurityImage-1.63.tar.gz 6832524-Feb-2007 14:47
GD-SecurityImage-1.64.tar.gz 6903025-Apr-2007 18:06
GD-SecurityImage-1.65.tar.gz 6845627-Feb-2008 19:54
GD-SecurityImage-1.66.tar.gz 6853008-Jun-2008 14:09
GD-SecurityImage-1.70.tar.gz 8204630-Apr-2009 14:14
GD-Thumbnail-1.01.tar.gz 2598015-Jun-2006 18:39
GD-Thumbnail-1.10.tar.gz 2723031-Dec-2006 10:41
GD-Thumbnail-1.30.tar.gz 2744417-Nov-2008 21:33
GD-Thumbnail-1.31.tar.gz 2768629-Mar-2009 04:28
GD-Thumbnail-1.33.tar.gz 4221223-Apr-2009 17:17
GD-Thumbnail-1.34.tar.gz 4255425-Jul-2009 01:15
GD-Thumbnail-1.35.tar.gz 4282803-Sep-2009 22:10
GDGraph-1.43.tar.gz 13002001-Jul-2003 05:14
GDGraph-1.4305.tar.gz 14857722-Dec-2005 08:16
GDGraph-1.4307.tar.gz 14911119-Feb-2006 20:50
GDGraph-1.4308.tar.gz 14638518-May-2006 03:37
GDGraph-1.44.tar.gz 15485526-Apr-2007 04:27
GDGraph-1.44_01.tar.gz 15850630-Aug-2007 05:10
GDGraph-histogram-1.1.tar.gz 1998122-Mar-2006 20:16
GDS2-2.09a.tar.gz 5153825-Sep-2006 03:15
GDSreader.0.3.2.tar.gz 8264902-Sep-2005 23:41
GDT-2.0.3.tar.gz 4100301-Mar-2008 18:44
GDT-3.0.2.tar.gz 4310029-Jun-2008 15:27
GDT-3.0.5.tar.gz 4555627-Sep-2010 17:52
GDT_1.0.1.tar.gz 4834728-Feb-2007 19:49
GDTextUtil-0.86.tar.gz 6469819-Jun-2003 01:10
GDialog-090400-25.zip 29762422-Mar-2007 11:58
GG-0.7.0.tar.gz 173016927-Mar-2008 00:42
GIFgraph-1.10.tar.gz 10992525-Aug-1998 23:46
GIFgraph-1.20.tar.gz 2943421-Jul-2006 18:16
GIS-Distance-0.01001.tar.gz 788420-Sep-2006 15:59
GIS-Distance-0.02.tar.gz 1960116-Mar-2008 15:25
GIS-Distance-0.03.tar.gz 2048117-Apr-2009 16:02
GIS-Distance-0.04.tar.gz 2282729-Jun-2009 13:08
GIS-Distance-0.06.tar.gz 2423331-Jan-2010 06:38
GIS-Distance-0.07.tar.gz 2431402-Feb-2010 23:54
GIS-Distance-Fast-0.05.tar.gz 1785931-Jan-2010 22:23
GIS-Distance-Fast-0.06.tar.gz 1790302-Feb-2010 23:55
GIS-Distance-Lite-1.0.tar.gz 211213-May-2010 18:10
GLE-4.0.12-src.zip 151555615-Sep-2006 00:58
GLURaw-1.1.0.0.tar.gz 767013-Sep-2009 14:12
GLUT-2.1.1.1.tar.gz 12157703-Nov-2007 15:32
GLUT-2.1.1.2.tar.gz 12122819-Jun-2008 12:24
GLUT-2.1.2.1.tar.gz 72022202-May-2009 16:16
GLUT-2.2.2.0.tar.gz 65023513-Sep-2009 13:44
GMail-IMAPD-0.94.tar.gz 910613-Mar-2007 05:33
GMapCatcher-0.6.3.0.tar.gz 37446222-Feb-2010 14:48
GMapCatcher-0.7.0.0.tar.gz 29680717-Apr-2010 16:55
GMapCatcher-0.7.1.0.tar.gz 67125106-Jul-2010 13:26
GMapCatcher-0.7.5.0.tar.gz 64477422-Aug-2010 18:37
GMastermind2.tgz 1748413-Feb-2006 14:08
GMines.tgz 563713-Feb-2006 16:08
GNS3-0.6-src.tar.gz 348274914-Dec-2008 20:12
GNS3-0.6.1-src.tar.gz 367601713-May-2009 13:02
GNS3-0.7-src.tar.gz 364227827-Feb-2010 11:41
GNUDoku-0.93.tar.gz 2621204-Mar-2006 23:36
GNUMail-1.1.2.tar.gz 107894927-Dec-2003 00:03
GNUMail-1.2.0pre3.tar.gz 132752106-Feb-2007 01:31
GNUnet-0.6.6.tar.bz2 126760014-Mar-2005 18:45
GNUnet-0.6.6b.tar.bz2 129144128-Feb-2005 04:08
GNUnet-0.8.0c.tar.bz2 144854128-Feb-2009 06:07
GNUnet-0.8.1.tar.gz 233908529-Dec-2009 14:51
GNUnet-0.8.1b.tar.gz 236664623-Feb-2010 15:04
GNUstepWrapper-0.1.0.tar.gz 5657220-Aug-2004 16:11
GOPchop-1.0.0.tar.gz 53844905-Feb-2004 17:47
GPS-Babel-0.11.tar.gz 7631329-May-2009 18:38
GPS-OID-0.07.tar.gz 399202-Jan-2010 08:26
GPuzzle2.tgz 3567913-Feb-2006 13:09
GRAPPA-1.03.tar.gz 8295201-Aug-2001 03:00
GRAPPA20.tar.gz 17226105-Oct-2004 17:50
GRubik.tgz 863506-Aug-2002 16:12
GSBench-0.5.2.tar.gz 3332904-Jul-2003 18:13
GSCommander-0.1.tar.gz 1793230-Dec-2001 12:56
GSKrab-0.0.1.tar.gz 2465121-Apr-2006 10:05
GSPdf-0.3.tar.gz 3992604-Jul-2009 19:26
GSPdf-0.4.tar.gz 4188003-Aug-2010 15:28
GSSAPI-0.21.tar.gz 2639306-Apr-2006 18:52
GSSAPI-0.22.tar.gz 2647321-Jul-2006 18:16
GSSAPI-0.23.tar.gz 2667702-Aug-2006 15:53
GSSAPI-0.24.tar.gz 2723321-Feb-2007 20:26
GSSAPI-0.25.tar.gz 2765601-Mar-2008 18:44
GSSAPI-0.26.tar.gz 2800315-Feb-2008 22:58
GSSAPI-0.28.tar.gz 6791503-Jun-2010 16:15
GScheme.tgz 9264113-Feb-2006 14:22
GShisen-1.3.0.tar.gz 6640604-Jul-2009 19:25
GSnes9x-3.12.tar.gz 65955327-Apr-2001 09:43
GStreamer-0.04.tar.gz 5371909-Sep-2005 17:58
GStreamer-0.09.tar.gz 6443309-Aug-2006 18:17
GTAMSAnalyzer.src.0.42.tar.gz 101466230-Jul-2004 15:12
GTK+.zip 2404224-Feb-2000 00:40
GTKsubtitler-v0.2.4.tar.gz 14636219-Jul-2003 22:24
GTL-0.3.3.tar.gz 46928307-Mar-2000 09:14
GTorrentViewer-0.2b.tar.gz 24758426-Oct-2004 04:56
GUIlib-1.1.1.tar.gz 18032417-Nov-2005 06:37
GUIlib-1.1.2.tar.gz 34993721-Jan-2007 21:41
GUIlib-1.2.0.tar.gz 40610903-Apr-2007 18:13
GUIlib-1.2.1.tar.gz 34504228-Dec-2007 17:27
GXAnim-0.50.tar.bz2 3499804-Jun-2004 23:31
GXedit-1.23.tar.gz 20522115-Aug-2004 02:09
Galician.zip 1917624-Jul-2008 09:05
Games-Alak-0.18.tar.gz 930927-Aug-2006 07:02
Games-Alak-0.19.tar.gz 2652326-Oct-2007 13:51
Games-AlphaBeta-0.4.6.tar.gz 1208001-Oct-2005 19:22
Games-Bingo-0.13.tar.gz 2062805-Mar-2005 10:00
Games-Bingo-0.15.tar.gz 2116526-Oct-2007 13:51
Games-Bingo-Bot-0.01.tar.gz 625525-Jun-2003 21:16
Games-Bingo-Print-0.02.tar.gz 578207-Jan-2004 19:38
Games-Bingo-Print-0.04.tar.gz 1155919-Mar-2007 20:39
Games-Dice-0.02.tar.gz 388420-Feb-2002 20:04
Games-Dissociate-0.17.tar.gz 1274321-Jul-2006 18:16
Games-Dissociate-0.18.tar.gz 1290907-Jul-2006 10:19
Games-Dissociate-0.19.tar.gz 2970321-Aug-2007 03:11
Games-GuessWord-0.15.tar.gz 387406-Feb-2002 17:38
Games-GuessWord-0.16.tar.gz 430712-Dec-2008 21:17
Games-LMSolve-0.8.1.tar.gz 2131830-Jul-2003 08:16
Games-LMSolve-0.8.3.tar.gz 2512627-Aug-2007 15:01
Games-LMSolve-0.8.4.tar.gz 3115628-Jun-2009 09:28
Games-Tournament-RoundRobin-0.01.tar.gz 979911-Feb-2006 01:49
Games-Tournament-RoundRobin-0.02.tar.gz 1120807-Mar-2009 07:08
Gantry-3.40.tar.gz 20182322-Sep-2006 13:17
Gantry-3.47.tar.gz 19218322-Jan-2007 15:19
Gantry-3.50.tar.gz 140195719-Jun-2007 19:14
Gantry-3.51.tar.gz 136850628-Aug-2007 18:41
Gantry-3.53.tar.gz 141391106-Jul-2008 19:02
Gantry-3.54.tar.gz 216292822-Mar-2009 19:01
Gantry-3.63.tar.gz 216821811-Jan-2010 18:53
Gantry-3.64.tar.gz 216835013-Jan-2010 17:34
Gateway-0.42.tar.gz 7697917-Apr-1998 05:22
Gato-0.98J.tar 65331215-Aug-2004 02:09
Gato-0.98Q.tar.gz 17857820-Jan-2006 14:16
Gato-0.99.tar.gz 18649405-Sep-2006 12:29
Gato-0.99D.tar.gz 19444401-Oct-2008 12:51
Gato-1.02.tar.gz 18232325-Feb-2010 20:45
Gauche-0.8.10.tgz 318485019-Apr-2007 14:16
Gauche-0.8.11.tgz 320482317-Aug-2007 06:36
Gauche-0.8.13.tgz 337733601-Mar-2008 18:44
Gauche-0.8.3.tgz 253487913-Dec-2004 07:48
Gauche-0.8.4.tgz 277243201-Jun-2005 00:45
Gauche-0.8.5.tgz 277109701-Jul-2005 12:24
Gauche-0.8.6.tgz 288180005-Nov-2005 10:11
Gauche-0.8.7.tgz 293970113-Apr-2006 04:46
Gauche-0.8.9.tgz 308064517-Jan-2007 19:23
Gauche-0.9.tgz 393849822-Nov-2009 10:35
Gauche-gl-0.3.1.tgz 21489615-Aug-2004 02:09
Gauche-gl-0.4.1.tgz 94013406-Nov-2005 06:00
Gauche-gl-0.4.2.tgz 94225111-Nov-2006 21:10
Gauche-gl-0.4.3.tgz 94239017-Jan-2007 19:23
Gauche-gl-0.4.4.tgz 94381910-Jul-2007 00:45
Gauche-gl-0.4.tgz 93939101-Jul-2005 12:24
Gauche-gtk-0.4.1.tgz 32494527-Jun-2004 04:32
Gauche-kakasi-0.1.tgz 5656802-Aug-2004 20:39
Gauche-sdl-0.5.1.tar.gz 12176615-Aug-2004 02:09
Gauche-sdl-0.5.1.tgz 14135905-Jun-2006 15:56
Gdtclft2.2.5.tar.gz 4725704-Aug-2000 21:14
GeSHi-1.0.8.2.tar.bz2 49935525-Dec-2008 16:29
Gearman-1.02.tar.gz 1587709-Jul-2006 20:46
Gearman-1.09.tar.gz 2320829-Jun-2007 20:34
Gearman-1.10.tar.gz 2703305-Oct-2009 03:00
Gearman-1.11.tar.gz 2717018-Jan-2010 03:15
Gearman-Client-Async-0.94.tar.gz 972717-May-2007 20:00
Gearman-Server-1.09.tar.gz 1128209-May-2007 21:25
Gearman-Server-1.10.tar.gz 1539005-Oct-2009 02:53
Gearman-Server-1.11.tar.gz 1555318-Jan-2010 03:17
Gearman-XS-0.10.tar.gz 8298709-Apr-2010 15:11
Gearman-XS-0.11.tar.gz 7606823-Aug-2010 12:29
Gearman-XS-0.2.tar.gz 1107103-Jun-2009 16:56
Gearman-XS-0.5.tar.gz 8121826-Aug-2009 09:14
Gearman-XS-0.7.tar.gz 8264426-Nov-2009 09:35
Genezzo-0.64.tar.gz 46262621-Aug-2006 21:41
Genezzo-0.68.tar.gz 47669229-Oct-2006 07:12
Genezzo-0.69.tar.gz 48086007-Mar-2007 07:11
Genezzo-0.70.tar.gz 48917025-Mar-2007 05:12
Genezzo-0.71.tar.gz 49616704-Jul-2007 08:14
Genezzo-0.72.tar.gz 50147001-Mar-2008 18:44
Gens212a1SrcL.zip 57264705-Jul-2003 15:12
Genshi-0.3.6.tar.gz 14334911-Dec-2006 12:21
Genshi-0.4.4.tar.gz 28408014-Aug-2007 09:21
Genshi-0.4.tar.gz 26178516-Apr-2007 14:34
Genshi-0.5.1.tar.gz 37563624-Aug-2009 20:03
Genshi-0.5.tar.gz 37340309-Jun-2008 10:47
Genshi-0.6.1052.tar.gz 26026705-May-2009 19:33
Genshi-0.6.tar.gz 43394629-Apr-2010 08:13
Geo-Cache-0.06.tar.gz 1137125-Jun-2004 02:52
Geo-Cache-0.11.tar.gz 9891615-Nov-2008 13:33
Geo-Caching-0.11.tar.gz 467106-Jul-2005 21:39
Geo-Coder-Google-0.03.tar.gz 357423-Jun-2007 20:55
Geo-Coder-Google-0.04.tar.gz 417916-Jan-2009 20:57
Geo-Coder-Google-0.05.tar.gz 436620-Mar-2009 23:56
Geo-Coder-Google-0.06.tar.gz 468416-Oct-2009 00:32
Geo-Coder-Multiple-0.59.tar.gz 507711-Mar-2010 13:06
Geo-Coder-Multiple-0.6.tar.gz 534523-Mar-2010 18:05
Geo-Coder-Multiple-0.61.tar.gz 578027-Mar-2010 01:14
Geo-Coordinates-UTM-0.08.tar.gz 5575106-Dec-2007 11:17
Geo-Coordinates-UTM-0.09.tar.gz 5229617-May-2010 15:44
Geo-Distance-0.06.tar.gz 923415-Aug-2004 02:09
Geo-Distance-0.11.tar.gz 968401-Sep-2005 14:31
Geo-Distance-0.14.tar.gz 2441215-Jul-2009 21:19
Geo-Distance-0.15.tar.gz 2532310-Sep-2009 04:22
Geo-Distance-0.16.tar.gz 2506010-Sep-2009 14:03
Geo-Distance-XS-0.05.tar.gz 4912005-Sep-2009 18:52
Geo-Distance-XS-0.07.tar.gz 4998716-Oct-2009 17:06
Geo-EOP-0.11.tar.gz 11248221-Jan-2009 11:43
Geo-EOP-0.13.tar.gz 11346729-Jan-2009 15:54
Geo-GML-0.11.tar.gz 46494712-Jun-2008 07:34
Geo-GML-0.13.tar.gz 46981821-Jan-2009 11:05
Geo-GML-0.14.tar.gz 46955103-Feb-2009 12:11
Geo-GML-0.15.tar.gz 47110419-Mar-2009 08:19
Geo-Gpx-0.23.tar.gz 1830708-Mar-2009 23:12
Geo-Gpx-0.24.tar.gz 1837710-Mar-2009 02:26
Geo-Gpx-0.25.tar.gz 2049006-May-2009 21:18
Geo-Gpx-0.26.tar.gz 2045229-May-2009 21:03
Geo-IP-1.25.tar.gz 1272524-Jan-2005 09:15
Geo-IP-1.26.tar.gz 1295821-Jul-2005 12:34
Geo-IP-1.27.tar.gz 1338608-Sep-2005 21:12
Geo-IP-1.28.tar.gz 1347004-Jul-2007 15:34
Geo-IP-1.30.tar.gz 2199701-Mar-2008 18:44
Geo-IP-1.31.tar.gz 2221023-Mar-2008 00:27
Geo-IP-1.33.tar.gz 2495805-May-2008 19:38
Geo-IP-1.34.tar.gz 5961605-Aug-2008 14:31
Geo-IP-1.35.tar.gz 6436730-Sep-2008 17:39
Geo-IP-1.36.tar.gz 6487421-Dec-2008 01:22
Geo-IP-1.38.tar.gz 6341818-May-2009 00:13
Geo-IP-PurePerl-1.18.tar.gz 1865109-Jan-2007 04:32
Geo-IP-PurePerl-1.19.tar.gz 1946023-Mar-2008 00:29
Geo-IP-PurePerl-1.20.tar.gz 1935004-Aug-2008 01:06
Geo-IP-PurePerl-1.21.tar.gz 1955010-Sep-2008 13:43
Geo-IP-PurePerl-1.22.tar.gz 1962530-Sep-2008 12:45
Geo-IP-PurePerl-1.23.tar.gz 2118415-Dec-2008 16:21
Geo-IP-PurePerl-1.24.tar.gz 2154722-Sep-2009 10:37
Geo-IP-PurePerl-1.25.tar.gz 2167430-Mar-2010 14:46
Geo-IPfree-0.2.tar.gz 14619528-Mar-2003 05:18
Geo-IPfree-0.3.tar.gz 38616219-Nov-2008 20:46
Geo-IPfree-0.4.tar.gz 38591901-Dec-2008 19:59
Geo-IPfree-0.5.tar.gz 38615103-Feb-2009 14:31
Geo-IPfree-0.6.tar.gz 38775011-May-2009 19:13
Geo-IPfree-0.7.tar.gz 41068214-Sep-2009 12:35
Geo-IPfree-0.8.tar.gz 41381207-Oct-2009 14:09
Geo-IPfree-1.100470.tar.gz 42321916-Feb-2010 12:48
Geo-KML-0.02.tar.gz 3195011-Aug-2008 13:40
Geo-KML-0.03.tar.gz 3306419-Mar-2009 08:24
Geo-KML-0.91.tar.gz 3821524-Sep-2010 21:38
Geo-METAR-1.14.tar.gz 1237525-Nov-2000 00:16
Geo-METAR-1.15.tar.gz 1600201-Mar-2008 18:44
Geo-Point-0.09.tar.gz 2271202-Jan-2009 19:12
Geo-Point-0.10.tar.gz 2293221-Jan-2009 09:06
Geo-Point-0.90.tar.gz 2308927-Jan-2009 15:46
Geo-Point-0.91.tar.gz 2228925-May-2009 20:24
Geo-Point-0.92.tar.gz 2240524-Dec-2009 11:10
Geo-Point-0.93.tar.gz 2262519-May-2010 21:33
Geo-Postcodes-0.10.tar.gz 818917-Aug-2006 13:03
Geo-Postcodes-0.32.tar.gz 2590001-Oct-2006 20:11
Geo-Postcodes-DK-0.10.tar.gz 2505017-Aug-2006 13:03
Geo-Postcodes-DK-0.31.tar.gz 2934424-Sep-2006 11:45
Geo-Postcodes-NO-0.10.tar.gz 6610217-Aug-2006 13:03
Geo-Postcodes-NO-0.31.tar.gz 7056224-Sep-2006 11:46
Geo-Proj4-0.96.tar.gz 1869812-Dec-2005 11:06
Geo-Proj4-0.98.tar.gz 2088809-Mar-2007 13:18
Geo-Proj4-0.99.tar.gz 1179908-Jun-2007 15:10
Geo-Proj4-1.00.tar.gz 1190402-Oct-2008 21:34
Geo-Proj4-1.01.tar.gz 1229327-Jan-2009 15:43
Geo-ReadGRIB-0.91.tar.gz 64425918-Mar-2009 05:03
Geo-ReadGRIB-0.98.tar.gz 64430121-Mar-2009 18:54
Geo-ReadGRIB-1.1.tar.gz 89265630-Oct-2009 23:58
Geo-ReadGRIB-1.2.tar.gz 89310507-Nov-2009 06:44
Geo-ReadGRIB-1.21.tar.gz 89405819-Nov-2009 02:02
Geo-ShapeFile-2.51.tar.gz 28297912-May-2005 15:22
Geo-ShapeFile-2.52.tar.gz 27858114-Sep-2007 14:45
Geo-Weather-1.41.tar.gz 874427-Aug-2003 17:02
Geo-WebService-Elevation-USGS-0.005.tar.gz 3063712-May-2009 23:20
Geo-WebService-Elevation-USGS-0.006.tar.gz 4757401-Jul-2010 00:24
GeoAPI-2_1_0.zip 747080007-Feb-2008 21:01
GeoAPI-2_1_1.zip 735180013-Jun-2008 10:22
GeoIP-1.3.14.tar.gz 67752607-Sep-2005 21:07
GeoIP-1.3.16.tar.gz 77702417-Apr-2006 16:24
GeoIP-1.3.17.tar.gz 77821721-Jul-2006 18:16
GeoIP-1.3.8.tar.gz 58553824-Jan-2005 09:15
GeoIP-1.4.0.tar.gz 80831407-Aug-2006 12:50
GeoIP-1.4.2.tar.gz 73608609-Feb-2007 00:56
GeoIP-1.4.3.tar.gz 91706201-Mar-2008 18:44
GeoIP-1.4.4.tar.gz 94469822-Jan-2008 02:54
GeoIP-1.4.5.tar.gz 98684416-Sep-2008 19:10
GeoIP-1.4.6.tar.gz 104524125-Feb-2009 16:21
GeoIP-Python-1.2.0.tar.gz 962215-Aug-2004 02:09
GeoIP-Python-1.2.1.tar.gz 977928-Jun-2005 13:21
GeoIP-Python-1.2.2.tar.gz 1327914-Aug-2008 15:35
GeoIP-Python-1.2.4.tar.gz 1453016-Dec-2008 12:40
GeoIPASNum.dat.gz 120302615-Jul-2009 10:23
GeoLiteCity.dat.gz 2628556115-Jul-2009 10:23
GeoTypes-0.7.0.tar.gz 4371728-Feb-2007 12:28
Geography-Countries-1.4.tar.gz 906726-Jan-2003 18:23
Geography-Countries-2009041301.tar.gz 1054513-Apr-2009 17:42
Geography-NationalGrid-1.6.tar.gz 1302926-Sep-2002 02:04
Geography-NationalGrid-TW-0.03.tar.gz 530528-Feb-2006 16:26
Geography-NationalGrid-TW-0.04.tar.gz 521701-Mar-2008 18:44
Geography-NationalGrid-TW-0.05.tar.gz 534017-Mar-2008 04:12
Geography-NationalGrid-TW-0.06.tar.gz 562728-Jun-2009 21:28
Geography-NationalGrid-TW-0.07.tar.gz 564806-Sep-2009 02:47
Geometry-Primitive-0.09.tar.gz 2585706-Aug-2008 21:58
Geometry-Primitive-0.10.tar.gz 2656005-Sep-2008 18:18
Geometry-Primitive-0.13.tar.gz 2045001-Oct-2008 21:38
Geometry-Primitive-0.16.tar.gz 2232117-May-2009 23:21
Geometry-Primitive-0.17.tar.gz 2249712-Sep-2009 03:23
Geometry-Primitive-0.18.tar.gz 2255103-Oct-2009 19:26
Geometry-Primitive-0.19.tar.gz 2253412-Nov-2009 13:27
Geometry-Primitive-0.20.tar.gz 2260827-Dec-2009 19:29
Geometry-Primitive-0.22.tar.gz 2302510-Jan-2010 00:52
German-French.cstack.gz 3255426-Oct-2004 10:23
German.zip 2165224-Jul-2008 09:05
GetLive_0_56.tgz 2562602-Dec-2007 15:28
GetLive_0_57.tgz 2669605-Jul-2008 20:48
GetLive_0_59.tgz 2848713-Mar-2010 15:32
Getargs-Long-0.1.3.tar.gz 1427715-Aug-2004 02:09
Getargs-Long-1.1001.tar.gz 4150506-Jun-2005 13:04
Getargs-Long-1.1002.tar.gz 4082801-Mar-2008 18:44
Getargs-Long-1.1003.tar.gz 2564416-Jul-2008 02:59
Getleft-1.2b2.tar.gz 50121405-Mar-2007 14:10
Getopt-ArgvFile-1.06.tgz 1148015-Aug-2004 02:09
Getopt-ArgvFile-1.10.tgz 1800706-Feb-2005 16:06
Getopt-ArgvFile-1.11.tar.gz 1946921-Apr-2007 18:44
Getopt-Compact-0.04.tar.gz 965804-Sep-2006 20:57
Getopt-Declare-1.11.tar.gz 3611003-Feb-2004 20:48
Getopt-Declare-1.12.tar.gz 3641202-Sep-2009 21:45
Getopt-Declare-1.13.tar.gz 3653928-Mar-2010 06:42
Getopt-Euclid-0.2.1.tar.gz 2607531-May-2009 17:05
Getopt-Euclid-v0.2.0.tar.gz 2566422-Feb-2008 06:28
Getopt-Euclid-v0.2.2.tar.gz 3285010-Sep-2010 07:04
Getopt-Euclid-v0.2.3.tar.gz 3361114-Sep-2010 12:02
Getopt-GUI-Long-0.91.tar.gz 1372623-Feb-2009 19:46
Getopt-Long-2.34.tar.gz 3312023-Sep-2003 20:44
Getopt-Long-2.35.tar.gz 3668914-Dec-2005 20:25
Getopt-Long-2.36.tar.gz 4122427-Jan-2007 20:04
Getopt-Long-2.37.tar.gz 4100601-Mar-2008 18:44
Getopt-Long-2.38.tar.gz 4120030-Mar-2009 20:56
Getopt-Long-Descriptive-0.074.tar.gz 800011-May-2008 11:47
Getopt-Long-Descriptive-0.077.tar.gz 916621-Aug-2009 13:53
Getopt-Long-Descriptive-0.081.tar.gz 1025527-Nov-2009 14:12
Getopt-Long-Descriptive-0.082.tar.gz 1031603-Dec-2009 16:10
Getopt-Long-Descriptive-0.083.tar.gz 1144912-Dec-2009 20:12
Getopt-Long-Descriptive-0.084.tar.gz 1151514-Feb-2010 19:38
Getopt-Long-Descriptive-0.085.tar.gz 1246413-Mar-2010 16:35
Getopt-Long-Descriptive-0.086.tar.gz 1256019-Sep-2010 12:16
Getopt-Lucid-0.16.tar.gz 4036201-Mar-2008 18:44
Getopt-Lucid-0.17.tar.gz 3919021-Feb-2008 12:29
Getopt-Lucid-0.18.tar.gz 4805312-Mar-2009 04:33
Getopt-Mixed-1.008.tar.gz 985609-Feb-1996 03:28
Getopt-Mixed-1.10.tar.gz 1119922-Mar-2007 00:18
Getopt-Popt-0.02.tar.gz 2216426-Nov-2004 22:21
Ghost-10.zip 1885623-Aug-2000 15:57
GiNaC-1.3.0.tar.bz2 76382713-Dec-2004 07:48
GiNaC-1.3.1.tar.bz2 76898104-May-2005 17:40
GimpUsersManual_SecondEdition-HTML_Color.tar.gz 426786607-Jan-2006 16:00
GimpUsersManual_SecondEdition-HTML_Search.tar.gz 2220011407-Jan-2006 16:00
GimpUsersManual_SecondEdition-PDF.pdf 996089607-Jan-2006 16:00
GimpUsers